<?xml version="1.0" encoding="UTF-8" standalone="yes"?>
<gpx
 xmlns="http://www.topografix.com/GPX/1/1"
 creator="OziExplorer Version 3956f - http://www.oziexplorer.com"
 version="1.1"
 xmlns:xsi="http://www.w3.org/2001/XMLSchema-instance"
 xsi:schemaLocation="http://www.topografix.com/GPX/1/1 http://www.topografix.com/GPX/1/1/gpx.xsd">
<metadata>
 <time>2023-01-25T11:56:43Z</time>
 <bounds minlat="31.741250" minlon="35.080760" maxlat="31.785440" maxlon="35.154030"/>
</metadata>
<wpt lat="31.7582651" lon="35.0895605">
 <time>2023-01-25T11:49:43.707Z</time>
 <name>StFin</name>
 <sym>Bike Trail</sym>
</wpt>
<wpt lat="31.7586282" lon="35.1471314">
 <time>2023-01-25T11:50:05.048Z</time>
 <name>IMBA</name>
 <sym>Flag, Red</sym>
</wpt>
<wpt lat="31.7622150" lon="35.1386932">
 <time>2023-01-25T11:51:02.886Z</time>
 <name>EinHandak</name>
 <sym>Flag, Red</sym>
</wpt>
<wpt lat="31.7729296" lon="35.0962874">
 <time>2023-01-25T11:52:56.162Z</time>
 <name>EinTayasim</name>
 <sym>Flag, Red</sym>
</wpt>
<wpt lat="31.7665139" lon="35.1441810">
 <time>2023-01-25T11:54:26.253Z</time>
 <name>DerehRomanit</name>
 <sym>Flag, Red</sym>
</wpt>
<wpt lat="31.7850514" lon="35.1256308">
 <time>2023-01-25T11:55:43.358Z</time>
 <name>RelTsuba</name>
 <sym>Flag, Red</sym>
</wpt>
<wpt lat="31.7589724" lon="35.0888953">
 <time>2023-01-25T11:56:18.751Z</time>
 <name>NahalSoreq</name>
 <sym>Flag, Red</sym>
</wpt>
<trk>
 <name>RefaimTayasimTsubaSatafIMBA,36km</name>
 <desc>RefaimTayasimTsubaSatafIMBA,36km</desc>
<trkseg>
<trkpt lat="31.7583000" lon="35.0894500">
<ele>414.540009</ele>
<time>2023-01-25T13:56:43.963Z</time>
</trkpt>
<trkpt lat="31.7583000" lon="35.0894500">
<ele>414.540009</ele>
<time>2023-01-25T13:56:43.963Z</time>
</trkpt>
<trkpt lat="31.7583000" lon="35.0894500">
<ele>414.540009</ele>
<time>2023-01-25T13:56:43.963Z</time>
</trkpt>
<trkpt lat="31.7583000" lon="35.0894500">
<ele>414.540009</ele>
<time>2023-01-25T13:56:43.963Z</time>
</trkpt>
<trkpt lat="31.7583000" lon="35.0894500">
<ele>414.540009</ele>
<time>2023-01-25T13:56:43.963Z</time>
</trkpt>
<trkpt lat="31.7583000" lon="35.0894500">
<ele>414.540009</ele>
<time>2023-01-25T13:56:43.963Z</time>
</trkpt>
<trkpt lat="31.7583000" lon="35.0894400">
<ele>414.459991</ele>
<time>2023-01-25T13:56:43.963Z</time>
</trkpt>
<trkpt lat="31.7583200" lon="35.0893400">
<ele>413.359985</ele>
<time>2023-01-25T13:56:43.963Z</time>
</trkpt>
<trkpt lat="31.7583500" lon="35.0892000">
<ele>411.820007</ele>
<time>2023-01-25T13:56:43.963Z</time>
</trkpt>
<trkpt lat="31.7584100" lon="35.0890800">
<ele>412.089996</ele>
<time>2023-01-25T13:56:43.963Z</time>
</trkpt>
<trkpt lat="31.7584700" lon="35.0890000">
<ele>412.470001</ele>
<time>2023-01-25T13:56:43.963Z</time>
</trkpt>
<trkpt lat="31.7585800" lon="35.0889900">
<ele>414.000000</ele>
<time>2023-01-25T13:56:43.963Z</time>
</trkpt>
<trkpt lat="31.7587000" lon="35.0889900">
<ele>414.459991</ele>
<time>2023-01-25T13:56:43.963Z</time>
</trkpt>
<trkpt lat="31.7588100" lon="35.0889600">
<ele>414.020020</ele>
<time>2023-01-25T13:56:43.963Z</time>
</trkpt>
<trkpt lat="31.7589100" lon="35.0889100">
<ele>413.580017</ele>
<time>2023-01-25T13:56:43.963Z</time>
</trkpt>
<trkpt lat="31.7589300" lon="35.0889000">
<ele>413.720001</ele>
<time>2023-01-25T13:56:43.963Z</time>
</trkpt>
<trkpt lat="31.7589300" lon="35.0889000">
<ele>413.720001</ele>
<time>2023-01-25T13:56:43.963Z</time>
</trkpt>
<trkpt lat="31.7589300" lon="35.0889000">
<ele>413.720001</ele>
<time>2023-01-25T13:56:43.963Z</time>
</trkpt>
<trkpt lat="31.7589300" lon="35.0889000">
<ele>413.720001</ele>
<time>2023-01-25T13:56:43.963Z</time>
</trkpt>
<trkpt lat="31.7589300" lon="35.0889000">
<ele>413.720001</ele>
<time>2023-01-25T13:56:43.963Z</time>
</trkpt>
<trkpt lat="31.7589300" lon="35.0889000">
<ele>413.720001</ele>
<time>2023-01-25T13:56:43.964Z</time>
</trkpt>
<trkpt lat="31.7589300" lon="35.0889000">
<ele>413.720001</ele>
<time>2023-01-25T13:56:43.964Z</time>
</trkpt>
<trkpt lat="31.7589200" lon="35.0889000">
<ele>413.589996</ele>
<time>2023-01-25T13:56:43.964Z</time>
</trkpt>
<trkpt lat="31.7589200" lon="35.0889100">
<ele>413.709991</ele>
<time>2023-01-25T13:56:43.966Z</time>
</trkpt>
<trkpt lat="31.7589200" lon="35.0889000">
<ele>413.589996</ele>
<time>2023-01-25T13:56:43.966Z</time>
</trkpt>
<trkpt lat="31.7589200" lon="35.0889000">
<ele>413.589996</ele>
<time>2023-01-25T13:56:43.966Z</time>
</trkpt>
<trkpt lat="31.7589200" lon="35.0889000">
<ele>413.589996</ele>
<time>2023-01-25T13:56:43.966Z</time>
</trkpt>
<trkpt lat="31.7589200" lon="35.0889000">
<ele>413.589996</ele>
<time>2023-01-25T13:56:43.966Z</time>
</trkpt>
<trkpt lat="31.7589200" lon="35.0889000">
<ele>413.589996</ele>
<time>2023-01-25T13:56:43.967Z</time>
</trkpt>
<trkpt lat="31.7589200" lon="35.0889000">
<ele>413.589996</ele>
<time>2023-01-25T13:56:43.967Z</time>
</trkpt>
<trkpt lat="31.7589100" lon="35.0889000">
<ele>413.450012</ele>
<time>2023-01-25T13:56:43.967Z</time>
</trkpt>
<trkpt lat="31.7589100" lon="35.0889000">
<ele>413.450012</ele>
<time>2023-01-25T13:56:43.967Z</time>
</trkpt>
<trkpt lat="31.7589000" lon="35.0889000">
<ele>413.309998</ele>
<time>2023-01-25T13:56:43.967Z</time>
</trkpt>
<trkpt lat="31.7589000" lon="35.0889000">
<ele>413.309998</ele>
<time>2023-01-25T13:56:43.967Z</time>
</trkpt>
<trkpt lat="31.7589000" lon="35.0889000">
<ele>413.309998</ele>
<time>2023-01-25T13:56:43.967Z</time>
</trkpt>
<trkpt lat="31.7588000" lon="35.0889000">
<ele>413.160004</ele>
<time>2023-01-25T13:56:43.967Z</time>
</trkpt>
<trkpt lat="31.7587100" lon="35.0889700">
<ele>414.169983</ele>
<time>2023-01-25T13:56:43.967Z</time>
</trkpt>
<trkpt lat="31.7586100" lon="35.0889700">
<ele>414.150024</ele>
<time>2023-01-25T13:56:43.967Z</time>
</trkpt>
<trkpt lat="31.7585200" lon="35.0889000">
<ele>412.140015</ele>
<time>2023-01-25T13:56:43.967Z</time>
</trkpt>
<trkpt lat="31.7585300" lon="35.0887900">
<ele>412.270020</ele>
<time>2023-01-25T13:56:43.967Z</time>
</trkpt>
<trkpt lat="31.7585700" lon="35.0886900">
<ele>413.059998</ele>
<time>2023-01-25T13:56:43.967Z</time>
</trkpt>
<trkpt lat="31.7586100" lon="35.0885800">
<ele>413.869995</ele>
<time>2023-01-25T13:56:43.967Z</time>
</trkpt>
<trkpt lat="31.7586300" lon="35.0884700">
<ele>413.589996</ele>
<time>2023-01-25T13:56:43.967Z</time>
</trkpt>
<trkpt lat="31.7586300" lon="35.0883600">
<ele>413.229980</ele>
<time>2023-01-25T13:56:43.967Z</time>
</trkpt>
<trkpt lat="31.7586100" lon="35.0882500">
<ele>412.990021</ele>
<time>2023-01-25T13:56:43.967Z</time>
</trkpt>
<trkpt lat="31.7585600" lon="35.0881300">
<ele>412.630005</ele>
<time>2023-01-25T13:56:43.967Z</time>
</trkpt>
<trkpt lat="31.7585200" lon="35.0880000">
<ele>412.610016</ele>
<time>2023-01-25T13:56:43.967Z</time>
</trkpt>
<trkpt lat="31.7584600" lon="35.0878900">
<ele>412.829987</ele>
<time>2023-01-25T13:56:43.967Z</time>
</trkpt>
<trkpt lat="31.7584000" lon="35.0877600">
<ele>413.299988</ele>
<time>2023-01-25T13:56:43.967Z</time>
</trkpt>
<trkpt lat="31.7583400" lon="35.0876500">
<ele>413.479980</ele>
<time>2023-01-25T13:56:43.968Z</time>
</trkpt>
<trkpt lat="31.7582800" lon="35.0875300">
<ele>413.699982</ele>
<time>2023-01-25T13:56:43.968Z</time>
</trkpt>
<trkpt lat="31.7582200" lon="35.0874000">
<ele>413.949982</ele>
<time>2023-01-25T13:56:43.968Z</time>
</trkpt>
<trkpt lat="31.7581600" lon="35.0872600">
<ele>414.240021</ele>
<time>2023-01-25T13:56:43.968Z</time>
</trkpt>
<trkpt lat="31.7580900" lon="35.0871300">
<ele>414.790009</ele>
<time>2023-01-25T13:56:43.968Z</time>
</trkpt>
<trkpt lat="31.7580200" lon="35.0870000">
<ele>415.470001</ele>
<time>2023-01-25T13:56:43.968Z</time>
</trkpt>
<trkpt lat="31.7579500" lon="35.0868700">
<ele>416.220001</ele>
<time>2023-01-25T13:56:43.968Z</time>
</trkpt>
<trkpt lat="31.7578800" lon="35.0867500">
<ele>416.580017</ele>
<time>2023-01-25T13:56:43.968Z</time>
</trkpt>
<trkpt lat="31.7578100" lon="35.0866300">
<ele>416.320007</ele>
<time>2023-01-25T13:56:43.968Z</time>
</trkpt>
<trkpt lat="31.7577300" lon="35.0865200">
<ele>416.089996</ele>
<time>2023-01-25T13:56:43.968Z</time>
</trkpt>
<trkpt lat="31.7576500" lon="35.0864100">
<ele>416.429993</ele>
<time>2023-01-25T13:56:43.968Z</time>
</trkpt>
<trkpt lat="31.7575800" lon="35.0862900">
<ele>416.460022</ele>
<time>2023-01-25T13:56:43.968Z</time>
</trkpt>
<trkpt lat="31.7574900" lon="35.0861800">
<ele>414.790009</ele>
<time>2023-01-25T13:56:43.968Z</time>
</trkpt>
<trkpt lat="31.7574100" lon="35.0860600">
<ele>415.329987</ele>
<time>2023-01-25T13:56:43.968Z</time>
</trkpt>
<trkpt lat="31.7573300" lon="35.0859400">
<ele>416.800018</ele>
<time>2023-01-25T13:56:43.968Z</time>
</trkpt>
<trkpt lat="31.7572600" lon="35.0858100">
<ele>417.400024</ele>
<time>2023-01-25T13:56:43.968Z</time>
</trkpt>
<trkpt lat="31.7571900" lon="35.0856900">
<ele>417.280029</ele>
<time>2023-01-25T13:56:43.968Z</time>
</trkpt>
<trkpt lat="31.7571200" lon="35.0855700">
<ele>416.880005</ele>
<time>2023-01-25T13:56:43.968Z</time>
</trkpt>
<trkpt lat="31.7570400" lon="35.0854500">
<ele>415.529999</ele>
<time>2023-01-25T13:56:43.968Z</time>
</trkpt>
<trkpt lat="31.7569500" lon="35.0853300">
<ele>413.470032</ele>
<time>2023-01-25T13:56:43.968Z</time>
</trkpt>
<trkpt lat="31.7568700" lon="35.0852200">
<ele>412.339996</ele>
<time>2023-01-25T13:56:43.968Z</time>
</trkpt>
<trkpt lat="31.7568100" lon="35.0851000">
<ele>412.809998</ele>
<time>2023-01-25T13:56:43.968Z</time>
</trkpt>
<trkpt lat="31.7567300" lon="35.0849900">
<ele>412.999969</ele>
<time>2023-01-25T13:56:43.968Z</time>
</trkpt>
<trkpt lat="31.7566500" lon="35.0848700">
<ele>412.640015</ele>
<time>2023-01-25T13:56:43.969Z</time>
</trkpt>
<trkpt lat="31.7565900" lon="35.0847500">
<ele>412.199982</ele>
<time>2023-01-25T13:56:43.969Z</time>
</trkpt>
<trkpt lat="31.7565400" lon="35.0846200">
<ele>411.299988</ele>
<time>2023-01-25T13:56:43.969Z</time>
</trkpt>
<trkpt lat="31.7565100" lon="35.0844700">
<ele>410.500000</ele>
<time>2023-01-25T13:56:43.969Z</time>
</trkpt>
<trkpt lat="31.7564800" lon="35.0843300">
<ele>409.360016</ele>
<time>2023-01-25T13:56:43.969Z</time>
</trkpt>
<trkpt lat="31.7564500" lon="35.0841900">
<ele>408.670013</ele>
<time>2023-01-25T13:56:43.969Z</time>
</trkpt>
<trkpt lat="31.7564300" lon="35.0840500">
<ele>407.309998</ele>
<time>2023-01-25T13:56:43.969Z</time>
</trkpt>
<trkpt lat="31.7564300" lon="35.0839100">
<ele>405.949982</ele>
<time>2023-01-25T13:56:43.969Z</time>
</trkpt>
<trkpt lat="31.7564300" lon="35.0837800">
<ele>406.069977</ele>
<time>2023-01-25T13:56:43.969Z</time>
</trkpt>
<trkpt lat="31.7564100" lon="35.0836400">
<ele>406.209991</ele>
<time>2023-01-25T13:56:43.969Z</time>
</trkpt>
<trkpt lat="31.7563800" lon="35.0835000">
<ele>406.339996</ele>
<time>2023-01-25T13:56:43.969Z</time>
</trkpt>
<trkpt lat="31.7563400" lon="35.0833600">
<ele>406.409973</ele>
<time>2023-01-25T13:56:43.969Z</time>
</trkpt>
<trkpt lat="31.7563000" lon="35.0832400">
<ele>405.489990</ele>
<time>2023-01-25T13:56:43.969Z</time>
</trkpt>
<trkpt lat="31.7563000" lon="35.0831200">
<ele>404.780029</ele>
<time>2023-01-25T13:56:43.969Z</time>
</trkpt>
<trkpt lat="31.7563400" lon="35.0830000">
<ele>405.029999</ele>
<time>2023-01-25T13:56:43.969Z</time>
</trkpt>
<trkpt lat="31.7564000" lon="35.0829000">
<ele>405.540009</ele>
<time>2023-01-25T13:56:43.969Z</time>
</trkpt>
<trkpt lat="31.7564700" lon="35.0828200">
<ele>405.979980</ele>
<time>2023-01-25T13:56:43.969Z</time>
</trkpt>
<trkpt lat="31.7565500" lon="35.0827600">
<ele>406.709991</ele>
<time>2023-01-25T13:56:43.970Z</time>
</trkpt>
<trkpt lat="31.7566100" lon="35.0826800">
<ele>407.320007</ele>
<time>2023-01-25T13:56:43.970Z</time>
</trkpt>
<trkpt lat="31.7566900" lon="35.0826100">
<ele>408.269989</ele>
<time>2023-01-25T13:56:43.970Z</time>
</trkpt>
<trkpt lat="31.7567500" lon="35.0825400">
<ele>408.729980</ele>
<time>2023-01-25T13:56:43.970Z</time>
</trkpt>
<trkpt lat="31.7568200" lon="35.0824600">
<ele>409.089996</ele>
<time>2023-01-25T13:56:43.970Z</time>
</trkpt>
<trkpt lat="31.7568900" lon="35.0823600">
<ele>409.299988</ele>
<time>2023-01-25T13:56:43.970Z</time>
</trkpt>
<trkpt lat="31.7569400" lon="35.0822500">
<ele>409.100006</ele>
<time>2023-01-25T13:56:43.970Z</time>
</trkpt>
<trkpt lat="31.7570000" lon="35.0821400">
<ele>409.290009</ele>
<time>2023-01-25T13:56:43.970Z</time>
</trkpt>
<trkpt lat="31.7570700" lon="35.0820400">
<ele>409.350006</ele>
<time>2023-01-25T13:56:43.970Z</time>
</trkpt>
<trkpt lat="31.7571500" lon="35.0819600">
<ele>409.409973</ele>
<time>2023-01-25T13:56:43.970Z</time>
</trkpt>
<trkpt lat="31.7572300" lon="35.0818900">
<ele>410.440002</ele>
<time>2023-01-25T13:56:43.970Z</time>
</trkpt>
<trkpt lat="31.7573100" lon="35.0818300">
<ele>412.999969</ele>
<time>2023-01-25T13:56:43.970Z</time>
</trkpt>
<trkpt lat="31.7574000" lon="35.0817600">
<ele>415.569977</ele>
<time>2023-01-25T13:56:43.970Z</time>
</trkpt>
<trkpt lat="31.7574800" lon="35.0817200">
<ele>417.660004</ele>
<time>2023-01-25T13:56:43.970Z</time>
</trkpt>
<trkpt lat="31.7575800" lon="35.0816700">
<ele>418.589996</ele>
<time>2023-01-25T13:56:43.970Z</time>
</trkpt>
<trkpt lat="31.7576700" lon="35.0816500">
<ele>419.450012</ele>
<time>2023-01-25T13:56:43.970Z</time>
</trkpt>
<trkpt lat="31.7577600" lon="35.0816200">
<ele>420.400024</ele>
<time>2023-01-25T13:56:43.970Z</time>
</trkpt>
<trkpt lat="31.7578600" lon="35.0816000">
<ele>420.790009</ele>
<time>2023-01-25T13:56:43.970Z</time>
</trkpt>
<trkpt lat="31.7579600" lon="35.0815800">
<ele>421.139984</ele>
<time>2023-01-25T13:56:43.970Z</time>
</trkpt>
<trkpt lat="31.7580500" lon="35.0815400">
<ele>421.809998</ele>
<time>2023-01-25T13:56:43.970Z</time>
</trkpt>
<trkpt lat="31.7581400" lon="35.0815100">
<ele>422.580017</ele>
<time>2023-01-25T13:56:43.970Z</time>
</trkpt>
<trkpt lat="31.7582400" lon="35.0814900">
<ele>422.910004</ele>
<time>2023-01-25T13:56:43.971Z</time>
</trkpt>
<trkpt lat="31.7583200" lon="35.0814300">
<ele>422.490021</ele>
<time>2023-01-25T13:56:43.971Z</time>
</trkpt>
<trkpt lat="31.7583900" lon="35.0813700">
<ele>423.409973</ele>
<time>2023-01-25T13:56:43.971Z</time>
</trkpt>
<trkpt lat="31.7584600" lon="35.0812900">
<ele>425.639984</ele>
<time>2023-01-25T13:56:43.971Z</time>
</trkpt>
<trkpt lat="31.7585200" lon="35.0812000">
<ele>427.619995</ele>
<time>2023-01-25T13:56:43.971Z</time>
</trkpt>
<trkpt lat="31.7585900" lon="35.0811200">
<ele>429.550018</ele>
<time>2023-01-25T13:56:43.971Z</time>
</trkpt>
<trkpt lat="31.7586700" lon="35.0810800">
<ele>431.669983</ele>
<time>2023-01-25T13:56:43.971Z</time>
</trkpt>
<trkpt lat="31.7587500" lon="35.0810100">
<ele>434.089996</ele>
<time>2023-01-25T13:56:43.971Z</time>
</trkpt>
<trkpt lat="31.7588200" lon="35.0809400">
<ele>436.049988</ele>
<time>2023-01-25T13:56:43.971Z</time>
</trkpt>
<trkpt lat="31.7588800" lon="35.0808400">
<ele>437.820007</ele>
<time>2023-01-25T13:56:43.971Z</time>
</trkpt>
<trkpt lat="31.7589400" lon="35.0807600">
<ele>438.790009</ele>
<time>2023-01-25T13:56:43.971Z</time>
</trkpt>
<trkpt lat="31.7590500" lon="35.0807800">
<ele>441.179993</ele>
<time>2023-01-25T13:56:43.971Z</time>
</trkpt>
<trkpt lat="31.7591100" lon="35.0808600">
<ele>442.580017</ele>
<time>2023-01-25T13:56:43.971Z</time>
</trkpt>
<trkpt lat="31.7591900" lon="35.0809300">
<ele>443.579987</ele>
<time>2023-01-25T13:56:43.971Z</time>
</trkpt>
<trkpt lat="31.7592400" lon="35.0810200">
<ele>443.359985</ele>
<time>2023-01-25T13:56:43.971Z</time>
</trkpt>
<trkpt lat="31.7592900" lon="35.0811100">
<ele>442.899994</ele>
<time>2023-01-25T13:56:43.971Z</time>
</trkpt>
<trkpt lat="31.7593500" lon="35.0812000">
<ele>442.899994</ele>
<time>2023-01-25T13:56:43.971Z</time>
</trkpt>
<trkpt lat="31.7594300" lon="35.0812800">
<ele>442.740021</ele>
<time>2023-01-25T13:56:43.971Z</time>
</trkpt>
<trkpt lat="31.7595000" lon="35.0813700">
<ele>443.350006</ele>
<time>2023-01-25T13:56:43.971Z</time>
</trkpt>
<trkpt lat="31.7595700" lon="35.0814600">
<ele>445.360016</ele>
<time>2023-01-25T13:56:43.971Z</time>
</trkpt>
<trkpt lat="31.7596200" lon="35.0815500">
<ele>447.169983</ele>
<time>2023-01-25T13:56:43.971Z</time>
</trkpt>
<trkpt lat="31.7596300" lon="35.0816700">
<ele>448.390015</ele>
<time>2023-01-25T13:56:43.972Z</time>
</trkpt>
<trkpt lat="31.7595900" lon="35.0817800">
<ele>449.450012</ele>
<time>2023-01-25T13:56:43.972Z</time>
</trkpt>
<trkpt lat="31.7595100" lon="35.0818400">
<ele>449.149994</ele>
<time>2023-01-25T13:56:43.972Z</time>
</trkpt>
<trkpt lat="31.7594300" lon="35.0819200">
<ele>449.410004</ele>
<time>2023-01-25T13:56:43.972Z</time>
</trkpt>
<trkpt lat="31.7593600" lon="35.0819900">
<ele>449.810028</ele>
<time>2023-01-25T13:56:43.972Z</time>
</trkpt>
<trkpt lat="31.7592800" lon="35.0820600">
<ele>449.810028</ele>
<time>2023-01-25T13:56:43.972Z</time>
</trkpt>
<trkpt lat="31.7592300" lon="35.0821500">
<ele>450.240021</ele>
<time>2023-01-25T13:56:43.972Z</time>
</trkpt>
<trkpt lat="31.7592000" lon="35.0822500">
<ele>451.119995</ele>
<time>2023-01-25T13:56:43.972Z</time>
</trkpt>
<trkpt lat="31.7592500" lon="35.0823200">
<ele>453.470001</ele>
<time>2023-01-25T13:56:43.972Z</time>
</trkpt>
<trkpt lat="31.7592500" lon="35.0823200">
<ele>453.470001</ele>
<time>2023-01-25T13:56:43.972Z</time>
</trkpt>
<trkpt lat="31.7593400" lon="35.0823400">
<ele>455.769989</ele>
<time>2023-01-25T13:56:43.972Z</time>
</trkpt>
<trkpt lat="31.7594300" lon="35.0823800">
<ele>458.660004</ele>
<time>2023-01-25T13:56:43.972Z</time>
</trkpt>
<trkpt lat="31.7595100" lon="35.0824500">
<ele>460.869995</ele>
<time>2023-01-25T13:56:43.972Z</time>
</trkpt>
<trkpt lat="31.7595800" lon="35.0825200">
<ele>462.290009</ele>
<time>2023-01-25T13:56:43.972Z</time>
</trkpt>
<trkpt lat="31.7596600" lon="35.0826000">
<ele>463.239990</ele>
<time>2023-01-25T13:56:43.972Z</time>
</trkpt>
<trkpt lat="31.7597200" lon="35.0826900">
<ele>464.059998</ele>
<time>2023-01-25T13:56:43.972Z</time>
</trkpt>
<trkpt lat="31.7597900" lon="35.0827700">
<ele>465.149994</ele>
<time>2023-01-25T13:56:43.972Z</time>
</trkpt>
<trkpt lat="31.7598800" lon="35.0828200">
<ele>466.179993</ele>
<time>2023-01-25T13:56:43.972Z</time>
</trkpt>
<trkpt lat="31.7599700" lon="35.0828500">
<ele>466.930023</ele>
<time>2023-01-25T13:56:43.973Z</time>
</trkpt>
<trkpt lat="31.7600600" lon="35.0828600">
<ele>467.309998</ele>
<time>2023-01-25T13:56:43.973Z</time>
</trkpt>
<trkpt lat="31.7601600" lon="35.0828500">
<ele>467.339996</ele>
<time>2023-01-25T13:56:43.973Z</time>
</trkpt>
<trkpt lat="31.7602600" lon="35.0828400">
<ele>467.320007</ele>
<time>2023-01-25T13:56:43.973Z</time>
</trkpt>
<trkpt lat="31.7603600" lon="35.0828100">
<ele>467.289978</ele>
<time>2023-01-25T13:56:43.973Z</time>
</trkpt>
<trkpt lat="31.7604500" lon="35.0827900">
<ele>467.500000</ele>
<time>2023-01-25T13:56:43.973Z</time>
</trkpt>
<trkpt lat="31.7605600" lon="35.0827500">
<ele>468.040009</ele>
<time>2023-01-25T13:56:43.973Z</time>
</trkpt>
<trkpt lat="31.7606400" lon="35.0827200">
<ele>468.789978</ele>
<time>2023-01-25T13:56:43.973Z</time>
</trkpt>
<trkpt lat="31.7607400" lon="35.0827000">
<ele>469.619995</ele>
<time>2023-01-25T13:56:43.973Z</time>
</trkpt>
<trkpt lat="31.7608300" lon="35.0826700">
<ele>470.199982</ele>
<time>2023-01-25T13:56:43.973Z</time>
</trkpt>
<trkpt lat="31.7609100" lon="35.0826100">
<ele>471.839996</ele>
<time>2023-01-25T13:56:43.973Z</time>
</trkpt>
<trkpt lat="31.7609400" lon="35.0825100">
<ele>472.470001</ele>
<time>2023-01-25T13:56:43.973Z</time>
</trkpt>
<trkpt lat="31.7609200" lon="35.0824000">
<ele>472.279999</ele>
<time>2023-01-25T13:56:43.973Z</time>
</trkpt>
<trkpt lat="31.7609100" lon="35.0822900">
<ele>472.450012</ele>
<time>2023-01-25T13:56:43.973Z</time>
</trkpt>
<trkpt lat="31.7609000" lon="35.0821800">
<ele>472.589996</ele>
<time>2023-01-25T13:56:43.973Z</time>
</trkpt>
<trkpt lat="31.7609300" lon="35.0820700">
<ele>474.000031</ele>
<time>2023-01-25T13:56:43.973Z</time>
</trkpt>
<trkpt lat="31.7610100" lon="35.0819900">
<ele>476.440002</ele>
<time>2023-01-25T13:56:43.973Z</time>
</trkpt>
<trkpt lat="31.7611000" lon="35.0819900">
<ele>478.859985</ele>
<time>2023-01-25T13:56:43.973Z</time>
</trkpt>
<trkpt lat="31.7611700" lon="35.0820500">
<ele>481.000000</ele>
<time>2023-01-25T13:56:43.973Z</time>
</trkpt>
<trkpt lat="31.7612300" lon="35.0821300">
<ele>482.809998</ele>
<time>2023-01-25T13:56:43.973Z</time>
</trkpt>
<trkpt lat="31.7612800" lon="35.0822300">
<ele>484.180023</ele>
<time>2023-01-25T13:56:43.973Z</time>
</trkpt>
<trkpt lat="31.7613300" lon="35.0823300">
<ele>484.429993</ele>
<time>2023-01-25T13:56:43.973Z</time>
</trkpt>
<trkpt lat="31.7613600" lon="35.0824400">
<ele>484.000000</ele>
<time>2023-01-25T13:56:43.973Z</time>
</trkpt>
<trkpt lat="31.7614100" lon="35.0825500">
<ele>484.220001</ele>
<time>2023-01-25T13:56:43.973Z</time>
</trkpt>
<trkpt lat="31.7614600" lon="35.0826400">
<ele>484.779999</ele>
<time>2023-01-25T13:56:43.973Z</time>
</trkpt>
<trkpt lat="31.7615000" lon="35.0827400">
<ele>484.779999</ele>
<time>2023-01-25T13:56:43.973Z</time>
</trkpt>
<trkpt lat="31.7615100" lon="35.0828600">
<ele>484.230011</ele>
<time>2023-01-25T13:56:43.973Z</time>
</trkpt>
<trkpt lat="31.7614600" lon="35.0829600">
<ele>483.030029</ele>
<time>2023-01-25T13:56:43.973Z</time>
</trkpt>
<trkpt lat="31.7613800" lon="35.0830100">
<ele>481.889984</ele>
<time>2023-01-25T13:56:43.974Z</time>
</trkpt>
<trkpt lat="31.7613200" lon="35.0831000">
<ele>481.500000</ele>
<time>2023-01-25T13:56:43.974Z</time>
</trkpt>
<trkpt lat="31.7612800" lon="35.0832100">
<ele>481.820007</ele>
<time>2023-01-25T13:56:43.974Z</time>
</trkpt>
<trkpt lat="31.7612400" lon="35.0833100">
<ele>482.290009</ele>
<time>2023-01-25T13:56:43.974Z</time>
</trkpt>
<trkpt lat="31.7612100" lon="35.0834200">
<ele>482.869995</ele>
<time>2023-01-25T13:56:43.974Z</time>
</trkpt>
<trkpt lat="31.7612000" lon="35.0835300">
<ele>483.509979</ele>
<time>2023-01-25T13:56:43.974Z</time>
</trkpt>
<trkpt lat="31.7612100" lon="35.0836400">
<ele>484.270020</ele>
<time>2023-01-25T13:56:43.974Z</time>
</trkpt>
<trkpt lat="31.7612300" lon="35.0837500">
<ele>485.290009</ele>
<time>2023-01-25T13:56:43.974Z</time>
</trkpt>
<trkpt lat="31.7612800" lon="35.0838500">
<ele>486.059998</ele>
<time>2023-01-25T13:56:43.974Z</time>
</trkpt>
<trkpt lat="31.7613200" lon="35.0839500">
<ele>486.299988</ele>
<time>2023-01-25T13:56:43.974Z</time>
</trkpt>
<trkpt lat="31.7613700" lon="35.0840500">
<ele>486.529999</ele>
<time>2023-01-25T13:56:43.974Z</time>
</trkpt>
<trkpt lat="31.7614200" lon="35.0841400">
<ele>487.470001</ele>
<time>2023-01-25T13:56:43.974Z</time>
</trkpt>
<trkpt lat="31.7614700" lon="35.0842400">
<ele>488.680023</ele>
<time>2023-01-25T13:56:43.974Z</time>
</trkpt>
<trkpt lat="31.7615200" lon="35.0843500">
<ele>489.429993</ele>
<time>2023-01-25T13:56:43.974Z</time>
</trkpt>
<trkpt lat="31.7615700" lon="35.0844400">
<ele>489.660004</ele>
<time>2023-01-25T13:56:43.974Z</time>
</trkpt>
<trkpt lat="31.7616200" lon="35.0845300">
<ele>490.040009</ele>
<time>2023-01-25T13:56:43.974Z</time>
</trkpt>
<trkpt lat="31.7616600" lon="35.0846300">
<ele>490.610016</ele>
<time>2023-01-25T13:56:43.974Z</time>
</trkpt>
<trkpt lat="31.7617200" lon="35.0847200">
<ele>492.150024</ele>
<time>2023-01-25T13:56:43.974Z</time>
</trkpt>
<trkpt lat="31.7617800" lon="35.0848100">
<ele>493.510010</ele>
<time>2023-01-25T13:56:43.974Z</time>
</trkpt>
<trkpt lat="31.7618300" lon="35.0849100">
<ele>494.410004</ele>
<time>2023-01-25T13:56:43.975Z</time>
</trkpt>
<trkpt lat="31.7619100" lon="35.0849900">
<ele>495.529999</ele>
<time>2023-01-25T13:56:43.975Z</time>
</trkpt>
<trkpt lat="31.7619800" lon="35.0850700">
<ele>496.229980</ele>
<time>2023-01-25T13:56:43.975Z</time>
</trkpt>
<trkpt lat="31.7620500" lon="35.0851700">
<ele>496.680023</ele>
<time>2023-01-25T13:56:43.975Z</time>
</trkpt>
<trkpt lat="31.7621100" lon="35.0852700">
<ele>496.829987</ele>
<time>2023-01-25T13:56:43.975Z</time>
</trkpt>
<trkpt lat="31.7621600" lon="35.0853800">
<ele>496.799988</ele>
<time>2023-01-25T13:56:43.975Z</time>
</trkpt>
<trkpt lat="31.7621900" lon="35.0854700">
<ele>496.799988</ele>
<time>2023-01-25T13:56:43.975Z</time>
</trkpt>
<trkpt lat="31.7622000" lon="35.0856000">
<ele>496.750000</ele>
<time>2023-01-25T13:56:43.975Z</time>
</trkpt>
<trkpt lat="31.7621900" lon="35.0857000">
<ele>496.880005</ele>
<time>2023-01-25T13:56:43.975Z</time>
</trkpt>
<trkpt lat="31.7621700" lon="35.0858100">
<ele>496.799988</ele>
<time>2023-01-25T13:56:43.975Z</time>
</trkpt>
<trkpt lat="31.7621700" lon="35.0859400">
<ele>497.259979</ele>
<time>2023-01-25T13:56:43.975Z</time>
</trkpt>
<trkpt lat="31.7622000" lon="35.0860500">
<ele>498.299988</ele>
<time>2023-01-25T13:56:43.975Z</time>
</trkpt>
<trkpt lat="31.7622400" lon="35.0861600">
<ele>499.609985</ele>
<time>2023-01-25T13:56:43.975Z</time>
</trkpt>
<trkpt lat="31.7623000" lon="35.0862800">
<ele>501.290009</ele>
<time>2023-01-25T13:56:43.975Z</time>
</trkpt>
<trkpt lat="31.7623600" lon="35.0863800">
<ele>502.519989</ele>
<time>2023-01-25T13:56:43.975Z</time>
</trkpt>
<trkpt lat="31.7624400" lon="35.0864900">
<ele>502.750000</ele>
<time>2023-01-25T13:56:43.975Z</time>
</trkpt>
<trkpt lat="31.7625300" lon="35.0865800">
<ele>503.499969</ele>
<time>2023-01-25T13:56:43.975Z</time>
</trkpt>
<trkpt lat="31.7626200" lon="35.0866500">
<ele>505.160004</ele>
<time>2023-01-25T13:56:43.975Z</time>
</trkpt>
<trkpt lat="31.7627000" lon="35.0867300">
<ele>506.000000</ele>
<time>2023-01-25T13:56:43.975Z</time>
</trkpt>
<trkpt lat="31.7627800" lon="35.0867900">
<ele>506.060028</ele>
<time>2023-01-25T13:56:43.975Z</time>
</trkpt>
<trkpt lat="31.7628500" lon="35.0868600">
<ele>505.380005</ele>
<time>2023-01-25T13:56:43.975Z</time>
</trkpt>
<trkpt lat="31.7629200" lon="35.0869300">
<ele>504.569977</ele>
<time>2023-01-25T13:56:43.975Z</time>
</trkpt>
<trkpt lat="31.7630000" lon="35.0870100">
<ele>505.089996</ele>
<time>2023-01-25T13:56:43.975Z</time>
</trkpt>
<trkpt lat="31.7630800" lon="35.0870900">
<ele>505.290009</ele>
<time>2023-01-25T13:56:43.976Z</time>
</trkpt>
<trkpt lat="31.7631600" lon="35.0871900">
<ele>504.430023</ele>
<time>2023-01-25T13:56:43.976Z</time>
</trkpt>
<trkpt lat="31.7632200" lon="35.0873100">
<ele>504.559998</ele>
<time>2023-01-25T13:56:43.976Z</time>
</trkpt>
<trkpt lat="31.7632100" lon="35.0874300">
<ele>504.940002</ele>
<time>2023-01-25T13:56:43.976Z</time>
</trkpt>
<trkpt lat="31.7631100" lon="35.0874900">
<ele>503.769989</ele>
<time>2023-01-25T13:56:43.976Z</time>
</trkpt>
<trkpt lat="31.7630200" lon="35.0875100">
<ele>502.949982</ele>
<time>2023-01-25T13:56:43.976Z</time>
</trkpt>
<trkpt lat="31.7629300" lon="35.0875300">
<ele>502.599976</ele>
<time>2023-01-25T13:56:43.976Z</time>
</trkpt>
<trkpt lat="31.7628200" lon="35.0875400">
<ele>501.799988</ele>
<time>2023-01-25T13:56:43.976Z</time>
</trkpt>
<trkpt lat="31.7627100" lon="35.0875600">
<ele>498.559998</ele>
<time>2023-01-25T13:56:43.976Z</time>
</trkpt>
<trkpt lat="31.7626000" lon="35.0875900">
<ele>493.669983</ele>
<time>2023-01-25T13:56:43.976Z</time>
</trkpt>
<trkpt lat="31.7624600" lon="35.0876200">
<ele>488.160004</ele>
<time>2023-01-25T13:56:43.976Z</time>
</trkpt>
<trkpt lat="31.7623700" lon="35.0876300">
<ele>486.350006</ele>
<time>2023-01-25T13:56:43.976Z</time>
</trkpt>
<trkpt lat="31.7622600" lon="35.0876500">
<ele>484.419983</ele>
<time>2023-01-25T13:56:43.976Z</time>
</trkpt>
<trkpt lat="31.7621600" lon="35.0876800">
<ele>484.919983</ele>
<time>2023-01-25T13:56:43.976Z</time>
</trkpt>
<trkpt lat="31.7620700" lon="35.0877200">
<ele>486.399994</ele>
<time>2023-01-25T13:56:43.976Z</time>
</trkpt>
<trkpt lat="31.7619600" lon="35.0877600">
<ele>487.750000</ele>
<time>2023-01-25T13:56:43.976Z</time>
</trkpt>
<trkpt lat="31.7618700" lon="35.0878000">
<ele>488.089996</ele>
<time>2023-01-25T13:56:43.976Z</time>
</trkpt>
<trkpt lat="31.7617800" lon="35.0878400">
<ele>488.259979</ele>
<time>2023-01-25T13:56:43.976Z</time>
</trkpt>
<trkpt lat="31.7616900" lon="35.0879100">
<ele>488.589996</ele>
<time>2023-01-25T13:56:43.976Z</time>
</trkpt>
<trkpt lat="31.7616200" lon="35.0879900">
<ele>489.379974</ele>
<time>2023-01-25T13:56:43.976Z</time>
</trkpt>
<trkpt lat="31.7615400" lon="35.0880600">
<ele>490.589996</ele>
<time>2023-01-25T13:56:43.976Z</time>
</trkpt>
<trkpt lat="31.7614700" lon="35.0881400">
<ele>493.009979</ele>
<time>2023-01-25T13:56:43.976Z</time>
</trkpt>
<trkpt lat="31.7614100" lon="35.0882400">
<ele>495.669983</ele>
<time>2023-01-25T13:56:43.976Z</time>
</trkpt>
<trkpt lat="31.7613600" lon="35.0883600">
<ele>498.019989</ele>
<time>2023-01-25T13:56:43.976Z</time>
</trkpt>
<trkpt lat="31.7613000" lon="35.0884600">
<ele>499.399994</ele>
<time>2023-01-25T13:56:43.977Z</time>
</trkpt>
<trkpt lat="31.7612500" lon="35.0885700">
<ele>501.239990</ele>
<time>2023-01-25T13:56:43.977Z</time>
</trkpt>
<trkpt lat="31.7612000" lon="35.0886700">
<ele>502.089996</ele>
<time>2023-01-25T13:56:43.977Z</time>
</trkpt>
<trkpt lat="31.7611600" lon="35.0887800">
<ele>503.410004</ele>
<time>2023-01-25T13:56:43.977Z</time>
</trkpt>
<trkpt lat="31.7611200" lon="35.0889000">
<ele>505.210022</ele>
<time>2023-01-25T13:56:43.977Z</time>
</trkpt>
<trkpt lat="31.7610800" lon="35.0890100">
<ele>504.529999</ele>
<time>2023-01-25T13:56:43.977Z</time>
</trkpt>
<trkpt lat="31.7610400" lon="35.0891000">
<ele>503.849976</ele>
<time>2023-01-25T13:56:43.977Z</time>
</trkpt>
<trkpt lat="31.7610200" lon="35.0892200">
<ele>504.279999</ele>
<time>2023-01-25T13:56:43.977Z</time>
</trkpt>
<trkpt lat="31.7610000" lon="35.0893300">
<ele>504.959991</ele>
<time>2023-01-25T13:56:43.977Z</time>
</trkpt>
<trkpt lat="31.7609700" lon="35.0894400">
<ele>505.399994</ele>
<time>2023-01-25T13:56:43.977Z</time>
</trkpt>
<trkpt lat="31.7609400" lon="35.0895400">
<ele>505.980011</ele>
<time>2023-01-25T13:56:43.977Z</time>
</trkpt>
<trkpt lat="31.7609100" lon="35.0896500">
<ele>506.559998</ele>
<time>2023-01-25T13:56:43.977Z</time>
</trkpt>
<trkpt lat="31.7608800" lon="35.0897500">
<ele>507.260010</ele>
<time>2023-01-25T13:56:43.977Z</time>
</trkpt>
<trkpt lat="31.7608800" lon="35.0897600">
<ele>507.529999</ele>
<time>2023-01-25T13:56:43.977Z</time>
</trkpt>
<trkpt lat="31.7608800" lon="35.0897600">
<ele>507.529999</ele>
<time>2023-01-25T13:56:43.977Z</time>
</trkpt>
<trkpt lat="31.7608800" lon="35.0897600">
<ele>507.529999</ele>
<time>2023-01-25T13:56:43.977Z</time>
</trkpt>
<trkpt lat="31.7608800" lon="35.0897600">
<ele>507.529999</ele>
<time>2023-01-25T13:56:43.977Z</time>
</trkpt>
<trkpt lat="31.7608800" lon="35.0897600">
<ele>507.529999</ele>
<time>2023-01-25T13:56:43.977Z</time>
</trkpt>
<trkpt lat="31.7608800" lon="35.0897500">
<ele>507.260010</ele>
<time>2023-01-25T13:56:43.977Z</time>
</trkpt>
<trkpt lat="31.7608800" lon="35.0897500">
<ele>507.260010</ele>
<time>2023-01-25T13:56:43.977Z</time>
</trkpt>
<trkpt lat="31.7608700" lon="35.0897500">
<ele>506.929993</ele>
<time>2023-01-25T13:56:43.978Z</time>
</trkpt>
<trkpt lat="31.7608800" lon="35.0897500">
<ele>507.260010</ele>
<time>2023-01-25T13:56:43.978Z</time>
</trkpt>
<trkpt lat="31.7608700" lon="35.0897500">
<ele>506.929993</ele>
<time>2023-01-25T13:56:43.978Z</time>
</trkpt>
<trkpt lat="31.7608700" lon="35.0897500">
<ele>506.929993</ele>
<time>2023-01-25T13:56:43.978Z</time>
</trkpt>
<trkpt lat="31.7608700" lon="35.0897500">
<ele>506.929993</ele>
<time>2023-01-25T13:56:43.978Z</time>
</trkpt>
<trkpt lat="31.7608700" lon="35.0897500">
<ele>506.929993</ele>
<time>2023-01-25T13:56:43.978Z</time>
</trkpt>
<trkpt lat="31.7608800" lon="35.0897500">
<ele>507.260010</ele>
<time>2023-01-25T13:56:43.978Z</time>
</trkpt>
<trkpt lat="31.7608700" lon="35.0897500">
<ele>506.929993</ele>
<time>2023-01-25T13:56:43.978Z</time>
</trkpt>
<trkpt lat="31.7608800" lon="35.0897500">
<ele>507.260010</ele>
<time>2023-01-25T13:56:43.978Z</time>
</trkpt>
<trkpt lat="31.7608800" lon="35.0897500">
<ele>507.260010</ele>
<time>2023-01-25T13:56:43.978Z</time>
</trkpt>
<trkpt lat="31.7608800" lon="35.0897500">
<ele>507.260010</ele>
<time>2023-01-25T13:56:43.978Z</time>
</trkpt>
<trkpt lat="31.7608800" lon="35.0898600">
<ele>510.229980</ele>
<time>2023-01-25T13:56:43.978Z</time>
</trkpt>
<trkpt lat="31.7608300" lon="35.0899500">
<ele>510.619995</ele>
<time>2023-01-25T13:56:43.978Z</time>
</trkpt>
<trkpt lat="31.7607900" lon="35.0900600">
<ele>510.940002</ele>
<time>2023-01-25T13:56:43.978Z</time>
</trkpt>
<trkpt lat="31.7607800" lon="35.0901800">
<ele>511.619995</ele>
<time>2023-01-25T13:56:43.978Z</time>
</trkpt>
<trkpt lat="31.7607400" lon="35.0903000">
<ele>511.500031</ele>
<time>2023-01-25T13:56:43.978Z</time>
</trkpt>
<trkpt lat="31.7607200" lon="35.0904000">
<ele>511.800018</ele>
<time>2023-01-25T13:56:43.978Z</time>
</trkpt>
<trkpt lat="31.7607300" lon="35.0905100">
<ele>513.010010</ele>
<time>2023-01-25T13:56:43.978Z</time>
</trkpt>
<trkpt lat="31.7607600" lon="35.0906200">
<ele>513.980042</ele>
<time>2023-01-25T13:56:43.978Z</time>
</trkpt>
<trkpt lat="31.7608000" lon="35.0907200">
<ele>514.640015</ele>
<time>2023-01-25T13:56:43.979Z</time>
</trkpt>
<trkpt lat="31.7608800" lon="35.0908200">
<ele>516.899963</ele>
<time>2023-01-25T13:56:43.979Z</time>
</trkpt>
<trkpt lat="31.7609600" lon="35.0909300">
<ele>517.729980</ele>
<time>2023-01-25T13:56:43.979Z</time>
</trkpt>
<trkpt lat="31.7610600" lon="35.0910100">
<ele>517.510010</ele>
<time>2023-01-25T13:56:43.979Z</time>
</trkpt>
<trkpt lat="31.7611700" lon="35.0910900">
<ele>516.429993</ele>
<time>2023-01-25T13:56:43.979Z</time>
</trkpt>
<trkpt lat="31.7612600" lon="35.0911600">
<ele>514.679993</ele>
<time>2023-01-25T13:56:43.979Z</time>
</trkpt>
<trkpt lat="31.7613400" lon="35.0912200">
<ele>513.040039</ele>
<time>2023-01-25T13:56:43.979Z</time>
</trkpt>
<trkpt lat="31.7614200" lon="35.0912900">
<ele>511.930023</ele>
<time>2023-01-25T13:56:43.979Z</time>
</trkpt>
<trkpt lat="31.7615000" lon="35.0913700">
<ele>512.910034</ele>
<time>2023-01-25T13:56:43.979Z</time>
</trkpt>
<trkpt lat="31.7615800" lon="35.0914300">
<ele>514.929993</ele>
<time>2023-01-25T13:56:43.979Z</time>
</trkpt>
<trkpt lat="31.7616600" lon="35.0914900">
<ele>515.929993</ele>
<time>2023-01-25T13:56:43.979Z</time>
</trkpt>
<trkpt lat="31.7617500" lon="35.0915600">
<ele>517.510010</ele>
<time>2023-01-25T13:56:43.979Z</time>
</trkpt>
<trkpt lat="31.7618400" lon="35.0916200">
<ele>522.219971</ele>
<time>2023-01-25T13:56:43.979Z</time>
</trkpt>
<trkpt lat="31.7619200" lon="35.0916800">
<ele>527.630005</ele>
<time>2023-01-25T13:56:43.979Z</time>
</trkpt>
<trkpt lat="31.7620100" lon="35.0917400">
<ele>527.210022</ele>
<time>2023-01-25T13:56:43.979Z</time>
</trkpt>
<trkpt lat="31.7621100" lon="35.0918000">
<ele>525.809998</ele>
<time>2023-01-25T13:56:43.979Z</time>
</trkpt>
<trkpt lat="31.7622000" lon="35.0918500">
<ele>525.440002</ele>
<time>2023-01-25T13:56:43.980Z</time>
</trkpt>
<trkpt lat="31.7622800" lon="35.0919100">
<ele>522.570007</ele>
<time>2023-01-25T13:56:43.980Z</time>
</trkpt>
<trkpt lat="31.7623700" lon="35.0919500">
<ele>520.349976</ele>
<time>2023-01-25T13:56:43.980Z</time>
</trkpt>
<trkpt lat="31.7624700" lon="35.0920000">
<ele>519.219971</ele>
<time>2023-01-25T13:56:43.980Z</time>
</trkpt>
<trkpt lat="31.7625700" lon="35.0920400">
<ele>520.059998</ele>
<time>2023-01-25T13:56:43.980Z</time>
</trkpt>
<trkpt lat="31.7626600" lon="35.0921000">
<ele>521.289978</ele>
<time>2023-01-25T13:56:43.980Z</time>
</trkpt>
<trkpt lat="31.7627200" lon="35.0922100">
<ele>521.649963</ele>
<time>2023-01-25T13:56:43.980Z</time>
</trkpt>
<trkpt lat="31.7627400" lon="35.0923300">
<ele>521.659973</ele>
<time>2023-01-25T13:56:43.980Z</time>
</trkpt>
<trkpt lat="31.7627300" lon="35.0924600">
<ele>520.940002</ele>
<time>2023-01-25T13:56:43.980Z</time>
</trkpt>
<trkpt lat="31.7627300" lon="35.0925900">
<ele>519.880005</ele>
<time>2023-01-25T13:56:43.980Z</time>
</trkpt>
<trkpt lat="31.7627400" lon="35.0927300">
<ele>518.679993</ele>
<time>2023-01-25T13:56:43.980Z</time>
</trkpt>
<trkpt lat="31.7627700" lon="35.0928600">
<ele>518.539978</ele>
<time>2023-01-25T13:56:43.980Z</time>
</trkpt>
<trkpt lat="31.7628100" lon="35.0929900">
<ele>519.540039</ele>
<time>2023-01-25T13:56:43.980Z</time>
</trkpt>
<trkpt lat="31.7628400" lon="35.0930900">
<ele>520.309998</ele>
<time>2023-01-25T13:56:43.980Z</time>
</trkpt>
<trkpt lat="31.7628800" lon="35.0932000">
<ele>521.340027</ele>
<time>2023-01-25T13:56:43.980Z</time>
</trkpt>
<trkpt lat="31.7629200" lon="35.0932900">
<ele>522.359985</ele>
<time>2023-01-25T13:56:43.980Z</time>
</trkpt>
<trkpt lat="31.7629600" lon="35.0934300">
<ele>523.559998</ele>
<time>2023-01-25T13:56:43.980Z</time>
</trkpt>
<trkpt lat="31.7629700" lon="35.0935400">
<ele>523.919983</ele>
<time>2023-01-25T13:56:43.980Z</time>
</trkpt>
<trkpt lat="31.7629700" lon="35.0936700">
<ele>524.260010</ele>
<time>2023-01-25T13:56:43.980Z</time>
</trkpt>
<trkpt lat="31.7629600" lon="35.0938000">
<ele>524.710022</ele>
<time>2023-01-25T13:56:43.980Z</time>
</trkpt>
<trkpt lat="31.7629400" lon="35.0939000">
<ele>524.720032</ele>
<time>2023-01-25T13:56:43.980Z</time>
</trkpt>
<trkpt lat="31.7629300" lon="35.0940200">
<ele>525.020020</ele>
<time>2023-01-25T13:56:43.980Z</time>
</trkpt>
<trkpt lat="31.7629300" lon="35.0941500">
<ele>525.660034</ele>
<time>2023-01-25T13:56:43.980Z</time>
</trkpt>
<trkpt lat="31.7629300" lon="35.0942700">
<ele>525.940002</ele>
<time>2023-01-25T13:56:43.981Z</time>
</trkpt>
<trkpt lat="31.7629600" lon="35.0943900">
<ele>526.809998</ele>
<time>2023-01-25T13:56:43.981Z</time>
</trkpt>
<trkpt lat="31.7629900" lon="35.0945000">
<ele>526.880005</ele>
<time>2023-01-25T13:56:43.981Z</time>
</trkpt>
<trkpt lat="31.7630400" lon="35.0945900">
<ele>526.630005</ele>
<time>2023-01-25T13:56:43.981Z</time>
</trkpt>
<trkpt lat="31.7631000" lon="35.0946800">
<ele>526.910034</ele>
<time>2023-01-25T13:56:43.981Z</time>
</trkpt>
<trkpt lat="31.7631500" lon="35.0947700">
<ele>527.260010</ele>
<time>2023-01-25T13:56:43.981Z</time>
</trkpt>
<trkpt lat="31.7632200" lon="35.0948500">
<ele>528.270020</ele>
<time>2023-01-25T13:56:43.981Z</time>
</trkpt>
<trkpt lat="31.7632900" lon="35.0949300">
<ele>528.989990</ele>
<time>2023-01-25T13:56:43.981Z</time>
</trkpt>
<trkpt lat="31.7633600" lon="35.0950300">
<ele>529.549988</ele>
<time>2023-01-25T13:56:43.981Z</time>
</trkpt>
<trkpt lat="31.7634300" lon="35.0951100">
<ele>530.280029</ele>
<time>2023-01-25T13:56:43.981Z</time>
</trkpt>
<trkpt lat="31.7635000" lon="35.0951900">
<ele>529.989990</ele>
<time>2023-01-25T13:56:43.981Z</time>
</trkpt>
<trkpt lat="31.7635700" lon="35.0952600">
<ele>529.049988</ele>
<time>2023-01-25T13:56:43.981Z</time>
</trkpt>
<trkpt lat="31.7636600" lon="35.0953300">
<ele>528.729980</ele>
<time>2023-01-25T13:56:43.981Z</time>
</trkpt>
<trkpt lat="31.7637300" lon="35.0953900">
<ele>528.520020</ele>
<time>2023-01-25T13:56:43.981Z</time>
</trkpt>
<trkpt lat="31.7638200" lon="35.0954600">
<ele>528.229980</ele>
<time>2023-01-25T13:56:43.982Z</time>
</trkpt>
<trkpt lat="31.7639100" lon="35.0955200">
<ele>528.289978</ele>
<time>2023-01-25T13:56:43.982Z</time>
</trkpt>
<trkpt lat="31.7640000" lon="35.0955700">
<ele>529.700012</ele>
<time>2023-01-25T13:56:43.982Z</time>
</trkpt>
<trkpt lat="31.7641000" lon="35.0956400">
<ele>531.709961</ele>
<time>2023-01-25T13:56:43.982Z</time>
</trkpt>
<trkpt lat="31.7641800" lon="35.0956900">
<ele>533.489990</ele>
<time>2023-01-25T13:56:43.982Z</time>
</trkpt>
<trkpt lat="31.7642600" lon="35.0957500">
<ele>535.460022</ele>
<time>2023-01-25T13:56:43.982Z</time>
</trkpt>
<trkpt lat="31.7643500" lon="35.0958000">
<ele>537.260010</ele>
<time>2023-01-25T13:56:43.982Z</time>
</trkpt>
<trkpt lat="31.7644200" lon="35.0958700">
<ele>538.030029</ele>
<time>2023-01-25T13:56:43.982Z</time>
</trkpt>
<trkpt lat="31.7645100" lon="35.0959300">
<ele>538.750000</ele>
<time>2023-01-25T13:56:43.982Z</time>
</trkpt>
<trkpt lat="31.7646000" lon="35.0960000">
<ele>539.219971</ele>
<time>2023-01-25T13:56:43.982Z</time>
</trkpt>
<trkpt lat="31.7646600" lon="35.0960900">
<ele>539.270020</ele>
<time>2023-01-25T13:56:43.982Z</time>
</trkpt>
<trkpt lat="31.7646900" lon="35.0961900">
<ele>539.540039</ele>
<time>2023-01-25T13:56:43.982Z</time>
</trkpt>
<trkpt lat="31.7646700" lon="35.0963100">
<ele>539.250000</ele>
<time>2023-01-25T13:56:43.982Z</time>
</trkpt>
<trkpt lat="31.7646400" lon="35.0964300">
<ele>539.020020</ele>
<time>2023-01-25T13:56:43.982Z</time>
</trkpt>
<trkpt lat="31.7646100" lon="35.0965600">
<ele>539.119995</ele>
<time>2023-01-25T13:56:43.982Z</time>
</trkpt>
<trkpt lat="31.7645800" lon="35.0966800">
<ele>539.070007</ele>
<time>2023-01-25T13:56:43.982Z</time>
</trkpt>
<trkpt lat="31.7645600" lon="35.0968000">
<ele>539.770020</ele>
<time>2023-01-25T13:56:43.982Z</time>
</trkpt>
<trkpt lat="31.7645400" lon="35.0969300">
<ele>540.320007</ele>
<time>2023-01-25T13:56:43.982Z</time>
</trkpt>
<trkpt lat="31.7645200" lon="35.0970500">
<ele>540.380005</ele>
<time>2023-01-25T13:56:43.982Z</time>
</trkpt>
<trkpt lat="31.7645000" lon="35.0971100">
<ele>540.070007</ele>
<time>2023-01-25T13:56:43.982Z</time>
</trkpt>
<trkpt lat="31.7645000" lon="35.0971100">
<ele>540.070007</ele>
<time>2023-01-25T13:56:43.982Z</time>
</trkpt>
<trkpt lat="31.7644900" lon="35.0971100">
<ele>539.729980</ele>
<time>2023-01-25T13:56:43.982Z</time>
</trkpt>
<trkpt lat="31.7644900" lon="35.0971100">
<ele>539.729980</ele>
<time>2023-01-25T13:56:43.982Z</time>
</trkpt>
<trkpt lat="31.7644900" lon="35.0971100">
<ele>539.729980</ele>
<time>2023-01-25T13:56:43.982Z</time>
</trkpt>
<trkpt lat="31.7644900" lon="35.0971100">
<ele>539.729980</ele>
<time>2023-01-25T13:56:43.983Z</time>
</trkpt>
<trkpt lat="31.7644900" lon="35.0971100">
<ele>539.729980</ele>
<time>2023-01-25T13:56:43.983Z</time>
</trkpt>
<trkpt lat="31.7644900" lon="35.0971100">
<ele>539.729980</ele>
<time>2023-01-25T13:56:43.983Z</time>
</trkpt>
<trkpt lat="31.7644900" lon="35.0971100">
<ele>539.729980</ele>
<time>2023-01-25T13:56:43.983Z</time>
</trkpt>
<trkpt lat="31.7644900" lon="35.0971100">
<ele>539.729980</ele>
<time>2023-01-25T13:56:43.983Z</time>
</trkpt>
<trkpt lat="31.7644900" lon="35.0971100">
<ele>539.729980</ele>
<time>2023-01-25T13:56:43.983Z</time>
</trkpt>
<trkpt lat="31.7644900" lon="35.0971100">
<ele>539.729980</ele>
<time>2023-01-25T13:56:43.983Z</time>
</trkpt>
<trkpt lat="31.7644900" lon="35.0971100">
<ele>539.729980</ele>
<time>2023-01-25T13:56:43.983Z</time>
</trkpt>
<trkpt lat="31.7644900" lon="35.0971100">
<ele>539.729980</ele>
<time>2023-01-25T13:56:43.983Z</time>
</trkpt>
<trkpt lat="31.7644900" lon="35.0971100">
<ele>539.729980</ele>
<time>2023-01-25T13:56:43.983Z</time>
</trkpt>
<trkpt lat="31.7644900" lon="35.0971100">
<ele>539.729980</ele>
<time>2023-01-25T13:56:43.983Z</time>
</trkpt>
<trkpt lat="31.7644900" lon="35.0971200">
<ele>539.799988</ele>
<time>2023-01-25T13:56:43.983Z</time>
</trkpt>
<trkpt lat="31.7644900" lon="35.0971200">
<ele>539.799988</ele>
<time>2023-01-25T13:56:43.983Z</time>
</trkpt>
<trkpt lat="31.7644900" lon="35.0971200">
<ele>539.799988</ele>
<time>2023-01-25T13:56:43.983Z</time>
</trkpt>
<trkpt lat="31.7644800" lon="35.0971200">
<ele>539.459961</ele>
<time>2023-01-25T13:56:43.983Z</time>
</trkpt>
<trkpt lat="31.7644800" lon="35.0971200">
<ele>539.459961</ele>
<time>2023-01-25T13:56:43.983Z</time>
</trkpt>
<trkpt lat="31.7644800" lon="35.0971200">
<ele>539.459961</ele>
<time>2023-01-25T13:56:43.983Z</time>
</trkpt>
<trkpt lat="31.7644800" lon="35.0971200">
<ele>539.459961</ele>
<time>2023-01-25T13:56:43.983Z</time>
</trkpt>
<trkpt lat="31.7644800" lon="35.0971200">
<ele>539.459961</ele>
<time>2023-01-25T13:56:43.984Z</time>
</trkpt>
<trkpt lat="31.7644800" lon="35.0971200">
<ele>539.459961</ele>
<time>2023-01-25T13:56:43.984Z</time>
</trkpt>
<trkpt lat="31.7644900" lon="35.0971200">
<ele>539.799988</ele>
<time>2023-01-25T13:56:43.984Z</time>
</trkpt>
<trkpt lat="31.7644900" lon="35.0971200">
<ele>539.799988</ele>
<time>2023-01-25T13:56:43.984Z</time>
</trkpt>
<trkpt lat="31.7644900" lon="35.0971300">
<ele>539.869995</ele>
<time>2023-01-25T13:56:43.984Z</time>
</trkpt>
<trkpt lat="31.7644900" lon="35.0971300">
<ele>539.869995</ele>
<time>2023-01-25T13:56:43.984Z</time>
</trkpt>
<trkpt lat="31.7644900" lon="35.0971400">
<ele>539.929993</ele>
<time>2023-01-25T13:56:43.984Z</time>
</trkpt>
<trkpt lat="31.7644900" lon="35.0971400">
<ele>539.929993</ele>
<time>2023-01-25T13:56:43.984Z</time>
</trkpt>
<trkpt lat="31.7644900" lon="35.0971400">
<ele>539.929993</ele>
<time>2023-01-25T13:56:43.984Z</time>
</trkpt>
<trkpt lat="31.7644900" lon="35.0971400">
<ele>539.929993</ele>
<time>2023-01-25T13:56:43.984Z</time>
</trkpt>
<trkpt lat="31.7644900" lon="35.0971300">
<ele>539.869995</ele>
<time>2023-01-25T13:56:43.984Z</time>
</trkpt>
<trkpt lat="31.7644900" lon="35.0971300">
<ele>539.869995</ele>
<time>2023-01-25T13:56:43.984Z</time>
</trkpt>
<trkpt lat="31.7644900" lon="35.0971400">
<ele>539.929993</ele>
<time>2023-01-25T13:56:43.984Z</time>
</trkpt>
<trkpt lat="31.7644700" lon="35.0972500">
<ele>539.640015</ele>
<time>2023-01-25T13:56:43.984Z</time>
</trkpt>
<trkpt lat="31.7644800" lon="35.0973800">
<ele>539.090027</ele>
<time>2023-01-25T13:56:43.984Z</time>
</trkpt>
<trkpt lat="31.7644900" lon="35.0974900">
<ele>538.710022</ele>
<time>2023-01-25T13:56:43.984Z</time>
</trkpt>
<trkpt lat="31.7645000" lon="35.0976200">
<ele>538.479980</ele>
<time>2023-01-25T13:56:43.984Z</time>
</trkpt>
<trkpt lat="31.7645000" lon="35.0977600">
<ele>537.880005</ele>
<time>2023-01-25T13:56:43.984Z</time>
</trkpt>
<trkpt lat="31.7645000" lon="35.0978700">
<ele>537.530029</ele>
<time>2023-01-25T13:56:43.984Z</time>
</trkpt>
<trkpt lat="31.7644900" lon="35.0979800">
<ele>536.869995</ele>
<time>2023-01-25T13:56:43.984Z</time>
</trkpt>
<trkpt lat="31.7645000" lon="35.0981200">
<ele>537.650024</ele>
<time>2023-01-25T13:56:43.984Z</time>
</trkpt>
<trkpt lat="31.7644800" lon="35.0982500">
<ele>538.289978</ele>
<time>2023-01-25T13:56:43.985Z</time>
</trkpt>
<trkpt lat="31.7644700" lon="35.0983700">
<ele>539.080017</ele>
<time>2023-01-25T13:56:43.985Z</time>
</trkpt>
<trkpt lat="31.7644700" lon="35.0984900">
<ele>539.900024</ele>
<time>2023-01-25T13:56:43.985Z</time>
</trkpt>
<trkpt lat="31.7644700" lon="35.0986200">
<ele>540.820007</ele>
<time>2023-01-25T13:56:43.985Z</time>
</trkpt>
<trkpt lat="31.7644800" lon="35.0987500">
<ele>542.270020</ele>
<time>2023-01-25T13:56:43.985Z</time>
</trkpt>
<trkpt lat="31.7645100" lon="35.0988700">
<ele>543.799988</ele>
<time>2023-01-25T13:56:43.985Z</time>
</trkpt>
<trkpt lat="31.7645500" lon="35.0989800">
<ele>544.349976</ele>
<time>2023-01-25T13:56:43.985Z</time>
</trkpt>
<trkpt lat="31.7646000" lon="35.0990800">
<ele>544.390015</ele>
<time>2023-01-25T13:56:43.985Z</time>
</trkpt>
<trkpt lat="31.7646800" lon="35.0991600">
<ele>544.059998</ele>
<time>2023-01-25T13:56:43.985Z</time>
</trkpt>
<trkpt lat="31.7647500" lon="35.0992200">
<ele>542.609985</ele>
<time>2023-01-25T13:56:43.985Z</time>
</trkpt>
<trkpt lat="31.7648500" lon="35.0992700">
<ele>541.450012</ele>
<time>2023-01-25T13:56:43.985Z</time>
</trkpt>
<trkpt lat="31.7649400" lon="35.0993200">
<ele>540.650024</ele>
<time>2023-01-25T13:56:43.985Z</time>
</trkpt>
<trkpt lat="31.7650500" lon="35.0993600">
<ele>541.489990</ele>
<time>2023-01-25T13:56:43.985Z</time>
</trkpt>
<trkpt lat="31.7651400" lon="35.0993900">
<ele>543.520020</ele>
<time>2023-01-25T13:56:43.985Z</time>
</trkpt>
<trkpt lat="31.7652400" lon="35.0994200">
<ele>546.040039</ele>
<time>2023-01-25T13:56:43.985Z</time>
</trkpt>
<trkpt lat="31.7653400" lon="35.0994500">
<ele>547.030029</ele>
<time>2023-01-25T13:56:43.985Z</time>
</trkpt>
<trkpt lat="31.7654300" lon="35.0994800">
<ele>546.409973</ele>
<time>2023-01-25T13:56:43.985Z</time>
</trkpt>
<trkpt lat="31.7655200" lon="35.0995100">
<ele>545.920044</ele>
<time>2023-01-25T13:56:43.985Z</time>
</trkpt>
<trkpt lat="31.7656100" lon="35.0995300">
<ele>546.169983</ele>
<time>2023-01-25T13:56:43.985Z</time>
</trkpt>
<trkpt lat="31.7657100" lon="35.0995600">
<ele>546.710022</ele>
<time>2023-01-25T13:56:43.986Z</time>
</trkpt>
<trkpt lat="31.7658100" lon="35.0995900">
<ele>547.559998</ele>
<time>2023-01-25T13:56:43.986Z</time>
</trkpt>
<trkpt lat="31.7658900" lon="35.0996400">
<ele>547.039978</ele>
<time>2023-01-25T13:56:43.986Z</time>
</trkpt>
<trkpt lat="31.7659700" lon="35.0996800">
<ele>546.190002</ele>
<time>2023-01-25T13:56:43.986Z</time>
</trkpt>
<trkpt lat="31.7660700" lon="35.0997300">
<ele>545.010010</ele>
<time>2023-01-25T13:56:43.986Z</time>
</trkpt>
<trkpt lat="31.7661500" lon="35.0997700">
<ele>544.020020</ele>
<time>2023-01-25T13:56:43.986Z</time>
</trkpt>
<trkpt lat="31.7662500" lon="35.0998000">
<ele>543.239990</ele>
<time>2023-01-25T13:56:43.986Z</time>
</trkpt>
<trkpt lat="31.7663400" lon="35.0998200">
<ele>542.710022</ele>
<time>2023-01-25T13:56:43.986Z</time>
</trkpt>
<trkpt lat="31.7664500" lon="35.0998300">
<ele>541.469971</ele>
<time>2023-01-25T13:56:43.986Z</time>
</trkpt>
<trkpt lat="31.7665400" lon="35.0998400">
<ele>539.960022</ele>
<time>2023-01-25T13:56:43.986Z</time>
</trkpt>
<trkpt lat="31.7666400" lon="35.0998300">
<ele>538.429993</ele>
<time>2023-01-25T13:56:43.986Z</time>
</trkpt>
<trkpt lat="31.7667300" lon="35.0998200">
<ele>539.890015</ele>
<time>2023-01-25T13:56:43.986Z</time>
</trkpt>
<trkpt lat="31.7668300" lon="35.0998200">
<ele>542.880005</ele>
<time>2023-01-25T13:56:43.986Z</time>
</trkpt>
<trkpt lat="31.7669300" lon="35.0998300">
<ele>545.799988</ele>
<time>2023-01-25T13:56:43.986Z</time>
</trkpt>
<trkpt lat="31.7670300" lon="35.0998400">
<ele>547.440002</ele>
<time>2023-01-25T13:56:43.986Z</time>
</trkpt>
<trkpt lat="31.7671200" lon="35.0998400">
<ele>548.799988</ele>
<time>2023-01-25T13:56:43.986Z</time>
</trkpt>
<trkpt lat="31.7672200" lon="35.0998400">
<ele>550.299988</ele>
<time>2023-01-25T13:56:43.986Z</time>
</trkpt>
<trkpt lat="31.7673300" lon="35.0998400">
<ele>554.320007</ele>
<time>2023-01-25T13:56:43.986Z</time>
</trkpt>
<trkpt lat="31.7674200" lon="35.0998700">
<ele>556.690002</ele>
<time>2023-01-25T13:56:43.986Z</time>
</trkpt>
<trkpt lat="31.7675100" lon="35.0998900">
<ele>559.250000</ele>
<time>2023-01-25T13:56:43.986Z</time>
</trkpt>
<trkpt lat="31.7676000" lon="35.0998600">
<ele>560.559998</ele>
<time>2023-01-25T13:56:43.986Z</time>
</trkpt>
<trkpt lat="31.7676900" lon="35.0998200">
<ele>561.500000</ele>
<time>2023-01-25T13:56:43.986Z</time>
</trkpt>
<trkpt lat="31.7677700" lon="35.0997600">
<ele>561.889954</ele>
<time>2023-01-25T13:56:43.986Z</time>
</trkpt>
<trkpt lat="31.7678300" lon="35.0996800">
<ele>562.440002</ele>
<time>2023-01-25T13:56:43.987Z</time>
</trkpt>
<trkpt lat="31.7679100" lon="35.0996200">
<ele>562.789978</ele>
<time>2023-01-25T13:56:43.987Z</time>
</trkpt>
<trkpt lat="31.7679100" lon="35.0996200">
<ele>562.789978</ele>
<time>2023-01-25T13:56:43.987Z</time>
</trkpt>
<trkpt lat="31.7679100" lon="35.0996200">
<ele>562.789978</ele>
<time>2023-01-25T13:56:43.987Z</time>
</trkpt>
<trkpt lat="31.7679100" lon="35.0996200">
<ele>562.789978</ele>
<time>2023-01-25T13:56:43.987Z</time>
</trkpt>
<trkpt lat="31.7679100" lon="35.0996100">
<ele>562.780029</ele>
<time>2023-01-25T13:56:43.987Z</time>
</trkpt>
<trkpt lat="31.7679100" lon="35.0996100">
<ele>562.780029</ele>
<time>2023-01-25T13:56:43.987Z</time>
</trkpt>
<trkpt lat="31.7679100" lon="35.0996100">
<ele>562.780029</ele>
<time>2023-01-25T13:56:43.987Z</time>
</trkpt>
<trkpt lat="31.7679000" lon="35.0996100">
<ele>562.750000</ele>
<time>2023-01-25T13:56:43.987Z</time>
</trkpt>
<trkpt lat="31.7679000" lon="35.0996200">
<ele>562.760010</ele>
<time>2023-01-25T13:56:43.987Z</time>
</trkpt>
<trkpt lat="31.7679000" lon="35.0996200">
<ele>562.760010</ele>
<time>2023-01-25T13:56:43.987Z</time>
</trkpt>
<trkpt lat="31.7678900" lon="35.0996200">
<ele>562.729980</ele>
<time>2023-01-25T13:56:43.987Z</time>
</trkpt>
<trkpt lat="31.7678600" lon="35.0996500">
<ele>562.619995</ele>
<time>2023-01-25T13:56:43.988Z</time>
</trkpt>
<trkpt lat="31.7678600" lon="35.0996500">
<ele>562.619995</ele>
<time>2023-01-25T13:56:43.988Z</time>
</trkpt>
<trkpt lat="31.7678600" lon="35.0996500">
<ele>562.619995</ele>
<time>2023-01-25T13:56:43.988Z</time>
</trkpt>
<trkpt lat="31.7678600" lon="35.0996600">
<ele>562.619995</ele>
<time>2023-01-25T13:56:43.988Z</time>
</trkpt>
<trkpt lat="31.7678600" lon="35.0996600">
<ele>562.619995</ele>
<time>2023-01-25T13:56:43.988Z</time>
</trkpt>
<trkpt lat="31.7678600" lon="35.0996600">
<ele>562.619995</ele>
<time>2023-01-25T13:56:43.988Z</time>
</trkpt>
<trkpt lat="31.7678600" lon="35.0996600">
<ele>562.619995</ele>
<time>2023-01-25T13:56:43.988Z</time>
</trkpt>
<trkpt lat="31.7678600" lon="35.0996600">
<ele>562.619995</ele>
<time>2023-01-25T13:56:43.988Z</time>
</trkpt>
<trkpt lat="31.7678600" lon="35.0996600">
<ele>562.619995</ele>
<time>2023-01-25T13:56:43.988Z</time>
</trkpt>
<trkpt lat="31.7678500" lon="35.0996600">
<ele>562.570007</ele>
<time>2023-01-25T13:56:43.988Z</time>
</trkpt>
<trkpt lat="31.7678500" lon="35.0996600">
<ele>562.570007</ele>
<time>2023-01-25T13:56:43.988Z</time>
</trkpt>
<trkpt lat="31.7678500" lon="35.0996600">
<ele>562.570007</ele>
<time>2023-01-25T13:56:43.988Z</time>
</trkpt>
<trkpt lat="31.7678500" lon="35.0996600">
<ele>562.570007</ele>
<time>2023-01-25T13:56:43.988Z</time>
</trkpt>
<trkpt lat="31.7678500" lon="35.0996600">
<ele>562.570007</ele>
<time>2023-01-25T13:56:43.988Z</time>
</trkpt>
<trkpt lat="31.7678500" lon="35.0996600">
<ele>562.570007</ele>
<time>2023-01-25T13:56:43.988Z</time>
</trkpt>
<trkpt lat="31.7678500" lon="35.0996600">
<ele>562.570007</ele>
<time>2023-01-25T13:56:43.988Z</time>
</trkpt>
<trkpt lat="31.7678500" lon="35.0996600">
<ele>562.570007</ele>
<time>2023-01-25T13:56:43.988Z</time>
</trkpt>
<trkpt lat="31.7678500" lon="35.0996600">
<ele>562.570007</ele>
<time>2023-01-25T13:56:43.989Z</time>
</trkpt>
<trkpt lat="31.7678500" lon="35.0996600">
<ele>562.570007</ele>
<time>2023-01-25T13:56:43.989Z</time>
</trkpt>
<trkpt lat="31.7678500" lon="35.0996600">
<ele>562.570007</ele>
<time>2023-01-25T13:56:43.989Z</time>
</trkpt>
<trkpt lat="31.7678500" lon="35.0996600">
<ele>562.570007</ele>
<time>2023-01-25T13:56:43.989Z</time>
</trkpt>
<trkpt lat="31.7678500" lon="35.0996600">
<ele>562.570007</ele>
<time>2023-01-25T13:56:43.989Z</time>
</trkpt>
<trkpt lat="31.7678500" lon="35.0996600">
<ele>562.570007</ele>
<time>2023-01-25T13:56:43.989Z</time>
</trkpt>
<trkpt lat="31.7678500" lon="35.0996700">
<ele>562.559998</ele>
<time>2023-01-25T13:56:43.989Z</time>
</trkpt>
<trkpt lat="31.7678300" lon="35.0996900">
<ele>562.429993</ele>
<time>2023-01-25T13:56:43.989Z</time>
</trkpt>
<trkpt lat="31.7678300" lon="35.0996900">
<ele>562.429993</ele>
<time>2023-01-25T13:56:43.989Z</time>
</trkpt>
<trkpt lat="31.7678300" lon="35.0996900">
<ele>562.429993</ele>
<time>2023-01-25T13:56:43.989Z</time>
</trkpt>
<trkpt lat="31.7678300" lon="35.0996900">
<ele>562.429993</ele>
<time>2023-01-25T13:56:43.989Z</time>
</trkpt>
<trkpt lat="31.7678400" lon="35.0996900">
<ele>562.489990</ele>
<time>2023-01-25T13:56:43.989Z</time>
</trkpt>
<trkpt lat="31.7678400" lon="35.0996900">
<ele>562.489990</ele>
<time>2023-01-25T13:56:43.989Z</time>
</trkpt>
<trkpt lat="31.7678400" lon="35.0996900">
<ele>562.489990</ele>
<time>2023-01-25T13:56:43.989Z</time>
</trkpt>
<trkpt lat="31.7678300" lon="35.0996900">
<ele>562.429993</ele>
<time>2023-01-25T13:56:43.989Z</time>
</trkpt>
<trkpt lat="31.7678300" lon="35.0996900">
<ele>562.429993</ele>
<time>2023-01-25T13:56:43.989Z</time>
</trkpt>
<trkpt lat="31.7678300" lon="35.0996900">
<ele>562.429993</ele>
<time>2023-01-25T13:56:43.989Z</time>
</trkpt>
<trkpt lat="31.7678300" lon="35.0996900">
<ele>562.429993</ele>
<time>2023-01-25T13:56:43.989Z</time>
</trkpt>
<trkpt lat="31.7678300" lon="35.0996900">
<ele>562.429993</ele>
<time>2023-01-25T13:56:43.990Z</time>
</trkpt>
<trkpt lat="31.7678300" lon="35.0996900">
<ele>562.429993</ele>
<time>2023-01-25T13:56:43.990Z</time>
</trkpt>
<trkpt lat="31.7678300" lon="35.0996900">
<ele>562.429993</ele>
<time>2023-01-25T13:56:43.990Z</time>
</trkpt>
<trkpt lat="31.7678300" lon="35.0996900">
<ele>562.429993</ele>
<time>2023-01-25T13:56:43.990Z</time>
</trkpt>
<trkpt lat="31.7678200" lon="35.0996900">
<ele>562.369995</ele>
<time>2023-01-25T13:56:43.990Z</time>
</trkpt>
<trkpt lat="31.7678300" lon="35.0996900">
<ele>562.429993</ele>
<time>2023-01-25T13:56:43.990Z</time>
</trkpt>
<trkpt lat="31.7678300" lon="35.0996900">
<ele>562.429993</ele>
<time>2023-01-25T13:56:43.990Z</time>
</trkpt>
<trkpt lat="31.7678300" lon="35.0996900">
<ele>562.429993</ele>
<time>2023-01-25T13:56:43.990Z</time>
</trkpt>
<trkpt lat="31.7678300" lon="35.0996900">
<ele>562.429993</ele>
<time>2023-01-25T13:56:43.990Z</time>
</trkpt>
<trkpt lat="31.7678700" lon="35.0996500">
<ele>562.669983</ele>
<time>2023-01-25T13:56:43.990Z</time>
</trkpt>
<trkpt lat="31.7678700" lon="35.0996500">
<ele>562.669983</ele>
<time>2023-01-25T13:56:43.990Z</time>
</trkpt>
<trkpt lat="31.7679300" lon="35.0995600">
<ele>562.719971</ele>
<time>2023-01-25T13:56:43.990Z</time>
</trkpt>
<trkpt lat="31.7680100" lon="35.0994800">
<ele>562.360046</ele>
<time>2023-01-25T13:56:43.990Z</time>
</trkpt>
<trkpt lat="31.7681000" lon="35.0994300">
<ele>562.700012</ele>
<time>2023-01-25T13:56:43.990Z</time>
</trkpt>
<trkpt lat="31.7681800" lon="35.0993900">
<ele>563.880005</ele>
<time>2023-01-25T13:56:43.990Z</time>
</trkpt>
<trkpt lat="31.7681900" lon="35.0993800">
<ele>564.049988</ele>
<time>2023-01-25T13:56:43.990Z</time>
</trkpt>
<trkpt lat="31.7681800" lon="35.0993800">
<ele>563.980042</ele>
<time>2023-01-25T13:56:43.990Z</time>
</trkpt>
<trkpt lat="31.7681800" lon="35.0993800">
<ele>563.980042</ele>
<time>2023-01-25T13:56:43.990Z</time>
</trkpt>
<trkpt lat="31.7681900" lon="35.0993800">
<ele>564.049988</ele>
<time>2023-01-25T13:56:43.990Z</time>
</trkpt>
<trkpt lat="31.7681900" lon="35.0993800">
<ele>564.049988</ele>
<time>2023-01-25T13:56:43.990Z</time>
</trkpt>
<trkpt lat="31.7681900" lon="35.0993800">
<ele>564.049988</ele>
<time>2023-01-25T13:56:43.990Z</time>
</trkpt>
<trkpt lat="31.7682700" lon="35.0993200">
<ele>564.830017</ele>
<time>2023-01-25T13:56:43.991Z</time>
</trkpt>
<trkpt lat="31.7683600" lon="35.0992600">
<ele>564.869995</ele>
<time>2023-01-25T13:56:43.991Z</time>
</trkpt>
<trkpt lat="31.7684500" lon="35.0992200">
<ele>564.500000</ele>
<time>2023-01-25T13:56:43.991Z</time>
</trkpt>
<trkpt lat="31.7685600" lon="35.0992000">
<ele>564.090027</ele>
<time>2023-01-25T13:56:43.991Z</time>
</trkpt>
<trkpt lat="31.7686600" lon="35.0991800">
<ele>564.799988</ele>
<time>2023-01-25T13:56:43.991Z</time>
</trkpt>
<trkpt lat="31.7687600" lon="35.0991700">
<ele>566.640015</ele>
<time>2023-01-25T13:56:43.991Z</time>
</trkpt>
<trkpt lat="31.7688500" lon="35.0991600">
<ele>568.309998</ele>
<time>2023-01-25T13:56:43.991Z</time>
</trkpt>
<trkpt lat="31.7689500" lon="35.0991200">
<ele>567.440002</ele>
<time>2023-01-25T13:56:43.991Z</time>
</trkpt>
<trkpt lat="31.7690400" lon="35.0990800">
<ele>566.030029</ele>
<time>2023-01-25T13:56:43.991Z</time>
</trkpt>
<trkpt lat="31.7691300" lon="35.0990500">
<ele>565.279968</ele>
<time>2023-01-25T13:56:43.991Z</time>
</trkpt>
<trkpt lat="31.7692200" lon="35.0990100">
<ele>564.630005</ele>
<time>2023-01-25T13:56:43.991Z</time>
</trkpt>
<trkpt lat="31.7693200" lon="35.0989800">
<ele>562.419983</ele>
<time>2023-01-25T13:56:43.991Z</time>
</trkpt>
<trkpt lat="31.7694100" lon="35.0989800">
<ele>559.709961</ele>
<time>2023-01-25T13:56:43.991Z</time>
</trkpt>
<trkpt lat="31.7695100" lon="35.0989900">
<ele>558.809998</ele>
<time>2023-01-25T13:56:43.991Z</time>
</trkpt>
<trkpt lat="31.7696000" lon="35.0989900">
<ele>559.039978</ele>
<time>2023-01-25T13:56:43.991Z</time>
</trkpt>
<trkpt lat="31.7696900" lon="35.0990100">
<ele>558.630005</ele>
<time>2023-01-25T13:56:43.991Z</time>
</trkpt>
<trkpt lat="31.7697900" lon="35.0990100">
<ele>560.030029</ele>
<time>2023-01-25T13:56:43.991Z</time>
</trkpt>
<trkpt lat="31.7698800" lon="35.0990100">
<ele>561.869995</ele>
<time>2023-01-25T13:56:43.991Z</time>
</trkpt>
<trkpt lat="31.7699900" lon="35.0989900">
<ele>565.059998</ele>
<time>2023-01-25T13:56:43.991Z</time>
</trkpt>
<trkpt lat="31.7700900" lon="35.0989900">
<ele>567.950012</ele>
<time>2023-01-25T13:56:43.991Z</time>
</trkpt>
<trkpt lat="31.7701900" lon="35.0989900">
<ele>570.929993</ele>
<time>2023-01-25T13:56:43.992Z</time>
</trkpt>
<trkpt lat="31.7702900" lon="35.0989900">
<ele>573.599976</ele>
<time>2023-01-25T13:56:43.992Z</time>
</trkpt>
<trkpt lat="31.7703900" lon="35.0990000">
<ele>573.809998</ele>
<time>2023-01-25T13:56:43.992Z</time>
</trkpt>
<trkpt lat="31.7704900" lon="35.0990100">
<ele>574.399963</ele>
<time>2023-01-25T13:56:43.992Z</time>
</trkpt>
<trkpt lat="31.7706000" lon="35.0989900">
<ele>575.640015</ele>
<time>2023-01-25T13:56:43.992Z</time>
</trkpt>
<trkpt lat="31.7707100" lon="35.0989700">
<ele>577.219971</ele>
<time>2023-01-25T13:56:43.992Z</time>
</trkpt>
<trkpt lat="31.7708100" lon="35.0989300">
<ele>578.660034</ele>
<time>2023-01-25T13:56:43.992Z</time>
</trkpt>
<trkpt lat="31.7709000" lon="35.0988800">
<ele>579.460022</ele>
<time>2023-01-25T13:56:43.992Z</time>
</trkpt>
<trkpt lat="31.7709900" lon="35.0988100">
<ele>580.000000</ele>
<time>2023-01-25T13:56:43.992Z</time>
</trkpt>
<trkpt lat="31.7710700" lon="35.0987300">
<ele>580.619995</ele>
<time>2023-01-25T13:56:43.992Z</time>
</trkpt>
<trkpt lat="31.7711600" lon="35.0986500">
<ele>580.729980</ele>
<time>2023-01-25T13:56:43.992Z</time>
</trkpt>
<trkpt lat="31.7712200" lon="35.0985500">
<ele>580.469971</ele>
<time>2023-01-25T13:56:43.992Z</time>
</trkpt>
<trkpt lat="31.7712900" lon="35.0984400">
<ele>580.140015</ele>
<time>2023-01-25T13:56:43.992Z</time>
</trkpt>
<trkpt lat="31.7713600" lon="35.0983300">
<ele>580.030029</ele>
<time>2023-01-25T13:56:43.992Z</time>
</trkpt>
<trkpt lat="31.7714200" lon="35.0982200">
<ele>581.090027</ele>
<time>2023-01-25T13:56:43.993Z</time>
</trkpt>
<trkpt lat="31.7714700" lon="35.0981200">
<ele>582.340027</ele>
<time>2023-01-25T13:56:43.993Z</time>
</trkpt>
<trkpt lat="31.7715100" lon="35.0980300">
<ele>583.229980</ele>
<time>2023-01-25T13:56:43.993Z</time>
</trkpt>
<trkpt lat="31.7715700" lon="35.0979400">
<ele>583.410034</ele>
<time>2023-01-25T13:56:43.993Z</time>
</trkpt>
<trkpt lat="31.7716300" lon="35.0978600">
<ele>583.380005</ele>
<time>2023-01-25T13:56:43.993Z</time>
</trkpt>
<trkpt lat="31.7717200" lon="35.0977600">
<ele>583.630005</ele>
<time>2023-01-25T13:56:43.993Z</time>
</trkpt>
<trkpt lat="31.7717800" lon="35.0976800">
<ele>583.779968</ele>
<time>2023-01-25T13:56:43.993Z</time>
</trkpt>
<trkpt lat="31.7718300" lon="35.0975900">
<ele>583.599976</ele>
<time>2023-01-25T13:56:43.993Z</time>
</trkpt>
<trkpt lat="31.7718800" lon="35.0975000">
<ele>583.299988</ele>
<time>2023-01-25T13:56:43.993Z</time>
</trkpt>
<trkpt lat="31.7719500" lon="35.0974200">
<ele>583.479980</ele>
<time>2023-01-25T13:56:43.993Z</time>
</trkpt>
<trkpt lat="31.7720100" lon="35.0973200">
<ele>583.260010</ele>
<time>2023-01-25T13:56:43.993Z</time>
</trkpt>
<trkpt lat="31.7720800" lon="35.0972400">
<ele>583.140015</ele>
<time>2023-01-25T13:56:43.993Z</time>
</trkpt>
<trkpt lat="31.7721400" lon="35.0971500">
<ele>583.119995</ele>
<time>2023-01-25T13:56:43.993Z</time>
</trkpt>
<trkpt lat="31.7722100" lon="35.0970700">
<ele>582.890015</ele>
<time>2023-01-25T13:56:43.993Z</time>
</trkpt>
<trkpt lat="31.7722600" lon="35.0969800">
<ele>582.659973</ele>
<time>2023-01-25T13:56:43.993Z</time>
</trkpt>
<trkpt lat="31.7723300" lon="35.0968600">
<ele>583.540039</ele>
<time>2023-01-25T13:56:43.993Z</time>
</trkpt>
<trkpt lat="31.7723800" lon="35.0967600">
<ele>584.279968</ele>
<time>2023-01-25T13:56:43.993Z</time>
</trkpt>
<trkpt lat="31.7724300" lon="35.0967200">
<ele>584.650024</ele>
<time>2023-01-25T13:56:43.993Z</time>
</trkpt>
<trkpt lat="31.7724400" lon="35.0967100">
<ele>584.719971</ele>
<time>2023-01-25T13:56:43.993Z</time>
</trkpt>
<trkpt lat="31.7724400" lon="35.0967200">
<ele>584.700012</ele>
<time>2023-01-25T13:56:43.993Z</time>
</trkpt>
<trkpt lat="31.7724400" lon="35.0967200">
<ele>584.700012</ele>
<time>2023-01-25T13:56:43.993Z</time>
</trkpt>
<trkpt lat="31.7724400" lon="35.0967200">
<ele>584.700012</ele>
<time>2023-01-25T13:56:43.993Z</time>
</trkpt>
<trkpt lat="31.7724400" lon="35.0967200">
<ele>584.700012</ele>
<time>2023-01-25T13:56:43.993Z</time>
</trkpt>
<trkpt lat="31.7724400" lon="35.0967000">
<ele>584.729980</ele>
<time>2023-01-25T13:56:43.993Z</time>
</trkpt>
<trkpt lat="31.7724400" lon="35.0967000">
<ele>584.729980</ele>
<time>2023-01-25T13:56:43.993Z</time>
</trkpt>
<trkpt lat="31.7724400" lon="35.0967000">
<ele>584.729980</ele>
<time>2023-01-25T13:56:43.993Z</time>
</trkpt>
<trkpt lat="31.7724400" lon="35.0967100">
<ele>584.719971</ele>
<time>2023-01-25T13:56:43.993Z</time>
</trkpt>
<trkpt lat="31.7724400" lon="35.0967000">
<ele>584.729980</ele>
<time>2023-01-25T13:56:43.993Z</time>
</trkpt>
<trkpt lat="31.7724400" lon="35.0967000">
<ele>584.729980</ele>
<time>2023-01-25T13:56:43.994Z</time>
</trkpt>
<trkpt lat="31.7724400" lon="35.0967000">
<ele>584.729980</ele>
<time>2023-01-25T13:56:43.994Z</time>
</trkpt>
<trkpt lat="31.7724400" lon="35.0966900">
<ele>584.750000</ele>
<time>2023-01-25T13:56:43.994Z</time>
</trkpt>
<trkpt lat="31.7724400" lon="35.0966900">
<ele>584.750000</ele>
<time>2023-01-25T13:56:43.994Z</time>
</trkpt>
<trkpt lat="31.7724400" lon="35.0966900">
<ele>584.750000</ele>
<time>2023-01-25T13:56:43.994Z</time>
</trkpt>
<trkpt lat="31.7724600" lon="35.0965800">
<ele>586.859985</ele>
<time>2023-01-25T13:56:43.994Z</time>
</trkpt>
<trkpt lat="31.7725300" lon="35.0965100">
<ele>589.130005</ele>
<time>2023-01-25T13:56:43.995Z</time>
</trkpt>
<trkpt lat="31.7725400" lon="35.0964000">
<ele>591.640015</ele>
<time>2023-01-25T13:56:43.995Z</time>
</trkpt>
<trkpt lat="31.7725500" lon="35.0963000">
<ele>594.729980</ele>
<time>2023-01-25T13:56:43.995Z</time>
</trkpt>
<trkpt lat="31.7726200" lon="35.0962100">
<ele>598.279968</ele>
<time>2023-01-25T13:56:43.995Z</time>
</trkpt>
<trkpt lat="31.7727400" lon="35.0962100">
<ele>599.750000</ele>
<time>2023-01-25T13:56:43.995Z</time>
</trkpt>
<trkpt lat="31.7728200" lon="35.0962700">
<ele>601.140015</ele>
<time>2023-01-25T13:56:43.995Z</time>
</trkpt>
<trkpt lat="31.7728600" lon="35.0963700">
<ele>601.440002</ele>
<time>2023-01-25T13:56:43.995Z</time>
</trkpt>
<trkpt lat="31.7729400" lon="35.0963000">
<ele>606.400024</ele>
<time>2023-01-25T13:56:43.995Z</time>
</trkpt>
<trkpt lat="31.7729400" lon="35.0963000">
<ele>606.400024</ele>
<time>2023-01-25T13:56:43.995Z</time>
</trkpt>
<trkpt lat="31.7729400" lon="35.0963000">
<ele>606.400024</ele>
<time>2023-01-25T13:56:43.995Z</time>
</trkpt>
<trkpt lat="31.7729300" lon="35.0962900">
<ele>606.059998</ele>
<time>2023-01-25T13:56:43.995Z</time>
</trkpt>
<trkpt lat="31.7729300" lon="35.0962900">
<ele>606.059998</ele>
<time>2023-01-25T13:56:43.995Z</time>
</trkpt>
<trkpt lat="31.7729300" lon="35.0962900">
<ele>606.059998</ele>
<time>2023-01-25T13:56:43.995Z</time>
</trkpt>
<trkpt lat="31.7729300" lon="35.0962900">
<ele>606.059998</ele>
<time>2023-01-25T13:56:43.995Z</time>
</trkpt>
<trkpt lat="31.7729300" lon="35.0962900">
<ele>606.059998</ele>
<time>2023-01-25T13:56:43.995Z</time>
</trkpt>
<trkpt lat="31.7729200" lon="35.0962900">
<ele>605.580017</ele>
<time>2023-01-25T13:56:43.995Z</time>
</trkpt>
<trkpt lat="31.7729200" lon="35.0962900">
<ele>605.580017</ele>
<time>2023-01-25T13:56:43.995Z</time>
</trkpt>
<trkpt lat="31.7729200" lon="35.0962900">
<ele>605.580017</ele>
<time>2023-01-25T13:56:43.995Z</time>
</trkpt>
<trkpt lat="31.7729200" lon="35.0962900">
<ele>605.580017</ele>
<time>2023-01-25T13:56:43.995Z</time>
</trkpt>
<trkpt lat="31.7729200" lon="35.0962800">
<ele>605.729980</ele>
<time>2023-01-25T13:56:43.995Z</time>
</trkpt>
<trkpt lat="31.7729200" lon="35.0962800">
<ele>605.729980</ele>
<time>2023-01-25T13:56:43.995Z</time>
</trkpt>
<trkpt lat="31.7729200" lon="35.0962800">
<ele>605.729980</ele>
<time>2023-01-25T13:56:43.996Z</time>
</trkpt>
<trkpt lat="31.7729200" lon="35.0962800">
<ele>605.729980</ele>
<time>2023-01-25T13:56:43.996Z</time>
</trkpt>
<trkpt lat="31.7729200" lon="35.0962800">
<ele>605.729980</ele>
<time>2023-01-25T13:56:43.996Z</time>
</trkpt>
<trkpt lat="31.7729200" lon="35.0962800">
<ele>605.729980</ele>
<time>2023-01-25T13:56:43.996Z</time>
</trkpt>
<trkpt lat="31.7729200" lon="35.0962800">
<ele>605.729980</ele>
<time>2023-01-25T13:56:43.996Z</time>
</trkpt>
<trkpt lat="31.7729200" lon="35.0962800">
<ele>605.729980</ele>
<time>2023-01-25T13:56:43.996Z</time>
</trkpt>
<trkpt lat="31.7729200" lon="35.0962800">
<ele>605.729980</ele>
<time>2023-01-25T13:56:43.996Z</time>
</trkpt>
<trkpt lat="31.7729200" lon="35.0962800">
<ele>605.729980</ele>
<time>2023-01-25T13:56:43.996Z</time>
</trkpt>
<trkpt lat="31.7729200" lon="35.0962800">
<ele>605.729980</ele>
<time>2023-01-25T13:56:43.996Z</time>
</trkpt>
<trkpt lat="31.7729200" lon="35.0962800">
<ele>605.729980</ele>
<time>2023-01-25T13:56:43.996Z</time>
</trkpt>
<trkpt lat="31.7729200" lon="35.0962800">
<ele>605.729980</ele>
<time>2023-01-25T13:56:43.996Z</time>
</trkpt>
<trkpt lat="31.7729200" lon="35.0962800">
<ele>605.729980</ele>
<time>2023-01-25T13:56:43.996Z</time>
</trkpt>
<trkpt lat="31.7729100" lon="35.0962800">
<ele>605.250000</ele>
<time>2023-01-25T13:56:43.996Z</time>
</trkpt>
<trkpt lat="31.7729100" lon="35.0962800">
<ele>605.250000</ele>
<time>2023-01-25T13:56:43.996Z</time>
</trkpt>
<trkpt lat="31.7729100" lon="35.0962800">
<ele>605.250000</ele>
<time>2023-01-25T13:56:43.996Z</time>
</trkpt>
<trkpt lat="31.7729100" lon="35.0962800">
<ele>605.250000</ele>
<time>2023-01-25T13:56:43.996Z</time>
</trkpt>
<trkpt lat="31.7729100" lon="35.0962800">
<ele>605.250000</ele>
<time>2023-01-25T13:56:43.996Z</time>
</trkpt>
<trkpt lat="31.7729100" lon="35.0962800">
<ele>605.250000</ele>
<time>2023-01-25T13:56:43.996Z</time>
</trkpt>
<trkpt lat="31.7729100" lon="35.0962700">
<ele>605.400024</ele>
<time>2023-01-25T13:56:43.996Z</time>
</trkpt>
<trkpt lat="31.7729100" lon="35.0962700">
<ele>605.400024</ele>
<time>2023-01-25T13:56:43.996Z</time>
</trkpt>
<trkpt lat="31.7729100" lon="35.0962700">
<ele>605.400024</ele>
<time>2023-01-25T13:56:43.997Z</time>
</trkpt>
<trkpt lat="31.7729100" lon="35.0962700">
<ele>605.400024</ele>
<time>2023-01-25T13:56:43.997Z</time>
</trkpt>
<trkpt lat="31.7729100" lon="35.0962700">
<ele>605.400024</ele>
<time>2023-01-25T13:56:43.997Z</time>
</trkpt>
<trkpt lat="31.7729100" lon="35.0962700">
<ele>605.400024</ele>
<time>2023-01-25T13:56:43.997Z</time>
</trkpt>
<trkpt lat="31.7729100" lon="35.0962700">
<ele>605.400024</ele>
<time>2023-01-25T13:56:43.997Z</time>
</trkpt>
<trkpt lat="31.7729100" lon="35.0962700">
<ele>605.400024</ele>
<time>2023-01-25T13:56:43.997Z</time>
</trkpt>
<trkpt lat="31.7729100" lon="35.0962700">
<ele>605.400024</ele>
<time>2023-01-25T13:56:43.997Z</time>
</trkpt>
<trkpt lat="31.7729100" lon="35.0963800">
<ele>603.790039</ele>
<time>2023-01-25T13:56:43.997Z</time>
</trkpt>
<trkpt lat="31.7728600" lon="35.0962900">
<ele>602.710022</ele>
<time>2023-01-25T13:56:43.997Z</time>
</trkpt>
<trkpt lat="31.7727800" lon="35.0962200">
<ele>600.140015</ele>
<time>2023-01-25T13:56:43.997Z</time>
</trkpt>
<trkpt lat="31.7726800" lon="35.0962000">
<ele>599.250000</ele>
<time>2023-01-25T13:56:43.997Z</time>
</trkpt>
<trkpt lat="31.7726000" lon="35.0962400">
<ele>597.209961</ele>
<time>2023-01-25T13:56:43.997Z</time>
</trkpt>
<trkpt lat="31.7725300" lon="35.0963300">
<ele>593.460022</ele>
<time>2023-01-25T13:56:43.997Z</time>
</trkpt>
<trkpt lat="31.7725000" lon="35.0964500">
<ele>589.679993</ele>
<time>2023-01-25T13:56:43.997Z</time>
</trkpt>
<trkpt lat="31.7724900" lon="35.0965500">
<ele>587.530029</ele>
<time>2023-01-25T13:56:43.997Z</time>
</trkpt>
<trkpt lat="31.7724500" lon="35.0966500">
<ele>585.210022</ele>
<time>2023-01-25T13:56:43.997Z</time>
</trkpt>
<trkpt lat="31.7724400" lon="35.0967300">
<ele>584.690002</ele>
<time>2023-01-25T13:56:43.997Z</time>
</trkpt>
<trkpt lat="31.7724400" lon="35.0967300">
<ele>584.690002</ele>
<time>2023-01-25T13:56:43.997Z</time>
</trkpt>
<trkpt lat="31.7725200" lon="35.0968100">
<ele>585.649963</ele>
<time>2023-01-25T13:56:43.997Z</time>
</trkpt>
<trkpt lat="31.7725700" lon="35.0968900">
<ele>587.419983</ele>
<time>2023-01-25T13:56:43.997Z</time>
</trkpt>
<trkpt lat="31.7726100" lon="35.0970100">
<ele>589.250000</ele>
<time>2023-01-25T13:56:43.997Z</time>
</trkpt>
<trkpt lat="31.7726300" lon="35.0971200">
<ele>590.350037</ele>
<time>2023-01-25T13:56:43.998Z</time>
</trkpt>
<trkpt lat="31.7726500" lon="35.0972400">
<ele>591.380005</ele>
<time>2023-01-25T13:56:43.998Z</time>
</trkpt>
<trkpt lat="31.7726500" lon="35.0973500">
<ele>591.739990</ele>
<time>2023-01-25T13:56:43.998Z</time>
</trkpt>
<trkpt lat="31.7726400" lon="35.0974600">
<ele>591.880005</ele>
<time>2023-01-25T13:56:43.998Z</time>
</trkpt>
<trkpt lat="31.7726500" lon="35.0975800">
<ele>592.840027</ele>
<time>2023-01-25T13:56:43.998Z</time>
</trkpt>
<trkpt lat="31.7726600" lon="35.0977100">
<ele>594.080017</ele>
<time>2023-01-25T13:56:43.998Z</time>
</trkpt>
<trkpt lat="31.7726600" lon="35.0978400">
<ele>594.639954</ele>
<time>2023-01-25T13:56:43.998Z</time>
</trkpt>
<trkpt lat="31.7726500" lon="35.0979700">
<ele>594.380005</ele>
<time>2023-01-25T13:56:43.998Z</time>
</trkpt>
<trkpt lat="31.7726300" lon="35.0980900">
<ele>593.679993</ele>
<time>2023-01-25T13:56:43.998Z</time>
</trkpt>
<trkpt lat="31.7726300" lon="35.0982200">
<ele>593.679993</ele>
<time>2023-01-25T13:56:43.998Z</time>
</trkpt>
<trkpt lat="31.7726300" lon="35.0983500">
<ele>593.650024</ele>
<time>2023-01-25T13:56:43.998Z</time>
</trkpt>
<trkpt lat="31.7726400" lon="35.0984900">
<ele>593.760010</ele>
<time>2023-01-25T13:56:43.998Z</time>
</trkpt>
<trkpt lat="31.7726700" lon="35.0986300">
<ele>594.559998</ele>
<time>2023-01-25T13:56:43.998Z</time>
</trkpt>
<trkpt lat="31.7726900" lon="35.0987300">
<ele>595.429993</ele>
<time>2023-01-25T13:56:43.998Z</time>
</trkpt>
<trkpt lat="31.7727300" lon="35.0988300">
<ele>596.720032</ele>
<time>2023-01-25T13:56:43.998Z</time>
</trkpt>
<trkpt lat="31.7727700" lon="35.0989300">
<ele>597.650024</ele>
<time>2023-01-25T13:56:43.998Z</time>
</trkpt>
<trkpt lat="31.7728300" lon="35.0990400">
<ele>597.630005</ele>
<time>2023-01-25T13:56:43.998Z</time>
</trkpt>
<trkpt lat="31.7728800" lon="35.0991300">
<ele>597.229980</ele>
<time>2023-01-25T13:56:43.998Z</time>
</trkpt>
<trkpt lat="31.7729300" lon="35.0992400">
<ele>596.789978</ele>
<time>2023-01-25T13:56:43.998Z</time>
</trkpt>
<trkpt lat="31.7729900" lon="35.0993200">
<ele>597.030029</ele>
<time>2023-01-25T13:56:43.998Z</time>
</trkpt>
<trkpt lat="31.7730600" lon="35.0994100">
<ele>597.869995</ele>
<time>2023-01-25T13:56:43.998Z</time>
</trkpt>
<trkpt lat="31.7731500" lon="35.0994700">
<ele>597.079956</ele>
<time>2023-01-25T13:56:43.998Z</time>
</trkpt>
<trkpt lat="31.7732600" lon="35.0995000">
<ele>596.399963</ele>
<time>2023-01-25T13:56:43.998Z</time>
</trkpt>
<trkpt lat="31.7733500" lon="35.0995200">
<ele>596.580017</ele>
<time>2023-01-25T13:56:43.998Z</time>
</trkpt>
<trkpt lat="31.7734600" lon="35.0995400">
<ele>598.830017</ele>
<time>2023-01-25T13:56:43.998Z</time>
</trkpt>
<trkpt lat="31.7735600" lon="35.0995500">
<ele>600.840027</ele>
<time>2023-01-25T13:56:43.998Z</time>
</trkpt>
<trkpt lat="31.7736600" lon="35.0995600">
<ele>601.760010</ele>
<time>2023-01-25T13:56:43.998Z</time>
</trkpt>
<trkpt lat="31.7737500" lon="35.0995600">
<ele>601.919983</ele>
<time>2023-01-25T13:56:43.998Z</time>
</trkpt>
<trkpt lat="31.7738400" lon="35.0995400">
<ele>602.299988</ele>
<time>2023-01-25T13:56:43.998Z</time>
</trkpt>
<trkpt lat="31.7739400" lon="35.0995200">
<ele>603.559998</ele>
<time>2023-01-25T13:56:43.998Z</time>
</trkpt>
<trkpt lat="31.7740500" lon="35.0995100">
<ele>606.010010</ele>
<time>2023-01-25T13:56:43.998Z</time>
</trkpt>
<trkpt lat="31.7741500" lon="35.0995300">
<ele>608.020020</ele>
<time>2023-01-25T13:56:43.998Z</time>
</trkpt>
<trkpt lat="31.7742300" lon="35.0995800">
<ele>610.080017</ele>
<time>2023-01-25T13:56:43.998Z</time>
</trkpt>
<trkpt lat="31.7742600" lon="35.0996900">
<ele>610.260010</ele>
<time>2023-01-25T13:56:43.998Z</time>
</trkpt>
<trkpt lat="31.7742700" lon="35.0998000">
<ele>610.600037</ele>
<time>2023-01-25T13:56:43.998Z</time>
</trkpt>
<trkpt lat="31.7742800" lon="35.0999200">
<ele>611.219971</ele>
<time>2023-01-25T13:56:43.998Z</time>
</trkpt>
<trkpt lat="31.7742900" lon="35.1000400">
<ele>611.940002</ele>
<time>2023-01-25T13:56:43.998Z</time>
</trkpt>
<trkpt lat="31.7743200" lon="35.1001400">
<ele>613.369995</ele>
<time>2023-01-25T13:56:43.998Z</time>
</trkpt>
<trkpt lat="31.7743500" lon="35.1002600">
<ele>615.130005</ele>
<time>2023-01-25T13:56:43.998Z</time>
</trkpt>
<trkpt lat="31.7744200" lon="35.1003600">
<ele>616.549988</ele>
<time>2023-01-25T13:56:43.998Z</time>
</trkpt>
<trkpt lat="31.7745000" lon="35.1004300">
<ele>618.650024</ele>
<time>2023-01-25T13:56:43.998Z</time>
</trkpt>
<trkpt lat="31.7745900" lon="35.1005000">
<ele>621.640015</ele>
<time>2023-01-25T13:56:43.998Z</time>
</trkpt>
<trkpt lat="31.7746700" lon="35.1005700">
<ele>624.440002</ele>
<time>2023-01-25T13:56:43.998Z</time>
</trkpt>
<trkpt lat="31.7747500" lon="35.1006300">
<ele>624.809998</ele>
<time>2023-01-25T13:56:43.998Z</time>
</trkpt>
<trkpt lat="31.7748200" lon="35.1007000">
<ele>623.210022</ele>
<time>2023-01-25T13:56:43.998Z</time>
</trkpt>
<trkpt lat="31.7749100" lon="35.1007500">
<ele>622.530029</ele>
<time>2023-01-25T13:56:43.998Z</time>
</trkpt>
<trkpt lat="31.7750000" lon="35.1008000">
<ele>621.959961</ele>
<time>2023-01-25T13:56:43.998Z</time>
</trkpt>
<trkpt lat="31.7751000" lon="35.1008600">
<ele>624.070007</ele>
<time>2023-01-25T13:56:43.998Z</time>
</trkpt>
<trkpt lat="31.7751700" lon="35.1009300">
<ele>624.679993</ele>
<time>2023-01-25T13:56:43.999Z</time>
</trkpt>
<trkpt lat="31.7752600" lon="35.1009800">
<ele>627.000000</ele>
<time>2023-01-25T13:56:43.999Z</time>
</trkpt>
<trkpt lat="31.7753500" lon="35.1010200">
<ele>625.150024</ele>
<time>2023-01-25T13:56:43.999Z</time>
</trkpt>
<trkpt lat="31.7754400" lon="35.1010700">
<ele>621.440002</ele>
<time>2023-01-25T13:56:43.999Z</time>
</trkpt>
<trkpt lat="31.7755300" lon="35.1011200">
<ele>617.400024</ele>
<time>2023-01-25T13:56:43.999Z</time>
</trkpt>
<trkpt lat="31.7756100" lon="35.1011700">
<ele>616.450012</ele>
<time>2023-01-25T13:56:43.999Z</time>
</trkpt>
<trkpt lat="31.7756900" lon="35.1012100">
<ele>616.760010</ele>
<time>2023-01-25T13:56:43.999Z</time>
</trkpt>
<trkpt lat="31.7757800" lon="35.1012500">
<ele>617.140015</ele>
<time>2023-01-25T13:56:43.999Z</time>
</trkpt>
<trkpt lat="31.7758700" lon="35.1012800">
<ele>617.080017</ele>
<time>2023-01-25T13:56:43.999Z</time>
</trkpt>
<trkpt lat="31.7759700" lon="35.1013000">
<ele>616.400024</ele>
<time>2023-01-25T13:56:43.999Z</time>
</trkpt>
<trkpt lat="31.7760600" lon="35.1013000">
<ele>616.299988</ele>
<time>2023-01-25T13:56:43.999Z</time>
</trkpt>
<trkpt lat="31.7761600" lon="35.1013000">
<ele>614.889954</ele>
<time>2023-01-25T13:56:43.999Z</time>
</trkpt>
<trkpt lat="31.7762500" lon="35.1013300">
<ele>611.590027</ele>
<time>2023-01-25T13:56:43.999Z</time>
</trkpt>
<trkpt lat="31.7763600" lon="35.1013300">
<ele>608.510010</ele>
<time>2023-01-25T13:56:43.999Z</time>
</trkpt>
<trkpt lat="31.7764600" lon="35.1013400">
<ele>607.950012</ele>
<time>2023-01-25T13:56:43.999Z</time>
</trkpt>
<trkpt lat="31.7765600" lon="35.1013100">
<ele>609.250000</ele>
<time>2023-01-25T13:56:43.999Z</time>
</trkpt>
<trkpt lat="31.7766600" lon="35.1013000">
<ele>609.929993</ele>
<time>2023-01-25T13:56:43.999Z</time>
</trkpt>
<trkpt lat="31.7767700" lon="35.1012900">
<ele>609.459961</ele>
<time>2023-01-25T13:56:43.999Z</time>
</trkpt>
<trkpt lat="31.7768600" lon="35.1012700">
<ele>609.190002</ele>
<time>2023-01-25T13:56:43.999Z</time>
</trkpt>
<trkpt lat="31.7769600" lon="35.1012400">
<ele>609.599976</ele>
<time>2023-01-25T13:56:43.999Z</time>
</trkpt>
<trkpt lat="31.7770500" lon="35.1012200">
<ele>612.979980</ele>
<time>2023-01-25T13:56:44.000Z</time>
</trkpt>
<trkpt lat="31.7771400" lon="35.1011900">
<ele>617.729980</ele>
<time>2023-01-25T13:56:44.000Z</time>
</trkpt>
<trkpt lat="31.7772500" lon="35.1011800">
<ele>621.919983</ele>
<time>2023-01-25T13:56:44.000Z</time>
</trkpt>
<trkpt lat="31.7773500" lon="35.1011600">
<ele>623.570007</ele>
<time>2023-01-25T13:56:44.000Z</time>
</trkpt>
<trkpt lat="31.7774600" lon="35.1011400">
<ele>624.760010</ele>
<time>2023-01-25T13:56:44.000Z</time>
</trkpt>
<trkpt lat="31.7775700" lon="35.1011200">
<ele>624.679993</ele>
<time>2023-01-25T13:56:44.000Z</time>
</trkpt>
<trkpt lat="31.7776700" lon="35.1011100">
<ele>623.570007</ele>
<time>2023-01-25T13:56:44.000Z</time>
</trkpt>
<trkpt lat="31.7777800" lon="35.1011200">
<ele>621.929993</ele>
<time>2023-01-25T13:56:44.000Z</time>
</trkpt>
<trkpt lat="31.7778900" lon="35.1011300">
<ele>623.090027</ele>
<time>2023-01-25T13:56:44.000Z</time>
</trkpt>
<trkpt lat="31.7780100" lon="35.1011700">
<ele>624.399963</ele>
<time>2023-01-25T13:56:44.000Z</time>
</trkpt>
<trkpt lat="31.7780800" lon="35.1012400">
<ele>625.619995</ele>
<time>2023-01-25T13:56:44.000Z</time>
</trkpt>
<trkpt lat="31.7781300" lon="35.1013500">
<ele>626.680054</ele>
<time>2023-01-25T13:56:44.000Z</time>
</trkpt>
<trkpt lat="31.7781700" lon="35.1014500">
<ele>627.250000</ele>
<time>2023-01-25T13:56:44.000Z</time>
</trkpt>
<trkpt lat="31.7781800" lon="35.1015700">
<ele>627.039978</ele>
<time>2023-01-25T13:56:44.000Z</time>
</trkpt>
<trkpt lat="31.7781700" lon="35.1017000">
<ele>626.519958</ele>
<time>2023-01-25T13:56:44.000Z</time>
</trkpt>
<trkpt lat="31.7781600" lon="35.1018200">
<ele>626.460022</ele>
<time>2023-01-25T13:56:44.000Z</time>
</trkpt>
<trkpt lat="31.7781300" lon="35.1019400">
<ele>625.869995</ele>
<time>2023-01-25T13:56:44.000Z</time>
</trkpt>
<trkpt lat="31.7781300" lon="35.1020800">
<ele>626.489990</ele>
<time>2023-01-25T13:56:44.000Z</time>
</trkpt>
<trkpt lat="31.7781200" lon="35.1021900">
<ele>626.710022</ele>
<time>2023-01-25T13:56:44.000Z</time>
</trkpt>
<trkpt lat="31.7781200" lon="35.1023100">
<ele>627.730042</ele>
<time>2023-01-25T13:56:44.000Z</time>
</trkpt>
<trkpt lat="31.7781200" lon="35.1024200">
<ele>628.830017</ele>
<time>2023-01-25T13:56:44.001Z</time>
</trkpt>
<trkpt lat="31.7781100" lon="35.1025400">
<ele>629.599976</ele>
<time>2023-01-25T13:56:44.001Z</time>
</trkpt>
<trkpt lat="31.7781100" lon="35.1026600">
<ele>630.299988</ele>
<time>2023-01-25T13:56:44.001Z</time>
</trkpt>
<trkpt lat="31.7781300" lon="35.1027700">
<ele>631.300049</ele>
<time>2023-01-25T13:56:44.001Z</time>
</trkpt>
<trkpt lat="31.7781800" lon="35.1028800">
<ele>632.079956</ele>
<time>2023-01-25T13:56:44.001Z</time>
</trkpt>
<trkpt lat="31.7782300" lon="35.1029700">
<ele>632.710022</ele>
<time>2023-01-25T13:56:44.001Z</time>
</trkpt>
<trkpt lat="31.7783000" lon="35.1030700">
<ele>633.420044</ele>
<time>2023-01-25T13:56:44.001Z</time>
</trkpt>
<trkpt lat="31.7783500" lon="35.1031600">
<ele>633.470032</ele>
<time>2023-01-25T13:56:44.001Z</time>
</trkpt>
<trkpt lat="31.7784000" lon="35.1032700">
<ele>633.230042</ele>
<time>2023-01-25T13:56:44.001Z</time>
</trkpt>
<trkpt lat="31.7784600" lon="35.1033700">
<ele>633.030029</ele>
<time>2023-01-25T13:56:44.001Z</time>
</trkpt>
<trkpt lat="31.7785100" lon="35.1034600">
<ele>632.830017</ele>
<time>2023-01-25T13:56:44.001Z</time>
</trkpt>
<trkpt lat="31.7785600" lon="35.1035600">
<ele>632.669983</ele>
<time>2023-01-25T13:56:44.001Z</time>
</trkpt>
<trkpt lat="31.7786200" lon="35.1036500">
<ele>632.989990</ele>
<time>2023-01-25T13:56:44.001Z</time>
</trkpt>
<trkpt lat="31.7786500" lon="35.1037700">
<ele>632.989990</ele>
<time>2023-01-25T13:56:44.001Z</time>
</trkpt>
<trkpt lat="31.7786800" lon="35.1038900">
<ele>633.000000</ele>
<time>2023-01-25T13:56:44.001Z</time>
</trkpt>
<trkpt lat="31.7786900" lon="35.1040000">
<ele>633.710022</ele>
<time>2023-01-25T13:56:44.001Z</time>
</trkpt>
<trkpt lat="31.7786800" lon="35.1041200">
<ele>634.239990</ele>
<time>2023-01-25T13:56:44.001Z</time>
</trkpt>
<trkpt lat="31.7786300" lon="35.1042100">
<ele>634.460022</ele>
<time>2023-01-25T13:56:44.001Z</time>
</trkpt>
<trkpt lat="31.7785900" lon="35.1043000">
<ele>634.500000</ele>
<time>2023-01-25T13:56:44.001Z</time>
</trkpt>
<trkpt lat="31.7785400" lon="35.1044100">
<ele>634.219971</ele>
<time>2023-01-25T13:56:44.001Z</time>
</trkpt>
<trkpt lat="31.7784900" lon="35.1045000">
<ele>634.269958</ele>
<time>2023-01-25T13:56:44.001Z</time>
</trkpt>
<trkpt lat="31.7784500" lon="35.1046000">
<ele>635.079956</ele>
<time>2023-01-25T13:56:44.001Z</time>
</trkpt>
<trkpt lat="31.7783900" lon="35.1046900">
<ele>635.460022</ele>
<time>2023-01-25T13:56:44.001Z</time>
</trkpt>
<trkpt lat="31.7783600" lon="35.1048000">
<ele>636.569946</ele>
<time>2023-01-25T13:56:44.001Z</time>
</trkpt>
<trkpt lat="31.7783400" lon="35.1049200">
<ele>637.949951</ele>
<time>2023-01-25T13:56:44.001Z</time>
</trkpt>
<trkpt lat="31.7783500" lon="35.1050300">
<ele>639.459961</ele>
<time>2023-01-25T13:56:44.001Z</time>
</trkpt>
<trkpt lat="31.7783500" lon="35.1051400">
<ele>640.250061</ele>
<time>2023-01-25T13:56:44.001Z</time>
</trkpt>
<trkpt lat="31.7783500" lon="35.1052700">
<ele>641.179993</ele>
<time>2023-01-25T13:56:44.003Z</time>
</trkpt>
<trkpt lat="31.7783600" lon="35.1053900">
<ele>642.190002</ele>
<time>2023-01-25T13:56:44.003Z</time>
</trkpt>
<trkpt lat="31.7783800" lon="35.1055000">
<ele>643.269958</ele>
<time>2023-01-25T13:56:44.003Z</time>
</trkpt>
<trkpt lat="31.7784000" lon="35.1056100">
<ele>644.200012</ele>
<time>2023-01-25T13:56:44.003Z</time>
</trkpt>
<trkpt lat="31.7784300" lon="35.1057300">
<ele>645.239990</ele>
<time>2023-01-25T13:56:44.003Z</time>
</trkpt>
<trkpt lat="31.7784700" lon="35.1058200">
<ele>646.390015</ele>
<time>2023-01-25T13:56:44.003Z</time>
</trkpt>
<trkpt lat="31.7785300" lon="35.1059100">
<ele>647.649963</ele>
<time>2023-01-25T13:56:44.003Z</time>
</trkpt>
<trkpt lat="31.7785900" lon="35.1059800">
<ele>649.069946</ele>
<time>2023-01-25T13:56:44.003Z</time>
</trkpt>
<trkpt lat="31.7786700" lon="35.1060500">
<ele>650.419983</ele>
<time>2023-01-25T13:56:44.003Z</time>
</trkpt>
<trkpt lat="31.7787500" lon="35.1061100">
<ele>651.500000</ele>
<time>2023-01-25T13:56:44.003Z</time>
</trkpt>
<trkpt lat="31.7788400" lon="35.1061600">
<ele>652.349976</ele>
<time>2023-01-25T13:56:44.003Z</time>
</trkpt>
<trkpt lat="31.7789300" lon="35.1062000">
<ele>653.690063</ele>
<time>2023-01-25T13:56:44.003Z</time>
</trkpt>
<trkpt lat="31.7790100" lon="35.1062700">
<ele>654.929993</ele>
<time>2023-01-25T13:56:44.003Z</time>
</trkpt>
<trkpt lat="31.7790600" lon="35.1063600">
<ele>655.529968</ele>
<time>2023-01-25T13:56:44.003Z</time>
</trkpt>
<trkpt lat="31.7790900" lon="35.1064700">
<ele>655.899963</ele>
<time>2023-01-25T13:56:44.003Z</time>
</trkpt>
<trkpt lat="31.7791000" lon="35.1065800">
<ele>656.040039</ele>
<time>2023-01-25T13:56:44.003Z</time>
</trkpt>
<trkpt lat="31.7791200" lon="35.1066900">
<ele>656.380005</ele>
<time>2023-01-25T13:56:44.003Z</time>
</trkpt>
<trkpt lat="31.7791200" lon="35.1068000">
<ele>656.650024</ele>
<time>2023-01-25T13:56:44.003Z</time>
</trkpt>
<trkpt lat="31.7791300" lon="35.1069200">
<ele>657.140015</ele>
<time>2023-01-25T13:56:44.003Z</time>
</trkpt>
<trkpt lat="31.7791300" lon="35.1070300">
<ele>657.209961</ele>
<time>2023-01-25T13:56:44.003Z</time>
</trkpt>
<trkpt lat="31.7791200" lon="35.1071500">
<ele>656.989990</ele>
<time>2023-01-25T13:56:44.003Z</time>
</trkpt>
<trkpt lat="31.7791100" lon="35.1072500">
<ele>656.900024</ele>
<time>2023-01-25T13:56:44.003Z</time>
</trkpt>
<trkpt lat="31.7790800" lon="35.1073700">
<ele>656.830017</ele>
<time>2023-01-25T13:56:44.003Z</time>
</trkpt>
<trkpt lat="31.7790600" lon="35.1074800">
<ele>656.980042</ele>
<time>2023-01-25T13:56:44.003Z</time>
</trkpt>
<trkpt lat="31.7790300" lon="35.1075900">
<ele>657.179993</ele>
<time>2023-01-25T13:56:44.003Z</time>
</trkpt>
<trkpt lat="31.7790100" lon="35.1077100">
<ele>657.790039</ele>
<time>2023-01-25T13:56:44.003Z</time>
</trkpt>
<trkpt lat="31.7789800" lon="35.1078200">
<ele>658.340027</ele>
<time>2023-01-25T13:56:44.003Z</time>
</trkpt>
<trkpt lat="31.7789600" lon="35.1079300">
<ele>659.000000</ele>
<time>2023-01-25T13:56:44.003Z</time>
</trkpt>
<trkpt lat="31.7789500" lon="35.1080400">
<ele>659.760010</ele>
<time>2023-01-25T13:56:44.003Z</time>
</trkpt>
<trkpt lat="31.7789400" lon="35.1081500">
<ele>660.419983</ele>
<time>2023-01-25T13:56:44.003Z</time>
</trkpt>
<trkpt lat="31.7789400" lon="35.1082600">
<ele>661.210022</ele>
<time>2023-01-25T13:56:44.004Z</time>
</trkpt>
<trkpt lat="31.7789400" lon="35.1083900">
<ele>661.739990</ele>
<time>2023-01-25T13:56:44.004Z</time>
</trkpt>
<trkpt lat="31.7789300" lon="35.1085100">
<ele>661.589966</ele>
<time>2023-01-25T13:56:44.004Z</time>
</trkpt>
<trkpt lat="31.7789200" lon="35.1086400">
<ele>661.660034</ele>
<time>2023-01-25T13:56:44.004Z</time>
</trkpt>
<trkpt lat="31.7789100" lon="35.1087500">
<ele>662.299988</ele>
<time>2023-01-25T13:56:44.004Z</time>
</trkpt>
<trkpt lat="31.7789000" lon="35.1088600">
<ele>662.949951</ele>
<time>2023-01-25T13:56:44.004Z</time>
</trkpt>
<trkpt lat="31.7788900" lon="35.1089600">
<ele>663.530029</ele>
<time>2023-01-25T13:56:44.004Z</time>
</trkpt>
<trkpt lat="31.7789000" lon="35.1091000">
<ele>664.710022</ele>
<time>2023-01-25T13:56:44.004Z</time>
</trkpt>
<trkpt lat="31.7789100" lon="35.1092200">
<ele>665.760010</ele>
<time>2023-01-25T13:56:44.004Z</time>
</trkpt>
<trkpt lat="31.7789400" lon="35.1093500">
<ele>667.239990</ele>
<time>2023-01-25T13:56:44.004Z</time>
</trkpt>
<trkpt lat="31.7789800" lon="35.1094500">
<ele>668.650024</ele>
<time>2023-01-25T13:56:44.004Z</time>
</trkpt>
<trkpt lat="31.7790400" lon="35.1095600">
<ele>670.169983</ele>
<time>2023-01-25T13:56:44.004Z</time>
</trkpt>
<trkpt lat="31.7790900" lon="35.1096500">
<ele>671.690002</ele>
<time>2023-01-25T13:56:44.004Z</time>
</trkpt>
<trkpt lat="31.7791600" lon="35.1097200">
<ele>673.820007</ele>
<time>2023-01-25T13:56:44.004Z</time>
</trkpt>
<trkpt lat="31.7792400" lon="35.1098000">
<ele>674.450012</ele>
<time>2023-01-25T13:56:44.004Z</time>
</trkpt>
<trkpt lat="31.7793000" lon="35.1098900">
<ele>675.099976</ele>
<time>2023-01-25T13:56:44.004Z</time>
</trkpt>
<trkpt lat="31.7793600" lon="35.1099700">
<ele>676.169983</ele>
<time>2023-01-25T13:56:44.004Z</time>
</trkpt>
<trkpt lat="31.7794200" lon="35.1100500">
<ele>676.979980</ele>
<time>2023-01-25T13:56:44.004Z</time>
</trkpt>
<trkpt lat="31.7795000" lon="35.1101400">
<ele>677.089966</ele>
<time>2023-01-25T13:56:44.004Z</time>
</trkpt>
<trkpt lat="31.7795600" lon="35.1102300">
<ele>676.489990</ele>
<time>2023-01-25T13:56:44.004Z</time>
</trkpt>
<trkpt lat="31.7796200" lon="35.1103100">
<ele>675.799988</ele>
<time>2023-01-25T13:56:44.004Z</time>
</trkpt>
<trkpt lat="31.7796700" lon="35.1104000">
<ele>674.860046</ele>
<time>2023-01-25T13:56:44.004Z</time>
</trkpt>
<trkpt lat="31.7797100" lon="35.1105000">
<ele>673.710022</ele>
<time>2023-01-25T13:56:44.004Z</time>
</trkpt>
<trkpt lat="31.7797300" lon="35.1106100">
<ele>672.850037</ele>
<time>2023-01-25T13:56:44.004Z</time>
</trkpt>
<trkpt lat="31.7797400" lon="35.1107300">
<ele>672.460022</ele>
<time>2023-01-25T13:56:44.005Z</time>
</trkpt>
<trkpt lat="31.7797300" lon="35.1108400">
<ele>672.029968</ele>
<time>2023-01-25T13:56:44.005Z</time>
</trkpt>
<trkpt lat="31.7797100" lon="35.1109600">
<ele>671.739990</ele>
<time>2023-01-25T13:56:44.005Z</time>
</trkpt>
<trkpt lat="31.7796900" lon="35.1110800">
<ele>671.299988</ele>
<time>2023-01-25T13:56:44.005Z</time>
</trkpt>
<trkpt lat="31.7796700" lon="35.1111900">
<ele>671.620056</ele>
<time>2023-01-25T13:56:44.005Z</time>
</trkpt>
<trkpt lat="31.7796500" lon="35.1113100">
<ele>672.220032</ele>
<time>2023-01-25T13:56:44.005Z</time>
</trkpt>
<trkpt lat="31.7796400" lon="35.1114200">
<ele>672.929993</ele>
<time>2023-01-25T13:56:44.005Z</time>
</trkpt>
<trkpt lat="31.7796100" lon="35.1115300">
<ele>673.090027</ele>
<time>2023-01-25T13:56:44.005Z</time>
</trkpt>
<trkpt lat="31.7796000" lon="35.1116500">
<ele>673.890015</ele>
<time>2023-01-25T13:56:44.005Z</time>
</trkpt>
<trkpt lat="31.7795900" lon="35.1117500">
<ele>674.769958</ele>
<time>2023-01-25T13:56:44.005Z</time>
</trkpt>
<trkpt lat="31.7795800" lon="35.1118700">
<ele>675.950012</ele>
<time>2023-01-25T13:56:44.005Z</time>
</trkpt>
<trkpt lat="31.7795500" lon="35.1119800">
<ele>676.279968</ele>
<time>2023-01-25T13:56:44.005Z</time>
</trkpt>
<trkpt lat="31.7795500" lon="35.1120900">
<ele>677.769958</ele>
<time>2023-01-25T13:56:44.005Z</time>
</trkpt>
<trkpt lat="31.7795300" lon="35.1122000">
<ele>678.410034</ele>
<time>2023-01-25T13:56:44.005Z</time>
</trkpt>
<trkpt lat="31.7795200" lon="35.1123200">
<ele>679.290039</ele>
<time>2023-01-25T13:56:44.005Z</time>
</trkpt>
<trkpt lat="31.7794900" lon="35.1124200">
<ele>679.350037</ele>
<time>2023-01-25T13:56:44.005Z</time>
</trkpt>
<trkpt lat="31.7794700" lon="35.1125200">
<ele>680.020020</ele>
<time>2023-01-25T13:56:44.005Z</time>
</trkpt>
<trkpt lat="31.7794500" lon="35.1126300">
<ele>681.020020</ele>
<time>2023-01-25T13:56:44.005Z</time>
</trkpt>
<trkpt lat="31.7794300" lon="35.1127500">
<ele>682.140015</ele>
<time>2023-01-25T13:56:44.005Z</time>
</trkpt>
<trkpt lat="31.7794200" lon="35.1128700">
<ele>682.929993</ele>
<time>2023-01-25T13:56:44.005Z</time>
</trkpt>
<trkpt lat="31.7794300" lon="35.1129800">
<ele>684.059998</ele>
<time>2023-01-25T13:56:44.005Z</time>
</trkpt>
<trkpt lat="31.7794500" lon="35.1131000">
<ele>685.090027</ele>
<time>2023-01-25T13:56:44.005Z</time>
</trkpt>
<trkpt lat="31.7794700" lon="35.1132200">
<ele>685.480042</ele>
<time>2023-01-25T13:56:44.005Z</time>
</trkpt>
<trkpt lat="31.7795100" lon="35.1133200">
<ele>686.390015</ele>
<time>2023-01-25T13:56:44.005Z</time>
</trkpt>
<trkpt lat="31.7795500" lon="35.1134300">
<ele>687.410034</ele>
<time>2023-01-25T13:56:44.005Z</time>
</trkpt>
<trkpt lat="31.7796000" lon="35.1135200">
<ele>688.740051</ele>
<time>2023-01-25T13:56:44.005Z</time>
</trkpt>
<trkpt lat="31.7796500" lon="35.1136100">
<ele>690.179993</ele>
<time>2023-01-25T13:56:44.005Z</time>
</trkpt>
<trkpt lat="31.7797000" lon="35.1137100">
<ele>690.729980</ele>
<time>2023-01-25T13:56:44.006Z</time>
</trkpt>
<trkpt lat="31.7797500" lon="35.1138200">
<ele>691.020020</ele>
<time>2023-01-25T13:56:44.006Z</time>
</trkpt>
<trkpt lat="31.7798000" lon="35.1139200">
<ele>691.409973</ele>
<time>2023-01-25T13:56:44.006Z</time>
</trkpt>
<trkpt lat="31.7798600" lon="35.1140100">
<ele>692.909973</ele>
<time>2023-01-25T13:56:44.006Z</time>
</trkpt>
<trkpt lat="31.7798900" lon="35.1141100">
<ele>694.150024</ele>
<time>2023-01-25T13:56:44.006Z</time>
</trkpt>
<trkpt lat="31.7799400" lon="35.1142200">
<ele>695.820007</ele>
<time>2023-01-25T13:56:44.006Z</time>
</trkpt>
<trkpt lat="31.7799900" lon="35.1143300">
<ele>697.070007</ele>
<time>2023-01-25T13:56:44.006Z</time>
</trkpt>
<trkpt lat="31.7800300" lon="35.1144200">
<ele>697.430054</ele>
<time>2023-01-25T13:56:44.006Z</time>
</trkpt>
<trkpt lat="31.7800800" lon="35.1145200">
<ele>698.179993</ele>
<time>2023-01-25T13:56:44.006Z</time>
</trkpt>
<trkpt lat="31.7801300" lon="35.1146300">
<ele>699.650024</ele>
<time>2023-01-25T13:56:44.006Z</time>
</trkpt>
<trkpt lat="31.7801800" lon="35.1147300">
<ele>701.469971</ele>
<time>2023-01-25T13:56:44.006Z</time>
</trkpt>
<trkpt lat="31.7802300" lon="35.1148300">
<ele>701.580017</ele>
<time>2023-01-25T13:56:44.006Z</time>
</trkpt>
<trkpt lat="31.7802900" lon="35.1149300">
<ele>700.989990</ele>
<time>2023-01-25T13:56:44.006Z</time>
</trkpt>
<trkpt lat="31.7803600" lon="35.1150100">
<ele>699.869995</ele>
<time>2023-01-25T13:56:44.006Z</time>
</trkpt>
<trkpt lat="31.7804300" lon="35.1151000">
<ele>698.530029</ele>
<time>2023-01-25T13:56:44.006Z</time>
</trkpt>
<trkpt lat="31.7805100" lon="35.1151700">
<ele>697.140015</ele>
<time>2023-01-25T13:56:44.006Z</time>
</trkpt>
<trkpt lat="31.7805900" lon="35.1152300">
<ele>695.329956</ele>
<time>2023-01-25T13:56:44.006Z</time>
</trkpt>
<trkpt lat="31.7806800" lon="35.1152700">
<ele>692.950012</ele>
<time>2023-01-25T13:56:44.006Z</time>
</trkpt>
<trkpt lat="31.7807600" lon="35.1153000">
<ele>690.599976</ele>
<time>2023-01-25T13:56:44.006Z</time>
</trkpt>
<trkpt lat="31.7808600" lon="35.1153200">
<ele>687.940002</ele>
<time>2023-01-25T13:56:44.006Z</time>
</trkpt>
<trkpt lat="31.7809500" lon="35.1153200">
<ele>685.590027</ele>
<time>2023-01-25T13:56:44.006Z</time>
</trkpt>
<trkpt lat="31.7810500" lon="35.1153200">
<ele>682.979980</ele>
<time>2023-01-25T13:56:44.006Z</time>
</trkpt>
<trkpt lat="31.7811500" lon="35.1153100">
<ele>681.040039</ele>
<time>2023-01-25T13:56:44.006Z</time>
</trkpt>
<trkpt lat="31.7812400" lon="35.1153100">
<ele>679.900024</ele>
<time>2023-01-25T13:56:44.006Z</time>
</trkpt>
<trkpt lat="31.7813400" lon="35.1152900">
<ele>678.670044</ele>
<time>2023-01-25T13:56:44.006Z</time>
</trkpt>
<trkpt lat="31.7814400" lon="35.1152800">
<ele>677.080017</ele>
<time>2023-01-25T13:56:44.006Z</time>
</trkpt>
<trkpt lat="31.7815400" lon="35.1152600">
<ele>676.179993</ele>
<time>2023-01-25T13:56:44.007Z</time>
</trkpt>
<trkpt lat="31.7816400" lon="35.1152400">
<ele>675.489990</ele>
<time>2023-01-25T13:56:44.007Z</time>
</trkpt>
<trkpt lat="31.7817400" lon="35.1152300">
<ele>675.700012</ele>
<time>2023-01-25T13:56:44.007Z</time>
</trkpt>
<trkpt lat="31.7818400" lon="35.1152200">
<ele>676.200012</ele>
<time>2023-01-25T13:56:44.007Z</time>
</trkpt>
<trkpt lat="31.7819400" lon="35.1152000">
<ele>676.690002</ele>
<time>2023-01-25T13:56:44.007Z</time>
</trkpt>
<trkpt lat="31.7820300" lon="35.1151900">
<ele>680.899963</ele>
<time>2023-01-25T13:56:44.007Z</time>
</trkpt>
<trkpt lat="31.7821300" lon="35.1151900">
<ele>685.580017</ele>
<time>2023-01-25T13:56:44.007Z</time>
</trkpt>
<trkpt lat="31.7822300" lon="35.1151800">
<ele>690.299988</ele>
<time>2023-01-25T13:56:44.007Z</time>
</trkpt>
<trkpt lat="31.7823200" lon="35.1151500">
<ele>692.929993</ele>
<time>2023-01-25T13:56:44.007Z</time>
</trkpt>
<trkpt lat="31.7824200" lon="35.1151100">
<ele>695.600037</ele>
<time>2023-01-25T13:56:44.007Z</time>
</trkpt>
<trkpt lat="31.7825000" lon="35.1150600">
<ele>697.570007</ele>
<time>2023-01-25T13:56:44.007Z</time>
</trkpt>
<trkpt lat="31.7825900" lon="35.1150200">
<ele>698.779968</ele>
<time>2023-01-25T13:56:44.007Z</time>
</trkpt>
<trkpt lat="31.7826800" lon="35.1149700">
<ele>700.159973</ele>
<time>2023-01-25T13:56:44.007Z</time>
</trkpt>
<trkpt lat="31.7827400" lon="35.1148900">
<ele>701.380005</ele>
<time>2023-01-25T13:56:44.007Z</time>
</trkpt>
<trkpt lat="31.7828200" lon="35.1148300">
<ele>702.140015</ele>
<time>2023-01-25T13:56:44.007Z</time>
</trkpt>
<trkpt lat="31.7828900" lon="35.1147500">
<ele>703.040039</ele>
<time>2023-01-25T13:56:44.007Z</time>
</trkpt>
<trkpt lat="31.7829500" lon="35.1146600">
<ele>705.020020</ele>
<time>2023-01-25T13:56:44.007Z</time>
</trkpt>
<trkpt lat="31.7830200" lon="35.1145700">
<ele>707.570007</ele>
<time>2023-01-25T13:56:44.007Z</time>
</trkpt>
<trkpt lat="31.7830700" lon="35.1145200">
<ele>709.020020</ele>
<time>2023-01-25T13:56:44.007Z</time>
</trkpt>
<trkpt lat="31.7830700" lon="35.1145200">
<ele>709.020020</ele>
<time>2023-01-25T13:56:44.007Z</time>
</trkpt>
<trkpt lat="31.7831900" lon="35.1145400">
<ele>707.959961</ele>
<time>2023-01-25T13:56:44.007Z</time>
</trkpt>
<trkpt lat="31.7833100" lon="35.1145800">
<ele>706.650024</ele>
<time>2023-01-25T13:56:44.007Z</time>
</trkpt>
<trkpt lat="31.7834400" lon="35.1146300">
<ele>705.529968</ele>
<time>2023-01-25T13:56:44.007Z</time>
</trkpt>
<trkpt lat="31.7835600" lon="35.1147100">
<ele>704.179993</ele>
<time>2023-01-25T13:56:44.007Z</time>
</trkpt>
<trkpt lat="31.7836400" lon="35.1148100">
<ele>703.469971</ele>
<time>2023-01-25T13:56:44.008Z</time>
</trkpt>
<trkpt lat="31.7837300" lon="35.1148900">
<ele>703.900024</ele>
<time>2023-01-25T13:56:44.008Z</time>
</trkpt>
<trkpt lat="31.7838100" lon="35.1148700">
<ele>705.270020</ele>
<time>2023-01-25T13:56:44.008Z</time>
</trkpt>
<trkpt lat="31.7838100" lon="35.1148700">
<ele>705.270020</ele>
<time>2023-01-25T13:56:44.008Z</time>
</trkpt>
<trkpt lat="31.7839100" lon="35.1148900">
<ele>706.309998</ele>
<time>2023-01-25T13:56:44.008Z</time>
</trkpt>
<trkpt lat="31.7839800" lon="35.1148100">
<ele>707.480042</ele>
<time>2023-01-25T13:56:44.008Z</time>
</trkpt>
<trkpt lat="31.7840300" lon="35.1147200">
<ele>708.500000</ele>
<time>2023-01-25T13:56:44.008Z</time>
</trkpt>
<trkpt lat="31.7841200" lon="35.1146500">
<ele>708.529968</ele>
<time>2023-01-25T13:56:44.008Z</time>
</trkpt>
<trkpt lat="31.7842100" lon="35.1146900">
<ele>708.749939</ele>
<time>2023-01-25T13:56:44.008Z</time>
</trkpt>
<trkpt lat="31.7842400" lon="35.1148000">
<ele>708.320007</ele>
<time>2023-01-25T13:56:44.008Z</time>
</trkpt>
<trkpt lat="31.7842500" lon="35.1149100">
<ele>707.750000</ele>
<time>2023-01-25T13:56:44.008Z</time>
</trkpt>
<trkpt lat="31.7842400" lon="35.1150300">
<ele>707.450012</ele>
<time>2023-01-25T13:56:44.008Z</time>
</trkpt>
<trkpt lat="31.7842400" lon="35.1150200">
<ele>707.389954</ele>
<time>2023-01-25T13:56:44.008Z</time>
</trkpt>
<trkpt lat="31.7842400" lon="35.1150200">
<ele>707.389954</ele>
<time>2023-01-25T13:56:44.008Z</time>
</trkpt>
<trkpt lat="31.7842400" lon="35.1150200">
<ele>707.389954</ele>
<time>2023-01-25T13:56:44.008Z</time>
</trkpt>
<trkpt lat="31.7842400" lon="35.1150200">
<ele>707.389954</ele>
<time>2023-01-25T13:56:44.008Z</time>
</trkpt>
<trkpt lat="31.7842500" lon="35.1151200">
<ele>708.030029</ele>
<time>2023-01-25T13:56:44.008Z</time>
</trkpt>
<trkpt lat="31.7842500" lon="35.1152300">
<ele>708.710022</ele>
<time>2023-01-25T13:56:44.008Z</time>
</trkpt>
<trkpt lat="31.7842600" lon="35.1153500">
<ele>709.260010</ele>
<time>2023-01-25T13:56:44.008Z</time>
</trkpt>
<trkpt lat="31.7842700" lon="35.1154600">
<ele>709.659973</ele>
<time>2023-01-25T13:56:44.008Z</time>
</trkpt>
<trkpt lat="31.7842600" lon="35.1155700">
<ele>710.099976</ele>
<time>2023-01-25T13:56:44.008Z</time>
</trkpt>
<trkpt lat="31.7842400" lon="35.1156800">
<ele>710.900024</ele>
<time>2023-01-25T13:56:44.008Z</time>
</trkpt>
<trkpt lat="31.7842100" lon="35.1157900">
<ele>711.690002</ele>
<time>2023-01-25T13:56:44.008Z</time>
</trkpt>
<trkpt lat="31.7841900" lon="35.1159100">
<ele>713.099976</ele>
<time>2023-01-25T13:56:44.008Z</time>
</trkpt>
<trkpt lat="31.7841600" lon="35.1160300">
<ele>714.770020</ele>
<time>2023-01-25T13:56:44.008Z</time>
</trkpt>
<trkpt lat="31.7841300" lon="35.1161400">
<ele>715.830017</ele>
<time>2023-01-25T13:56:44.009Z</time>
</trkpt>
<trkpt lat="31.7841100" lon="35.1162500">
<ele>716.489990</ele>
<time>2023-01-25T13:56:44.009Z</time>
</trkpt>
<trkpt lat="31.7840900" lon="35.1163700">
<ele>717.290039</ele>
<time>2023-01-25T13:56:44.009Z</time>
</trkpt>
<trkpt lat="31.7840800" lon="35.1164800">
<ele>718.260010</ele>
<time>2023-01-25T13:56:44.009Z</time>
</trkpt>
<trkpt lat="31.7840600" lon="35.1166000">
<ele>719.220032</ele>
<time>2023-01-25T13:56:44.009Z</time>
</trkpt>
<trkpt lat="31.7840500" lon="35.1167100">
<ele>720.210022</ele>
<time>2023-01-25T13:56:44.009Z</time>
</trkpt>
<trkpt lat="31.7840500" lon="35.1168300">
<ele>721.500000</ele>
<time>2023-01-25T13:56:44.009Z</time>
</trkpt>
<trkpt lat="31.7840400" lon="35.1169600">
<ele>722.830017</ele>
<time>2023-01-25T13:56:44.009Z</time>
</trkpt>
<trkpt lat="31.7840400" lon="35.1170900">
<ele>724.440002</ele>
<time>2023-01-25T13:56:44.009Z</time>
</trkpt>
<trkpt lat="31.7840500" lon="35.1172200">
<ele>726.129944</ele>
<time>2023-01-25T13:56:44.009Z</time>
</trkpt>
<trkpt lat="31.7840700" lon="35.1173500">
<ele>727.080017</ele>
<time>2023-01-25T13:56:44.009Z</time>
</trkpt>
<trkpt lat="31.7840900" lon="35.1174900">
<ele>727.940002</ele>
<time>2023-01-25T13:56:44.009Z</time>
</trkpt>
<trkpt lat="31.7841200" lon="35.1176000">
<ele>727.880066</ele>
<time>2023-01-25T13:56:44.009Z</time>
</trkpt>
<trkpt lat="31.7841400" lon="35.1177400">
<ele>727.830017</ele>
<time>2023-01-25T13:56:44.009Z</time>
</trkpt>
<trkpt lat="31.7841500" lon="35.1179000">
<ele>727.000000</ele>
<time>2023-01-25T13:56:44.009Z</time>
</trkpt>
<trkpt lat="31.7841400" lon="35.1180100">
<ele>726.140015</ele>
<time>2023-01-25T13:56:44.009Z</time>
</trkpt>
<trkpt lat="31.7841800" lon="35.1181300">
<ele>725.399963</ele>
<time>2023-01-25T13:56:44.009Z</time>
</trkpt>
<trkpt lat="31.7842300" lon="35.1182400">
<ele>724.289978</ele>
<time>2023-01-25T13:56:44.009Z</time>
</trkpt>
<trkpt lat="31.7842500" lon="35.1183700">
<ele>723.320007</ele>
<time>2023-01-25T13:56:44.009Z</time>
</trkpt>
<trkpt lat="31.7842500" lon="35.1185100">
<ele>723.019958</ele>
<time>2023-01-25T13:56:44.009Z</time>
</trkpt>
<trkpt lat="31.7842400" lon="35.1186300">
<ele>722.720032</ele>
<time>2023-01-25T13:56:44.009Z</time>
</trkpt>
<trkpt lat="31.7842100" lon="35.1187700">
<ele>721.570007</ele>
<time>2023-01-25T13:56:44.009Z</time>
</trkpt>
<trkpt lat="31.7841700" lon="35.1189100">
<ele>720.940002</ele>
<time>2023-01-25T13:56:44.009Z</time>
</trkpt>
<trkpt lat="31.7841300" lon="35.1190400">
<ele>721.479980</ele>
<time>2023-01-25T13:56:44.009Z</time>
</trkpt>
<trkpt lat="31.7841000" lon="35.1191900">
<ele>722.200012</ele>
<time>2023-01-25T13:56:44.009Z</time>
</trkpt>
<trkpt lat="31.7840700" lon="35.1193300">
<ele>722.740051</ele>
<time>2023-01-25T13:56:44.009Z</time>
</trkpt>
<trkpt lat="31.7840500" lon="35.1194800">
<ele>723.030029</ele>
<time>2023-01-25T13:56:44.009Z</time>
</trkpt>
<trkpt lat="31.7840400" lon="35.1196400">
<ele>722.900024</ele>
<time>2023-01-25T13:56:44.010Z</time>
</trkpt>
<trkpt lat="31.7840400" lon="35.1198100">
<ele>721.930054</ele>
<time>2023-01-25T13:56:44.010Z</time>
</trkpt>
<trkpt lat="31.7840600" lon="35.1199700">
<ele>719.969971</ele>
<time>2023-01-25T13:56:44.010Z</time>
</trkpt>
<trkpt lat="31.7840900" lon="35.1201300">
<ele>717.790039</ele>
<time>2023-01-25T13:56:44.010Z</time>
</trkpt>
<trkpt lat="31.7841300" lon="35.1202900">
<ele>715.039978</ele>
<time>2023-01-25T13:56:44.010Z</time>
</trkpt>
<trkpt lat="31.7841800" lon="35.1204700">
<ele>711.719971</ele>
<time>2023-01-25T13:56:44.010Z</time>
</trkpt>
<trkpt lat="31.7842100" lon="35.1206700">
<ele>710.179993</ele>
<time>2023-01-25T13:56:44.010Z</time>
</trkpt>
<trkpt lat="31.7842300" lon="35.1208700">
<ele>709.630005</ele>
<time>2023-01-25T13:56:44.010Z</time>
</trkpt>
<trkpt lat="31.7842300" lon="35.1210800">
<ele>710.149963</ele>
<time>2023-01-25T13:56:44.010Z</time>
</trkpt>
<trkpt lat="31.7842300" lon="35.1212800">
<ele>711.169983</ele>
<time>2023-01-25T13:56:44.010Z</time>
</trkpt>
<trkpt lat="31.7842300" lon="35.1214700">
<ele>712.130005</ele>
<time>2023-01-25T13:56:44.010Z</time>
</trkpt>
<trkpt lat="31.7842200" lon="35.1216400">
<ele>712.890015</ele>
<time>2023-01-25T13:56:44.010Z</time>
</trkpt>
<trkpt lat="31.7842200" lon="35.1217900">
<ele>712.469971</ele>
<time>2023-01-25T13:56:44.010Z</time>
</trkpt>
<trkpt lat="31.7842100" lon="35.1219100">
<ele>711.990051</ele>
<time>2023-01-25T13:56:44.010Z</time>
</trkpt>
<trkpt lat="31.7841900" lon="35.1220200">
<ele>712.210022</ele>
<time>2023-01-25T13:56:44.010Z</time>
</trkpt>
<trkpt lat="31.7841500" lon="35.1221400">
<ele>712.579956</ele>
<time>2023-01-25T13:56:44.010Z</time>
</trkpt>
<trkpt lat="31.7841100" lon="35.1222500">
<ele>712.709961</ele>
<time>2023-01-25T13:56:44.010Z</time>
</trkpt>
<trkpt lat="31.7840800" lon="35.1223700">
<ele>713.070007</ele>
<time>2023-01-25T13:56:44.010Z</time>
</trkpt>
<trkpt lat="31.7840700" lon="35.1224800">
<ele>713.549988</ele>
<time>2023-01-25T13:56:44.010Z</time>
</trkpt>
<trkpt lat="31.7840600" lon="35.1225900">
<ele>713.419983</ele>
<time>2023-01-25T13:56:44.010Z</time>
</trkpt>
<trkpt lat="31.7840300" lon="35.1227200">
<ele>713.110046</ele>
<time>2023-01-25T13:56:44.010Z</time>
</trkpt>
<trkpt lat="31.7840100" lon="35.1228400">
<ele>712.899963</ele>
<time>2023-01-25T13:56:44.010Z</time>
</trkpt>
<trkpt lat="31.7840000" lon="35.1229500">
<ele>712.750000</ele>
<time>2023-01-25T13:56:44.010Z</time>
</trkpt>
<trkpt lat="31.7839900" lon="35.1230800">
<ele>712.760010</ele>
<time>2023-01-25T13:56:44.010Z</time>
</trkpt>
<trkpt lat="31.7839900" lon="35.1231900">
<ele>713.299988</ele>
<time>2023-01-25T13:56:44.010Z</time>
</trkpt>
<trkpt lat="31.7839900" lon="35.1233000">
<ele>713.839966</ele>
<time>2023-01-25T13:56:44.010Z</time>
</trkpt>
<trkpt lat="31.7840100" lon="35.1234100">
<ele>714.000000</ele>
<time>2023-01-25T13:56:44.010Z</time>
</trkpt>
<trkpt lat="31.7840400" lon="35.1235100">
<ele>714.000000</ele>
<time>2023-01-25T13:56:44.011Z</time>
</trkpt>
<trkpt lat="31.7840800" lon="35.1236300">
<ele>714.109985</ele>
<time>2023-01-25T13:56:44.011Z</time>
</trkpt>
<trkpt lat="31.7841000" lon="35.1237400">
<ele>714.820007</ele>
<time>2023-01-25T13:56:44.011Z</time>
</trkpt>
<trkpt lat="31.7841000" lon="35.1238500">
<ele>715.509949</ele>
<time>2023-01-25T13:56:44.011Z</time>
</trkpt>
<trkpt lat="31.7840800" lon="35.1239500">
<ele>716.489990</ele>
<time>2023-01-25T13:56:44.011Z</time>
</trkpt>
<trkpt lat="31.7840700" lon="35.1239300">
<ele>716.200012</ele>
<time>2023-01-25T13:56:44.011Z</time>
</trkpt>
<trkpt lat="31.7840700" lon="35.1239300">
<ele>716.200012</ele>
<time>2023-01-25T13:56:44.011Z</time>
</trkpt>
<trkpt lat="31.7840700" lon="35.1240500">
<ele>717.799988</ele>
<time>2023-01-25T13:56:44.011Z</time>
</trkpt>
<trkpt lat="31.7840400" lon="35.1241600">
<ele>719.359985</ele>
<time>2023-01-25T13:56:44.011Z</time>
</trkpt>
<trkpt lat="31.7840400" lon="35.1242700">
<ele>720.569946</ele>
<time>2023-01-25T13:56:44.011Z</time>
</trkpt>
<trkpt lat="31.7840500" lon="35.1243800">
<ele>721.719971</ele>
<time>2023-01-25T13:56:44.011Z</time>
</trkpt>
<trkpt lat="31.7840900" lon="35.1244900">
<ele>722.559998</ele>
<time>2023-01-25T13:56:44.011Z</time>
</trkpt>
<trkpt lat="31.7841300" lon="35.1245900">
<ele>723.110046</ele>
<time>2023-01-25T13:56:44.011Z</time>
</trkpt>
<trkpt lat="31.7841800" lon="35.1246900">
<ele>723.760010</ele>
<time>2023-01-25T13:56:44.011Z</time>
</trkpt>
<trkpt lat="31.7842200" lon="35.1247900">
<ele>724.730042</ele>
<time>2023-01-25T13:56:44.011Z</time>
</trkpt>
<trkpt lat="31.7842300" lon="35.1249100">
<ele>726.030029</ele>
<time>2023-01-25T13:56:44.011Z</time>
</trkpt>
<trkpt lat="31.7842200" lon="35.1250300">
<ele>727.299988</ele>
<time>2023-01-25T13:56:44.011Z</time>
</trkpt>
<trkpt lat="31.7841700" lon="35.1251300">
<ele>728.399963</ele>
<time>2023-01-25T13:56:44.011Z</time>
</trkpt>
<trkpt lat="31.7841100" lon="35.1252100">
<ele>729.270020</ele>
<time>2023-01-25T13:56:44.011Z</time>
</trkpt>
<trkpt lat="31.7840500" lon="35.1253100">
<ele>730.419983</ele>
<time>2023-01-25T13:56:44.011Z</time>
</trkpt>
<trkpt lat="31.7840000" lon="35.1254000">
<ele>731.500000</ele>
<time>2023-01-25T13:56:44.011Z</time>
</trkpt>
<trkpt lat="31.7839800" lon="35.1255200">
<ele>732.900024</ele>
<time>2023-01-25T13:56:44.011Z</time>
</trkpt>
<trkpt lat="31.7840000" lon="35.1256300">
<ele>734.689941</ele>
<time>2023-01-25T13:56:44.011Z</time>
</trkpt>
<trkpt lat="31.7840000" lon="35.1256300">
<ele>734.689941</ele>
<time>2023-01-25T13:56:44.011Z</time>
</trkpt>
<trkpt lat="31.7840000" lon="35.1256300">
<ele>734.689941</ele>
<time>2023-01-25T13:56:44.011Z</time>
</trkpt>
<trkpt lat="31.7840000" lon="35.1256300">
<ele>734.689941</ele>
<time>2023-01-25T13:56:44.011Z</time>
</trkpt>
<trkpt lat="31.7840000" lon="35.1256300">
<ele>734.689941</ele>
<time>2023-01-25T13:56:44.011Z</time>
</trkpt>
<trkpt lat="31.7840300" lon="35.1257300">
<ele>736.659973</ele>
<time>2023-01-25T13:56:44.011Z</time>
</trkpt>
<trkpt lat="31.7840400" lon="35.1258400">
<ele>738.750000</ele>
<time>2023-01-25T13:56:44.011Z</time>
</trkpt>
<trkpt lat="31.7840600" lon="35.1259500">
<ele>740.949951</ele>
<time>2023-01-25T13:56:44.011Z</time>
</trkpt>
<trkpt lat="31.7840900" lon="35.1260500">
<ele>743.070007</ele>
<time>2023-01-25T13:56:44.011Z</time>
</trkpt>
<trkpt lat="31.7841100" lon="35.1261600">
<ele>744.350037</ele>
<time>2023-01-25T13:56:44.011Z</time>
</trkpt>
<trkpt lat="31.7841600" lon="35.1262600">
<ele>744.919983</ele>
<time>2023-01-25T13:56:44.011Z</time>
</trkpt>
<trkpt lat="31.7842300" lon="35.1263300">
<ele>745.959961</ele>
<time>2023-01-25T13:56:44.011Z</time>
</trkpt>
<trkpt lat="31.7843200" lon="35.1263300">
<ele>747.330017</ele>
<time>2023-01-25T13:56:44.011Z</time>
</trkpt>
<trkpt lat="31.7843300" lon="35.1262200">
<ele>747.709961</ele>
<time>2023-01-25T13:56:44.011Z</time>
</trkpt>
<trkpt lat="31.7843700" lon="35.1261200">
<ele>748.640015</ele>
<time>2023-01-25T13:56:44.011Z</time>
</trkpt>
<trkpt lat="31.7843700" lon="35.1260100">
<ele>747.109985</ele>
<time>2023-01-25T13:56:44.011Z</time>
</trkpt>
<trkpt lat="31.7844000" lon="35.1259000">
<ele>746.039978</ele>
<time>2023-01-25T13:56:44.011Z</time>
</trkpt>
<trkpt lat="31.7844300" lon="35.1258000">
<ele>744.969971</ele>
<time>2023-01-25T13:56:44.011Z</time>
</trkpt>
<trkpt lat="31.7844700" lon="35.1257000">
<ele>744.090027</ele>
<time>2023-01-25T13:56:44.011Z</time>
</trkpt>
<trkpt lat="31.7845500" lon="35.1256300">
<ele>745.510010</ele>
<time>2023-01-25T13:56:44.012Z</time>
</trkpt>
<trkpt lat="31.7846300" lon="35.1255900">
<ele>747.510010</ele>
<time>2023-01-25T13:56:44.012Z</time>
</trkpt>
<trkpt lat="31.7847200" lon="35.1255400">
<ele>749.419983</ele>
<time>2023-01-25T13:56:44.012Z</time>
</trkpt>
<trkpt lat="31.7848100" lon="35.1255300">
<ele>750.690002</ele>
<time>2023-01-25T13:56:44.012Z</time>
</trkpt>
<trkpt lat="31.7849000" lon="35.1255400">
<ele>752.620056</ele>
<time>2023-01-25T13:56:44.012Z</time>
</trkpt>
<trkpt lat="31.7849400" lon="35.1256100">
<ele>754.829956</ele>
<time>2023-01-25T13:56:44.012Z</time>
</trkpt>
<trkpt lat="31.7849400" lon="35.1256100">
<ele>754.829956</ele>
<time>2023-01-25T13:56:44.012Z</time>
</trkpt>
<trkpt lat="31.7849800" lon="35.1256200">
<ele>755.620056</ele>
<time>2023-01-25T13:56:44.012Z</time>
</trkpt>
<trkpt lat="31.7849900" lon="35.1256200">
<ele>755.769958</ele>
<time>2023-01-25T13:56:44.012Z</time>
</trkpt>
<trkpt lat="31.7850100" lon="35.1256300">
<ele>756.009949</ele>
<time>2023-01-25T13:56:44.012Z</time>
</trkpt>
<trkpt lat="31.7850200" lon="35.1256300">
<ele>755.940002</ele>
<time>2023-01-25T13:56:44.012Z</time>
</trkpt>
<trkpt lat="31.7850200" lon="35.1256200">
<ele>755.809998</ele>
<time>2023-01-25T13:56:44.012Z</time>
</trkpt>
<trkpt lat="31.7850200" lon="35.1256200">
<ele>755.809998</ele>
<time>2023-01-25T13:56:44.012Z</time>
</trkpt>
<trkpt lat="31.7850200" lon="35.1256200">
<ele>755.809998</ele>
<time>2023-01-25T13:56:44.012Z</time>
</trkpt>
<trkpt lat="31.7850200" lon="35.1256200">
<ele>755.809998</ele>
<time>2023-01-25T13:56:44.012Z</time>
</trkpt>
<trkpt lat="31.7850200" lon="35.1256200">
<ele>755.809998</ele>
<time>2023-01-25T13:56:44.012Z</time>
</trkpt>
<trkpt lat="31.7850200" lon="35.1256200">
<ele>755.809998</ele>
<time>2023-01-25T13:56:44.012Z</time>
</trkpt>
<trkpt lat="31.7850200" lon="35.1256200">
<ele>755.809998</ele>
<time>2023-01-25T13:56:44.012Z</time>
</trkpt>
<trkpt lat="31.7850200" lon="35.1256200">
<ele>755.809998</ele>
<time>2023-01-25T13:56:44.012Z</time>
</trkpt>
<trkpt lat="31.7850200" lon="35.1256200">
<ele>755.809998</ele>
<time>2023-01-25T13:56:44.012Z</time>
</trkpt>
<trkpt lat="31.7850200" lon="35.1256200">
<ele>755.809998</ele>
<time>2023-01-25T13:56:44.012Z</time>
</trkpt>
<trkpt lat="31.7850200" lon="35.1256200">
<ele>755.809998</ele>
<time>2023-01-25T13:56:44.012Z</time>
</trkpt>
<trkpt lat="31.7850300" lon="35.1256200">
<ele>755.739990</ele>
<time>2023-01-25T13:56:44.012Z</time>
</trkpt>
<trkpt lat="31.7850300" lon="35.1256200">
<ele>755.739990</ele>
<time>2023-01-25T13:56:44.012Z</time>
</trkpt>
<trkpt lat="31.7850300" lon="35.1256200">
<ele>755.739990</ele>
<time>2023-01-25T13:56:44.012Z</time>
</trkpt>
<trkpt lat="31.7850300" lon="35.1256200">
<ele>755.739990</ele>
<time>2023-01-25T13:56:44.012Z</time>
</trkpt>
<trkpt lat="31.7850300" lon="35.1256200">
<ele>755.739990</ele>
<time>2023-01-25T13:56:44.012Z</time>
</trkpt>
<trkpt lat="31.7850300" lon="35.1256200">
<ele>755.739990</ele>
<time>2023-01-25T13:56:44.013Z</time>
</trkpt>
<trkpt lat="31.7850300" lon="35.1256200">
<ele>755.739990</ele>
<time>2023-01-25T13:56:44.013Z</time>
</trkpt>
<trkpt lat="31.7850300" lon="35.1256200">
<ele>755.739990</ele>
<time>2023-01-25T13:56:44.013Z</time>
</trkpt>
<trkpt lat="31.7850300" lon="35.1256200">
<ele>755.739990</ele>
<time>2023-01-25T13:56:44.013Z</time>
</trkpt>
<trkpt lat="31.7850300" lon="35.1256200">
<ele>755.739990</ele>
<time>2023-01-25T13:56:44.013Z</time>
</trkpt>
<trkpt lat="31.7850300" lon="35.1256200">
<ele>755.739990</ele>
<time>2023-01-25T13:56:44.013Z</time>
</trkpt>
<trkpt lat="31.7849400" lon="35.1256200">
<ele>755.000000</ele>
<time>2023-01-25T13:56:44.013Z</time>
</trkpt>
<trkpt lat="31.7848800" lon="35.1255300">
<ele>751.909973</ele>
<time>2023-01-25T13:56:44.013Z</time>
</trkpt>
<trkpt lat="31.7847800" lon="35.1255300">
<ele>750.170044</ele>
<time>2023-01-25T13:56:44.013Z</time>
</trkpt>
<trkpt lat="31.7846700" lon="35.1255600">
<ele>748.229980</ele>
<time>2023-01-25T13:56:44.013Z</time>
</trkpt>
<trkpt lat="31.7845900" lon="35.1256100">
<ele>746.520020</ele>
<time>2023-01-25T13:56:44.013Z</time>
</trkpt>
<trkpt lat="31.7844900" lon="35.1256700">
<ele>744.179993</ele>
<time>2023-01-25T13:56:44.013Z</time>
</trkpt>
<trkpt lat="31.7844200" lon="35.1257300">
<ele>743.239990</ele>
<time>2023-01-25T13:56:44.013Z</time>
</trkpt>
<trkpt lat="31.7844000" lon="35.1258500">
<ele>745.290039</ele>
<time>2023-01-25T13:56:44.013Z</time>
</trkpt>
<trkpt lat="31.7843500" lon="35.1259700">
<ele>746.100037</ele>
<time>2023-01-25T13:56:44.013Z</time>
</trkpt>
<trkpt lat="31.7843400" lon="35.1260900">
<ele>747.789978</ele>
<time>2023-01-25T13:56:44.013Z</time>
</trkpt>
<trkpt lat="31.7843300" lon="35.1262000">
<ele>747.750000</ele>
<time>2023-01-25T13:56:44.013Z</time>
</trkpt>
<trkpt lat="31.7843300" lon="35.1262000">
<ele>747.750000</ele>
<time>2023-01-25T13:56:44.013Z</time>
</trkpt>
<trkpt lat="31.7843300" lon="35.1262000">
<ele>747.750000</ele>
<time>2023-01-25T13:56:44.013Z</time>
</trkpt>
<trkpt lat="31.7843300" lon="35.1262000">
<ele>747.750000</ele>
<time>2023-01-25T13:56:44.013Z</time>
</trkpt>
<trkpt lat="31.7843300" lon="35.1262000">
<ele>747.750000</ele>
<time>2023-01-25T13:56:44.013Z</time>
</trkpt>
<trkpt lat="31.7843100" lon="35.1263200">
<ele>747.189941</ele>
<time>2023-01-25T13:56:44.013Z</time>
</trkpt>
<trkpt lat="31.7842000" lon="35.1263300">
<ele>745.510010</ele>
<time>2023-01-25T13:56:44.013Z</time>
</trkpt>
<trkpt lat="31.7841400" lon="35.1262300">
<ele>744.669983</ele>
<time>2023-01-25T13:56:44.013Z</time>
</trkpt>
<trkpt lat="31.7840900" lon="35.1261000">
<ele>743.969971</ele>
<time>2023-01-25T13:56:44.013Z</time>
</trkpt>
<trkpt lat="31.7840800" lon="35.1259700">
<ele>741.519958</ele>
<time>2023-01-25T13:56:44.013Z</time>
</trkpt>
<trkpt lat="31.7840400" lon="35.1258300">
<ele>738.570007</ele>
<time>2023-01-25T13:56:44.013Z</time>
</trkpt>
<trkpt lat="31.7840200" lon="35.1257200">
<ele>736.400024</ele>
<time>2023-01-25T13:56:44.014Z</time>
</trkpt>
<trkpt lat="31.7840000" lon="35.1256200">
<ele>734.510010</ele>
<time>2023-01-25T13:56:44.014Z</time>
</trkpt>
<trkpt lat="31.7839300" lon="35.1256300">
<ele>734.300049</ele>
<time>2023-01-25T13:56:44.014Z</time>
</trkpt>
<trkpt lat="31.7839300" lon="35.1256300">
<ele>734.300049</ele>
<time>2023-01-25T13:56:44.014Z</time>
</trkpt>
<trkpt lat="31.7839600" lon="35.1256600">
<ele>734.949951</ele>
<time>2023-01-25T13:56:44.014Z</time>
</trkpt>
<trkpt lat="31.7839600" lon="35.1256600">
<ele>734.949951</ele>
<time>2023-01-25T13:56:44.014Z</time>
</trkpt>
<trkpt lat="31.7839600" lon="35.1256600">
<ele>734.949951</ele>
<time>2023-01-25T13:56:44.014Z</time>
</trkpt>
<trkpt lat="31.7839600" lon="35.1256600">
<ele>734.949951</ele>
<time>2023-01-25T13:56:44.014Z</time>
</trkpt>
<trkpt lat="31.7839600" lon="35.1256600">
<ele>734.949951</ele>
<time>2023-01-25T13:56:44.014Z</time>
</trkpt>
<trkpt lat="31.7839600" lon="35.1256600">
<ele>734.949951</ele>
<time>2023-01-25T13:56:44.014Z</time>
</trkpt>
<trkpt lat="31.7839600" lon="35.1256600">
<ele>734.949951</ele>
<time>2023-01-25T13:56:44.014Z</time>
</trkpt>
<trkpt lat="31.7839600" lon="35.1256600">
<ele>734.949951</ele>
<time>2023-01-25T13:56:44.014Z</time>
</trkpt>
<trkpt lat="31.7839600" lon="35.1256600">
<ele>734.949951</ele>
<time>2023-01-25T13:56:44.014Z</time>
</trkpt>
<trkpt lat="31.7839600" lon="35.1256600">
<ele>734.949951</ele>
<time>2023-01-25T13:56:44.014Z</time>
</trkpt>
<trkpt lat="31.7839600" lon="35.1256600">
<ele>734.949951</ele>
<time>2023-01-25T13:56:44.014Z</time>
</trkpt>
<trkpt lat="31.7839600" lon="35.1256600">
<ele>734.949951</ele>
<time>2023-01-25T13:56:44.014Z</time>
</trkpt>
<trkpt lat="31.7839400" lon="35.1257700">
<ele>736.559998</ele>
<time>2023-01-25T13:56:44.014Z</time>
</trkpt>
<trkpt lat="31.7839600" lon="35.1258900">
<ele>738.790039</ele>
<time>2023-01-25T13:56:44.014Z</time>
</trkpt>
<trkpt lat="31.7839700" lon="35.1260000">
<ele>740.880005</ele>
<time>2023-01-25T13:56:44.014Z</time>
</trkpt>
<trkpt lat="31.7840000" lon="35.1261100">
<ele>743.179993</ele>
<time>2023-01-25T13:56:44.014Z</time>
</trkpt>
<trkpt lat="31.7840400" lon="35.1262300">
<ele>743.440002</ele>
<time>2023-01-25T13:56:44.014Z</time>
</trkpt>
<trkpt lat="31.7840900" lon="35.1263300">
<ele>743.949951</ele>
<time>2023-01-25T13:56:44.014Z</time>
</trkpt>
<trkpt lat="31.7841500" lon="35.1264100">
<ele>744.519958</ele>
<time>2023-01-25T13:56:44.014Z</time>
</trkpt>
<trkpt lat="31.7842300" lon="35.1264900">
<ele>744.649963</ele>
<time>2023-01-25T13:56:44.014Z</time>
</trkpt>
<trkpt lat="31.7843100" lon="35.1265600">
<ele>744.579956</ele>
<time>2023-01-25T13:56:44.014Z</time>
</trkpt>
<trkpt lat="31.7843900" lon="35.1266200">
<ele>744.380005</ele>
<time>2023-01-25T13:56:44.014Z</time>
</trkpt>
<trkpt lat="31.7844800" lon="35.1267000">
<ele>742.790039</ele>
<time>2023-01-25T13:56:44.014Z</time>
</trkpt>
<trkpt lat="31.7845400" lon="35.1267900">
<ele>739.660034</ele>
<time>2023-01-25T13:56:44.015Z</time>
</trkpt>
<trkpt lat="31.7845900" lon="35.1268900">
<ele>736.239990</ele>
<time>2023-01-25T13:56:44.015Z</time>
</trkpt>
<trkpt lat="31.7846600" lon="35.1269800">
<ele>733.140015</ele>
<time>2023-01-25T13:56:44.015Z</time>
</trkpt>
<trkpt lat="31.7847600" lon="35.1270500">
<ele>730.570007</ele>
<time>2023-01-25T13:56:44.015Z</time>
</trkpt>
<trkpt lat="31.7848800" lon="35.1271300">
<ele>727.520020</ele>
<time>2023-01-25T13:56:44.015Z</time>
</trkpt>
<trkpt lat="31.7849900" lon="35.1272200">
<ele>725.079956</ele>
<time>2023-01-25T13:56:44.015Z</time>
</trkpt>
<trkpt lat="31.7851000" lon="35.1273500">
<ele>723.259949</ele>
<time>2023-01-25T13:56:44.015Z</time>
</trkpt>
<trkpt lat="31.7851900" lon="35.1274900">
<ele>721.419983</ele>
<time>2023-01-25T13:56:44.015Z</time>
</trkpt>
<trkpt lat="31.7852600" lon="35.1276500">
<ele>718.899963</ele>
<time>2023-01-25T13:56:44.015Z</time>
</trkpt>
<trkpt lat="31.7853100" lon="35.1278200">
<ele>715.890015</ele>
<time>2023-01-25T13:56:44.015Z</time>
</trkpt>
<trkpt lat="31.7853600" lon="35.1280100">
<ele>711.840027</ele>
<time>2023-01-25T13:56:44.015Z</time>
</trkpt>
<trkpt lat="31.7853800" lon="35.1282100">
<ele>709.080017</ele>
<time>2023-01-25T13:56:44.015Z</time>
</trkpt>
<trkpt lat="31.7853900" lon="35.1283600">
<ele>707.460022</ele>
<time>2023-01-25T13:56:44.015Z</time>
</trkpt>
<trkpt lat="31.7853900" lon="35.1284800">
<ele>706.770020</ele>
<time>2023-01-25T13:56:44.015Z</time>
</trkpt>
<trkpt lat="31.7853900" lon="35.1286100">
<ele>706.029968</ele>
<time>2023-01-25T13:56:44.015Z</time>
</trkpt>
<trkpt lat="31.7853900" lon="35.1287300">
<ele>706.100037</ele>
<time>2023-01-25T13:56:44.015Z</time>
</trkpt>
<trkpt lat="31.7853900" lon="35.1288500">
<ele>706.190002</ele>
<time>2023-01-25T13:56:44.015Z</time>
</trkpt>
<trkpt lat="31.7853900" lon="35.1289600">
<ele>706.980042</ele>
<time>2023-01-25T13:56:44.015Z</time>
</trkpt>
<trkpt lat="31.7853800" lon="35.1291000">
<ele>708.380005</ele>
<time>2023-01-25T13:56:44.015Z</time>
</trkpt>
<trkpt lat="31.7853800" lon="35.1292100">
<ele>709.670044</ele>
<time>2023-01-25T13:56:44.015Z</time>
</trkpt>
<trkpt lat="31.7853700" lon="35.1293300">
<ele>711.149963</ele>
<time>2023-01-25T13:56:44.015Z</time>
</trkpt>
<trkpt lat="31.7853600" lon="35.1294400">
<ele>712.529968</ele>
<time>2023-01-25T13:56:44.015Z</time>
</trkpt>
<trkpt lat="31.7853400" lon="35.1295500">
<ele>713.710022</ele>
<time>2023-01-25T13:56:44.015Z</time>
</trkpt>
<trkpt lat="31.7853400" lon="35.1296800">
<ele>715.269958</ele>
<time>2023-01-25T13:56:44.015Z</time>
</trkpt>
<trkpt lat="31.7853400" lon="35.1298000">
<ele>715.340027</ele>
<time>2023-01-25T13:56:44.015Z</time>
</trkpt>
<trkpt lat="31.7853500" lon="35.1299400">
<ele>714.580017</ele>
<time>2023-01-25T13:56:44.015Z</time>
</trkpt>
<trkpt lat="31.7853500" lon="35.1300500">
<ele>714.030029</ele>
<time>2023-01-25T13:56:44.015Z</time>
</trkpt>
<trkpt lat="31.7853600" lon="35.1301900">
<ele>713.409973</ele>
<time>2023-01-25T13:56:44.016Z</time>
</trkpt>
<trkpt lat="31.7853700" lon="35.1302900">
<ele>712.989990</ele>
<time>2023-01-25T13:56:44.016Z</time>
</trkpt>
<trkpt lat="31.7853800" lon="35.1304100">
<ele>712.869995</ele>
<time>2023-01-25T13:56:44.016Z</time>
</trkpt>
<trkpt lat="31.7854100" lon="35.1305300">
<ele>712.960022</ele>
<time>2023-01-25T13:56:44.016Z</time>
</trkpt>
<trkpt lat="31.7854400" lon="35.1306400">
<ele>712.200012</ele>
<time>2023-01-25T13:56:44.016Z</time>
</trkpt>
<trkpt lat="31.7853600" lon="35.1307200">
<ele>711.059998</ele>
<time>2023-01-25T13:56:44.016Z</time>
</trkpt>
<trkpt lat="31.7852800" lon="35.1307600">
<ele>710.530029</ele>
<time>2023-01-25T13:56:44.016Z</time>
</trkpt>
<trkpt lat="31.7851800" lon="35.1307700">
<ele>710.099976</ele>
<time>2023-01-25T13:56:44.016Z</time>
</trkpt>
<trkpt lat="31.7850800" lon="35.1308000">
<ele>709.529968</ele>
<time>2023-01-25T13:56:44.016Z</time>
</trkpt>
<trkpt lat="31.7849900" lon="35.1308700">
<ele>708.860046</ele>
<time>2023-01-25T13:56:44.016Z</time>
</trkpt>
<trkpt lat="31.7848800" lon="35.1309000">
<ele>708.549988</ele>
<time>2023-01-25T13:56:44.016Z</time>
</trkpt>
<trkpt lat="31.7847800" lon="35.1309200">
<ele>708.190002</ele>
<time>2023-01-25T13:56:44.016Z</time>
</trkpt>
<trkpt lat="31.7846900" lon="35.1309700">
<ele>707.290039</ele>
<time>2023-01-25T13:56:44.016Z</time>
</trkpt>
<trkpt lat="31.7846000" lon="35.1310200">
<ele>706.100037</ele>
<time>2023-01-25T13:56:44.016Z</time>
</trkpt>
<trkpt lat="31.7845100" lon="35.1310400">
<ele>705.239990</ele>
<time>2023-01-25T13:56:44.016Z</time>
</trkpt>
<trkpt lat="31.7844100" lon="35.1309700">
<ele>705.030029</ele>
<time>2023-01-25T13:56:44.016Z</time>
</trkpt>
<trkpt lat="31.7843300" lon="35.1308900">
<ele>704.739990</ele>
<time>2023-01-25T13:56:44.016Z</time>
</trkpt>
<trkpt lat="31.7842800" lon="35.1308000">
<ele>704.460022</ele>
<time>2023-01-25T13:56:44.016Z</time>
</trkpt>
<trkpt lat="31.7842300" lon="35.1307100">
<ele>703.369995</ele>
<time>2023-01-25T13:56:44.016Z</time>
</trkpt>
<trkpt lat="31.7841400" lon="35.1306100">
<ele>702.000000</ele>
<time>2023-01-25T13:56:44.016Z</time>
</trkpt>
<trkpt lat="31.7840700" lon="35.1305100">
<ele>700.659973</ele>
<time>2023-01-25T13:56:44.016Z</time>
</trkpt>
<trkpt lat="31.7840000" lon="35.1304200">
<ele>699.239990</ele>
<time>2023-01-25T13:56:44.016Z</time>
</trkpt>
<trkpt lat="31.7839100" lon="35.1303800">
<ele>698.739990</ele>
<time>2023-01-25T13:56:44.016Z</time>
</trkpt>
<trkpt lat="31.7838300" lon="35.1304600">
<ele>698.110046</ele>
<time>2023-01-25T13:56:44.016Z</time>
</trkpt>
<trkpt lat="31.7837300" lon="35.1304400">
<ele>695.970032</ele>
<time>2023-01-25T13:56:44.016Z</time>
</trkpt>
<trkpt lat="31.7836600" lon="35.1303500">
<ele>694.190063</ele>
<time>2023-01-25T13:56:44.016Z</time>
</trkpt>
<trkpt lat="31.7835500" lon="35.1303400">
<ele>691.629944</ele>
<time>2023-01-25T13:56:44.017Z</time>
</trkpt>
<trkpt lat="31.7834500" lon="35.1303500">
<ele>689.050049</ele>
<time>2023-01-25T13:56:44.017Z</time>
</trkpt>
<trkpt lat="31.7833500" lon="35.1303800">
<ele>686.440063</ele>
<time>2023-01-25T13:56:44.017Z</time>
</trkpt>
<trkpt lat="31.7832600" lon="35.1303900">
<ele>684.570007</ele>
<time>2023-01-25T13:56:44.018Z</time>
</trkpt>
<trkpt lat="31.7831600" lon="35.1304400">
<ele>682.519958</ele>
<time>2023-01-25T13:56:44.018Z</time>
</trkpt>
<trkpt lat="31.7831300" lon="35.1304600">
<ele>681.859985</ele>
<time>2023-01-25T13:56:44.018Z</time>
</trkpt>
<trkpt lat="31.7831300" lon="35.1304600">
<ele>681.859985</ele>
<time>2023-01-25T13:56:44.018Z</time>
</trkpt>
<trkpt lat="31.7831300" lon="35.1304600">
<ele>681.859985</ele>
<time>2023-01-25T13:56:44.018Z</time>
</trkpt>
<trkpt lat="31.7831300" lon="35.1304600">
<ele>681.859985</ele>
<time>2023-01-25T13:56:44.018Z</time>
</trkpt>
<trkpt lat="31.7830700" lon="35.1305500">
<ele>680.329956</ele>
<time>2023-01-25T13:56:44.018Z</time>
</trkpt>
<trkpt lat="31.7830100" lon="35.1306400">
<ele>678.980042</ele>
<time>2023-01-25T13:56:44.018Z</time>
</trkpt>
<trkpt lat="31.7829300" lon="35.1306900">
<ele>676.859985</ele>
<time>2023-01-25T13:56:44.018Z</time>
</trkpt>
<trkpt lat="31.7828400" lon="35.1307500">
<ele>673.950012</ele>
<time>2023-01-25T13:56:44.018Z</time>
</trkpt>
<trkpt lat="31.7827400" lon="35.1308200">
<ele>670.349976</ele>
<time>2023-01-25T13:56:44.018Z</time>
</trkpt>
<trkpt lat="31.7826400" lon="35.1309200">
<ele>667.400024</ele>
<time>2023-01-25T13:56:44.018Z</time>
</trkpt>
<trkpt lat="31.7825700" lon="35.1310000">
<ele>665.309998</ele>
<time>2023-01-25T13:56:44.018Z</time>
</trkpt>
<trkpt lat="31.7825300" lon="35.1311100">
<ele>663.660034</ele>
<time>2023-01-25T13:56:44.018Z</time>
</trkpt>
<trkpt lat="31.7825400" lon="35.1312300">
<ele>664.109985</ele>
<time>2023-01-25T13:56:44.018Z</time>
</trkpt>
<trkpt lat="31.7825400" lon="35.1313400">
<ele>664.340027</ele>
<time>2023-01-25T13:56:44.018Z</time>
</trkpt>
<trkpt lat="31.7825300" lon="35.1314500">
<ele>664.690002</ele>
<time>2023-01-25T13:56:44.018Z</time>
</trkpt>
<trkpt lat="31.7825300" lon="35.1315800">
<ele>666.000000</ele>
<time>2023-01-25T13:56:44.018Z</time>
</trkpt>
<trkpt lat="31.7824600" lon="35.1316600">
<ele>665.919983</ele>
<time>2023-01-25T13:56:44.018Z</time>
</trkpt>
<trkpt lat="31.7823600" lon="35.1316600">
<ele>665.899963</ele>
<time>2023-01-25T13:56:44.018Z</time>
</trkpt>
<trkpt lat="31.7822700" lon="35.1316200">
<ele>665.219971</ele>
<time>2023-01-25T13:56:44.018Z</time>
</trkpt>
<trkpt lat="31.7821900" lon="35.1315700">
<ele>664.990051</ele>
<time>2023-01-25T13:56:44.018Z</time>
</trkpt>
<trkpt lat="31.7821700" lon="35.1315300">
<ele>664.669983</ele>
<time>2023-01-25T13:56:44.018Z</time>
</trkpt>
<trkpt lat="31.7821700" lon="35.1315300">
<ele>664.669983</ele>
<time>2023-01-25T13:56:44.018Z</time>
</trkpt>
<trkpt lat="31.7821700" lon="35.1315200">
<ele>664.479980</ele>
<time>2023-01-25T13:56:44.018Z</time>
</trkpt>
<trkpt lat="31.7821700" lon="35.1315200">
<ele>664.479980</ele>
<time>2023-01-25T13:56:44.018Z</time>
</trkpt>
<trkpt lat="31.7821700" lon="35.1315200">
<ele>664.479980</ele>
<time>2023-01-25T13:56:44.018Z</time>
</trkpt>
<trkpt lat="31.7821700" lon="35.1315200">
<ele>664.479980</ele>
<time>2023-01-25T13:56:44.018Z</time>
</trkpt>
<trkpt lat="31.7821000" lon="35.1314500">
<ele>664.489990</ele>
<time>2023-01-25T13:56:44.018Z</time>
</trkpt>
<trkpt lat="31.7820000" lon="35.1313900">
<ele>665.029968</ele>
<time>2023-01-25T13:56:44.018Z</time>
</trkpt>
<trkpt lat="31.7819200" lon="35.1313400">
<ele>665.230042</ele>
<time>2023-01-25T13:56:44.018Z</time>
</trkpt>
<trkpt lat="31.7818300" lon="35.1312700">
<ele>663.979980</ele>
<time>2023-01-25T13:56:44.019Z</time>
</trkpt>
<trkpt lat="31.7817500" lon="35.1311900">
<ele>661.820007</ele>
<time>2023-01-25T13:56:44.019Z</time>
</trkpt>
<trkpt lat="31.7816600" lon="35.1311100">
<ele>659.130005</ele>
<time>2023-01-25T13:56:44.019Z</time>
</trkpt>
<trkpt lat="31.7815800" lon="35.1310300">
<ele>659.340027</ele>
<time>2023-01-25T13:56:44.019Z</time>
</trkpt>
<trkpt lat="31.7814800" lon="35.1309800">
<ele>659.880005</ele>
<time>2023-01-25T13:56:44.019Z</time>
</trkpt>
<trkpt lat="31.7813700" lon="35.1309300">
<ele>659.969971</ele>
<time>2023-01-25T13:56:44.019Z</time>
</trkpt>
<trkpt lat="31.7812700" lon="35.1308800">
<ele>659.340027</ele>
<time>2023-01-25T13:56:44.019Z</time>
</trkpt>
<trkpt lat="31.7811600" lon="35.1308500">
<ele>659.230042</ele>
<time>2023-01-25T13:56:44.019Z</time>
</trkpt>
<trkpt lat="31.7810400" lon="35.1308500">
<ele>660.079956</ele>
<time>2023-01-25T13:56:44.019Z</time>
</trkpt>
<trkpt lat="31.7809500" lon="35.1308600">
<ele>661.010010</ele>
<time>2023-01-25T13:56:44.019Z</time>
</trkpt>
<trkpt lat="31.7808200" lon="35.1308600">
<ele>661.849976</ele>
<time>2023-01-25T13:56:44.019Z</time>
</trkpt>
<trkpt lat="31.7806900" lon="35.1308400">
<ele>662.190002</ele>
<time>2023-01-25T13:56:44.019Z</time>
</trkpt>
<trkpt lat="31.7805800" lon="35.1308400">
<ele>662.949951</ele>
<time>2023-01-25T13:56:44.019Z</time>
</trkpt>
<trkpt lat="31.7804800" lon="35.1308600">
<ele>662.960022</ele>
<time>2023-01-25T13:56:44.019Z</time>
</trkpt>
<trkpt lat="31.7803700" lon="35.1308800">
<ele>662.619995</ele>
<time>2023-01-25T13:56:44.019Z</time>
</trkpt>
<trkpt lat="31.7802700" lon="35.1308700">
<ele>661.869995</ele>
<time>2023-01-25T13:56:44.019Z</time>
</trkpt>
<trkpt lat="31.7801800" lon="35.1308300">
<ele>661.959961</ele>
<time>2023-01-25T13:56:44.019Z</time>
</trkpt>
<trkpt lat="31.7800900" lon="35.1307200">
<ele>660.040039</ele>
<time>2023-01-25T13:56:44.019Z</time>
</trkpt>
<trkpt lat="31.7800400" lon="35.1306300">
<ele>658.340027</ele>
<time>2023-01-25T13:56:44.019Z</time>
</trkpt>
<trkpt lat="31.7799700" lon="35.1305300">
<ele>657.720032</ele>
<time>2023-01-25T13:56:44.019Z</time>
</trkpt>
<trkpt lat="31.7798800" lon="35.1304400">
<ele>660.000000</ele>
<time>2023-01-25T13:56:44.019Z</time>
</trkpt>
<trkpt lat="31.7798200" lon="35.1303200">
<ele>661.390015</ele>
<time>2023-01-25T13:56:44.020Z</time>
</trkpt>
<trkpt lat="31.7797600" lon="35.1302300">
<ele>662.689941</ele>
<time>2023-01-25T13:56:44.020Z</time>
</trkpt>
<trkpt lat="31.7797300" lon="35.1301300">
<ele>662.059998</ele>
<time>2023-01-25T13:56:44.020Z</time>
</trkpt>
<trkpt lat="31.7796800" lon="35.1300200">
<ele>661.570007</ele>
<time>2023-01-25T13:56:44.020Z</time>
</trkpt>
<trkpt lat="31.7796300" lon="35.1299300">
<ele>661.479980</ele>
<time>2023-01-25T13:56:44.020Z</time>
</trkpt>
<trkpt lat="31.7795600" lon="35.1298500">
<ele>662.289978</ele>
<time>2023-01-25T13:56:44.020Z</time>
</trkpt>
<trkpt lat="31.7794700" lon="35.1298000">
<ele>664.320007</ele>
<time>2023-01-25T13:56:44.020Z</time>
</trkpt>
<trkpt lat="31.7793600" lon="35.1297700">
<ele>666.759949</ele>
<time>2023-01-25T13:56:44.020Z</time>
</trkpt>
<trkpt lat="31.7792800" lon="35.1296800">
<ele>667.229980</ele>
<time>2023-01-25T13:56:44.020Z</time>
</trkpt>
<trkpt lat="31.7792200" lon="35.1296000">
<ele>667.019958</ele>
<time>2023-01-25T13:56:44.020Z</time>
</trkpt>
<trkpt lat="31.7791500" lon="35.1295100">
<ele>666.450012</ele>
<time>2023-01-25T13:56:44.020Z</time>
</trkpt>
<trkpt lat="31.7790900" lon="35.1294300">
<ele>664.869995</ele>
<time>2023-01-25T13:56:44.020Z</time>
</trkpt>
<trkpt lat="31.7790000" lon="35.1293500">
<ele>663.079956</ele>
<time>2023-01-25T13:56:44.020Z</time>
</trkpt>
<trkpt lat="31.7789000" lon="35.1293200">
<ele>662.809998</ele>
<time>2023-01-25T13:56:44.020Z</time>
</trkpt>
<trkpt lat="31.7788000" lon="35.1293000">
<ele>664.609985</ele>
<time>2023-01-25T13:56:44.020Z</time>
</trkpt>
<trkpt lat="31.7787000" lon="35.1293000">
<ele>667.149963</ele>
<time>2023-01-25T13:56:44.020Z</time>
</trkpt>
<trkpt lat="31.7785900" lon="35.1293000">
<ele>669.669983</ele>
<time>2023-01-25T13:56:44.020Z</time>
</trkpt>
<trkpt lat="31.7785000" lon="35.1292900">
<ele>670.690002</ele>
<time>2023-01-25T13:56:44.020Z</time>
</trkpt>
<trkpt lat="31.7783900" lon="35.1293000">
<ele>672.229980</ele>
<time>2023-01-25T13:56:44.020Z</time>
</trkpt>
<trkpt lat="31.7782900" lon="35.1293000">
<ele>673.039978</ele>
<time>2023-01-25T13:56:44.020Z</time>
</trkpt>
<trkpt lat="31.7782000" lon="35.1293100">
<ele>673.259949</ele>
<time>2023-01-25T13:56:44.020Z</time>
</trkpt>
<trkpt lat="31.7781000" lon="35.1293000">
<ele>673.400024</ele>
<time>2023-01-25T13:56:44.020Z</time>
</trkpt>
<trkpt lat="31.7780000" lon="35.1292900">
<ele>673.530029</ele>
<time>2023-01-25T13:56:44.020Z</time>
</trkpt>
<trkpt lat="31.7779200" lon="35.1292300">
<ele>673.340027</ele>
<time>2023-01-25T13:56:44.020Z</time>
</trkpt>
<trkpt lat="31.7779200" lon="35.1291100">
<ele>672.799988</ele>
<time>2023-01-25T13:56:44.020Z</time>
</trkpt>
<trkpt lat="31.7778400" lon="35.1290400">
<ele>672.540039</ele>
<time>2023-01-25T13:56:44.020Z</time>
</trkpt>
<trkpt lat="31.7778700" lon="35.1289300">
<ele>672.150024</ele>
<time>2023-01-25T13:56:44.020Z</time>
</trkpt>
<trkpt lat="31.7778200" lon="35.1288300">
<ele>672.150024</ele>
<time>2023-01-25T13:56:44.020Z</time>
</trkpt>
<trkpt lat="31.7777400" lon="35.1287600">
<ele>672.400024</ele>
<time>2023-01-25T13:56:44.020Z</time>
</trkpt>
<trkpt lat="31.7776500" lon="35.1287300">
<ele>672.309998</ele>
<time>2023-01-25T13:56:44.020Z</time>
</trkpt>
<trkpt lat="31.7775500" lon="35.1287300">
<ele>672.099976</ele>
<time>2023-01-25T13:56:44.020Z</time>
</trkpt>
<trkpt lat="31.7774600" lon="35.1287700">
<ele>671.609985</ele>
<time>2023-01-25T13:56:44.021Z</time>
</trkpt>
<trkpt lat="31.7773900" lon="35.1288500">
<ele>670.580017</ele>
<time>2023-01-25T13:56:44.021Z</time>
</trkpt>
<trkpt lat="31.7773200" lon="35.1289300">
<ele>669.500000</ele>
<time>2023-01-25T13:56:44.021Z</time>
</trkpt>
<trkpt lat="31.7772400" lon="35.1290100">
<ele>668.659973</ele>
<time>2023-01-25T13:56:44.021Z</time>
</trkpt>
<trkpt lat="31.7771400" lon="35.1290700">
<ele>667.190002</ele>
<time>2023-01-25T13:56:44.021Z</time>
</trkpt>
<trkpt lat="31.7770600" lon="35.1291200">
<ele>665.619995</ele>
<time>2023-01-25T13:56:44.021Z</time>
</trkpt>
<trkpt lat="31.7769900" lon="35.1291900">
<ele>664.149963</ele>
<time>2023-01-25T13:56:44.021Z</time>
</trkpt>
<trkpt lat="31.7768900" lon="35.1291900">
<ele>663.150024</ele>
<time>2023-01-25T13:56:44.021Z</time>
</trkpt>
<trkpt lat="31.7768100" lon="35.1291300">
<ele>663.260010</ele>
<time>2023-01-25T13:56:44.021Z</time>
</trkpt>
<trkpt lat="31.7767000" lon="35.1291100">
<ele>663.409973</ele>
<time>2023-01-25T13:56:44.021Z</time>
</trkpt>
<trkpt lat="31.7766000" lon="35.1291200">
<ele>662.940002</ele>
<time>2023-01-25T13:56:44.021Z</time>
</trkpt>
<trkpt lat="31.7765100" lon="35.1291100">
<ele>662.510010</ele>
<time>2023-01-25T13:56:44.021Z</time>
</trkpt>
<trkpt lat="31.7764000" lon="35.1290600">
<ele>662.590027</ele>
<time>2023-01-25T13:56:44.021Z</time>
</trkpt>
<trkpt lat="31.7762900" lon="35.1290200">
<ele>663.130005</ele>
<time>2023-01-25T13:56:44.021Z</time>
</trkpt>
<trkpt lat="31.7761800" lon="35.1289800">
<ele>663.950012</ele>
<time>2023-01-25T13:56:44.021Z</time>
</trkpt>
<trkpt lat="31.7760600" lon="35.1289200">
<ele>664.760010</ele>
<time>2023-01-25T13:56:44.021Z</time>
</trkpt>
<trkpt lat="31.7759700" lon="35.1288900">
<ele>664.450012</ele>
<time>2023-01-25T13:56:44.021Z</time>
</trkpt>
<trkpt lat="31.7758600" lon="35.1288700">
<ele>663.710022</ele>
<time>2023-01-25T13:56:44.021Z</time>
</trkpt>
<trkpt lat="31.7757300" lon="35.1288600">
<ele>664.450012</ele>
<time>2023-01-25T13:56:44.021Z</time>
</trkpt>
<trkpt lat="31.7756000" lon="35.1288500">
<ele>665.760010</ele>
<time>2023-01-25T13:56:44.021Z</time>
</trkpt>
<trkpt lat="31.7754600" lon="35.1288200">
<ele>666.729980</ele>
<time>2023-01-25T13:56:44.021Z</time>
</trkpt>
<trkpt lat="31.7753200" lon="35.1288000">
<ele>666.750000</ele>
<time>2023-01-25T13:56:44.021Z</time>
</trkpt>
<trkpt lat="31.7751700" lon="35.1287700">
<ele>666.920044</ele>
<time>2023-01-25T13:56:44.021Z</time>
</trkpt>
<trkpt lat="31.7750100" lon="35.1287300">
<ele>667.450012</ele>
<time>2023-01-25T13:56:44.021Z</time>
</trkpt>
<trkpt lat="31.7748600" lon="35.1286700">
<ele>666.280029</ele>
<time>2023-01-25T13:56:44.021Z</time>
</trkpt>
<trkpt lat="31.7747100" lon="35.1285900">
<ele>666.130005</ele>
<time>2023-01-25T13:56:44.021Z</time>
</trkpt>
<trkpt lat="31.7745600" lon="35.1285000">
<ele>665.500000</ele>
<time>2023-01-25T13:56:44.022Z</time>
</trkpt>
<trkpt lat="31.7744100" lon="35.1284100">
<ele>664.699951</ele>
<time>2023-01-25T13:56:44.022Z</time>
</trkpt>
<trkpt lat="31.7742600" lon="35.1283200">
<ele>661.820007</ele>
<time>2023-01-25T13:56:44.022Z</time>
</trkpt>
<trkpt lat="31.7741100" lon="35.1282200">
<ele>658.349976</ele>
<time>2023-01-25T13:56:44.022Z</time>
</trkpt>
<trkpt lat="31.7739700" lon="35.1280900">
<ele>656.330017</ele>
<time>2023-01-25T13:56:44.022Z</time>
</trkpt>
<trkpt lat="31.7738500" lon="35.1279600">
<ele>653.009949</ele>
<time>2023-01-25T13:56:44.022Z</time>
</trkpt>
<trkpt lat="31.7737600" lon="35.1278100">
<ele>649.410034</ele>
<time>2023-01-25T13:56:44.022Z</time>
</trkpt>
<trkpt lat="31.7737100" lon="35.1276200">
<ele>648.049988</ele>
<time>2023-01-25T13:56:44.022Z</time>
</trkpt>
<trkpt lat="31.7737100" lon="35.1274200">
<ele>648.779968</ele>
<time>2023-01-25T13:56:44.022Z</time>
</trkpt>
<trkpt lat="31.7737200" lon="35.1272100">
<ele>650.709961</ele>
<time>2023-01-25T13:56:44.022Z</time>
</trkpt>
<trkpt lat="31.7737100" lon="35.1270300">
<ele>653.170044</ele>
<time>2023-01-25T13:56:44.022Z</time>
</trkpt>
<trkpt lat="31.7736700" lon="35.1268800">
<ele>654.510010</ele>
<time>2023-01-25T13:56:44.022Z</time>
</trkpt>
<trkpt lat="31.7735900" lon="35.1268000">
<ele>653.369995</ele>
<time>2023-01-25T13:56:44.022Z</time>
</trkpt>
<trkpt lat="31.7734600" lon="35.1267600">
<ele>649.929993</ele>
<time>2023-01-25T13:56:44.022Z</time>
</trkpt>
<trkpt lat="31.7733100" lon="35.1267500">
<ele>645.239990</ele>
<time>2023-01-25T13:56:44.022Z</time>
</trkpt>
<trkpt lat="31.7731600" lon="35.1267300">
<ele>639.180054</ele>
<time>2023-01-25T13:56:44.022Z</time>
</trkpt>
<trkpt lat="31.7730000" lon="35.1266800">
<ele>634.300049</ele>
<time>2023-01-25T13:56:44.022Z</time>
</trkpt>
<trkpt lat="31.7728600" lon="35.1266000">
<ele>632.710022</ele>
<time>2023-01-25T13:56:44.022Z</time>
</trkpt>
<trkpt lat="31.7727300" lon="35.1265500">
<ele>632.200012</ele>
<time>2023-01-25T13:56:44.022Z</time>
</trkpt>
<trkpt lat="31.7726000" lon="35.1265000">
<ele>634.739990</ele>
<time>2023-01-25T13:56:44.022Z</time>
</trkpt>
<trkpt lat="31.7724700" lon="35.1264700">
<ele>635.740051</ele>
<time>2023-01-25T13:56:44.022Z</time>
</trkpt>
<trkpt lat="31.7723200" lon="35.1264600">
<ele>633.349976</ele>
<time>2023-01-25T13:56:44.022Z</time>
</trkpt>
<trkpt lat="31.7721700" lon="35.1264300">
<ele>632.549988</ele>
<time>2023-01-25T13:56:44.022Z</time>
</trkpt>
<trkpt lat="31.7720100" lon="35.1264100">
<ele>632.409973</ele>
<time>2023-01-25T13:56:44.022Z</time>
</trkpt>
<trkpt lat="31.7718600" lon="35.1263800">
<ele>631.510010</ele>
<time>2023-01-25T13:56:44.022Z</time>
</trkpt>
<trkpt lat="31.7717100" lon="35.1263700">
<ele>628.670044</ele>
<time>2023-01-25T13:56:44.022Z</time>
</trkpt>
<trkpt lat="31.7715700" lon="35.1263700">
<ele>626.799988</ele>
<time>2023-01-25T13:56:44.023Z</time>
</trkpt>
<trkpt lat="31.7714200" lon="35.1263900">
<ele>624.299988</ele>
<time>2023-01-25T13:56:44.023Z</time>
</trkpt>
<trkpt lat="31.7712800" lon="35.1263800">
<ele>622.890015</ele>
<time>2023-01-25T13:56:44.023Z</time>
</trkpt>
<trkpt lat="31.7711300" lon="35.1263500">
<ele>622.109985</ele>
<time>2023-01-25T13:56:44.023Z</time>
</trkpt>
<trkpt lat="31.7709700" lon="35.1263100">
<ele>624.780029</ele>
<time>2023-01-25T13:56:44.023Z</time>
</trkpt>
<trkpt lat="31.7708000" lon="35.1262600">
<ele>628.190002</ele>
<time>2023-01-25T13:56:44.023Z</time>
</trkpt>
<trkpt lat="31.7707100" lon="35.1262400">
<ele>630.310059</ele>
<time>2023-01-25T13:56:44.023Z</time>
</trkpt>
<trkpt lat="31.7706100" lon="35.1262100">
<ele>632.710022</ele>
<time>2023-01-25T13:56:44.023Z</time>
</trkpt>
<trkpt lat="31.7705200" lon="35.1261700">
<ele>634.130005</ele>
<time>2023-01-25T13:56:44.023Z</time>
</trkpt>
<trkpt lat="31.7704400" lon="35.1261200">
<ele>634.529968</ele>
<time>2023-01-25T13:56:44.023Z</time>
</trkpt>
<trkpt lat="31.7703600" lon="35.1260700">
<ele>634.330017</ele>
<time>2023-01-25T13:56:44.023Z</time>
</trkpt>
<trkpt lat="31.7702300" lon="35.1259500">
<ele>633.609985</ele>
<time>2023-01-25T13:56:44.023Z</time>
</trkpt>
<trkpt lat="31.7701500" lon="35.1258100">
<ele>632.859985</ele>
<time>2023-01-25T13:56:44.023Z</time>
</trkpt>
<trkpt lat="31.7701100" lon="35.1257000">
<ele>632.250000</ele>
<time>2023-01-25T13:56:44.023Z</time>
</trkpt>
<trkpt lat="31.7701100" lon="35.1255900">
<ele>632.649963</ele>
<time>2023-01-25T13:56:44.023Z</time>
</trkpt>
<trkpt lat="31.7701300" lon="35.1254800">
<ele>632.840027</ele>
<time>2023-01-25T13:56:44.023Z</time>
</trkpt>
<trkpt lat="31.7701700" lon="35.1253800">
<ele>633.549988</ele>
<time>2023-01-25T13:56:44.023Z</time>
</trkpt>
<trkpt lat="31.7702100" lon="35.1252800">
<ele>634.570007</ele>
<time>2023-01-25T13:56:44.023Z</time>
</trkpt>
<trkpt lat="31.7702500" lon="35.1251600">
<ele>634.300049</ele>
<time>2023-01-25T13:56:44.023Z</time>
</trkpt>
<trkpt lat="31.7703000" lon="35.1250700">
<ele>634.689941</ele>
<time>2023-01-25T13:56:44.023Z</time>
</trkpt>
<trkpt lat="31.7703500" lon="35.1249800">
<ele>634.980042</ele>
<time>2023-01-25T13:56:44.023Z</time>
</trkpt>
<trkpt lat="31.7704000" lon="35.1248900">
<ele>634.980042</ele>
<time>2023-01-25T13:56:44.023Z</time>
</trkpt>
<trkpt lat="31.7704500" lon="35.1247900">
<ele>634.800049</ele>
<time>2023-01-25T13:56:44.023Z</time>
</trkpt>
<trkpt lat="31.7705000" lon="35.1246900">
<ele>634.689941</ele>
<time>2023-01-25T13:56:44.023Z</time>
</trkpt>
<trkpt lat="31.7705600" lon="35.1246100">
<ele>635.499939</ele>
<time>2023-01-25T13:56:44.023Z</time>
</trkpt>
<trkpt lat="31.7706100" lon="35.1245200">
<ele>635.599976</ele>
<time>2023-01-25T13:56:44.023Z</time>
</trkpt>
<trkpt lat="31.7706800" lon="35.1244300">
<ele>636.369995</ele>
<time>2023-01-25T13:56:44.023Z</time>
</trkpt>
<trkpt lat="31.7707400" lon="35.1243400">
<ele>636.929993</ele>
<time>2023-01-25T13:56:44.023Z</time>
</trkpt>
<trkpt lat="31.7708200" lon="35.1242700">
<ele>638.669983</ele>
<time>2023-01-25T13:56:44.024Z</time>
</trkpt>
<trkpt lat="31.7708700" lon="35.1241800">
<ele>639.199951</ele>
<time>2023-01-25T13:56:44.024Z</time>
</trkpt>
<trkpt lat="31.7709200" lon="35.1240900">
<ele>639.669983</ele>
<time>2023-01-25T13:56:44.024Z</time>
</trkpt>
<trkpt lat="31.7710000" lon="35.1240200">
<ele>641.220032</ele>
<time>2023-01-25T13:56:44.024Z</time>
</trkpt>
<trkpt lat="31.7710600" lon="35.1239400">
<ele>642.080017</ele>
<time>2023-01-25T13:56:44.024Z</time>
</trkpt>
<trkpt lat="31.7711300" lon="35.1238700">
<ele>642.950012</ele>
<time>2023-01-25T13:56:44.024Z</time>
</trkpt>
<trkpt lat="31.7712000" lon="35.1237900">
<ele>642.880005</ele>
<time>2023-01-25T13:56:44.024Z</time>
</trkpt>
<trkpt lat="31.7712700" lon="35.1237100">
<ele>643.249939</ele>
<time>2023-01-25T13:56:44.024Z</time>
</trkpt>
<trkpt lat="31.7713600" lon="35.1236600">
<ele>644.610046</ele>
<time>2023-01-25T13:56:44.024Z</time>
</trkpt>
<trkpt lat="31.7714000" lon="35.1235700">
<ele>645.710022</ele>
<time>2023-01-25T13:56:44.024Z</time>
</trkpt>
<trkpt lat="31.7714700" lon="35.1234900">
<ele>648.099976</ele>
<time>2023-01-25T13:56:44.024Z</time>
</trkpt>
<trkpt lat="31.7715500" lon="35.1234100">
<ele>650.390015</ele>
<time>2023-01-25T13:56:44.024Z</time>
</trkpt>
<trkpt lat="31.7716200" lon="35.1233200">
<ele>652.349976</ele>
<time>2023-01-25T13:56:44.024Z</time>
</trkpt>
<trkpt lat="31.7716700" lon="35.1232200">
<ele>654.739990</ele>
<time>2023-01-25T13:56:44.024Z</time>
</trkpt>
<trkpt lat="31.7717000" lon="35.1231100">
<ele>657.049988</ele>
<time>2023-01-25T13:56:44.024Z</time>
</trkpt>
<trkpt lat="31.7716900" lon="35.1229800">
<ele>658.609985</ele>
<time>2023-01-25T13:56:44.024Z</time>
</trkpt>
<trkpt lat="31.7716300" lon="35.1228800">
<ele>658.950012</ele>
<time>2023-01-25T13:56:44.024Z</time>
</trkpt>
<trkpt lat="31.7715400" lon="35.1228000">
<ele>658.820007</ele>
<time>2023-01-25T13:56:44.024Z</time>
</trkpt>
<trkpt lat="31.7714600" lon="35.1227300">
<ele>659.190002</ele>
<time>2023-01-25T13:56:44.024Z</time>
</trkpt>
<trkpt lat="31.7713800" lon="35.1226800">
<ele>659.159973</ele>
<time>2023-01-25T13:56:44.024Z</time>
</trkpt>
<trkpt lat="31.7712900" lon="35.1226200">
<ele>661.970032</ele>
<time>2023-01-25T13:56:44.024Z</time>
</trkpt>
<trkpt lat="31.7711900" lon="35.1225700">
<ele>666.299988</ele>
<time>2023-01-25T13:56:44.024Z</time>
</trkpt>
<trkpt lat="31.7710900" lon="35.1225200">
<ele>671.269958</ele>
<time>2023-01-25T13:56:44.024Z</time>
</trkpt>
<trkpt lat="31.7710000" lon="35.1224800">
<ele>671.600037</ele>
<time>2023-01-25T13:56:44.024Z</time>
</trkpt>
<trkpt lat="31.7709000" lon="35.1224200">
<ele>672.239990</ele>
<time>2023-01-25T13:56:44.024Z</time>
</trkpt>
<trkpt lat="31.7708100" lon="35.1223600">
<ele>672.870056</ele>
<time>2023-01-25T13:56:44.024Z</time>
</trkpt>
<trkpt lat="31.7707200" lon="35.1223100">
<ele>670.349976</ele>
<time>2023-01-25T13:56:44.024Z</time>
</trkpt>
<trkpt lat="31.7706600" lon="35.1222800">
<ele>668.399963</ele>
<time>2023-01-25T13:56:44.025Z</time>
</trkpt>
<trkpt lat="31.7706600" lon="35.1222800">
<ele>668.399963</ele>
<time>2023-01-25T13:56:44.025Z</time>
</trkpt>
<trkpt lat="31.7706600" lon="35.1222800">
<ele>668.399963</ele>
<time>2023-01-25T13:56:44.025Z</time>
</trkpt>
<trkpt lat="31.7706500" lon="35.1222800">
<ele>667.880005</ele>
<time>2023-01-25T13:56:44.025Z</time>
</trkpt>
<trkpt lat="31.7706500" lon="35.1222800">
<ele>667.880005</ele>
<time>2023-01-25T13:56:44.025Z</time>
</trkpt>
<trkpt lat="31.7706500" lon="35.1222800">
<ele>667.880005</ele>
<time>2023-01-25T13:56:44.025Z</time>
</trkpt>
<trkpt lat="31.7706500" lon="35.1222800">
<ele>667.880005</ele>
<time>2023-01-25T13:56:44.025Z</time>
</trkpt>
<trkpt lat="31.7706500" lon="35.1222800">
<ele>667.880005</ele>
<time>2023-01-25T13:56:44.025Z</time>
</trkpt>
<trkpt lat="31.7706500" lon="35.1222800">
<ele>667.880005</ele>
<time>2023-01-25T13:56:44.025Z</time>
</trkpt>
<trkpt lat="31.7706500" lon="35.1222800">
<ele>667.880005</ele>
<time>2023-01-25T13:56:44.025Z</time>
</trkpt>
<trkpt lat="31.7706500" lon="35.1222800">
<ele>667.880005</ele>
<time>2023-01-25T13:56:44.025Z</time>
</trkpt>
<trkpt lat="31.7706500" lon="35.1222800">
<ele>667.880005</ele>
<time>2023-01-25T13:56:44.025Z</time>
</trkpt>
<trkpt lat="31.7706400" lon="35.1222800">
<ele>667.349976</ele>
<time>2023-01-25T13:56:44.025Z</time>
</trkpt>
<trkpt lat="31.7706400" lon="35.1222800">
<ele>667.349976</ele>
<time>2023-01-25T13:56:44.025Z</time>
</trkpt>
<trkpt lat="31.7705400" lon="35.1222600">
<ele>663.530029</ele>
<time>2023-01-25T13:56:44.025Z</time>
</trkpt>
<trkpt lat="31.7704200" lon="35.1222100">
<ele>664.600037</ele>
<time>2023-01-25T13:56:44.025Z</time>
</trkpt>
<trkpt lat="31.7702900" lon="35.1221900">
<ele>664.169983</ele>
<time>2023-01-25T13:56:44.025Z</time>
</trkpt>
<trkpt lat="31.7701800" lon="35.1221600">
<ele>663.020020</ele>
<time>2023-01-25T13:56:44.025Z</time>
</trkpt>
<trkpt lat="31.7700600" lon="35.1221400">
<ele>661.050049</ele>
<time>2023-01-25T13:56:44.025Z</time>
</trkpt>
<trkpt lat="31.7699300" lon="35.1221300">
<ele>657.720032</ele>
<time>2023-01-25T13:56:44.025Z</time>
</trkpt>
<trkpt lat="31.7697800" lon="35.1221200">
<ele>653.159973</ele>
<time>2023-01-25T13:56:44.025Z</time>
</trkpt>
<trkpt lat="31.7696100" lon="35.1221300">
<ele>648.699951</ele>
<time>2023-01-25T13:56:44.025Z</time>
</trkpt>
<trkpt lat="31.7694400" lon="35.1221600">
<ele>644.209961</ele>
<time>2023-01-25T13:56:44.025Z</time>
</trkpt>
<trkpt lat="31.7692700" lon="35.1222100">
<ele>641.729980</ele>
<time>2023-01-25T13:56:44.025Z</time>
</trkpt>
<trkpt lat="31.7691800" lon="35.1222400">
<ele>640.479980</ele>
<time>2023-01-25T13:56:44.025Z</time>
</trkpt>
<trkpt lat="31.7691000" lon="35.1222700">
<ele>639.010010</ele>
<time>2023-01-25T13:56:44.025Z</time>
</trkpt>
<trkpt lat="31.7690100" lon="35.1223000">
<ele>637.510010</ele>
<time>2023-01-25T13:56:44.025Z</time>
</trkpt>
<trkpt lat="31.7689200" lon="35.1223400">
<ele>635.779968</ele>
<time>2023-01-25T13:56:44.026Z</time>
</trkpt>
<trkpt lat="31.7688300" lon="35.1223700">
<ele>634.659973</ele>
<time>2023-01-25T13:56:44.026Z</time>
</trkpt>
<trkpt lat="31.7687500" lon="35.1224100">
<ele>633.609985</ele>
<time>2023-01-25T13:56:44.026Z</time>
</trkpt>
<trkpt lat="31.7686600" lon="35.1224400">
<ele>633.019958</ele>
<time>2023-01-25T13:56:44.026Z</time>
</trkpt>
<trkpt lat="31.7685700" lon="35.1224800">
<ele>631.640015</ele>
<time>2023-01-25T13:56:44.026Z</time>
</trkpt>
<trkpt lat="31.7684900" lon="35.1225100">
<ele>629.719971</ele>
<time>2023-01-25T13:56:44.026Z</time>
</trkpt>
<trkpt lat="31.7683100" lon="35.1225800">
<ele>626.229980</ele>
<time>2023-01-25T13:56:44.026Z</time>
</trkpt>
<trkpt lat="31.7682200" lon="35.1226100">
<ele>624.320007</ele>
<time>2023-01-25T13:56:44.026Z</time>
</trkpt>
<trkpt lat="31.7681200" lon="35.1226400">
<ele>622.280029</ele>
<time>2023-01-25T13:56:44.026Z</time>
</trkpt>
<trkpt lat="31.7680200" lon="35.1226500">
<ele>621.169983</ele>
<time>2023-01-25T13:56:44.026Z</time>
</trkpt>
<trkpt lat="31.7679200" lon="35.1226400">
<ele>621.720032</ele>
<time>2023-01-25T13:56:44.026Z</time>
</trkpt>
<trkpt lat="31.7678200" lon="35.1226300">
<ele>622.410034</ele>
<time>2023-01-25T13:56:44.026Z</time>
</trkpt>
<trkpt lat="31.7677300" lon="35.1226100">
<ele>623.500000</ele>
<time>2023-01-25T13:56:44.026Z</time>
</trkpt>
<trkpt lat="31.7676400" lon="35.1225900">
<ele>624.880005</ele>
<time>2023-01-25T13:56:44.026Z</time>
</trkpt>
<trkpt lat="31.7674900" lon="35.1225500">
<ele>627.470032</ele>
<time>2023-01-25T13:56:44.026Z</time>
</trkpt>
<trkpt lat="31.7673800" lon="35.1225400">
<ele>626.739990</ele>
<time>2023-01-25T13:56:44.026Z</time>
</trkpt>
<trkpt lat="31.7673100" lon="35.1226200">
<ele>624.379944</ele>
<time>2023-01-25T13:56:44.026Z</time>
</trkpt>
<trkpt lat="31.7673600" lon="35.1227600">
<ele>621.419983</ele>
<time>2023-01-25T13:56:44.026Z</time>
</trkpt>
<trkpt lat="31.7674300" lon="35.1228700">
<ele>618.590027</ele>
<time>2023-01-25T13:56:44.026Z</time>
</trkpt>
<trkpt lat="31.7675300" lon="35.1229700">
<ele>616.119995</ele>
<time>2023-01-25T13:56:44.026Z</time>
</trkpt>
<trkpt lat="31.7676500" lon="35.1230600">
<ele>613.919983</ele>
<time>2023-01-25T13:56:44.026Z</time>
</trkpt>
<trkpt lat="31.7677700" lon="35.1231700">
<ele>612.330017</ele>
<time>2023-01-25T13:56:44.026Z</time>
</trkpt>
<trkpt lat="31.7678800" lon="35.1233000">
<ele>611.909973</ele>
<time>2023-01-25T13:56:44.026Z</time>
</trkpt>
<trkpt lat="31.7679900" lon="35.1234100">
<ele>612.019958</ele>
<time>2023-01-25T13:56:44.026Z</time>
</trkpt>
<trkpt lat="31.7680700" lon="35.1235100">
<ele>611.400024</ele>
<time>2023-01-25T13:56:44.026Z</time>
</trkpt>
<trkpt lat="31.7680300" lon="35.1236600">
<ele>607.979980</ele>
<time>2023-01-25T13:56:44.026Z</time>
</trkpt>
<trkpt lat="31.7679200" lon="35.1237300">
<ele>604.460022</ele>
<time>2023-01-25T13:56:44.026Z</time>
</trkpt>
<trkpt lat="31.7677900" lon="35.1238100">
<ele>600.660034</ele>
<time>2023-01-25T13:56:44.027Z</time>
</trkpt>
<trkpt lat="31.7676300" lon="35.1239000">
<ele>596.090027</ele>
<time>2023-01-25T13:56:44.027Z</time>
</trkpt>
<trkpt lat="31.7675300" lon="35.1239500">
<ele>593.910034</ele>
<time>2023-01-25T13:56:44.027Z</time>
</trkpt>
<trkpt lat="31.7674300" lon="35.1239800">
<ele>592.100037</ele>
<time>2023-01-25T13:56:44.027Z</time>
</trkpt>
<trkpt lat="31.7673200" lon="35.1240100">
<ele>590.270020</ele>
<time>2023-01-25T13:56:44.027Z</time>
</trkpt>
<trkpt lat="31.7672000" lon="35.1240200">
<ele>588.730042</ele>
<time>2023-01-25T13:56:44.027Z</time>
</trkpt>
<trkpt lat="31.7670800" lon="35.1240200">
<ele>586.979980</ele>
<time>2023-01-25T13:56:44.027Z</time>
</trkpt>
<trkpt lat="31.7669600" lon="35.1240200">
<ele>585.229980</ele>
<time>2023-01-25T13:56:44.027Z</time>
</trkpt>
<trkpt lat="31.7668400" lon="35.1240200">
<ele>582.770020</ele>
<time>2023-01-25T13:56:44.027Z</time>
</trkpt>
<trkpt lat="31.7667300" lon="35.1240100">
<ele>580.469971</ele>
<time>2023-01-25T13:56:44.027Z</time>
</trkpt>
<trkpt lat="31.7666200" lon="35.1240100">
<ele>578.809998</ele>
<time>2023-01-25T13:56:44.027Z</time>
</trkpt>
<trkpt lat="31.7665200" lon="35.1240100">
<ele>578.140015</ele>
<time>2023-01-25T13:56:44.027Z</time>
</trkpt>
<trkpt lat="31.7663600" lon="35.1239800">
<ele>577.549988</ele>
<time>2023-01-25T13:56:44.027Z</time>
</trkpt>
<trkpt lat="31.7662200" lon="35.1239400">
<ele>577.270020</ele>
<time>2023-01-25T13:56:44.027Z</time>
</trkpt>
<trkpt lat="31.7661100" lon="35.1239000">
<ele>576.919983</ele>
<time>2023-01-25T13:56:44.027Z</time>
</trkpt>
<trkpt lat="31.7660200" lon="35.1239400">
<ele>576.510010</ele>
<time>2023-01-25T13:56:44.027Z</time>
</trkpt>
<trkpt lat="31.7660000" lon="35.1240700">
<ele>575.169983</ele>
<time>2023-01-25T13:56:44.027Z</time>
</trkpt>
<trkpt lat="31.7660300" lon="35.1241100">
<ele>574.940002</ele>
<time>2023-01-25T13:56:44.027Z</time>
</trkpt>
<trkpt lat="31.7660300" lon="35.1241100">
<ele>574.940002</ele>
<time>2023-01-25T13:56:44.027Z</time>
</trkpt>
<trkpt lat="31.7660300" lon="35.1241100">
<ele>574.940002</ele>
<time>2023-01-25T13:56:44.027Z</time>
</trkpt>
<trkpt lat="31.7660400" lon="35.1241100">
<ele>575.000000</ele>
<time>2023-01-25T13:56:44.027Z</time>
</trkpt>
<trkpt lat="31.7660400" lon="35.1241100">
<ele>575.000000</ele>
<time>2023-01-25T13:56:44.027Z</time>
</trkpt>
<trkpt lat="31.7660400" lon="35.1241100">
<ele>575.000000</ele>
<time>2023-01-25T13:56:44.027Z</time>
</trkpt>
<trkpt lat="31.7660400" lon="35.1241100">
<ele>575.000000</ele>
<time>2023-01-25T13:56:44.027Z</time>
</trkpt>
<trkpt lat="31.7660400" lon="35.1241100">
<ele>575.000000</ele>
<time>2023-01-25T13:56:44.027Z</time>
</trkpt>
<trkpt lat="31.7660400" lon="35.1241100">
<ele>575.000000</ele>
<time>2023-01-25T13:56:44.027Z</time>
</trkpt>
<trkpt lat="31.7660400" lon="35.1241100">
<ele>575.000000</ele>
<time>2023-01-25T13:56:44.027Z</time>
</trkpt>
<trkpt lat="31.7660400" lon="35.1241100">
<ele>575.000000</ele>
<time>2023-01-25T13:56:44.028Z</time>
</trkpt>
<trkpt lat="31.7660400" lon="35.1241000">
<ele>575.089966</ele>
<time>2023-01-25T13:56:44.028Z</time>
</trkpt>
<trkpt lat="31.7660400" lon="35.1241000">
<ele>575.089966</ele>
<time>2023-01-25T13:56:44.028Z</time>
</trkpt>
<trkpt lat="31.7660400" lon="35.1241000">
<ele>575.089966</ele>
<time>2023-01-25T13:56:44.028Z</time>
</trkpt>
<trkpt lat="31.7660400" lon="35.1241000">
<ele>575.089966</ele>
<time>2023-01-25T13:56:44.028Z</time>
</trkpt>
<trkpt lat="31.7660400" lon="35.1241000">
<ele>575.089966</ele>
<time>2023-01-25T13:56:44.028Z</time>
</trkpt>
<trkpt lat="31.7660400" lon="35.1241000">
<ele>575.089966</ele>
<time>2023-01-25T13:56:44.028Z</time>
</trkpt>
<trkpt lat="31.7660400" lon="35.1241000">
<ele>575.089966</ele>
<time>2023-01-25T13:56:44.028Z</time>
</trkpt>
<trkpt lat="31.7661000" lon="35.1242100">
<ele>574.299988</ele>
<time>2023-01-25T13:56:44.028Z</time>
</trkpt>
<trkpt lat="31.7661500" lon="35.1243400">
<ele>572.590027</ele>
<time>2023-01-25T13:56:44.028Z</time>
</trkpt>
<trkpt lat="31.7661900" lon="35.1244600">
<ele>571.070007</ele>
<time>2023-01-25T13:56:44.028Z</time>
</trkpt>
<trkpt lat="31.7662500" lon="35.1245900">
<ele>569.140015</ele>
<time>2023-01-25T13:56:44.028Z</time>
</trkpt>
<trkpt lat="31.7663100" lon="35.1247100">
<ele>566.789978</ele>
<time>2023-01-25T13:56:44.028Z</time>
</trkpt>
<trkpt lat="31.7663700" lon="35.1248300">
<ele>564.919983</ele>
<time>2023-01-25T13:56:44.028Z</time>
</trkpt>
<trkpt lat="31.7664300" lon="35.1249400">
<ele>564.099976</ele>
<time>2023-01-25T13:56:44.028Z</time>
</trkpt>
<trkpt lat="31.7665100" lon="35.1250500">
<ele>562.820007</ele>
<time>2023-01-25T13:56:44.028Z</time>
</trkpt>
<trkpt lat="31.7665800" lon="35.1251500">
<ele>560.929993</ele>
<time>2023-01-25T13:56:44.028Z</time>
</trkpt>
<trkpt lat="31.7666400" lon="35.1252400">
<ele>558.929993</ele>
<time>2023-01-25T13:56:44.028Z</time>
</trkpt>
<trkpt lat="31.7667100" lon="35.1253200">
<ele>558.119995</ele>
<time>2023-01-25T13:56:44.028Z</time>
</trkpt>
<trkpt lat="31.7667900" lon="35.1254200">
<ele>557.720032</ele>
<time>2023-01-25T13:56:44.028Z</time>
</trkpt>
<trkpt lat="31.7667700" lon="35.1255400">
<ele>555.380005</ele>
<time>2023-01-25T13:56:44.028Z</time>
</trkpt>
<trkpt lat="31.7666600" lon="35.1255800">
<ele>553.479980</ele>
<time>2023-01-25T13:56:44.028Z</time>
</trkpt>
<trkpt lat="31.7665600" lon="35.1256200">
<ele>551.510010</ele>
<time>2023-01-25T13:56:44.028Z</time>
</trkpt>
<trkpt lat="31.7664600" lon="35.1256600">
<ele>549.330017</ele>
<time>2023-01-25T13:56:44.028Z</time>
</trkpt>
<trkpt lat="31.7663500" lon="35.1256900">
<ele>546.850037</ele>
<time>2023-01-25T13:56:44.028Z</time>
</trkpt>
<trkpt lat="31.7662600" lon="35.1257100">
<ele>544.479980</ele>
<time>2023-01-25T13:56:44.028Z</time>
</trkpt>
<trkpt lat="31.7661600" lon="35.1257200">
<ele>542.100037</ele>
<time>2023-01-25T13:56:44.028Z</time>
</trkpt>
<trkpt lat="31.7660600" lon="35.1257100">
<ele>540.640015</ele>
<time>2023-01-25T13:56:44.029Z</time>
</trkpt>
<trkpt lat="31.7659500" lon="35.1257000">
<ele>539.219971</ele>
<time>2023-01-25T13:56:44.029Z</time>
</trkpt>
<trkpt lat="31.7658500" lon="35.1256600">
<ele>538.659973</ele>
<time>2023-01-25T13:56:44.029Z</time>
</trkpt>
<trkpt lat="31.7657700" lon="35.1256200">
<ele>538.219971</ele>
<time>2023-01-25T13:56:44.029Z</time>
</trkpt>
<trkpt lat="31.7656700" lon="35.1255700">
<ele>537.230042</ele>
<time>2023-01-25T13:56:44.029Z</time>
</trkpt>
<trkpt lat="31.7655800" lon="35.1255200">
<ele>536.070007</ele>
<time>2023-01-25T13:56:44.029Z</time>
</trkpt>
<trkpt lat="31.7655000" lon="35.1254300">
<ele>534.940002</ele>
<time>2023-01-25T13:56:44.029Z</time>
</trkpt>
<trkpt lat="31.7654400" lon="35.1253400">
<ele>533.809998</ele>
<time>2023-01-25T13:56:44.029Z</time>
</trkpt>
<trkpt lat="31.7653500" lon="35.1252700">
<ele>531.059998</ele>
<time>2023-01-25T13:56:44.029Z</time>
</trkpt>
<trkpt lat="31.7652700" lon="35.1253300">
<ele>527.529968</ele>
<time>2023-01-25T13:56:44.029Z</time>
</trkpt>
<trkpt lat="31.7652700" lon="35.1254700">
<ele>527.030029</ele>
<time>2023-01-25T13:56:44.029Z</time>
</trkpt>
<trkpt lat="31.7653100" lon="35.1255800">
<ele>527.590027</ele>
<time>2023-01-25T13:56:44.029Z</time>
</trkpt>
<trkpt lat="31.7653200" lon="35.1256900">
<ele>526.350037</ele>
<time>2023-01-25T13:56:44.029Z</time>
</trkpt>
<trkpt lat="31.7653200" lon="35.1258100">
<ele>524.690002</ele>
<time>2023-01-25T13:56:44.029Z</time>
</trkpt>
<trkpt lat="31.7653300" lon="35.1259100">
<ele>523.210022</ele>
<time>2023-01-25T13:56:44.029Z</time>
</trkpt>
<trkpt lat="31.7653600" lon="35.1260200">
<ele>521.909973</ele>
<time>2023-01-25T13:56:44.029Z</time>
</trkpt>
<trkpt lat="31.7653900" lon="35.1261600">
<ele>519.700012</ele>
<time>2023-01-25T13:56:44.029Z</time>
</trkpt>
<trkpt lat="31.7653400" lon="35.1262900">
<ele>516.130005</ele>
<time>2023-01-25T13:56:44.029Z</time>
</trkpt>
<trkpt lat="31.7652600" lon="35.1263700">
<ele>513.820007</ele>
<time>2023-01-25T13:56:44.029Z</time>
</trkpt>
<trkpt lat="31.7651900" lon="35.1264700">
<ele>509.239990</ele>
<time>2023-01-25T13:56:44.029Z</time>
</trkpt>
<trkpt lat="31.7651500" lon="35.1265800">
<ele>505.169983</ele>
<time>2023-01-25T13:56:44.029Z</time>
</trkpt>
<trkpt lat="31.7651000" lon="35.1267000">
<ele>500.549988</ele>
<time>2023-01-25T13:56:44.029Z</time>
</trkpt>
<trkpt lat="31.7650200" lon="35.1267700">
<ele>496.699982</ele>
<time>2023-01-25T13:56:44.029Z</time>
</trkpt>
<trkpt lat="31.7649200" lon="35.1268100">
<ele>493.529999</ele>
<time>2023-01-25T13:56:44.029Z</time>
</trkpt>
<trkpt lat="31.7648200" lon="35.1269000">
<ele>488.660004</ele>
<time>2023-01-25T13:56:44.029Z</time>
</trkpt>
<trkpt lat="31.7647100" lon="35.1269600">
<ele>485.739990</ele>
<time>2023-01-25T13:56:44.029Z</time>
</trkpt>
<trkpt lat="31.7646000" lon="35.1269800">
<ele>486.419983</ele>
<time>2023-01-25T13:56:44.029Z</time>
</trkpt>
<trkpt lat="31.7645200" lon="35.1269300">
<ele>488.460022</ele>
<time>2023-01-25T13:56:44.029Z</time>
</trkpt>
<trkpt lat="31.7645200" lon="35.1269300">
<ele>488.460022</ele>
<time>2023-01-25T13:56:44.030Z</time>
</trkpt>
<trkpt lat="31.7645200" lon="35.1269300">
<ele>488.460022</ele>
<time>2023-01-25T13:56:44.030Z</time>
</trkpt>
<trkpt lat="31.7645200" lon="35.1269300">
<ele>488.460022</ele>
<time>2023-01-25T13:56:44.030Z</time>
</trkpt>
<trkpt lat="31.7645200" lon="35.1269200">
<ele>488.660004</ele>
<time>2023-01-25T13:56:44.030Z</time>
</trkpt>
<trkpt lat="31.7645200" lon="35.1269200">
<ele>488.660004</ele>
<time>2023-01-25T13:56:44.030Z</time>
</trkpt>
<trkpt lat="31.7645200" lon="35.1269200">
<ele>488.660004</ele>
<time>2023-01-25T13:56:44.030Z</time>
</trkpt>
<trkpt lat="31.7645200" lon="35.1269200">
<ele>488.660004</ele>
<time>2023-01-25T13:56:44.030Z</time>
</trkpt>
<trkpt lat="31.7645200" lon="35.1269200">
<ele>488.660004</ele>
<time>2023-01-25T13:56:44.030Z</time>
</trkpt>
<trkpt lat="31.7645200" lon="35.1269200">
<ele>488.660004</ele>
<time>2023-01-25T13:56:44.030Z</time>
</trkpt>
<trkpt lat="31.7645200" lon="35.1269200">
<ele>488.660004</ele>
<time>2023-01-25T13:56:44.030Z</time>
</trkpt>
<trkpt lat="31.7645200" lon="35.1269200">
<ele>488.660004</ele>
<time>2023-01-25T13:56:44.030Z</time>
</trkpt>
<trkpt lat="31.7645200" lon="35.1269200">
<ele>488.660004</ele>
<time>2023-01-25T13:56:44.030Z</time>
</trkpt>
<trkpt lat="31.7645200" lon="35.1269300">
<ele>488.460022</ele>
<time>2023-01-25T13:56:44.030Z</time>
</trkpt>
<trkpt lat="31.7645300" lon="35.1269300">
<ele>488.359985</ele>
<time>2023-01-25T13:56:44.030Z</time>
</trkpt>
<trkpt lat="31.7645200" lon="35.1269400">
<ele>488.269989</ele>
<time>2023-01-25T13:56:44.030Z</time>
</trkpt>
<trkpt lat="31.7644100" lon="35.1269300">
<ele>489.299988</ele>
<time>2023-01-25T13:56:44.030Z</time>
</trkpt>
<trkpt lat="31.7643100" lon="35.1269000">
<ele>489.739990</ele>
<time>2023-01-25T13:56:44.030Z</time>
</trkpt>
<trkpt lat="31.7642200" lon="35.1268600">
<ele>489.799988</ele>
<time>2023-01-25T13:56:44.030Z</time>
</trkpt>
<trkpt lat="31.7641100" lon="35.1268500">
<ele>487.820007</ele>
<time>2023-01-25T13:56:44.030Z</time>
</trkpt>
<trkpt lat="31.7639900" lon="35.1268600">
<ele>483.970001</ele>
<time>2023-01-25T13:56:44.030Z</time>
</trkpt>
<trkpt lat="31.7638700" lon="35.1268800">
<ele>480.500000</ele>
<time>2023-01-25T13:56:44.030Z</time>
</trkpt>
<trkpt lat="31.7638000" lon="35.1269800">
<ele>479.709991</ele>
<time>2023-01-25T13:56:44.030Z</time>
</trkpt>
<trkpt lat="31.7638200" lon="35.1271100">
<ele>479.860016</ele>
<time>2023-01-25T13:56:44.030Z</time>
</trkpt>
<trkpt lat="31.7638300" lon="35.1271600">
<ele>479.869995</ele>
<time>2023-01-25T13:56:44.030Z</time>
</trkpt>
<trkpt lat="31.7638400" lon="35.1271600">
<ele>479.929993</ele>
<time>2023-01-25T13:56:44.030Z</time>
</trkpt>
<trkpt lat="31.7638800" lon="35.1272700">
<ele>479.279999</ele>
<time>2023-01-25T13:56:44.030Z</time>
</trkpt>
<trkpt lat="31.7639200" lon="35.1273700">
<ele>477.850006</ele>
<time>2023-01-25T13:56:44.030Z</time>
</trkpt>
<trkpt lat="31.7639900" lon="35.1274700">
<ele>475.580017</ele>
<time>2023-01-25T13:56:44.031Z</time>
</trkpt>
<trkpt lat="31.7640900" lon="35.1275800">
<ele>472.209991</ele>
<time>2023-01-25T13:56:44.031Z</time>
</trkpt>
<trkpt lat="31.7641900" lon="35.1276900">
<ele>468.239990</ele>
<time>2023-01-25T13:56:44.031Z</time>
</trkpt>
<trkpt lat="31.7642600" lon="35.1277600">
<ele>466.739990</ele>
<time>2023-01-25T13:56:44.031Z</time>
</trkpt>
<trkpt lat="31.7643500" lon="35.1278400">
<ele>468.149994</ele>
<time>2023-01-25T13:56:44.031Z</time>
</trkpt>
<trkpt lat="31.7644400" lon="35.1278900">
<ele>469.809998</ele>
<time>2023-01-25T13:56:44.031Z</time>
</trkpt>
<trkpt lat="31.7644800" lon="35.1278700">
<ele>468.900024</ele>
<time>2023-01-25T13:56:44.031Z</time>
</trkpt>
<trkpt lat="31.7644800" lon="35.1278700">
<ele>468.900024</ele>
<time>2023-01-25T13:56:44.031Z</time>
</trkpt>
<trkpt lat="31.7644800" lon="35.1278700">
<ele>468.900024</ele>
<time>2023-01-25T13:56:44.031Z</time>
</trkpt>
<trkpt lat="31.7644800" lon="35.1278700">
<ele>468.900024</ele>
<time>2023-01-25T13:56:44.031Z</time>
</trkpt>
<trkpt lat="31.7644800" lon="35.1278700">
<ele>468.900024</ele>
<time>2023-01-25T13:56:44.031Z</time>
</trkpt>
<trkpt lat="31.7644700" lon="35.1278700">
<ele>469.019989</ele>
<time>2023-01-25T13:56:44.031Z</time>
</trkpt>
<trkpt lat="31.7644700" lon="35.1278700">
<ele>469.019989</ele>
<time>2023-01-25T13:56:44.031Z</time>
</trkpt>
<trkpt lat="31.7644700" lon="35.1278700">
<ele>469.019989</ele>
<time>2023-01-25T13:56:44.031Z</time>
</trkpt>
<trkpt lat="31.7644700" lon="35.1278800">
<ele>469.269989</ele>
<time>2023-01-25T13:56:44.031Z</time>
</trkpt>
<trkpt lat="31.7644700" lon="35.1278800">
<ele>469.269989</ele>
<time>2023-01-25T13:56:44.031Z</time>
</trkpt>
<trkpt lat="31.7645000" lon="35.1279100">
<ele>469.639984</ele>
<time>2023-01-25T13:56:44.031Z</time>
</trkpt>
<trkpt lat="31.7645000" lon="35.1279100">
<ele>469.639984</ele>
<time>2023-01-25T13:56:44.031Z</time>
</trkpt>
<trkpt lat="31.7645000" lon="35.1279000">
<ele>469.389984</ele>
<time>2023-01-25T13:56:44.031Z</time>
</trkpt>
<trkpt lat="31.7645000" lon="35.1279000">
<ele>469.389984</ele>
<time>2023-01-25T13:56:44.031Z</time>
</trkpt>
<trkpt lat="31.7645000" lon="35.1279000">
<ele>469.389984</ele>
<time>2023-01-25T13:56:44.031Z</time>
</trkpt>
<trkpt lat="31.7645000" lon="35.1279000">
<ele>469.389984</ele>
<time>2023-01-25T13:56:44.031Z</time>
</trkpt>
<trkpt lat="31.7645000" lon="35.1279000">
<ele>469.389984</ele>
<time>2023-01-25T13:56:44.031Z</time>
</trkpt>
<trkpt lat="31.7645000" lon="35.1279000">
<ele>469.389984</ele>
<time>2023-01-25T13:56:44.031Z</time>
</trkpt>
<trkpt lat="31.7645000" lon="35.1279000">
<ele>469.389984</ele>
<time>2023-01-25T13:56:44.031Z</time>
</trkpt>
<trkpt lat="31.7645000" lon="35.1279000">
<ele>469.389984</ele>
<time>2023-01-25T13:56:44.031Z</time>
</trkpt>
<trkpt lat="31.7645000" lon="35.1279000">
<ele>469.389984</ele>
<time>2023-01-25T13:56:44.031Z</time>
</trkpt>
<trkpt lat="31.7645000" lon="35.1279000">
<ele>469.389984</ele>
<time>2023-01-25T13:56:44.032Z</time>
</trkpt>
<trkpt lat="31.7645000" lon="35.1279000">
<ele>469.389984</ele>
<time>2023-01-25T13:56:44.032Z</time>
</trkpt>
<trkpt lat="31.7645000" lon="35.1279000">
<ele>469.389984</ele>
<time>2023-01-25T13:56:44.032Z</time>
</trkpt>
<trkpt lat="31.7645000" lon="35.1279000">
<ele>469.389984</ele>
<time>2023-01-25T13:56:44.032Z</time>
</trkpt>
<trkpt lat="31.7645000" lon="35.1279000">
<ele>469.389984</ele>
<time>2023-01-25T13:56:44.032Z</time>
</trkpt>
<trkpt lat="31.7645000" lon="35.1279000">
<ele>469.389984</ele>
<time>2023-01-25T13:56:44.032Z</time>
</trkpt>
<trkpt lat="31.7645000" lon="35.1279000">
<ele>469.389984</ele>
<time>2023-01-25T13:56:44.032Z</time>
</trkpt>
<trkpt lat="31.7645000" lon="35.1279000">
<ele>469.389984</ele>
<time>2023-01-25T13:56:44.032Z</time>
</trkpt>
<trkpt lat="31.7645000" lon="35.1279000">
<ele>469.389984</ele>
<time>2023-01-25T13:56:44.032Z</time>
</trkpt>
<trkpt lat="31.7645000" lon="35.1279000">
<ele>469.389984</ele>
<time>2023-01-25T13:56:44.032Z</time>
</trkpt>
<trkpt lat="31.7645000" lon="35.1279000">
<ele>469.389984</ele>
<time>2023-01-25T13:56:44.032Z</time>
</trkpt>
<trkpt lat="31.7645000" lon="35.1279000">
<ele>469.389984</ele>
<time>2023-01-25T13:56:44.032Z</time>
</trkpt>
<trkpt lat="31.7645000" lon="35.1279000">
<ele>469.389984</ele>
<time>2023-01-25T13:56:44.032Z</time>
</trkpt>
<trkpt lat="31.7645000" lon="35.1279000">
<ele>469.389984</ele>
<time>2023-01-25T13:56:44.032Z</time>
</trkpt>
<trkpt lat="31.7645100" lon="35.1279000">
<ele>469.269989</ele>
<time>2023-01-25T13:56:44.032Z</time>
</trkpt>
<trkpt lat="31.7645100" lon="35.1279000">
<ele>469.269989</ele>
<time>2023-01-25T13:56:44.032Z</time>
</trkpt>
<trkpt lat="31.7645100" lon="35.1278900">
<ele>469.019989</ele>
<time>2023-01-25T13:56:44.032Z</time>
</trkpt>
<trkpt lat="31.7645100" lon="35.1278900">
<ele>469.019989</ele>
<time>2023-01-25T13:56:44.032Z</time>
</trkpt>
<trkpt lat="31.7645100" lon="35.1278900">
<ele>469.019989</ele>
<time>2023-01-25T13:56:44.032Z</time>
</trkpt>
<trkpt lat="31.7645100" lon="35.1278900">
<ele>469.019989</ele>
<time>2023-01-25T13:56:44.032Z</time>
</trkpt>
<trkpt lat="31.7645100" lon="35.1278900">
<ele>469.019989</ele>
<time>2023-01-25T13:56:44.032Z</time>
</trkpt>
<trkpt lat="31.7645100" lon="35.1278900">
<ele>469.019989</ele>
<time>2023-01-25T13:56:44.032Z</time>
</trkpt>
<trkpt lat="31.7645100" lon="35.1278900">
<ele>469.019989</ele>
<time>2023-01-25T13:56:44.032Z</time>
</trkpt>
<trkpt lat="31.7645100" lon="35.1278900">
<ele>469.019989</ele>
<time>2023-01-25T13:56:44.032Z</time>
</trkpt>
<trkpt lat="31.7645100" lon="35.1278900">
<ele>469.019989</ele>
<time>2023-01-25T13:56:44.032Z</time>
</trkpt>
<trkpt lat="31.7645100" lon="35.1278900">
<ele>469.019989</ele>
<time>2023-01-25T13:56:44.032Z</time>
</trkpt>
<trkpt lat="31.7645100" lon="35.1278900">
<ele>469.019989</ele>
<time>2023-01-25T13:56:44.032Z</time>
</trkpt>
<trkpt lat="31.7645300" lon="35.1278700">
<ele>468.300018</ele>
<time>2023-01-25T13:56:44.033Z</time>
</trkpt>
<trkpt lat="31.7645300" lon="35.1278700">
<ele>468.300018</ele>
<time>2023-01-25T13:56:44.033Z</time>
</trkpt>
<trkpt lat="31.7645300" lon="35.1278700">
<ele>468.300018</ele>
<time>2023-01-25T13:56:44.033Z</time>
</trkpt>
<trkpt lat="31.7645300" lon="35.1278800">
<ele>468.540009</ele>
<time>2023-01-25T13:56:44.033Z</time>
</trkpt>
<trkpt lat="31.7646400" lon="35.1279000">
<ele>467.660004</ele>
<time>2023-01-25T13:56:44.033Z</time>
</trkpt>
<trkpt lat="31.7647300" lon="35.1279000">
<ele>466.750000</ele>
<time>2023-01-25T13:56:44.033Z</time>
</trkpt>
<trkpt lat="31.7648200" lon="35.1278900">
<ele>467.759979</ele>
<time>2023-01-25T13:56:44.033Z</time>
</trkpt>
<trkpt lat="31.7649200" lon="35.1278500">
<ele>468.070007</ele>
<time>2023-01-25T13:56:44.033Z</time>
</trkpt>
<trkpt lat="31.7650100" lon="35.1278300">
<ele>468.529999</ele>
<time>2023-01-25T13:56:44.033Z</time>
</trkpt>
<trkpt lat="31.7650900" lon="35.1278000">
<ele>467.910004</ele>
<time>2023-01-25T13:56:44.033Z</time>
</trkpt>
<trkpt lat="31.7651900" lon="35.1277600">
<ele>467.700012</ele>
<time>2023-01-25T13:56:44.033Z</time>
</trkpt>
<trkpt lat="31.7652900" lon="35.1277200">
<ele>468.070007</ele>
<time>2023-01-25T13:56:44.034Z</time>
</trkpt>
<trkpt lat="31.7654000" lon="35.1276800">
<ele>468.569977</ele>
<time>2023-01-25T13:56:44.034Z</time>
</trkpt>
<trkpt lat="31.7655100" lon="35.1276600">
<ele>468.959991</ele>
<time>2023-01-25T13:56:44.034Z</time>
</trkpt>
<trkpt lat="31.7656200" lon="35.1276300">
<ele>469.959991</ele>
<time>2023-01-25T13:56:44.034Z</time>
</trkpt>
<trkpt lat="31.7657200" lon="35.1275900">
<ele>471.000000</ele>
<time>2023-01-25T13:56:44.034Z</time>
</trkpt>
<trkpt lat="31.7658300" lon="35.1275600">
<ele>472.039978</ele>
<time>2023-01-25T13:56:44.034Z</time>
</trkpt>
<trkpt lat="31.7659300" lon="35.1275400">
<ele>471.970001</ele>
<time>2023-01-25T13:56:44.034Z</time>
</trkpt>
<trkpt lat="31.7660400" lon="35.1275300">
<ele>472.119995</ele>
<time>2023-01-25T13:56:44.034Z</time>
</trkpt>
<trkpt lat="31.7661300" lon="35.1275300">
<ele>472.729980</ele>
<time>2023-01-25T13:56:44.034Z</time>
</trkpt>
<trkpt lat="31.7662200" lon="35.1275400">
<ele>474.779999</ele>
<time>2023-01-25T13:56:44.034Z</time>
</trkpt>
<trkpt lat="31.7663100" lon="35.1275300">
<ele>476.619995</ele>
<time>2023-01-25T13:56:44.034Z</time>
</trkpt>
<trkpt lat="31.7664000" lon="35.1275300">
<ele>478.410004</ele>
<time>2023-01-25T13:56:44.034Z</time>
</trkpt>
<trkpt lat="31.7665000" lon="35.1275300">
<ele>479.170013</ele>
<time>2023-01-25T13:56:44.034Z</time>
</trkpt>
<trkpt lat="31.7665900" lon="35.1275400">
<ele>479.980011</ele>
<time>2023-01-25T13:56:44.034Z</time>
</trkpt>
<trkpt lat="31.7666800" lon="35.1275700">
<ele>481.199982</ele>
<time>2023-01-25T13:56:44.034Z</time>
</trkpt>
<trkpt lat="31.7667900" lon="35.1276100">
<ele>483.360016</ele>
<time>2023-01-25T13:56:44.034Z</time>
</trkpt>
<trkpt lat="31.7669000" lon="35.1276700">
<ele>485.809998</ele>
<time>2023-01-25T13:56:44.034Z</time>
</trkpt>
<trkpt lat="31.7670000" lon="35.1277400">
<ele>487.050018</ele>
<time>2023-01-25T13:56:44.034Z</time>
</trkpt>
<trkpt lat="31.7670800" lon="35.1278000">
<ele>486.820007</ele>
<time>2023-01-25T13:56:44.034Z</time>
</trkpt>
<trkpt lat="31.7671700" lon="35.1278700">
<ele>486.209991</ele>
<time>2023-01-25T13:56:44.034Z</time>
</trkpt>
<trkpt lat="31.7672600" lon="35.1279300">
<ele>485.510010</ele>
<time>2023-01-25T13:56:44.034Z</time>
</trkpt>
<trkpt lat="31.7673500" lon="35.1280000">
<ele>484.970001</ele>
<time>2023-01-25T13:56:44.034Z</time>
</trkpt>
<trkpt lat="31.7674500" lon="35.1280600">
<ele>483.559998</ele>
<time>2023-01-25T13:56:44.034Z</time>
</trkpt>
<trkpt lat="31.7675500" lon="35.1281300">
<ele>483.559998</ele>
<time>2023-01-25T13:56:44.034Z</time>
</trkpt>
<trkpt lat="31.7676400" lon="35.1281800">
<ele>483.939972</ele>
<time>2023-01-25T13:56:44.034Z</time>
</trkpt>
<trkpt lat="31.7677400" lon="35.1282300">
<ele>483.519989</ele>
<time>2023-01-25T13:56:44.034Z</time>
</trkpt>
<trkpt lat="31.7678500" lon="35.1283000">
<ele>485.080017</ele>
<time>2023-01-25T13:56:44.034Z</time>
</trkpt>
<trkpt lat="31.7679400" lon="35.1283800">
<ele>487.029999</ele>
<time>2023-01-25T13:56:44.034Z</time>
</trkpt>
<trkpt lat="31.7680200" lon="35.1284500">
<ele>487.799988</ele>
<time>2023-01-25T13:56:44.034Z</time>
</trkpt>
<trkpt lat="31.7680800" lon="35.1285200">
<ele>487.779999</ele>
<time>2023-01-25T13:56:44.034Z</time>
</trkpt>
<trkpt lat="31.7681300" lon="35.1286300">
<ele>487.170013</ele>
<time>2023-01-25T13:56:44.034Z</time>
</trkpt>
<trkpt lat="31.7681700" lon="35.1287500">
<ele>486.769989</ele>
<time>2023-01-25T13:56:44.034Z</time>
</trkpt>
<trkpt lat="31.7682000" lon="35.1288700">
<ele>485.200012</ele>
<time>2023-01-25T13:56:44.034Z</time>
</trkpt>
<trkpt lat="31.7682200" lon="35.1289900">
<ele>483.639984</ele>
<time>2023-01-25T13:56:44.034Z</time>
</trkpt>
<trkpt lat="31.7682400" lon="35.1291200">
<ele>481.600006</ele>
<time>2023-01-25T13:56:44.034Z</time>
</trkpt>
<trkpt lat="31.7682600" lon="35.1292600">
<ele>480.630005</ele>
<time>2023-01-25T13:56:44.034Z</time>
</trkpt>
<trkpt lat="31.7682900" lon="35.1293600">
<ele>480.420013</ele>
<time>2023-01-25T13:56:44.034Z</time>
</trkpt>
<trkpt lat="31.7683100" lon="35.1294600">
<ele>480.080017</ele>
<time>2023-01-25T13:56:44.034Z</time>
</trkpt>
<trkpt lat="31.7683400" lon="35.1295800">
<ele>480.710022</ele>
<time>2023-01-25T13:56:44.034Z</time>
</trkpt>
<trkpt lat="31.7683700" lon="35.1297000">
<ele>481.889984</ele>
<time>2023-01-25T13:56:44.035Z</time>
</trkpt>
<trkpt lat="31.7683900" lon="35.1298000">
<ele>482.929993</ele>
<time>2023-01-25T13:56:44.035Z</time>
</trkpt>
<trkpt lat="31.7684200" lon="35.1299200">
<ele>483.989990</ele>
<time>2023-01-25T13:56:44.035Z</time>
</trkpt>
<trkpt lat="31.7684600" lon="35.1300400">
<ele>484.610016</ele>
<time>2023-01-25T13:56:44.035Z</time>
</trkpt>
<trkpt lat="31.7685100" lon="35.1301500">
<ele>485.029999</ele>
<time>2023-01-25T13:56:44.035Z</time>
</trkpt>
<trkpt lat="31.7685500" lon="35.1302600">
<ele>485.190002</ele>
<time>2023-01-25T13:56:44.035Z</time>
</trkpt>
<trkpt lat="31.7685700" lon="35.1303800">
<ele>485.420013</ele>
<time>2023-01-25T13:56:44.035Z</time>
</trkpt>
<trkpt lat="31.7686200" lon="35.1304700">
<ele>484.860016</ele>
<time>2023-01-25T13:56:44.035Z</time>
</trkpt>
<trkpt lat="31.7687200" lon="35.1305500">
<ele>482.690002</ele>
<time>2023-01-25T13:56:44.035Z</time>
</trkpt>
<trkpt lat="31.7688100" lon="35.1306000">
<ele>480.890015</ele>
<time>2023-01-25T13:56:44.035Z</time>
</trkpt>
<trkpt lat="31.7689300" lon="35.1306300">
<ele>478.299988</ele>
<time>2023-01-25T13:56:44.035Z</time>
</trkpt>
<trkpt lat="31.7690400" lon="35.1306700">
<ele>476.500000</ele>
<time>2023-01-25T13:56:44.035Z</time>
</trkpt>
<trkpt lat="31.7691300" lon="35.1307000">
<ele>475.110016</ele>
<time>2023-01-25T13:56:44.035Z</time>
</trkpt>
<trkpt lat="31.7692300" lon="35.1307100">
<ele>474.859985</ele>
<time>2023-01-25T13:56:44.035Z</time>
</trkpt>
<trkpt lat="31.7693300" lon="35.1307400">
<ele>475.830017</ele>
<time>2023-01-25T13:56:44.035Z</time>
</trkpt>
<trkpt lat="31.7694500" lon="35.1307600">
<ele>477.100006</ele>
<time>2023-01-25T13:56:44.035Z</time>
</trkpt>
<trkpt lat="31.7695400" lon="35.1307700">
<ele>476.420013</ele>
<time>2023-01-25T13:56:44.035Z</time>
</trkpt>
<trkpt lat="31.7696300" lon="35.1307600">
<ele>475.360016</ele>
<time>2023-01-25T13:56:44.035Z</time>
</trkpt>
<trkpt lat="31.7697300" lon="35.1307300">
<ele>474.269989</ele>
<time>2023-01-25T13:56:44.035Z</time>
</trkpt>
<trkpt lat="31.7698400" lon="35.1306700">
<ele>474.720001</ele>
<time>2023-01-25T13:56:44.035Z</time>
</trkpt>
<trkpt lat="31.7699300" lon="35.1306400">
<ele>475.759979</ele>
<time>2023-01-25T13:56:44.035Z</time>
</trkpt>
<trkpt lat="31.7700200" lon="35.1306000">
<ele>477.510010</ele>
<time>2023-01-25T13:56:44.035Z</time>
</trkpt>
<trkpt lat="31.7701300" lon="35.1305500">
<ele>479.900024</ele>
<time>2023-01-25T13:56:44.035Z</time>
</trkpt>
<trkpt lat="31.7702100" lon="35.1305000">
<ele>481.380005</ele>
<time>2023-01-25T13:56:44.035Z</time>
</trkpt>
<trkpt lat="31.7703100" lon="35.1304700">
<ele>482.799988</ele>
<time>2023-01-25T13:56:44.035Z</time>
</trkpt>
<trkpt lat="31.7704000" lon="35.1304300">
<ele>483.739990</ele>
<time>2023-01-25T13:56:44.035Z</time>
</trkpt>
<trkpt lat="31.7705100" lon="35.1303900">
<ele>485.019989</ele>
<time>2023-01-25T13:56:44.035Z</time>
</trkpt>
<trkpt lat="31.7706200" lon="35.1303600">
<ele>484.839996</ele>
<time>2023-01-25T13:56:44.036Z</time>
</trkpt>
<trkpt lat="31.7707300" lon="35.1303200">
<ele>483.200012</ele>
<time>2023-01-25T13:56:44.036Z</time>
</trkpt>
<trkpt lat="31.7708200" lon="35.1302900">
<ele>481.360016</ele>
<time>2023-01-25T13:56:44.036Z</time>
</trkpt>
<trkpt lat="31.7709300" lon="35.1302800">
<ele>483.450012</ele>
<time>2023-01-25T13:56:44.036Z</time>
</trkpt>
<trkpt lat="31.7710300" lon="35.1302600">
<ele>486.150024</ele>
<time>2023-01-25T13:56:44.036Z</time>
</trkpt>
<trkpt lat="31.7711300" lon="35.1302300">
<ele>488.980011</ele>
<time>2023-01-25T13:56:44.036Z</time>
</trkpt>
<trkpt lat="31.7712300" lon="35.1302300">
<ele>491.440002</ele>
<time>2023-01-25T13:56:44.036Z</time>
</trkpt>
<trkpt lat="31.7713300" lon="35.1302500">
<ele>493.739990</ele>
<time>2023-01-25T13:56:44.036Z</time>
</trkpt>
<trkpt lat="31.7714400" lon="35.1303100">
<ele>494.309998</ele>
<time>2023-01-25T13:56:44.036Z</time>
</trkpt>
<trkpt lat="31.7715500" lon="35.1303700">
<ele>492.740021</ele>
<time>2023-01-25T13:56:44.036Z</time>
</trkpt>
<trkpt lat="31.7716400" lon="35.1304400">
<ele>491.179993</ele>
<time>2023-01-25T13:56:44.036Z</time>
</trkpt>
<trkpt lat="31.7717300" lon="35.1305300">
<ele>490.449982</ele>
<time>2023-01-25T13:56:44.036Z</time>
</trkpt>
<trkpt lat="31.7718000" lon="35.1306400">
<ele>489.899994</ele>
<time>2023-01-25T13:56:44.036Z</time>
</trkpt>
<trkpt lat="31.7718600" lon="35.1307500">
<ele>488.750000</ele>
<time>2023-01-25T13:56:44.036Z</time>
</trkpt>
<trkpt lat="31.7719000" lon="35.1308700">
<ele>487.589996</ele>
<time>2023-01-25T13:56:44.036Z</time>
</trkpt>
<trkpt lat="31.7719200" lon="35.1309800">
<ele>487.750000</ele>
<time>2023-01-25T13:56:44.036Z</time>
</trkpt>
<trkpt lat="31.7719500" lon="35.1311000">
<ele>488.059998</ele>
<time>2023-01-25T13:56:44.036Z</time>
</trkpt>
<trkpt lat="31.7719700" lon="35.1312100">
<ele>488.680023</ele>
<time>2023-01-25T13:56:44.036Z</time>
</trkpt>
<trkpt lat="31.7719800" lon="35.1313200">
<ele>489.010010</ele>
<time>2023-01-25T13:56:44.036Z</time>
</trkpt>
<trkpt lat="31.7720000" lon="35.1314400">
<ele>488.980011</ele>
<time>2023-01-25T13:56:44.036Z</time>
</trkpt>
<trkpt lat="31.7720100" lon="35.1315500">
<ele>488.519989</ele>
<time>2023-01-25T13:56:44.036Z</time>
</trkpt>
<trkpt lat="31.7720000" lon="35.1316600">
<ele>488.029999</ele>
<time>2023-01-25T13:56:44.036Z</time>
</trkpt>
<trkpt lat="31.7719800" lon="35.1317800">
<ele>487.589996</ele>
<time>2023-01-25T13:56:44.036Z</time>
</trkpt>
<trkpt lat="31.7719500" lon="35.1319100">
<ele>487.119995</ele>
<time>2023-01-25T13:56:44.036Z</time>
</trkpt>
<trkpt lat="31.7719500" lon="35.1320300">
<ele>486.989990</ele>
<time>2023-01-25T13:56:44.036Z</time>
</trkpt>
<trkpt lat="31.7719600" lon="35.1321400">
<ele>486.960022</ele>
<time>2023-01-25T13:56:44.036Z</time>
</trkpt>
<trkpt lat="31.7719700" lon="35.1322600">
<ele>487.149994</ele>
<time>2023-01-25T13:56:44.036Z</time>
</trkpt>
<trkpt lat="31.7719900" lon="35.1323800">
<ele>487.789978</ele>
<time>2023-01-25T13:56:44.037Z</time>
</trkpt>
<trkpt lat="31.7720000" lon="35.1325000">
<ele>488.399994</ele>
<time>2023-01-25T13:56:44.037Z</time>
</trkpt>
<trkpt lat="31.7720100" lon="35.1326200">
<ele>489.049988</ele>
<time>2023-01-25T13:56:44.037Z</time>
</trkpt>
<trkpt lat="31.7720200" lon="35.1327300">
<ele>489.610016</ele>
<time>2023-01-25T13:56:44.037Z</time>
</trkpt>
<trkpt lat="31.7720200" lon="35.1328600">
<ele>490.640015</ele>
<time>2023-01-25T13:56:44.037Z</time>
</trkpt>
<trkpt lat="31.7720200" lon="35.1329700">
<ele>491.609985</ele>
<time>2023-01-25T13:56:44.037Z</time>
</trkpt>
<trkpt lat="31.7720300" lon="35.1330800">
<ele>492.450012</ele>
<time>2023-01-25T13:56:44.037Z</time>
</trkpt>
<trkpt lat="31.7720500" lon="35.1331900">
<ele>493.290009</ele>
<time>2023-01-25T13:56:44.037Z</time>
</trkpt>
<trkpt lat="31.7720600" lon="35.1333000">
<ele>494.290009</ele>
<time>2023-01-25T13:56:44.037Z</time>
</trkpt>
<trkpt lat="31.7720800" lon="35.1334000">
<ele>494.220001</ele>
<time>2023-01-25T13:56:44.037Z</time>
</trkpt>
<trkpt lat="31.7720900" lon="35.1335100">
<ele>494.110016</ele>
<time>2023-01-25T13:56:44.037Z</time>
</trkpt>
<trkpt lat="31.7721100" lon="35.1336200">
<ele>493.720001</ele>
<time>2023-01-25T13:56:44.037Z</time>
</trkpt>
<trkpt lat="31.7721400" lon="35.1337400">
<ele>493.919983</ele>
<time>2023-01-25T13:56:44.037Z</time>
</trkpt>
<trkpt lat="31.7721600" lon="35.1338600">
<ele>494.500000</ele>
<time>2023-01-25T13:56:44.037Z</time>
</trkpt>
<trkpt lat="31.7721900" lon="35.1339800">
<ele>494.619995</ele>
<time>2023-01-25T13:56:44.037Z</time>
</trkpt>
<trkpt lat="31.7722000" lon="35.1341000">
<ele>495.220001</ele>
<time>2023-01-25T13:56:44.037Z</time>
</trkpt>
<trkpt lat="31.7722300" lon="35.1342200">
<ele>495.510010</ele>
<time>2023-01-25T13:56:44.037Z</time>
</trkpt>
<trkpt lat="31.7722400" lon="35.1343400">
<ele>496.699982</ele>
<time>2023-01-25T13:56:44.037Z</time>
</trkpt>
<trkpt lat="31.7722500" lon="35.1344500">
<ele>497.760010</ele>
<time>2023-01-25T13:56:44.037Z</time>
</trkpt>
<trkpt lat="31.7722500" lon="35.1345800">
<ele>499.210022</ele>
<time>2023-01-25T13:56:44.037Z</time>
</trkpt>
<trkpt lat="31.7722500" lon="35.1347000">
<ele>500.549988</ele>
<time>2023-01-25T13:56:44.037Z</time>
</trkpt>
<trkpt lat="31.7722300" lon="35.1348200">
<ele>500.970032</ele>
<time>2023-01-25T13:56:44.037Z</time>
</trkpt>
<trkpt lat="31.7722100" lon="35.1349400">
<ele>500.979980</ele>
<time>2023-01-25T13:56:44.037Z</time>
</trkpt>
<trkpt lat="31.7721600" lon="35.1350300">
<ele>500.779999</ele>
<time>2023-01-25T13:56:44.037Z</time>
</trkpt>
<trkpt lat="31.7720600" lon="35.1351200">
<ele>500.419983</ele>
<time>2023-01-25T13:56:44.037Z</time>
</trkpt>
<trkpt lat="31.7719600" lon="35.1351500">
<ele>500.059998</ele>
<time>2023-01-25T13:56:44.037Z</time>
</trkpt>
<trkpt lat="31.7718500" lon="35.1351700">
<ele>500.809998</ele>
<time>2023-01-25T13:56:44.038Z</time>
</trkpt>
<trkpt lat="31.7717400" lon="35.1351600">
<ele>501.779999</ele>
<time>2023-01-25T13:56:44.038Z</time>
</trkpt>
<trkpt lat="31.7716400" lon="35.1351300">
<ele>502.790009</ele>
<time>2023-01-25T13:56:44.038Z</time>
</trkpt>
<trkpt lat="31.7715500" lon="35.1350700">
<ele>504.319977</ele>
<time>2023-01-25T13:56:44.038Z</time>
</trkpt>
<trkpt lat="31.7714400" lon="35.1350200">
<ele>506.709991</ele>
<time>2023-01-25T13:56:44.038Z</time>
</trkpt>
<trkpt lat="31.7713300" lon="35.1349900">
<ele>508.230011</ele>
<time>2023-01-25T13:56:44.038Z</time>
</trkpt>
<trkpt lat="31.7712000" lon="35.1349700">
<ele>508.790009</ele>
<time>2023-01-25T13:56:44.038Z</time>
</trkpt>
<trkpt lat="31.7710800" lon="35.1349800">
<ele>508.360016</ele>
<time>2023-01-25T13:56:44.038Z</time>
</trkpt>
<trkpt lat="31.7709700" lon="35.1350200">
<ele>506.589996</ele>
<time>2023-01-25T13:56:44.038Z</time>
</trkpt>
<trkpt lat="31.7708800" lon="35.1350800">
<ele>505.039978</ele>
<time>2023-01-25T13:56:44.038Z</time>
</trkpt>
<trkpt lat="31.7707900" lon="35.1351500">
<ele>503.679993</ele>
<time>2023-01-25T13:56:44.038Z</time>
</trkpt>
<trkpt lat="31.7707100" lon="35.1352200">
<ele>502.389984</ele>
<time>2023-01-25T13:56:44.038Z</time>
</trkpt>
<trkpt lat="31.7706400" lon="35.1353000">
<ele>501.019989</ele>
<time>2023-01-25T13:56:44.038Z</time>
</trkpt>
<trkpt lat="31.7705800" lon="35.1353900">
<ele>499.800018</ele>
<time>2023-01-25T13:56:44.038Z</time>
</trkpt>
<trkpt lat="31.7705300" lon="35.1354900">
<ele>499.369995</ele>
<time>2023-01-25T13:56:44.038Z</time>
</trkpt>
<trkpt lat="31.7704800" lon="35.1356000">
<ele>499.730011</ele>
<time>2023-01-25T13:56:44.038Z</time>
</trkpt>
<trkpt lat="31.7704400" lon="35.1357100">
<ele>499.989990</ele>
<time>2023-01-25T13:56:44.038Z</time>
</trkpt>
<trkpt lat="31.7703900" lon="35.1358200">
<ele>499.900024</ele>
<time>2023-01-25T13:56:44.038Z</time>
</trkpt>
<trkpt lat="31.7703500" lon="35.1359200">
<ele>499.219971</ele>
<time>2023-01-25T13:56:44.038Z</time>
</trkpt>
<trkpt lat="31.7703100" lon="35.1360200">
<ele>498.199982</ele>
<time>2023-01-25T13:56:44.038Z</time>
</trkpt>
<trkpt lat="31.7702700" lon="35.1361200">
<ele>497.160004</ele>
<time>2023-01-25T13:56:44.038Z</time>
</trkpt>
<trkpt lat="31.7702200" lon="35.1362400">
<ele>497.450012</ele>
<time>2023-01-25T13:56:44.038Z</time>
</trkpt>
<trkpt lat="31.7701800" lon="35.1363300">
<ele>497.410004</ele>
<time>2023-01-25T13:56:44.038Z</time>
</trkpt>
<trkpt lat="31.7701500" lon="35.1364400">
<ele>497.059998</ele>
<time>2023-01-25T13:56:44.038Z</time>
</trkpt>
<trkpt lat="31.7701200" lon="35.1365500">
<ele>496.770020</ele>
<time>2023-01-25T13:56:44.038Z</time>
</trkpt>
<trkpt lat="31.7700900" lon="35.1366700">
<ele>496.009979</ele>
<time>2023-01-25T13:56:44.038Z</time>
</trkpt>
<trkpt lat="31.7700800" lon="35.1368000">
<ele>496.279999</ele>
<time>2023-01-25T13:56:44.038Z</time>
</trkpt>
<trkpt lat="31.7700900" lon="35.1369300">
<ele>496.609985</ele>
<time>2023-01-25T13:56:44.039Z</time>
</trkpt>
<trkpt lat="31.7701100" lon="35.1370400">
<ele>497.209991</ele>
<time>2023-01-25T13:56:44.039Z</time>
</trkpt>
<trkpt lat="31.7701300" lon="35.1371500">
<ele>497.719971</ele>
<time>2023-01-25T13:56:44.039Z</time>
</trkpt>
<trkpt lat="31.7701500" lon="35.1372900">
<ele>497.529999</ele>
<time>2023-01-25T13:56:44.039Z</time>
</trkpt>
<trkpt lat="31.7701600" lon="35.1373900">
<ele>496.880005</ele>
<time>2023-01-25T13:56:44.039Z</time>
</trkpt>
<trkpt lat="31.7701800" lon="35.1375400">
<ele>496.300018</ele>
<time>2023-01-25T13:56:44.039Z</time>
</trkpt>
<trkpt lat="31.7701900" lon="35.1376500">
<ele>496.369995</ele>
<time>2023-01-25T13:56:44.039Z</time>
</trkpt>
<trkpt lat="31.7701700" lon="35.1377600">
<ele>496.220032</ele>
<time>2023-01-25T13:56:44.039Z</time>
</trkpt>
<trkpt lat="31.7701500" lon="35.1378700">
<ele>496.260010</ele>
<time>2023-01-25T13:56:44.039Z</time>
</trkpt>
<trkpt lat="31.7701100" lon="35.1379700">
<ele>496.070007</ele>
<time>2023-01-25T13:56:44.039Z</time>
</trkpt>
<trkpt lat="31.7700500" lon="35.1380600">
<ele>495.610016</ele>
<time>2023-01-25T13:56:44.039Z</time>
</trkpt>
<trkpt lat="31.7699600" lon="35.1381500">
<ele>496.500000</ele>
<time>2023-01-25T13:56:44.039Z</time>
</trkpt>
<trkpt lat="31.7698600" lon="35.1382100">
<ele>497.389984</ele>
<time>2023-01-25T13:56:44.039Z</time>
</trkpt>
<trkpt lat="31.7697700" lon="35.1382800">
<ele>497.880005</ele>
<time>2023-01-25T13:56:44.039Z</time>
</trkpt>
<trkpt lat="31.7696700" lon="35.1383500">
<ele>497.970001</ele>
<time>2023-01-25T13:56:44.039Z</time>
</trkpt>
<trkpt lat="31.7695700" lon="35.1384400">
<ele>498.180023</ele>
<time>2023-01-25T13:56:44.039Z</time>
</trkpt>
<trkpt lat="31.7694700" lon="35.1385300">
<ele>497.930023</ele>
<time>2023-01-25T13:56:44.039Z</time>
</trkpt>
<trkpt lat="31.7693800" lon="35.1386200">
<ele>498.640015</ele>
<time>2023-01-25T13:56:44.039Z</time>
</trkpt>
<trkpt lat="31.7692900" lon="35.1387100">
<ele>500.419983</ele>
<time>2023-01-25T13:56:44.039Z</time>
</trkpt>
<trkpt lat="31.7692100" lon="35.1387900">
<ele>500.929993</ele>
<time>2023-01-25T13:56:44.039Z</time>
</trkpt>
<trkpt lat="31.7691300" lon="35.1388700">
<ele>501.529968</ele>
<time>2023-01-25T13:56:44.039Z</time>
</trkpt>
<trkpt lat="31.7690700" lon="35.1389600">
<ele>502.640015</ele>
<time>2023-01-25T13:56:44.039Z</time>
</trkpt>
<trkpt lat="31.7690100" lon="35.1390500">
<ele>503.429993</ele>
<time>2023-01-25T13:56:44.039Z</time>
</trkpt>
<trkpt lat="31.7689600" lon="35.1391500">
<ele>503.759979</ele>
<time>2023-01-25T13:56:44.039Z</time>
</trkpt>
<trkpt lat="31.7689200" lon="35.1392500">
<ele>503.620026</ele>
<time>2023-01-25T13:56:44.039Z</time>
</trkpt>
<trkpt lat="31.7688800" lon="35.1393800">
<ele>503.830017</ele>
<time>2023-01-25T13:56:44.039Z</time>
</trkpt>
<trkpt lat="31.7688700" lon="35.1394900">
<ele>504.119995</ele>
<time>2023-01-25T13:56:44.039Z</time>
</trkpt>
<trkpt lat="31.7688500" lon="35.1396000">
<ele>505.019989</ele>
<time>2023-01-25T13:56:44.040Z</time>
</trkpt>
<trkpt lat="31.7688500" lon="35.1397000">
<ele>504.610016</ele>
<time>2023-01-25T13:56:44.040Z</time>
</trkpt>
<trkpt lat="31.7688500" lon="35.1398100">
<ele>504.390015</ele>
<time>2023-01-25T13:56:44.040Z</time>
</trkpt>
<trkpt lat="31.7688600" lon="35.1399200">
<ele>503.649994</ele>
<time>2023-01-25T13:56:44.040Z</time>
</trkpt>
<trkpt lat="31.7688600" lon="35.1400400">
<ele>503.529999</ele>
<time>2023-01-25T13:56:44.040Z</time>
</trkpt>
<trkpt lat="31.7688600" lon="35.1401700">
<ele>503.429993</ele>
<time>2023-01-25T13:56:44.040Z</time>
</trkpt>
<trkpt lat="31.7688600" lon="35.1403200">
<ele>503.230011</ele>
<time>2023-01-25T13:56:44.040Z</time>
</trkpt>
<trkpt lat="31.7688600" lon="35.1404300">
<ele>502.920013</ele>
<time>2023-01-25T13:56:44.040Z</time>
</trkpt>
<trkpt lat="31.7688700" lon="35.1405300">
<ele>502.100006</ele>
<time>2023-01-25T13:56:44.040Z</time>
</trkpt>
<trkpt lat="31.7688700" lon="35.1406400">
<ele>502.019989</ele>
<time>2023-01-25T13:56:44.040Z</time>
</trkpt>
<trkpt lat="31.7688800" lon="35.1407500">
<ele>501.480011</ele>
<time>2023-01-25T13:56:44.040Z</time>
</trkpt>
<trkpt lat="31.7689100" lon="35.1408800">
<ele>501.239990</ele>
<time>2023-01-25T13:56:44.040Z</time>
</trkpt>
<trkpt lat="31.7689300" lon="35.1410000">
<ele>501.319977</ele>
<time>2023-01-25T13:56:44.040Z</time>
</trkpt>
<trkpt lat="31.7689500" lon="35.1411200">
<ele>501.559998</ele>
<time>2023-01-25T13:56:44.040Z</time>
</trkpt>
<trkpt lat="31.7689600" lon="35.1412500">
<ele>502.040009</ele>
<time>2023-01-25T13:56:44.040Z</time>
</trkpt>
<trkpt lat="31.7689800" lon="35.1413700">
<ele>502.619995</ele>
<time>2023-01-25T13:56:44.040Z</time>
</trkpt>
<trkpt lat="31.7689700" lon="35.1414900">
<ele>502.930023</ele>
<time>2023-01-25T13:56:44.040Z</time>
</trkpt>
<trkpt lat="31.7689700" lon="35.1416200">
<ele>503.529999</ele>
<time>2023-01-25T13:56:44.040Z</time>
</trkpt>
<trkpt lat="31.7689500" lon="35.1417500">
<ele>503.620026</ele>
<time>2023-01-25T13:56:44.040Z</time>
</trkpt>
<trkpt lat="31.7689500" lon="35.1417700">
<ele>503.690002</ele>
<time>2023-01-25T13:56:44.040Z</time>
</trkpt>
<trkpt lat="31.7689500" lon="35.1417700">
<ele>503.690002</ele>
<time>2023-01-25T13:56:44.040Z</time>
</trkpt>
<trkpt lat="31.7689500" lon="35.1417700">
<ele>503.690002</ele>
<time>2023-01-25T13:56:44.040Z</time>
</trkpt>
<trkpt lat="31.7689500" lon="35.1417700">
<ele>503.690002</ele>
<time>2023-01-25T13:56:44.040Z</time>
</trkpt>
<trkpt lat="31.7689500" lon="35.1417700">
<ele>503.690002</ele>
<time>2023-01-25T13:56:44.040Z</time>
</trkpt>
<trkpt lat="31.7689500" lon="35.1417700">
<ele>503.690002</ele>
<time>2023-01-25T13:56:44.040Z</time>
</trkpt>
<trkpt lat="31.7689500" lon="35.1417700">
<ele>503.690002</ele>
<time>2023-01-25T13:56:44.040Z</time>
</trkpt>
<trkpt lat="31.7689500" lon="35.1417700">
<ele>503.690002</ele>
<time>2023-01-25T13:56:44.040Z</time>
</trkpt>
<trkpt lat="31.7689400" lon="35.1419000">
<ele>503.940002</ele>
<time>2023-01-25T13:56:44.040Z</time>
</trkpt>
<trkpt lat="31.7689400" lon="35.1420200">
<ele>505.139984</ele>
<time>2023-01-25T13:56:44.041Z</time>
</trkpt>
<trkpt lat="31.7689100" lon="35.1421500">
<ele>506.360016</ele>
<time>2023-01-25T13:56:44.041Z</time>
</trkpt>
<trkpt lat="31.7689000" lon="35.1422600">
<ele>507.470001</ele>
<time>2023-01-25T13:56:44.041Z</time>
</trkpt>
<trkpt lat="31.7689000" lon="35.1423800">
<ele>508.339996</ele>
<time>2023-01-25T13:56:44.041Z</time>
</trkpt>
<trkpt lat="31.7688900" lon="35.1424900">
<ele>508.949982</ele>
<time>2023-01-25T13:56:44.041Z</time>
</trkpt>
<trkpt lat="31.7688900" lon="35.1426200">
<ele>510.739990</ele>
<time>2023-01-25T13:56:44.041Z</time>
</trkpt>
<trkpt lat="31.7688800" lon="35.1427400">
<ele>512.619995</ele>
<time>2023-01-25T13:56:44.041Z</time>
</trkpt>
<trkpt lat="31.7688900" lon="35.1428700">
<ele>514.660034</ele>
<time>2023-01-25T13:56:44.041Z</time>
</trkpt>
<trkpt lat="31.7689300" lon="35.1429900">
<ele>516.590027</ele>
<time>2023-01-25T13:56:44.041Z</time>
</trkpt>
<trkpt lat="31.7689900" lon="35.1431000">
<ele>516.489990</ele>
<time>2023-01-25T13:56:44.041Z</time>
</trkpt>
<trkpt lat="31.7690600" lon="35.1431900">
<ele>515.000000</ele>
<time>2023-01-25T13:56:44.041Z</time>
</trkpt>
<trkpt lat="31.7691400" lon="35.1432900">
<ele>513.519958</ele>
<time>2023-01-25T13:56:44.041Z</time>
</trkpt>
<trkpt lat="31.7692400" lon="35.1433900">
<ele>516.619995</ele>
<time>2023-01-25T13:56:44.041Z</time>
</trkpt>
<trkpt lat="31.7693300" lon="35.1434700">
<ele>520.589966</ele>
<time>2023-01-25T13:56:44.041Z</time>
</trkpt>
<trkpt lat="31.7694100" lon="35.1435200">
<ele>522.909973</ele>
<time>2023-01-25T13:56:44.041Z</time>
</trkpt>
<trkpt lat="31.7694900" lon="35.1435800">
<ele>525.299988</ele>
<time>2023-01-25T13:56:44.041Z</time>
</trkpt>
<trkpt lat="31.7695800" lon="35.1436300">
<ele>527.850037</ele>
<time>2023-01-25T13:56:44.041Z</time>
</trkpt>
<trkpt lat="31.7696700" lon="35.1436800">
<ele>530.239990</ele>
<time>2023-01-25T13:56:44.041Z</time>
</trkpt>
<trkpt lat="31.7697700" lon="35.1437200">
<ele>530.869995</ele>
<time>2023-01-25T13:56:44.041Z</time>
</trkpt>
<trkpt lat="31.7698600" lon="35.1437700">
<ele>530.729980</ele>
<time>2023-01-25T13:56:44.041Z</time>
</trkpt>
<trkpt lat="31.7699600" lon="35.1438200">
<ele>531.090027</ele>
<time>2023-01-25T13:56:44.041Z</time>
</trkpt>
<trkpt lat="31.7700600" lon="35.1438800">
<ele>531.900024</ele>
<time>2023-01-25T13:56:44.041Z</time>
</trkpt>
<trkpt lat="31.7701700" lon="35.1439300">
<ele>530.590027</ele>
<time>2023-01-25T13:56:44.041Z</time>
</trkpt>
<trkpt lat="31.7702600" lon="35.1439700">
<ele>529.510010</ele>
<time>2023-01-25T13:56:44.041Z</time>
</trkpt>
<trkpt lat="31.7703600" lon="35.1440200">
<ele>529.489990</ele>
<time>2023-01-25T13:56:44.041Z</time>
</trkpt>
<trkpt lat="31.7704700" lon="35.1440600">
<ele>529.460022</ele>
<time>2023-01-25T13:56:44.041Z</time>
</trkpt>
<trkpt lat="31.7705700" lon="35.1441000">
<ele>528.960022</ele>
<time>2023-01-25T13:56:44.041Z</time>
</trkpt>
<trkpt lat="31.7706700" lon="35.1441400">
<ele>526.489990</ele>
<time>2023-01-25T13:56:44.042Z</time>
</trkpt>
<trkpt lat="31.7707600" lon="35.1441900">
<ele>523.450012</ele>
<time>2023-01-25T13:56:44.042Z</time>
</trkpt>
<trkpt lat="31.7708500" lon="35.1442500">
<ele>520.549988</ele>
<time>2023-01-25T13:56:44.042Z</time>
</trkpt>
<trkpt lat="31.7709300" lon="35.1443200">
<ele>519.169983</ele>
<time>2023-01-25T13:56:44.042Z</time>
</trkpt>
<trkpt lat="31.7710100" lon="35.1444000">
<ele>516.940002</ele>
<time>2023-01-25T13:56:44.042Z</time>
</trkpt>
<trkpt lat="31.7711100" lon="35.1444800">
<ele>515.010010</ele>
<time>2023-01-25T13:56:44.042Z</time>
</trkpt>
<trkpt lat="31.7711900" lon="35.1445500">
<ele>516.160034</ele>
<time>2023-01-25T13:56:44.042Z</time>
</trkpt>
<trkpt lat="31.7712700" lon="35.1446400">
<ele>516.419983</ele>
<time>2023-01-25T13:56:44.042Z</time>
</trkpt>
<trkpt lat="31.7713400" lon="35.1447400">
<ele>515.729980</ele>
<time>2023-01-25T13:56:44.042Z</time>
</trkpt>
<trkpt lat="31.7714100" lon="35.1448400">
<ele>515.739990</ele>
<time>2023-01-25T13:56:44.042Z</time>
</trkpt>
<trkpt lat="31.7714500" lon="35.1449400">
<ele>515.890015</ele>
<time>2023-01-25T13:56:44.042Z</time>
</trkpt>
<trkpt lat="31.7714800" lon="35.1450600">
<ele>515.470032</ele>
<time>2023-01-25T13:56:44.042Z</time>
</trkpt>
<trkpt lat="31.7714900" lon="35.1452000">
<ele>514.419983</ele>
<time>2023-01-25T13:56:44.042Z</time>
</trkpt>
<trkpt lat="31.7715000" lon="35.1453100">
<ele>513.850037</ele>
<time>2023-01-25T13:56:44.042Z</time>
</trkpt>
<trkpt lat="31.7715000" lon="35.1454200">
<ele>514.000000</ele>
<time>2023-01-25T13:56:44.042Z</time>
</trkpt>
<trkpt lat="31.7715000" lon="35.1455300">
<ele>514.159973</ele>
<time>2023-01-25T13:56:44.042Z</time>
</trkpt>
<trkpt lat="31.7715100" lon="35.1456300">
<ele>514.609985</ele>
<time>2023-01-25T13:56:44.042Z</time>
</trkpt>
<trkpt lat="31.7715200" lon="35.1457400">
<ele>515.119995</ele>
<time>2023-01-25T13:56:44.042Z</time>
</trkpt>
<trkpt lat="31.7715400" lon="35.1458500">
<ele>515.570007</ele>
<time>2023-01-25T13:56:44.042Z</time>
</trkpt>
<trkpt lat="31.7715400" lon="35.1459600">
<ele>515.709961</ele>
<time>2023-01-25T13:56:44.042Z</time>
</trkpt>
<trkpt lat="31.7715600" lon="35.1460700">
<ele>515.750000</ele>
<time>2023-01-25T13:56:44.042Z</time>
</trkpt>
<trkpt lat="31.7715800" lon="35.1461900">
<ele>516.089966</ele>
<time>2023-01-25T13:56:44.042Z</time>
</trkpt>
<trkpt lat="31.7716000" lon="35.1462900">
<ele>516.429993</ele>
<time>2023-01-25T13:56:44.042Z</time>
</trkpt>
<trkpt lat="31.7716300" lon="35.1464000">
<ele>516.580017</ele>
<time>2023-01-25T13:56:44.042Z</time>
</trkpt>
<trkpt lat="31.7716700" lon="35.1465000">
<ele>516.429993</ele>
<time>2023-01-25T13:56:44.042Z</time>
</trkpt>
<trkpt lat="31.7717200" lon="35.1466100">
<ele>517.110046</ele>
<time>2023-01-25T13:56:44.042Z</time>
</trkpt>
<trkpt lat="31.7717600" lon="35.1467200">
<ele>517.780029</ele>
<time>2023-01-25T13:56:44.042Z</time>
</trkpt>
<trkpt lat="31.7718100" lon="35.1468100">
<ele>518.250000</ele>
<time>2023-01-25T13:56:44.043Z</time>
</trkpt>
<trkpt lat="31.7718700" lon="35.1469000">
<ele>518.020020</ele>
<time>2023-01-25T13:56:44.043Z</time>
</trkpt>
<trkpt lat="31.7719400" lon="35.1469800">
<ele>517.450012</ele>
<time>2023-01-25T13:56:44.043Z</time>
</trkpt>
<trkpt lat="31.7720100" lon="35.1470600">
<ele>518.940002</ele>
<time>2023-01-25T13:56:44.043Z</time>
</trkpt>
<trkpt lat="31.7720800" lon="35.1471400">
<ele>519.830017</ele>
<time>2023-01-25T13:56:44.043Z</time>
</trkpt>
<trkpt lat="31.7721400" lon="35.1472200">
<ele>520.000000</ele>
<time>2023-01-25T13:56:44.043Z</time>
</trkpt>
<trkpt lat="31.7722200" lon="35.1473100">
<ele>519.390015</ele>
<time>2023-01-25T13:56:44.043Z</time>
</trkpt>
<trkpt lat="31.7722900" lon="35.1473800">
<ele>519.809998</ele>
<time>2023-01-25T13:56:44.043Z</time>
</trkpt>
<trkpt lat="31.7723700" lon="35.1474600">
<ele>520.039978</ele>
<time>2023-01-25T13:56:44.043Z</time>
</trkpt>
<trkpt lat="31.7724600" lon="35.1475500">
<ele>520.570007</ele>
<time>2023-01-25T13:56:44.043Z</time>
</trkpt>
<trkpt lat="31.7725500" lon="35.1476300">
<ele>520.539978</ele>
<time>2023-01-25T13:56:44.043Z</time>
</trkpt>
<trkpt lat="31.7726300" lon="35.1477200">
<ele>519.929993</ele>
<time>2023-01-25T13:56:44.043Z</time>
</trkpt>
<trkpt lat="31.7727200" lon="35.1478100">
<ele>519.049988</ele>
<time>2023-01-25T13:56:44.043Z</time>
</trkpt>
<trkpt lat="31.7728200" lon="35.1479100">
<ele>518.200012</ele>
<time>2023-01-25T13:56:44.043Z</time>
</trkpt>
<trkpt lat="31.7729100" lon="35.1480000">
<ele>517.880005</ele>
<time>2023-01-25T13:56:44.043Z</time>
</trkpt>
<trkpt lat="31.7730100" lon="35.1480900">
<ele>517.920044</ele>
<time>2023-01-25T13:56:44.043Z</time>
</trkpt>
<trkpt lat="31.7731200" lon="35.1481700">
<ele>519.239990</ele>
<time>2023-01-25T13:56:44.043Z</time>
</trkpt>
<trkpt lat="31.7732300" lon="35.1482500">
<ele>520.640015</ele>
<time>2023-01-25T13:56:44.043Z</time>
</trkpt>
<trkpt lat="31.7733400" lon="35.1483200">
<ele>521.320007</ele>
<time>2023-01-25T13:56:44.043Z</time>
</trkpt>
<trkpt lat="31.7734100" lon="35.1483900">
<ele>521.510010</ele>
<time>2023-01-25T13:56:44.043Z</time>
</trkpt>
<trkpt lat="31.7734700" lon="35.1484800">
<ele>521.090027</ele>
<time>2023-01-25T13:56:44.043Z</time>
</trkpt>
<trkpt lat="31.7735300" lon="35.1485900">
<ele>520.190002</ele>
<time>2023-01-25T13:56:44.043Z</time>
</trkpt>
<trkpt lat="31.7735700" lon="35.1486900">
<ele>519.639954</ele>
<time>2023-01-25T13:56:44.043Z</time>
</trkpt>
<trkpt lat="31.7735900" lon="35.1488100">
<ele>518.659973</ele>
<time>2023-01-25T13:56:44.043Z</time>
</trkpt>
<trkpt lat="31.7736000" lon="35.1489300">
<ele>517.630005</ele>
<time>2023-01-25T13:56:44.043Z</time>
</trkpt>
<trkpt lat="31.7736100" lon="35.1490500">
<ele>516.830017</ele>
<time>2023-01-25T13:56:44.043Z</time>
</trkpt>
<trkpt lat="31.7736200" lon="35.1491600">
<ele>516.109985</ele>
<time>2023-01-25T13:56:44.043Z</time>
</trkpt>
<trkpt lat="31.7736300" lon="35.1492700">
<ele>516.510010</ele>
<time>2023-01-25T13:56:44.044Z</time>
</trkpt>
<trkpt lat="31.7736400" lon="35.1494000">
<ele>517.049988</ele>
<time>2023-01-25T13:56:44.044Z</time>
</trkpt>
<trkpt lat="31.7736700" lon="35.1495300">
<ele>517.799988</ele>
<time>2023-01-25T13:56:44.044Z</time>
</trkpt>
<trkpt lat="31.7737000" lon="35.1496400">
<ele>518.570007</ele>
<time>2023-01-25T13:56:44.044Z</time>
</trkpt>
<trkpt lat="31.7737400" lon="35.1497300">
<ele>519.390015</ele>
<time>2023-01-25T13:56:44.044Z</time>
</trkpt>
<trkpt lat="31.7737900" lon="35.1498200">
<ele>519.929993</ele>
<time>2023-01-25T13:56:44.044Z</time>
</trkpt>
<trkpt lat="31.7738600" lon="35.1499300">
<ele>520.690002</ele>
<time>2023-01-25T13:56:44.044Z</time>
</trkpt>
<trkpt lat="31.7739100" lon="35.1500100">
<ele>521.239990</ele>
<time>2023-01-25T13:56:44.044Z</time>
</trkpt>
<trkpt lat="31.7739800" lon="35.1501000">
<ele>521.830017</ele>
<time>2023-01-25T13:56:44.044Z</time>
</trkpt>
<trkpt lat="31.7740400" lon="35.1501900">
<ele>522.549988</ele>
<time>2023-01-25T13:56:44.044Z</time>
</trkpt>
<trkpt lat="31.7740500" lon="35.1503000">
<ele>522.479980</ele>
<time>2023-01-25T13:56:44.044Z</time>
</trkpt>
<trkpt lat="31.7739800" lon="35.1504000">
<ele>520.969971</ele>
<time>2023-01-25T13:56:44.044Z</time>
</trkpt>
<trkpt lat="31.7739000" lon="35.1504500">
<ele>519.239990</ele>
<time>2023-01-25T13:56:44.044Z</time>
</trkpt>
<trkpt lat="31.7738000" lon="35.1505400">
<ele>517.400024</ele>
<time>2023-01-25T13:56:44.044Z</time>
</trkpt>
<trkpt lat="31.7737200" lon="35.1506400">
<ele>516.450012</ele>
<time>2023-01-25T13:56:44.044Z</time>
</trkpt>
<trkpt lat="31.7736500" lon="35.1507300">
<ele>515.869995</ele>
<time>2023-01-25T13:56:44.044Z</time>
</trkpt>
<trkpt lat="31.7736000" lon="35.1508200">
<ele>515.910034</ele>
<time>2023-01-25T13:56:44.044Z</time>
</trkpt>
<trkpt lat="31.7735500" lon="35.1509500">
<ele>517.080017</ele>
<time>2023-01-25T13:56:44.044Z</time>
</trkpt>
<trkpt lat="31.7735500" lon="35.1510800">
<ele>518.269958</ele>
<time>2023-01-25T13:56:44.044Z</time>
</trkpt>
<trkpt lat="31.7735500" lon="35.1512100">
<ele>519.270020</ele>
<time>2023-01-25T13:56:44.044Z</time>
</trkpt>
<trkpt lat="31.7735500" lon="35.1513500">
<ele>520.279968</ele>
<time>2023-01-25T13:56:44.044Z</time>
</trkpt>
<trkpt lat="31.7735500" lon="35.1514700">
<ele>520.690002</ele>
<time>2023-01-25T13:56:44.044Z</time>
</trkpt>
<trkpt lat="31.7735500" lon="35.1515900">
<ele>520.880005</ele>
<time>2023-01-25T13:56:44.044Z</time>
</trkpt>
<trkpt lat="31.7735500" lon="35.1517200">
<ele>520.739990</ele>
<time>2023-01-25T13:56:44.044Z</time>
</trkpt>
<trkpt lat="31.7735500" lon="35.1518200">
<ele>520.260010</ele>
<time>2023-01-25T13:56:44.044Z</time>
</trkpt>
<trkpt lat="31.7735600" lon="35.1519300">
<ele>519.630005</ele>
<time>2023-01-25T13:56:44.044Z</time>
</trkpt>
<trkpt lat="31.7735600" lon="35.1520600">
<ele>519.890015</ele>
<time>2023-01-25T13:56:44.044Z</time>
</trkpt>
<trkpt lat="31.7735400" lon="35.1521800">
<ele>520.400024</ele>
<time>2023-01-25T13:56:44.045Z</time>
</trkpt>
<trkpt lat="31.7735200" lon="35.1522800">
<ele>520.579956</ele>
<time>2023-01-25T13:56:44.045Z</time>
</trkpt>
<trkpt lat="31.7734900" lon="35.1523900">
<ele>520.790039</ele>
<time>2023-01-25T13:56:44.045Z</time>
</trkpt>
<trkpt lat="31.7734500" lon="35.1524900">
<ele>521.309998</ele>
<time>2023-01-25T13:56:44.045Z</time>
</trkpt>
<trkpt lat="31.7733900" lon="35.1525900">
<ele>521.409973</ele>
<time>2023-01-25T13:56:44.045Z</time>
</trkpt>
<trkpt lat="31.7733400" lon="35.1527000">
<ele>520.799988</ele>
<time>2023-01-25T13:56:44.045Z</time>
</trkpt>
<trkpt lat="31.7733100" lon="35.1528000">
<ele>519.989990</ele>
<time>2023-01-25T13:56:44.045Z</time>
</trkpt>
<trkpt lat="31.7732600" lon="35.1529100">
<ele>519.869995</ele>
<time>2023-01-25T13:56:44.045Z</time>
</trkpt>
<trkpt lat="31.7732000" lon="35.1530200">
<ele>519.580017</ele>
<time>2023-01-25T13:56:44.045Z</time>
</trkpt>
<trkpt lat="31.7731400" lon="35.1531000">
<ele>519.460022</ele>
<time>2023-01-25T13:56:44.045Z</time>
</trkpt>
<trkpt lat="31.7730700" lon="35.1531900">
<ele>519.540039</ele>
<time>2023-01-25T13:56:44.045Z</time>
</trkpt>
<trkpt lat="31.7729800" lon="35.1532800">
<ele>519.469971</ele>
<time>2023-01-25T13:56:44.045Z</time>
</trkpt>
<trkpt lat="31.7729000" lon="35.1533400">
<ele>518.880005</ele>
<time>2023-01-25T13:56:44.045Z</time>
</trkpt>
<trkpt lat="31.7728100" lon="35.1534100">
<ele>518.229980</ele>
<time>2023-01-25T13:56:44.045Z</time>
</trkpt>
<trkpt lat="31.7727200" lon="35.1534700">
<ele>518.419983</ele>
<time>2023-01-25T13:56:44.045Z</time>
</trkpt>
<trkpt lat="31.7726300" lon="35.1535300">
<ele>518.839966</ele>
<time>2023-01-25T13:56:44.045Z</time>
</trkpt>
<trkpt lat="31.7725400" lon="35.1535700">
<ele>519.109985</ele>
<time>2023-01-25T13:56:44.045Z</time>
</trkpt>
<trkpt lat="31.7724400" lon="35.1536300">
<ele>518.989990</ele>
<time>2023-01-25T13:56:44.045Z</time>
</trkpt>
<trkpt lat="31.7723600" lon="35.1536700">
<ele>519.450012</ele>
<time>2023-01-25T13:56:44.045Z</time>
</trkpt>
<trkpt lat="31.7722700" lon="35.1536600">
<ele>519.250000</ele>
<time>2023-01-25T13:56:44.045Z</time>
</trkpt>
<trkpt lat="31.7721700" lon="35.1536700">
<ele>521.179993</ele>
<time>2023-01-25T13:56:44.045Z</time>
</trkpt>
<trkpt lat="31.7720600" lon="35.1536700">
<ele>524.760010</ele>
<time>2023-01-25T13:56:44.045Z</time>
</trkpt>
<trkpt lat="31.7719700" lon="35.1536800">
<ele>527.479980</ele>
<time>2023-01-25T13:56:44.045Z</time>
</trkpt>
<trkpt lat="31.7718800" lon="35.1536800">
<ele>528.200012</ele>
<time>2023-01-25T13:56:44.045Z</time>
</trkpt>
<trkpt lat="31.7717800" lon="35.1536900">
<ele>527.919983</ele>
<time>2023-01-25T13:56:44.045Z</time>
</trkpt>
<trkpt lat="31.7716800" lon="35.1537000">
<ele>527.720032</ele>
<time>2023-01-25T13:56:44.045Z</time>
</trkpt>
<trkpt lat="31.7715800" lon="35.1537000">
<ele>530.280029</ele>
<time>2023-01-25T13:56:44.045Z</time>
</trkpt>
<trkpt lat="31.7714800" lon="35.1536900">
<ele>533.130005</ele>
<time>2023-01-25T13:56:44.045Z</time>
</trkpt>
<trkpt lat="31.7713700" lon="35.1536800">
<ele>535.590027</ele>
<time>2023-01-25T13:56:44.045Z</time>
</trkpt>
<trkpt lat="31.7712800" lon="35.1536800">
<ele>536.079956</ele>
<time>2023-01-25T13:56:44.045Z</time>
</trkpt>
<trkpt lat="31.7711800" lon="35.1536900">
<ele>536.580017</ele>
<time>2023-01-25T13:56:44.046Z</time>
</trkpt>
<trkpt lat="31.7710700" lon="35.1536900">
<ele>536.760010</ele>
<time>2023-01-25T13:56:44.046Z</time>
</trkpt>
<trkpt lat="31.7709800" lon="35.1536900">
<ele>536.530029</ele>
<time>2023-01-25T13:56:44.046Z</time>
</trkpt>
<trkpt lat="31.7708800" lon="35.1536800">
<ele>536.380005</ele>
<time>2023-01-25T13:56:44.046Z</time>
</trkpt>
<trkpt lat="31.7707800" lon="35.1536700">
<ele>535.909973</ele>
<time>2023-01-25T13:56:44.046Z</time>
</trkpt>
<trkpt lat="31.7706600" lon="35.1537000">
<ele>534.770020</ele>
<time>2023-01-25T13:56:44.046Z</time>
</trkpt>
<trkpt lat="31.7705700" lon="35.1537400">
<ele>534.080017</ele>
<time>2023-01-25T13:56:44.046Z</time>
</trkpt>
<trkpt lat="31.7704600" lon="35.1537800">
<ele>534.130005</ele>
<time>2023-01-25T13:56:44.046Z</time>
</trkpt>
<trkpt lat="31.7703600" lon="35.1538300">
<ele>534.149963</ele>
<time>2023-01-25T13:56:44.046Z</time>
</trkpt>
<trkpt lat="31.7702600" lon="35.1538800">
<ele>534.419983</ele>
<time>2023-01-25T13:56:44.046Z</time>
</trkpt>
<trkpt lat="31.7701800" lon="35.1539300">
<ele>536.349976</ele>
<time>2023-01-25T13:56:44.046Z</time>
</trkpt>
<trkpt lat="31.7700900" lon="35.1539700">
<ele>538.140015</ele>
<time>2023-01-25T13:56:44.046Z</time>
</trkpt>
<trkpt lat="31.7700100" lon="35.1540300">
<ele>539.349976</ele>
<time>2023-01-25T13:56:44.046Z</time>
</trkpt>
<trkpt lat="31.7699100" lon="35.1540300">
<ele>540.950012</ele>
<time>2023-01-25T13:56:44.046Z</time>
</trkpt>
<trkpt lat="31.7698900" lon="35.1539000">
<ele>541.919983</ele>
<time>2023-01-25T13:56:44.046Z</time>
</trkpt>
<trkpt lat="31.7698900" lon="35.1537900">
<ele>542.549988</ele>
<time>2023-01-25T13:56:44.046Z</time>
</trkpt>
<trkpt lat="31.7699000" lon="35.1537600">
<ele>542.559998</ele>
<time>2023-01-25T13:56:44.046Z</time>
</trkpt>
<trkpt lat="31.7699000" lon="35.1537600">
<ele>542.559998</ele>
<time>2023-01-25T13:56:44.046Z</time>
</trkpt>
<trkpt lat="31.7699000" lon="35.1536900">
<ele>542.969971</ele>
<time>2023-01-25T13:56:44.046Z</time>
</trkpt>
<trkpt lat="31.7698900" lon="35.1536900">
<ele>543.130005</ele>
<time>2023-01-25T13:56:44.046Z</time>
</trkpt>
<trkpt lat="31.7698900" lon="35.1536900">
<ele>543.130005</ele>
<time>2023-01-25T13:56:44.046Z</time>
</trkpt>
<trkpt lat="31.7698900" lon="35.1536900">
<ele>543.130005</ele>
<time>2023-01-25T13:56:44.046Z</time>
</trkpt>
<trkpt lat="31.7698900" lon="35.1536900">
<ele>543.130005</ele>
<time>2023-01-25T13:56:44.046Z</time>
</trkpt>
<trkpt lat="31.7698900" lon="35.1536900">
<ele>543.130005</ele>
<time>2023-01-25T13:56:44.046Z</time>
</trkpt>
<trkpt lat="31.7698900" lon="35.1536900">
<ele>543.130005</ele>
<time>2023-01-25T13:56:44.046Z</time>
</trkpt>
<trkpt lat="31.7698900" lon="35.1536900">
<ele>543.130005</ele>
<time>2023-01-25T13:56:44.046Z</time>
</trkpt>
<trkpt lat="31.7698900" lon="35.1536900">
<ele>543.130005</ele>
<time>2023-01-25T13:56:44.046Z</time>
</trkpt>
<trkpt lat="31.7698900" lon="35.1536900">
<ele>543.130005</ele>
<time>2023-01-25T13:56:44.046Z</time>
</trkpt>
<trkpt lat="31.7698900" lon="35.1536900">
<ele>543.130005</ele>
<time>2023-01-25T13:56:44.046Z</time>
</trkpt>
<trkpt lat="31.7698900" lon="35.1536900">
<ele>543.130005</ele>
<time>2023-01-25T13:56:44.046Z</time>
</trkpt>
<trkpt lat="31.7698900" lon="35.1535700">
<ele>543.640015</ele>
<time>2023-01-25T13:56:44.046Z</time>
</trkpt>
<trkpt lat="31.7699200" lon="35.1534500">
<ele>543.320007</ele>
<time>2023-01-25T13:56:44.047Z</time>
</trkpt>
<trkpt lat="31.7699600" lon="35.1533500">
<ele>542.710022</ele>
<time>2023-01-25T13:56:44.047Z</time>
</trkpt>
<trkpt lat="31.7700100" lon="35.1532600">
<ele>542.710022</ele>
<time>2023-01-25T13:56:44.047Z</time>
</trkpt>
<trkpt lat="31.7700200" lon="35.1532400">
<ele>542.859985</ele>
<time>2023-01-25T13:56:44.047Z</time>
</trkpt>
<trkpt lat="31.7700200" lon="35.1532400">
<ele>542.859985</ele>
<time>2023-01-25T13:56:44.047Z</time>
</trkpt>
<trkpt lat="31.7700000" lon="35.1532300">
<ele>543.119995</ele>
<time>2023-01-25T13:56:44.047Z</time>
</trkpt>
<trkpt lat="31.7700200" lon="35.1532100">
<ele>543.210022</ele>
<time>2023-01-25T13:56:44.047Z</time>
</trkpt>
<trkpt lat="31.7700900" lon="35.1531000">
<ele>544.359985</ele>
<time>2023-01-25T13:56:44.047Z</time>
</trkpt>
<trkpt lat="31.7701200" lon="35.1530800">
<ele>544.619995</ele>
<time>2023-01-25T13:56:44.047Z</time>
</trkpt>
<trkpt lat="31.7700000" lon="35.1529100">
<ele>545.520020</ele>
<time>2023-01-25T13:56:44.047Z</time>
</trkpt>
<trkpt lat="31.7698700" lon="35.1528400">
<ele>546.450012</ele>
<time>2023-01-25T13:56:44.047Z</time>
</trkpt>
<trkpt lat="31.7700500" lon="35.1526700">
<ele>547.109985</ele>
<time>2023-01-25T13:56:44.047Z</time>
</trkpt>
<trkpt lat="31.7700900" lon="35.1526000">
<ele>547.940002</ele>
<time>2023-01-25T13:56:44.047Z</time>
</trkpt>
<trkpt lat="31.7703700" lon="35.1523200">
<ele>554.869995</ele>
<time>2023-01-25T13:56:44.047Z</time>
</trkpt>
<trkpt lat="31.7705200" lon="35.1520900">
<ele>559.190002</ele>
<time>2023-01-25T13:56:44.047Z</time>
</trkpt>
<trkpt lat="31.7709800" lon="35.1519800">
<ele>560.040039</ele>
<time>2023-01-25T13:56:44.047Z</time>
</trkpt>
<trkpt lat="31.7712800" lon="35.1518400">
<ele>563.820007</ele>
<time>2023-01-25T13:56:44.047Z</time>
</trkpt>
<trkpt lat="31.7713600" lon="35.1517500">
<ele>563.919983</ele>
<time>2023-01-25T13:56:44.047Z</time>
</trkpt>
<trkpt lat="31.7713700" lon="35.1516600">
<ele>564.299988</ele>
<time>2023-01-25T13:56:44.047Z</time>
</trkpt>
<trkpt lat="31.7713700" lon="35.1516200">
<ele>564.840027</ele>
<time>2023-01-25T13:56:44.047Z</time>
</trkpt>
<trkpt lat="31.7713300" lon="35.1515600">
<ele>565.929993</ele>
<time>2023-01-25T13:56:44.047Z</time>
</trkpt>
<trkpt lat="31.7710800" lon="35.1514800">
<ele>567.489990</ele>
<time>2023-01-25T13:56:44.047Z</time>
</trkpt>
<trkpt lat="31.7710100" lon="35.1513900">
<ele>567.989990</ele>
<time>2023-01-25T13:56:44.047Z</time>
</trkpt>
<trkpt lat="31.7709700" lon="35.1512800">
<ele>569.179993</ele>
<time>2023-01-25T13:56:44.047Z</time>
</trkpt>
<trkpt lat="31.7709800" lon="35.1509800">
<ele>573.109985</ele>
<time>2023-01-25T13:56:44.047Z</time>
</trkpt>
<trkpt lat="31.7709800" lon="35.1509800">
<ele>573.109985</ele>
<time>2023-01-25T13:56:44.047Z</time>
</trkpt>
<trkpt lat="31.7709500" lon="35.1508500">
<ele>575.309998</ele>
<time>2023-01-25T13:56:44.047Z</time>
</trkpt>
<trkpt lat="31.7709000" lon="35.1507500">
<ele>577.119995</ele>
<time>2023-01-25T13:56:44.047Z</time>
</trkpt>
<trkpt lat="31.7708200" lon="35.1506500">
<ele>579.220032</ele>
<time>2023-01-25T13:56:44.047Z</time>
</trkpt>
<trkpt lat="31.7707600" lon="35.1506200">
<ele>579.369995</ele>
<time>2023-01-25T13:56:44.047Z</time>
</trkpt>
<trkpt lat="31.7706900" lon="35.1506100">
<ele>579.090027</ele>
<time>2023-01-25T13:56:44.047Z</time>
</trkpt>
<trkpt lat="31.7706100" lon="35.1506200">
<ele>578.419983</ele>
<time>2023-01-25T13:56:44.048Z</time>
</trkpt>
<trkpt lat="31.7704500" lon="35.1503800">
<ele>579.630005</ele>
<time>2023-01-25T13:56:44.048Z</time>
</trkpt>
<trkpt lat="31.7704500" lon="35.1501700">
<ele>580.290039</ele>
<time>2023-01-25T13:56:44.048Z</time>
</trkpt>
<trkpt lat="31.7703900" lon="35.1500800">
<ele>580.850037</ele>
<time>2023-01-25T13:56:44.048Z</time>
</trkpt>
<trkpt lat="31.7703700" lon="35.1499200">
<ele>581.339966</ele>
<time>2023-01-25T13:56:44.048Z</time>
</trkpt>
<trkpt lat="31.7703600" lon="35.1498400">
<ele>581.410034</ele>
<time>2023-01-25T13:56:44.048Z</time>
</trkpt>
<trkpt lat="31.7703600" lon="35.1498300">
<ele>581.410034</ele>
<time>2023-01-25T13:56:44.048Z</time>
</trkpt>
<trkpt lat="31.7703400" lon="35.1496900">
<ele>581.380005</ele>
<time>2023-01-25T13:56:44.048Z</time>
</trkpt>
<trkpt lat="31.7702400" lon="35.1495500">
<ele>581.679993</ele>
<time>2023-01-25T13:56:44.048Z</time>
</trkpt>
<trkpt lat="31.7699800" lon="35.1490000">
<ele>584.650024</ele>
<time>2023-01-25T13:56:44.048Z</time>
</trkpt>
<trkpt lat="31.7699600" lon="35.1484300">
<ele>584.809998</ele>
<time>2023-01-25T13:56:44.048Z</time>
</trkpt>
<trkpt lat="31.7699700" lon="35.1480900">
<ele>586.410034</ele>
<time>2023-01-25T13:56:44.048Z</time>
</trkpt>
<trkpt lat="31.7699500" lon="35.1476400">
<ele>588.260010</ele>
<time>2023-01-25T13:56:44.048Z</time>
</trkpt>
<trkpt lat="31.7699000" lon="35.1474000">
<ele>589.390015</ele>
<time>2023-01-25T13:56:44.048Z</time>
</trkpt>
<trkpt lat="31.7697700" lon="35.1470400">
<ele>592.510010</ele>
<time>2023-01-25T13:56:44.048Z</time>
</trkpt>
<trkpt lat="31.7695100" lon="35.1467300">
<ele>595.729980</ele>
<time>2023-01-25T13:56:44.048Z</time>
</trkpt>
<trkpt lat="31.7689000" lon="35.1458800">
<ele>598.330017</ele>
<time>2023-01-25T13:56:44.048Z</time>
</trkpt>
<trkpt lat="31.7687500" lon="35.1457300">
<ele>596.399963</ele>
<time>2023-01-25T13:56:44.048Z</time>
</trkpt>
<trkpt lat="31.7684400" lon="35.1455000">
<ele>593.119995</ele>
<time>2023-01-25T13:56:44.048Z</time>
</trkpt>
<trkpt lat="31.7682300" lon="35.1453600">
<ele>592.260010</ele>
<time>2023-01-25T13:56:44.048Z</time>
</trkpt>
<trkpt lat="31.7677300" lon="35.1451700">
<ele>592.950012</ele>
<time>2023-01-25T13:56:44.048Z</time>
</trkpt>
<trkpt lat="31.7674100" lon="35.1450200">
<ele>596.539978</ele>
<time>2023-01-25T13:56:44.048Z</time>
</trkpt>
<trkpt lat="31.7674100" lon="35.1450200">
<ele>596.539978</ele>
<time>2023-01-25T13:56:44.048Z</time>
</trkpt>
<trkpt lat="31.7674100" lon="35.1450200">
<ele>596.539978</ele>
<time>2023-01-25T13:56:44.048Z</time>
</trkpt>
<trkpt lat="31.7673400" lon="35.1449800">
<ele>597.460022</ele>
<time>2023-01-25T13:56:44.048Z</time>
</trkpt>
<trkpt lat="31.7672300" lon="35.1449200">
<ele>598.869995</ele>
<time>2023-01-25T13:56:44.048Z</time>
</trkpt>
<trkpt lat="31.7671200" lon="35.1448500">
<ele>598.979980</ele>
<time>2023-01-25T13:56:44.048Z</time>
</trkpt>
<trkpt lat="31.7670200" lon="35.1447800">
<ele>598.599976</ele>
<time>2023-01-25T13:56:44.048Z</time>
</trkpt>
<trkpt lat="31.7669300" lon="35.1447200">
<ele>598.289978</ele>
<time>2023-01-25T13:56:44.048Z</time>
</trkpt>
<trkpt lat="31.7668600" lon="35.1446600">
<ele>598.109985</ele>
<time>2023-01-25T13:56:44.048Z</time>
</trkpt>
<trkpt lat="31.7667700" lon="35.1445600">
<ele>597.140015</ele>
<time>2023-01-25T13:56:44.049Z</time>
</trkpt>
<trkpt lat="31.7667000" lon="35.1444800">
<ele>596.309998</ele>
<time>2023-01-25T13:56:44.049Z</time>
</trkpt>
<trkpt lat="31.7666300" lon="35.1443800">
<ele>595.330017</ele>
<time>2023-01-25T13:56:44.049Z</time>
</trkpt>
<trkpt lat="31.7665600" lon="35.1442800">
<ele>594.720032</ele>
<time>2023-01-25T13:56:44.049Z</time>
</trkpt>
<trkpt lat="31.7664900" lon="35.1441700">
<ele>593.820007</ele>
<time>2023-01-25T13:56:44.049Z</time>
</trkpt>
<trkpt lat="31.7664600" lon="35.1440500">
<ele>593.750000</ele>
<time>2023-01-25T13:56:44.049Z</time>
</trkpt>
<trkpt lat="31.7664600" lon="35.1439400">
<ele>592.859985</ele>
<time>2023-01-25T13:56:44.049Z</time>
</trkpt>
<trkpt lat="31.7664700" lon="35.1438300">
<ele>592.349976</ele>
<time>2023-01-25T13:56:44.049Z</time>
</trkpt>
<trkpt lat="31.7664800" lon="35.1437200">
<ele>592.530029</ele>
<time>2023-01-25T13:56:44.049Z</time>
</trkpt>
<trkpt lat="31.7664600" lon="35.1436000">
<ele>593.729980</ele>
<time>2023-01-25T13:56:44.049Z</time>
</trkpt>
<trkpt lat="31.7664300" lon="35.1434900">
<ele>594.859985</ele>
<time>2023-01-25T13:56:44.049Z</time>
</trkpt>
<trkpt lat="31.7664400" lon="35.1433700">
<ele>594.820007</ele>
<time>2023-01-25T13:56:44.049Z</time>
</trkpt>
<trkpt lat="31.7664500" lon="35.1432600">
<ele>594.619995</ele>
<time>2023-01-25T13:56:44.049Z</time>
</trkpt>
<trkpt lat="31.7664600" lon="35.1431600">
<ele>594.299988</ele>
<time>2023-01-25T13:56:44.049Z</time>
</trkpt>
<trkpt lat="31.7664700" lon="35.1430400">
<ele>594.049988</ele>
<time>2023-01-25T13:56:44.049Z</time>
</trkpt>
<trkpt lat="31.7664700" lon="35.1429100">
<ele>594.850037</ele>
<time>2023-01-25T13:56:44.049Z</time>
</trkpt>
<trkpt lat="31.7664700" lon="35.1427900">
<ele>595.589966</ele>
<time>2023-01-25T13:56:44.049Z</time>
</trkpt>
<trkpt lat="31.7664700" lon="35.1426500">
<ele>595.660034</ele>
<time>2023-01-25T13:56:44.049Z</time>
</trkpt>
<trkpt lat="31.7664700" lon="35.1425300">
<ele>595.660034</ele>
<time>2023-01-25T13:56:44.049Z</time>
</trkpt>
<trkpt lat="31.7664700" lon="35.1424000">
<ele>595.660034</ele>
<time>2023-01-25T13:56:44.049Z</time>
</trkpt>
<trkpt lat="31.7664800" lon="35.1422900">
<ele>595.380005</ele>
<time>2023-01-25T13:56:44.049Z</time>
</trkpt>
<trkpt lat="31.7664900" lon="35.1421800">
<ele>595.049988</ele>
<time>2023-01-25T13:56:44.049Z</time>
</trkpt>
<trkpt lat="31.7664900" lon="35.1420400">
<ele>594.909973</ele>
<time>2023-01-25T13:56:44.049Z</time>
</trkpt>
<trkpt lat="31.7665000" lon="35.1419000">
<ele>594.980042</ele>
<time>2023-01-25T13:56:44.049Z</time>
</trkpt>
<trkpt lat="31.7665100" lon="35.1417700">
<ele>595.910034</ele>
<time>2023-01-25T13:56:44.049Z</time>
</trkpt>
<trkpt lat="31.7665300" lon="35.1416400">
<ele>596.850037</ele>
<time>2023-01-25T13:56:44.049Z</time>
</trkpt>
<trkpt lat="31.7665600" lon="35.1415300">
<ele>598.000000</ele>
<time>2023-01-25T13:56:44.049Z</time>
</trkpt>
<trkpt lat="31.7666100" lon="35.1414100">
<ele>599.260010</ele>
<time>2023-01-25T13:56:44.049Z</time>
</trkpt>
<trkpt lat="31.7666400" lon="35.1413000">
<ele>600.219971</ele>
<time>2023-01-25T13:56:44.049Z</time>
</trkpt>
<trkpt lat="31.7666900" lon="35.1411800">
<ele>600.789978</ele>
<time>2023-01-25T13:56:44.049Z</time>
</trkpt>
<trkpt lat="31.7667200" lon="35.1410800">
<ele>601.350037</ele>
<time>2023-01-25T13:56:44.049Z</time>
</trkpt>
<trkpt lat="31.7667600" lon="35.1409700">
<ele>601.669983</ele>
<time>2023-01-25T13:56:44.049Z</time>
</trkpt>
<trkpt lat="31.7667900" lon="35.1408700">
<ele>602.000000</ele>
<time>2023-01-25T13:56:44.049Z</time>
</trkpt>
<trkpt lat="31.7668300" lon="35.1407600">
<ele>600.899963</ele>
<time>2023-01-25T13:56:44.049Z</time>
</trkpt>
<trkpt lat="31.7668600" lon="35.1406500">
<ele>599.250000</ele>
<time>2023-01-25T13:56:44.049Z</time>
</trkpt>
<trkpt lat="31.7668800" lon="35.1405400">
<ele>597.769958</ele>
<time>2023-01-25T13:56:44.049Z</time>
</trkpt>
<trkpt lat="31.7668800" lon="35.1404200">
<ele>597.109985</ele>
<time>2023-01-25T13:56:44.050Z</time>
</trkpt>
<trkpt lat="31.7668700" lon="35.1403100">
<ele>596.850037</ele>
<time>2023-01-25T13:56:44.050Z</time>
</trkpt>
<trkpt lat="31.7668600" lon="35.1401900">
<ele>596.720032</ele>
<time>2023-01-25T13:56:44.050Z</time>
</trkpt>
<trkpt lat="31.7668400" lon="35.1400700">
<ele>597.010010</ele>
<time>2023-01-25T13:56:44.050Z</time>
</trkpt>
<trkpt lat="31.7668000" lon="35.1399600">
<ele>598.270020</ele>
<time>2023-01-25T13:56:44.050Z</time>
</trkpt>
<trkpt lat="31.7667700" lon="35.1398600">
<ele>599.600037</ele>
<time>2023-01-25T13:56:44.050Z</time>
</trkpt>
<trkpt lat="31.7667500" lon="35.1397400">
<ele>600.660034</ele>
<time>2023-01-25T13:56:44.050Z</time>
</trkpt>
<trkpt lat="31.7667200" lon="35.1396300">
<ele>600.960022</ele>
<time>2023-01-25T13:56:44.050Z</time>
</trkpt>
<trkpt lat="31.7666900" lon="35.1395200">
<ele>600.950012</ele>
<time>2023-01-25T13:56:44.050Z</time>
</trkpt>
<trkpt lat="31.7666400" lon="35.1394100">
<ele>601.119995</ele>
<time>2023-01-25T13:56:44.050Z</time>
</trkpt>
<trkpt lat="31.7665900" lon="35.1392900">
<ele>600.119995</ele>
<time>2023-01-25T13:56:44.050Z</time>
</trkpt>
<trkpt lat="31.7665300" lon="35.1391900">
<ele>599.450012</ele>
<time>2023-01-25T13:56:44.050Z</time>
</trkpt>
<trkpt lat="31.7664600" lon="35.1390800">
<ele>598.200012</ele>
<time>2023-01-25T13:56:44.050Z</time>
</trkpt>
<trkpt lat="31.7663900" lon="35.1389900">
<ele>597.520020</ele>
<time>2023-01-25T13:56:44.050Z</time>
</trkpt>
<trkpt lat="31.7663000" lon="35.1389200">
<ele>596.070007</ele>
<time>2023-01-25T13:56:44.050Z</time>
</trkpt>
<trkpt lat="31.7662100" lon="35.1388700">
<ele>595.010010</ele>
<time>2023-01-25T13:56:44.050Z</time>
</trkpt>
<trkpt lat="31.7661100" lon="35.1388400">
<ele>594.239990</ele>
<time>2023-01-25T13:56:44.050Z</time>
</trkpt>
<trkpt lat="31.7659900" lon="35.1388000">
<ele>593.059998</ele>
<time>2023-01-25T13:56:44.050Z</time>
</trkpt>
<trkpt lat="31.7659000" lon="35.1387800">
<ele>592.809998</ele>
<time>2023-01-25T13:56:44.050Z</time>
</trkpt>
<trkpt lat="31.7658000" lon="35.1387400">
<ele>592.609985</ele>
<time>2023-01-25T13:56:44.050Z</time>
</trkpt>
<trkpt lat="31.7656700" lon="35.1387100">
<ele>593.000000</ele>
<time>2023-01-25T13:56:44.050Z</time>
</trkpt>
<trkpt lat="31.7655500" lon="35.1387000">
<ele>593.390015</ele>
<time>2023-01-25T13:56:44.050Z</time>
</trkpt>
<trkpt lat="31.7654300" lon="35.1387100">
<ele>590.100037</ele>
<time>2023-01-25T13:56:44.050Z</time>
</trkpt>
<trkpt lat="31.7652900" lon="35.1387200">
<ele>586.280029</ele>
<time>2023-01-25T13:56:44.050Z</time>
</trkpt>
<trkpt lat="31.7651600" lon="35.1387400">
<ele>581.289978</ele>
<time>2023-01-25T13:56:44.050Z</time>
</trkpt>
<trkpt lat="31.7650200" lon="35.1387600">
<ele>575.859985</ele>
<time>2023-01-25T13:56:44.050Z</time>
</trkpt>
<trkpt lat="31.7648900" lon="35.1387900">
<ele>574.109985</ele>
<time>2023-01-25T13:56:44.050Z</time>
</trkpt>
<trkpt lat="31.7647600" lon="35.1388100">
<ele>572.500000</ele>
<time>2023-01-25T13:56:44.050Z</time>
</trkpt>
<trkpt lat="31.7646300" lon="35.1388400">
<ele>572.309998</ele>
<time>2023-01-25T13:56:44.050Z</time>
</trkpt>
<trkpt lat="31.7645000" lon="35.1388700">
<ele>572.530029</ele>
<time>2023-01-25T13:56:44.050Z</time>
</trkpt>
<trkpt lat="31.7643700" lon="35.1389100">
<ele>574.150024</ele>
<time>2023-01-25T13:56:44.050Z</time>
</trkpt>
<trkpt lat="31.7642400" lon="35.1389500">
<ele>576.029968</ele>
<time>2023-01-25T13:56:44.051Z</time>
</trkpt>
<trkpt lat="31.7641300" lon="35.1389800">
<ele>577.669983</ele>
<time>2023-01-25T13:56:44.051Z</time>
</trkpt>
<trkpt lat="31.7640100" lon="35.1389900">
<ele>579.269958</ele>
<time>2023-01-25T13:56:44.051Z</time>
</trkpt>
<trkpt lat="31.7639100" lon="35.1389900">
<ele>580.250000</ele>
<time>2023-01-25T13:56:44.051Z</time>
</trkpt>
<trkpt lat="31.7638100" lon="35.1390000">
<ele>580.030029</ele>
<time>2023-01-25T13:56:44.051Z</time>
</trkpt>
<trkpt lat="31.7637100" lon="35.1390100">
<ele>579.460022</ele>
<time>2023-01-25T13:56:44.051Z</time>
</trkpt>
<trkpt lat="31.7636200" lon="35.1390200">
<ele>578.950012</ele>
<time>2023-01-25T13:56:44.051Z</time>
</trkpt>
<trkpt lat="31.7635100" lon="35.1390000">
<ele>577.290039</ele>
<time>2023-01-25T13:56:44.051Z</time>
</trkpt>
<trkpt lat="31.7634400" lon="35.1389900">
<ele>576.220032</ele>
<time>2023-01-25T13:56:44.051Z</time>
</trkpt>
<trkpt lat="31.7634400" lon="35.1389900">
<ele>576.220032</ele>
<time>2023-01-25T13:56:44.051Z</time>
</trkpt>
<trkpt lat="31.7634400" lon="35.1389900">
<ele>576.220032</ele>
<time>2023-01-25T13:56:44.051Z</time>
</trkpt>
<trkpt lat="31.7634400" lon="35.1389900">
<ele>576.220032</ele>
<time>2023-01-25T13:56:44.051Z</time>
</trkpt>
<trkpt lat="31.7633500" lon="35.1389700">
<ele>574.679993</ele>
<time>2023-01-25T13:56:44.051Z</time>
</trkpt>
<trkpt lat="31.7633100" lon="35.1389800">
<ele>574.720032</ele>
<time>2023-01-25T13:56:44.051Z</time>
</trkpt>
<trkpt lat="31.7633100" lon="35.1389800">
<ele>574.720032</ele>
<time>2023-01-25T13:56:44.051Z</time>
</trkpt>
<trkpt lat="31.7633100" lon="35.1389800">
<ele>574.720032</ele>
<time>2023-01-25T13:56:44.051Z</time>
</trkpt>
<trkpt lat="31.7633100" lon="35.1389800">
<ele>574.720032</ele>
<time>2023-01-25T13:56:44.051Z</time>
</trkpt>
<trkpt lat="31.7633100" lon="35.1389800">
<ele>574.720032</ele>
<time>2023-01-25T13:56:44.051Z</time>
</trkpt>
<trkpt lat="31.7633100" lon="35.1389700">
<ele>574.519958</ele>
<time>2023-01-25T13:56:44.051Z</time>
</trkpt>
<trkpt lat="31.7633100" lon="35.1389700">
<ele>574.519958</ele>
<time>2023-01-25T13:56:44.051Z</time>
</trkpt>
<trkpt lat="31.7633200" lon="35.1389700">
<ele>574.500000</ele>
<time>2023-01-25T13:56:44.051Z</time>
</trkpt>
<trkpt lat="31.7633200" lon="35.1389700">
<ele>574.500000</ele>
<time>2023-01-25T13:56:44.051Z</time>
</trkpt>
<trkpt lat="31.7633200" lon="35.1389700">
<ele>574.500000</ele>
<time>2023-01-25T13:56:44.051Z</time>
</trkpt>
<trkpt lat="31.7633200" lon="35.1389600">
<ele>574.309998</ele>
<time>2023-01-25T13:56:44.051Z</time>
</trkpt>
<trkpt lat="31.7633200" lon="35.1389600">
<ele>574.309998</ele>
<time>2023-01-25T13:56:44.051Z</time>
</trkpt>
<trkpt lat="31.7632000" lon="35.1389600">
<ele>574.539978</ele>
<time>2023-01-25T13:56:44.051Z</time>
</trkpt>
<trkpt lat="31.7630700" lon="35.1389300">
<ele>573.630005</ele>
<time>2023-01-25T13:56:44.051Z</time>
</trkpt>
<trkpt lat="31.7629800" lon="35.1389100">
<ele>572.479980</ele>
<time>2023-01-25T13:56:44.051Z</time>
</trkpt>
<trkpt lat="31.7628800" lon="35.1389200">
<ele>572.320007</ele>
<time>2023-01-25T13:56:44.051Z</time>
</trkpt>
<trkpt lat="31.7627800" lon="35.1389200">
<ele>571.799988</ele>
<time>2023-01-25T13:56:44.051Z</time>
</trkpt>
<trkpt lat="31.7626700" lon="35.1389300">
<ele>569.320007</ele>
<time>2023-01-25T13:56:44.051Z</time>
</trkpt>
<trkpt lat="31.7625600" lon="35.1389400">
<ele>566.799988</ele>
<time>2023-01-25T13:56:44.051Z</time>
</trkpt>
<trkpt lat="31.7624400" lon="35.1389600">
<ele>565.520020</ele>
<time>2023-01-25T13:56:44.052Z</time>
</trkpt>
<trkpt lat="31.7623300" lon="35.1389900">
<ele>565.709961</ele>
<time>2023-01-25T13:56:44.052Z</time>
</trkpt>
<trkpt lat="31.7622100" lon="35.1390300">
<ele>566.000000</ele>
<time>2023-01-25T13:56:44.052Z</time>
</trkpt>
<trkpt lat="31.7621000" lon="35.1390700">
<ele>566.340027</ele>
<time>2023-01-25T13:56:44.052Z</time>
</trkpt>
<trkpt lat="31.7620000" lon="35.1391400">
<ele>566.980042</ele>
<time>2023-01-25T13:56:44.052Z</time>
</trkpt>
<trkpt lat="31.7619100" lon="35.1392200">
<ele>567.719971</ele>
<time>2023-01-25T13:56:44.052Z</time>
</trkpt>
<trkpt lat="31.7618400" lon="35.1392900">
<ele>568.440002</ele>
<time>2023-01-25T13:56:44.052Z</time>
</trkpt>
<trkpt lat="31.7617400" lon="35.1393700">
<ele>568.849976</ele>
<time>2023-01-25T13:56:44.052Z</time>
</trkpt>
<trkpt lat="31.7617000" lon="35.1392500">
<ele>567.669983</ele>
<time>2023-01-25T13:56:44.052Z</time>
</trkpt>
<trkpt lat="31.7617300" lon="35.1391400">
<ele>566.909973</ele>
<time>2023-01-25T13:56:44.052Z</time>
</trkpt>
<trkpt lat="31.7617500" lon="35.1390300">
<ele>566.410034</ele>
<time>2023-01-25T13:56:44.052Z</time>
</trkpt>
<trkpt lat="31.7617800" lon="35.1389100">
<ele>565.489990</ele>
<time>2023-01-25T13:56:44.052Z</time>
</trkpt>
<trkpt lat="31.7618500" lon="35.1388100">
<ele>564.359985</ele>
<time>2023-01-25T13:56:44.052Z</time>
</trkpt>
<trkpt lat="31.7619400" lon="35.1387300">
<ele>563.059998</ele>
<time>2023-01-25T13:56:44.052Z</time>
</trkpt>
<trkpt lat="31.7620300" lon="35.1387000">
<ele>563.000000</ele>
<time>2023-01-25T13:56:44.052Z</time>
</trkpt>
<trkpt lat="31.7621100" lon="35.1386300">
<ele>563.000000</ele>
<time>2023-01-25T13:56:44.052Z</time>
</trkpt>
<trkpt lat="31.7621900" lon="35.1386900">
<ele>563.000000</ele>
<time>2023-01-25T13:56:44.052Z</time>
</trkpt>
<trkpt lat="31.7622100" lon="35.1387000">
<ele>563.000000</ele>
<time>2023-01-25T13:56:44.052Z</time>
</trkpt>
<trkpt lat="31.7622100" lon="35.1386900">
<ele>563.000000</ele>
<time>2023-01-25T13:56:44.052Z</time>
</trkpt>
<trkpt lat="31.7622100" lon="35.1386900">
<ele>563.000000</ele>
<time>2023-01-25T13:56:44.052Z</time>
</trkpt>
<trkpt lat="31.7622100" lon="35.1387000">
<ele>563.000000</ele>
<time>2023-01-25T13:56:44.052Z</time>
</trkpt>
<trkpt lat="31.7622100" lon="35.1387000">
<ele>563.000000</ele>
<time>2023-01-25T13:56:44.052Z</time>
</trkpt>
<trkpt lat="31.7622100" lon="35.1387000">
<ele>563.000000</ele>
<time>2023-01-25T13:56:44.052Z</time>
</trkpt>
<trkpt lat="31.7622100" lon="35.1387000">
<ele>563.000000</ele>
<time>2023-01-25T13:56:44.052Z</time>
</trkpt>
<trkpt lat="31.7622100" lon="35.1387000">
<ele>563.000000</ele>
<time>2023-01-25T13:56:44.052Z</time>
</trkpt>
<trkpt lat="31.7622100" lon="35.1387000">
<ele>563.000000</ele>
<time>2023-01-25T13:56:44.052Z</time>
</trkpt>
<trkpt lat="31.7622100" lon="35.1387000">
<ele>563.000000</ele>
<time>2023-01-25T13:56:44.052Z</time>
</trkpt>
<trkpt lat="31.7622100" lon="35.1387000">
<ele>563.000000</ele>
<time>2023-01-25T13:56:44.052Z</time>
</trkpt>
<trkpt lat="31.7622100" lon="35.1387000">
<ele>563.000000</ele>
<time>2023-01-25T13:56:44.052Z</time>
</trkpt>
<trkpt lat="31.7622100" lon="35.1387000">
<ele>563.000000</ele>
<time>2023-01-25T13:56:44.053Z</time>
</trkpt>
<trkpt lat="31.7622100" lon="35.1387000">
<ele>563.000000</ele>
<time>2023-01-25T13:56:44.053Z</time>
</trkpt>
<trkpt lat="31.7622100" lon="35.1387000">
<ele>563.000000</ele>
<time>2023-01-25T13:56:44.053Z</time>
</trkpt>
<trkpt lat="31.7622100" lon="35.1387000">
<ele>563.000000</ele>
<time>2023-01-25T13:56:44.053Z</time>
</trkpt>
<trkpt lat="31.7622100" lon="35.1387000">
<ele>563.000000</ele>
<time>2023-01-25T13:56:44.053Z</time>
</trkpt>
<trkpt lat="31.7622200" lon="35.1387000">
<ele>563.000000</ele>
<time>2023-01-25T13:56:44.053Z</time>
</trkpt>
<trkpt lat="31.7622200" lon="35.1387000">
<ele>563.000000</ele>
<time>2023-01-25T13:56:44.053Z</time>
</trkpt>
<trkpt lat="31.7622200" lon="35.1387000">
<ele>563.000000</ele>
<time>2023-01-25T13:56:44.053Z</time>
</trkpt>
<trkpt lat="31.7622200" lon="35.1387000">
<ele>563.000000</ele>
<time>2023-01-25T13:56:44.053Z</time>
</trkpt>
<trkpt lat="31.7622200" lon="35.1387000">
<ele>563.000000</ele>
<time>2023-01-25T13:56:44.053Z</time>
</trkpt>
<trkpt lat="31.7622200" lon="35.1387000">
<ele>563.000000</ele>
<time>2023-01-25T13:56:44.053Z</time>
</trkpt>
<trkpt lat="31.7622200" lon="35.1387000">
<ele>563.000000</ele>
<time>2023-01-25T13:56:44.053Z</time>
</trkpt>
<trkpt lat="31.7622200" lon="35.1387000">
<ele>563.000000</ele>
<time>2023-01-25T13:56:44.053Z</time>
</trkpt>
<trkpt lat="31.7622200" lon="35.1387000">
<ele>563.000000</ele>
<time>2023-01-25T13:56:44.053Z</time>
</trkpt>
<trkpt lat="31.7622200" lon="35.1387000">
<ele>563.000000</ele>
<time>2023-01-25T13:56:44.053Z</time>
</trkpt>
<trkpt lat="31.7622200" lon="35.1387000">
<ele>563.000000</ele>
<time>2023-01-25T13:56:44.053Z</time>
</trkpt>
<trkpt lat="31.7622200" lon="35.1387000">
<ele>563.000000</ele>
<time>2023-01-25T13:56:44.053Z</time>
</trkpt>
<trkpt lat="31.7622200" lon="35.1387000">
<ele>563.000000</ele>
<time>2023-01-25T13:56:44.053Z</time>
</trkpt>
<trkpt lat="31.7622200" lon="35.1387000">
<ele>563.000000</ele>
<time>2023-01-25T13:56:44.053Z</time>
</trkpt>
<trkpt lat="31.7622200" lon="35.1387000">
<ele>563.000000</ele>
<time>2023-01-25T13:56:44.053Z</time>
</trkpt>
<trkpt lat="31.7622200" lon="35.1387000">
<ele>563.000000</ele>
<time>2023-01-25T13:56:44.053Z</time>
</trkpt>
<trkpt lat="31.7622200" lon="35.1387000">
<ele>563.000000</ele>
<time>2023-01-25T13:56:44.053Z</time>
</trkpt>
<trkpt lat="31.7622200" lon="35.1387000">
<ele>563.000000</ele>
<time>2023-01-25T13:56:44.053Z</time>
</trkpt>
<trkpt lat="31.7622200" lon="35.1387000">
<ele>563.000000</ele>
<time>2023-01-25T13:56:44.053Z</time>
</trkpt>
<trkpt lat="31.7622200" lon="35.1387000">
<ele>563.000000</ele>
<time>2023-01-25T13:56:44.053Z</time>
</trkpt>
<trkpt lat="31.7622200" lon="35.1387000">
<ele>563.000000</ele>
<time>2023-01-25T13:56:44.053Z</time>
</trkpt>
<trkpt lat="31.7622200" lon="35.1387000">
<ele>563.000000</ele>
<time>2023-01-25T13:56:44.053Z</time>
</trkpt>
<trkpt lat="31.7622200" lon="35.1387100">
<ele>563.000000</ele>
<time>2023-01-25T13:56:44.053Z</time>
</trkpt>
<trkpt lat="31.7622200" lon="35.1387100">
<ele>563.000000</ele>
<time>2023-01-25T13:56:44.053Z</time>
</trkpt>
<trkpt lat="31.7622300" lon="35.1387100">
<ele>562.989990</ele>
<time>2023-01-25T13:56:44.053Z</time>
</trkpt>
<trkpt lat="31.7622300" lon="35.1387100">
<ele>562.989990</ele>
<time>2023-01-25T13:56:44.054Z</time>
</trkpt>
<trkpt lat="31.7622300" lon="35.1387100">
<ele>562.989990</ele>
<time>2023-01-25T13:56:44.054Z</time>
</trkpt>
<trkpt lat="31.7622300" lon="35.1387100">
<ele>562.989990</ele>
<time>2023-01-25T13:56:44.054Z</time>
</trkpt>
<trkpt lat="31.7622300" lon="35.1387100">
<ele>562.989990</ele>
<time>2023-01-25T13:56:44.054Z</time>
</trkpt>
<trkpt lat="31.7622300" lon="35.1387100">
<ele>562.989990</ele>
<time>2023-01-25T13:56:44.054Z</time>
</trkpt>
<trkpt lat="31.7622300" lon="35.1387100">
<ele>562.989990</ele>
<time>2023-01-25T13:56:44.054Z</time>
</trkpt>
<trkpt lat="31.7622300" lon="35.1387100">
<ele>562.989990</ele>
<time>2023-01-25T13:56:44.054Z</time>
</trkpt>
<trkpt lat="31.7622300" lon="35.1387100">
<ele>562.989990</ele>
<time>2023-01-25T13:56:44.054Z</time>
</trkpt>
<trkpt lat="31.7622300" lon="35.1387100">
<ele>562.989990</ele>
<time>2023-01-25T13:56:44.054Z</time>
</trkpt>
<trkpt lat="31.7622300" lon="35.1387100">
<ele>562.989990</ele>
<time>2023-01-25T13:56:44.054Z</time>
</trkpt>
<trkpt lat="31.7622300" lon="35.1387100">
<ele>562.989990</ele>
<time>2023-01-25T13:56:44.054Z</time>
</trkpt>
<trkpt lat="31.7622300" lon="35.1387100">
<ele>562.989990</ele>
<time>2023-01-25T13:56:44.054Z</time>
</trkpt>
<trkpt lat="31.7622300" lon="35.1387100">
<ele>562.989990</ele>
<time>2023-01-25T13:56:44.054Z</time>
</trkpt>
<trkpt lat="31.7622300" lon="35.1387100">
<ele>562.989990</ele>
<time>2023-01-25T13:56:44.054Z</time>
</trkpt>
<trkpt lat="31.7622300" lon="35.1387100">
<ele>562.989990</ele>
<time>2023-01-25T13:56:44.054Z</time>
</trkpt>
<trkpt lat="31.7622300" lon="35.1387100">
<ele>562.989990</ele>
<time>2023-01-25T13:56:44.054Z</time>
</trkpt>
<trkpt lat="31.7622300" lon="35.1387100">
<ele>562.989990</ele>
<time>2023-01-25T13:56:44.054Z</time>
</trkpt>
<trkpt lat="31.7622300" lon="35.1387100">
<ele>562.989990</ele>
<time>2023-01-25T13:56:44.054Z</time>
</trkpt>
<trkpt lat="31.7622300" lon="35.1387100">
<ele>562.989990</ele>
<time>2023-01-25T13:56:44.054Z</time>
</trkpt>
<trkpt lat="31.7622300" lon="35.1387100">
<ele>562.989990</ele>
<time>2023-01-25T13:56:44.054Z</time>
</trkpt>
<trkpt lat="31.7622300" lon="35.1387100">
<ele>562.989990</ele>
<time>2023-01-25T13:56:44.054Z</time>
</trkpt>
<trkpt lat="31.7622300" lon="35.1387100">
<ele>562.989990</ele>
<time>2023-01-25T13:56:44.054Z</time>
</trkpt>
<trkpt lat="31.7622300" lon="35.1387100">
<ele>562.989990</ele>
<time>2023-01-25T13:56:44.054Z</time>
</trkpt>
<trkpt lat="31.7622300" lon="35.1387100">
<ele>562.989990</ele>
<time>2023-01-25T13:56:44.054Z</time>
</trkpt>
<trkpt lat="31.7622300" lon="35.1387100">
<ele>562.989990</ele>
<time>2023-01-25T13:56:44.054Z</time>
</trkpt>
<trkpt lat="31.7622300" lon="35.1387100">
<ele>562.989990</ele>
<time>2023-01-25T13:56:44.054Z</time>
</trkpt>
<trkpt lat="31.7622300" lon="35.1387100">
<ele>562.989990</ele>
<time>2023-01-25T13:56:44.054Z</time>
</trkpt>
<trkpt lat="31.7622300" lon="35.1387100">
<ele>562.989990</ele>
<time>2023-01-25T13:56:44.054Z</time>
</trkpt>
<trkpt lat="31.7622300" lon="35.1387100">
<ele>562.989990</ele>
<time>2023-01-25T13:56:44.055Z</time>
</trkpt>
<trkpt lat="31.7622300" lon="35.1387100">
<ele>562.989990</ele>
<time>2023-01-25T13:56:44.055Z</time>
</trkpt>
<trkpt lat="31.7622300" lon="35.1387100">
<ele>562.989990</ele>
<time>2023-01-25T13:56:44.055Z</time>
</trkpt>
<trkpt lat="31.7622300" lon="35.1387100">
<ele>562.989990</ele>
<time>2023-01-25T13:56:44.055Z</time>
</trkpt>
<trkpt lat="31.7622300" lon="35.1387100">
<ele>562.989990</ele>
<time>2023-01-25T13:56:44.055Z</time>
</trkpt>
<trkpt lat="31.7622300" lon="35.1387100">
<ele>562.989990</ele>
<time>2023-01-25T13:56:44.055Z</time>
</trkpt>
<trkpt lat="31.7622300" lon="35.1387100">
<ele>562.989990</ele>
<time>2023-01-25T13:56:44.055Z</time>
</trkpt>
<trkpt lat="31.7622300" lon="35.1387100">
<ele>562.989990</ele>
<time>2023-01-25T13:56:44.055Z</time>
</trkpt>
<trkpt lat="31.7621300" lon="35.1386900">
<ele>563.000000</ele>
<time>2023-01-25T13:56:44.055Z</time>
</trkpt>
<trkpt lat="31.7620400" lon="35.1387500">
<ele>563.000000</ele>
<time>2023-01-25T13:56:44.055Z</time>
</trkpt>
<trkpt lat="31.7619400" lon="35.1387900">
<ele>563.059998</ele>
<time>2023-01-25T13:56:44.055Z</time>
</trkpt>
<trkpt lat="31.7618600" lon="35.1388700">
<ele>564.219971</ele>
<time>2023-01-25T13:56:44.055Z</time>
</trkpt>
<trkpt lat="31.7618100" lon="35.1389600">
<ele>565.460022</ele>
<time>2023-01-25T13:56:44.055Z</time>
</trkpt>
<trkpt lat="31.7617700" lon="35.1390600">
<ele>566.429993</ele>
<time>2023-01-25T13:56:44.055Z</time>
</trkpt>
<trkpt lat="31.7617700" lon="35.1391700">
<ele>567.029968</ele>
<time>2023-01-25T13:56:44.055Z</time>
</trkpt>
<trkpt lat="31.7617300" lon="35.1392700">
<ele>567.910034</ele>
<time>2023-01-25T13:56:44.055Z</time>
</trkpt>
<trkpt lat="31.7617300" lon="35.1393800">
<ele>568.890015</ele>
<time>2023-01-25T13:56:44.055Z</time>
</trkpt>
<trkpt lat="31.7618200" lon="35.1393900">
<ele>569.500000</ele>
<time>2023-01-25T13:56:44.055Z</time>
</trkpt>
<trkpt lat="31.7618900" lon="35.1393100">
<ele>568.859985</ele>
<time>2023-01-25T13:56:44.055Z</time>
</trkpt>
<trkpt lat="31.7619600" lon="35.1392300">
<ele>568.059998</ele>
<time>2023-01-25T13:56:44.055Z</time>
</trkpt>
<trkpt lat="31.7620300" lon="35.1391600">
<ele>567.510010</ele>
<time>2023-01-25T13:56:44.055Z</time>
</trkpt>
<trkpt lat="31.7621200" lon="35.1391100">
<ele>567.190002</ele>
<time>2023-01-25T13:56:44.055Z</time>
</trkpt>
<trkpt lat="31.7622100" lon="35.1390600">
<ele>566.640015</ele>
<time>2023-01-25T13:56:44.055Z</time>
</trkpt>
<trkpt lat="31.7622900" lon="35.1390200">
<ele>566.190002</ele>
<time>2023-01-25T13:56:44.055Z</time>
</trkpt>
<trkpt lat="31.7623800" lon="35.1390000">
<ele>566.200012</ele>
<time>2023-01-25T13:56:44.055Z</time>
</trkpt>
<trkpt lat="31.7624800" lon="35.1389800">
<ele>566.200012</ele>
<time>2023-01-25T13:56:44.055Z</time>
</trkpt>
<trkpt lat="31.7625800" lon="35.1389600">
<ele>567.809998</ele>
<time>2023-01-25T13:56:44.055Z</time>
</trkpt>
<trkpt lat="31.7626800" lon="35.1389700">
<ele>570.579956</ele>
<time>2023-01-25T13:56:44.055Z</time>
</trkpt>
<trkpt lat="31.7627700" lon="35.1389600">
<ele>572.599976</ele>
<time>2023-01-25T13:56:44.055Z</time>
</trkpt>
<trkpt lat="31.7628600" lon="35.1389600">
<ele>573.390015</ele>
<time>2023-01-25T13:56:44.055Z</time>
</trkpt>
<trkpt lat="31.7629600" lon="35.1389700">
<ele>574.470032</ele>
<time>2023-01-25T13:56:44.055Z</time>
</trkpt>
<trkpt lat="31.7630600" lon="35.1389800">
<ele>575.589966</ele>
<time>2023-01-25T13:56:44.056Z</time>
</trkpt>
<trkpt lat="31.7631500" lon="35.1390000">
<ele>575.919983</ele>
<time>2023-01-25T13:56:44.056Z</time>
</trkpt>
<trkpt lat="31.7632500" lon="35.1390000">
<ele>575.419983</ele>
<time>2023-01-25T13:56:44.056Z</time>
</trkpt>
<trkpt lat="31.7633500" lon="35.1389900">
<ele>575.039978</ele>
<time>2023-01-25T13:56:44.056Z</time>
</trkpt>
<trkpt lat="31.7634400" lon="35.1390000">
<ele>576.380005</ele>
<time>2023-01-25T13:56:44.056Z</time>
</trkpt>
<trkpt lat="31.7635100" lon="35.1390800">
<ele>578.549988</ele>
<time>2023-01-25T13:56:44.056Z</time>
</trkpt>
<trkpt lat="31.7634400" lon="35.1391600">
<ele>579.039978</ele>
<time>2023-01-25T13:56:44.056Z</time>
</trkpt>
<trkpt lat="31.7633500" lon="35.1391900">
<ele>578.589966</ele>
<time>2023-01-25T13:56:44.056Z</time>
</trkpt>
<trkpt lat="31.7632500" lon="35.1392000">
<ele>579.919983</ele>
<time>2023-01-25T13:56:44.056Z</time>
</trkpt>
<trkpt lat="31.7631500" lon="35.1392300">
<ele>581.690002</ele>
<time>2023-01-25T13:56:44.056Z</time>
</trkpt>
<trkpt lat="31.7630400" lon="35.1392700">
<ele>582.820007</ele>
<time>2023-01-25T13:56:44.056Z</time>
</trkpt>
<trkpt lat="31.7629500" lon="35.1393000">
<ele>582.010010</ele>
<time>2023-01-25T13:56:44.056Z</time>
</trkpt>
<trkpt lat="31.7628500" lon="35.1393500">
<ele>581.739990</ele>
<time>2023-01-25T13:56:44.056Z</time>
</trkpt>
<trkpt lat="31.7627600" lon="35.1393800">
<ele>581.589966</ele>
<time>2023-01-25T13:56:44.056Z</time>
</trkpt>
<trkpt lat="31.7626700" lon="35.1394300">
<ele>581.500000</ele>
<time>2023-01-25T13:56:44.056Z</time>
</trkpt>
<trkpt lat="31.7625800" lon="35.1395000">
<ele>582.380005</ele>
<time>2023-01-25T13:56:44.056Z</time>
</trkpt>
<trkpt lat="31.7625300" lon="35.1395800">
<ele>584.449951</ele>
<time>2023-01-25T13:56:44.056Z</time>
</trkpt>
<trkpt lat="31.7624700" lon="35.1396900">
<ele>587.140015</ele>
<time>2023-01-25T13:56:44.056Z</time>
</trkpt>
<trkpt lat="31.7624200" lon="35.1397800">
<ele>587.650024</ele>
<time>2023-01-25T13:56:44.056Z</time>
</trkpt>
<trkpt lat="31.7623900" lon="35.1398800">
<ele>588.549988</ele>
<time>2023-01-25T13:56:44.056Z</time>
</trkpt>
<trkpt lat="31.7623900" lon="35.1400000">
<ele>590.619995</ele>
<time>2023-01-25T13:56:44.056Z</time>
</trkpt>
<trkpt lat="31.7623800" lon="35.1401100">
<ele>591.030029</ele>
<time>2023-01-25T13:56:44.056Z</time>
</trkpt>
<trkpt lat="31.7623800" lon="35.1402200">
<ele>591.649963</ele>
<time>2023-01-25T13:56:44.056Z</time>
</trkpt>
<trkpt lat="31.7624000" lon="35.1403200">
<ele>592.729980</ele>
<time>2023-01-25T13:56:44.056Z</time>
</trkpt>
<trkpt lat="31.7624200" lon="35.1404300">
<ele>593.919983</ele>
<time>2023-01-25T13:56:44.056Z</time>
</trkpt>
<trkpt lat="31.7624400" lon="35.1405500">
<ele>595.239990</ele>
<time>2023-01-25T13:56:44.056Z</time>
</trkpt>
<trkpt lat="31.7624400" lon="35.1406800">
<ele>595.719971</ele>
<time>2023-01-25T13:56:44.056Z</time>
</trkpt>
<trkpt lat="31.7624600" lon="35.1407900">
<ele>596.690002</ele>
<time>2023-01-25T13:56:44.056Z</time>
</trkpt>
<trkpt lat="31.7624800" lon="35.1409000">
<ele>597.869995</ele>
<time>2023-01-25T13:56:44.056Z</time>
</trkpt>
<trkpt lat="31.7625000" lon="35.1410200">
<ele>599.340027</ele>
<time>2023-01-25T13:56:44.056Z</time>
</trkpt>
<trkpt lat="31.7625100" lon="35.1411300">
<ele>600.559998</ele>
<time>2023-01-25T13:56:44.057Z</time>
</trkpt>
<trkpt lat="31.7625400" lon="35.1412400">
<ele>602.869995</ele>
<time>2023-01-25T13:56:44.057Z</time>
</trkpt>
<trkpt lat="31.7625400" lon="35.1413500">
<ele>604.340027</ele>
<time>2023-01-25T13:56:44.057Z</time>
</trkpt>
<trkpt lat="31.7625600" lon="35.1414700">
<ele>605.299988</ele>
<time>2023-01-25T13:56:44.057Z</time>
</trkpt>
<trkpt lat="31.7625600" lon="35.1415900">
<ele>605.299988</ele>
<time>2023-01-25T13:56:44.057Z</time>
</trkpt>
<trkpt lat="31.7625900" lon="35.1416900">
<ele>605.970032</ele>
<time>2023-01-25T13:56:44.057Z</time>
</trkpt>
<trkpt lat="31.7626100" lon="35.1418100">
<ele>606.479980</ele>
<time>2023-01-25T13:56:44.057Z</time>
</trkpt>
<trkpt lat="31.7626200" lon="35.1419100">
<ele>606.710022</ele>
<time>2023-01-25T13:56:44.057Z</time>
</trkpt>
<trkpt lat="31.7626300" lon="35.1420200">
<ele>607.020020</ele>
<time>2023-01-25T13:56:44.057Z</time>
</trkpt>
<trkpt lat="31.7626400" lon="35.1421300">
<ele>607.350037</ele>
<time>2023-01-25T13:56:44.057Z</time>
</trkpt>
<trkpt lat="31.7626700" lon="35.1422400">
<ele>607.940002</ele>
<time>2023-01-25T13:56:44.057Z</time>
</trkpt>
<trkpt lat="31.7626700" lon="35.1423600">
<ele>608.640015</ele>
<time>2023-01-25T13:56:44.057Z</time>
</trkpt>
<trkpt lat="31.7627000" lon="35.1424700">
<ele>609.690002</ele>
<time>2023-01-25T13:56:44.057Z</time>
</trkpt>
<trkpt lat="31.7627100" lon="35.1425800">
<ele>610.820007</ele>
<time>2023-01-25T13:56:44.057Z</time>
</trkpt>
<trkpt lat="31.7627300" lon="35.1426900">
<ele>612.250000</ele>
<time>2023-01-25T13:56:44.057Z</time>
</trkpt>
<trkpt lat="31.7627400" lon="35.1428100">
<ele>613.649963</ele>
<time>2023-01-25T13:56:44.057Z</time>
</trkpt>
<trkpt lat="31.7627600" lon="35.1429200">
<ele>615.179993</ele>
<time>2023-01-25T13:56:44.057Z</time>
</trkpt>
<trkpt lat="31.7627700" lon="35.1430200">
<ele>616.450012</ele>
<time>2023-01-25T13:56:44.057Z</time>
</trkpt>
<trkpt lat="31.7628100" lon="35.1431200">
<ele>618.039978</ele>
<time>2023-01-25T13:56:44.057Z</time>
</trkpt>
<trkpt lat="31.7628400" lon="35.1432300">
<ele>619.200012</ele>
<time>2023-01-25T13:56:44.057Z</time>
</trkpt>
<trkpt lat="31.7628600" lon="35.1433400">
<ele>620.080017</ele>
<time>2023-01-25T13:56:44.057Z</time>
</trkpt>
<trkpt lat="31.7629200" lon="35.1434200">
<ele>621.580017</ele>
<time>2023-01-25T13:56:44.057Z</time>
</trkpt>
<trkpt lat="31.7629600" lon="35.1435200">
<ele>622.380005</ele>
<time>2023-01-25T13:56:44.057Z</time>
</trkpt>
<trkpt lat="31.7630000" lon="35.1436300">
<ele>623.000000</ele>
<time>2023-01-25T13:56:44.057Z</time>
</trkpt>
<trkpt lat="31.7630500" lon="35.1437200">
<ele>623.900024</ele>
<time>2023-01-25T13:56:44.057Z</time>
</trkpt>
<trkpt lat="31.7631000" lon="35.1438100">
<ele>624.459961</ele>
<time>2023-01-25T13:56:44.057Z</time>
</trkpt>
<trkpt lat="31.7631400" lon="35.1439200">
<ele>624.719971</ele>
<time>2023-01-25T13:56:44.057Z</time>
</trkpt>
<trkpt lat="31.7631900" lon="35.1440200">
<ele>625.440002</ele>
<time>2023-01-25T13:56:44.057Z</time>
</trkpt>
<trkpt lat="31.7632200" lon="35.1441300">
<ele>626.049988</ele>
<time>2023-01-25T13:56:44.057Z</time>
</trkpt>
<trkpt lat="31.7632700" lon="35.1442300">
<ele>626.790039</ele>
<time>2023-01-25T13:56:44.057Z</time>
</trkpt>
<trkpt lat="31.7633200" lon="35.1443300">
<ele>627.970032</ele>
<time>2023-01-25T13:56:44.058Z</time>
</trkpt>
<trkpt lat="31.7633700" lon="35.1444400">
<ele>629.099976</ele>
<time>2023-01-25T13:56:44.058Z</time>
</trkpt>
<trkpt lat="31.7634200" lon="35.1445400">
<ele>629.869995</ele>
<time>2023-01-25T13:56:44.058Z</time>
</trkpt>
<trkpt lat="31.7634700" lon="35.1446400">
<ele>630.890015</ele>
<time>2023-01-25T13:56:44.058Z</time>
</trkpt>
<trkpt lat="31.7635200" lon="35.1447300">
<ele>632.059998</ele>
<time>2023-01-25T13:56:44.058Z</time>
</trkpt>
<trkpt lat="31.7636000" lon="35.1447900">
<ele>633.359985</ele>
<time>2023-01-25T13:56:44.058Z</time>
</trkpt>
<trkpt lat="31.7636000" lon="35.1448000">
<ele>633.429993</ele>
<time>2023-01-25T13:56:44.058Z</time>
</trkpt>
<trkpt lat="31.7635900" lon="35.1448000">
<ele>633.310059</ele>
<time>2023-01-25T13:56:44.058Z</time>
</trkpt>
<trkpt lat="31.7636100" lon="35.1448800">
<ele>634.120056</ele>
<time>2023-01-25T13:56:44.058Z</time>
</trkpt>
<trkpt lat="31.7636100" lon="35.1448800">
<ele>634.120056</ele>
<time>2023-01-25T13:56:44.058Z</time>
</trkpt>
<trkpt lat="31.7636100" lon="35.1448800">
<ele>634.120056</ele>
<time>2023-01-25T13:56:44.058Z</time>
</trkpt>
<trkpt lat="31.7636100" lon="35.1448900">
<ele>634.190002</ele>
<time>2023-01-25T13:56:44.058Z</time>
</trkpt>
<trkpt lat="31.7636400" lon="35.1449900">
<ele>635.539978</ele>
<time>2023-01-25T13:56:44.058Z</time>
</trkpt>
<trkpt lat="31.7636700" lon="35.1451100">
<ele>637.769958</ele>
<time>2023-01-25T13:56:44.058Z</time>
</trkpt>
<trkpt lat="31.7637000" lon="35.1452200">
<ele>639.829956</ele>
<time>2023-01-25T13:56:44.058Z</time>
</trkpt>
<trkpt lat="31.7637400" lon="35.1453100">
<ele>641.440002</ele>
<time>2023-01-25T13:56:44.058Z</time>
</trkpt>
<trkpt lat="31.7637700" lon="35.1454100">
<ele>642.270020</ele>
<time>2023-01-25T13:56:44.058Z</time>
</trkpt>
<trkpt lat="31.7638100" lon="35.1455100">
<ele>643.049988</ele>
<time>2023-01-25T13:56:44.058Z</time>
</trkpt>
<trkpt lat="31.7638100" lon="35.1456300">
<ele>643.219971</ele>
<time>2023-01-25T13:56:44.058Z</time>
</trkpt>
<trkpt lat="31.7638300" lon="35.1457500">
<ele>643.509949</ele>
<time>2023-01-25T13:56:44.058Z</time>
</trkpt>
<trkpt lat="31.7638400" lon="35.1458500">
<ele>643.719971</ele>
<time>2023-01-25T13:56:44.058Z</time>
</trkpt>
<trkpt lat="31.7638400" lon="35.1459700">
<ele>644.229980</ele>
<time>2023-01-25T13:56:44.058Z</time>
</trkpt>
<trkpt lat="31.7638400" lon="35.1460800">
<ele>644.690002</ele>
<time>2023-01-25T13:56:44.058Z</time>
</trkpt>
<trkpt lat="31.7638200" lon="35.1461900">
<ele>645.750000</ele>
<time>2023-01-25T13:56:44.058Z</time>
</trkpt>
<trkpt lat="31.7638000" lon="35.1462900">
<ele>646.840027</ele>
<time>2023-01-25T13:56:44.058Z</time>
</trkpt>
<trkpt lat="31.7637700" lon="35.1464000">
<ele>647.969971</ele>
<time>2023-01-25T13:56:44.058Z</time>
</trkpt>
<trkpt lat="31.7637400" lon="35.1465000">
<ele>649.730042</ele>
<time>2023-01-25T13:56:44.058Z</time>
</trkpt>
<trkpt lat="31.7637100" lon="35.1466200">
<ele>651.580017</ele>
<time>2023-01-25T13:56:44.058Z</time>
</trkpt>
<trkpt lat="31.7636800" lon="35.1467200">
<ele>652.409973</ele>
<time>2023-01-25T13:56:44.058Z</time>
</trkpt>
<trkpt lat="31.7636400" lon="35.1468300">
<ele>652.609985</ele>
<time>2023-01-25T13:56:44.058Z</time>
</trkpt>
<trkpt lat="31.7636000" lon="35.1469400">
<ele>652.630005</ele>
<time>2023-01-25T13:56:44.059Z</time>
</trkpt>
<trkpt lat="31.7635600" lon="35.1470500">
<ele>652.600037</ele>
<time>2023-01-25T13:56:44.059Z</time>
</trkpt>
<trkpt lat="31.7635200" lon="35.1471600">
<ele>652.450012</ele>
<time>2023-01-25T13:56:44.059Z</time>
</trkpt>
<trkpt lat="31.7634900" lon="35.1472700">
<ele>652.690002</ele>
<time>2023-01-25T13:56:44.059Z</time>
</trkpt>
<trkpt lat="31.7634600" lon="35.1473700">
<ele>652.940002</ele>
<time>2023-01-25T13:56:44.059Z</time>
</trkpt>
<trkpt lat="31.7634200" lon="35.1474900">
<ele>653.000000</ele>
<time>2023-01-25T13:56:44.059Z</time>
</trkpt>
<trkpt lat="31.7633900" lon="35.1475900">
<ele>652.690002</ele>
<time>2023-01-25T13:56:44.059Z</time>
</trkpt>
<trkpt lat="31.7633400" lon="35.1477000">
<ele>651.680054</ele>
<time>2023-01-25T13:56:44.059Z</time>
</trkpt>
<trkpt lat="31.7633000" lon="35.1477900">
<ele>651.420044</ele>
<time>2023-01-25T13:56:44.059Z</time>
</trkpt>
<trkpt lat="31.7632600" lon="35.1478900">
<ele>651.729980</ele>
<time>2023-01-25T13:56:44.059Z</time>
</trkpt>
<trkpt lat="31.7632100" lon="35.1479900">
<ele>651.970032</ele>
<time>2023-01-25T13:56:44.059Z</time>
</trkpt>
<trkpt lat="31.7631700" lon="35.1481000">
<ele>652.730042</ele>
<time>2023-01-25T13:56:44.059Z</time>
</trkpt>
<trkpt lat="31.7631300" lon="35.1482000">
<ele>653.659973</ele>
<time>2023-01-25T13:56:44.059Z</time>
</trkpt>
<trkpt lat="31.7630900" lon="35.1483000">
<ele>654.799988</ele>
<time>2023-01-25T13:56:44.059Z</time>
</trkpt>
<trkpt lat="31.7630400" lon="35.1484000">
<ele>656.040039</ele>
<time>2023-01-25T13:56:44.059Z</time>
</trkpt>
<trkpt lat="31.7630000" lon="35.1485000">
<ele>657.840027</ele>
<time>2023-01-25T13:56:44.059Z</time>
</trkpt>
<trkpt lat="31.7629600" lon="35.1486100">
<ele>660.010010</ele>
<time>2023-01-25T13:56:44.059Z</time>
</trkpt>
<trkpt lat="31.7629100" lon="35.1487200">
<ele>662.910034</ele>
<time>2023-01-25T13:56:44.059Z</time>
</trkpt>
<trkpt lat="31.7628700" lon="35.1488400">
<ele>665.670044</ele>
<time>2023-01-25T13:56:44.059Z</time>
</trkpt>
<trkpt lat="31.7628200" lon="35.1489300">
<ele>667.210022</ele>
<time>2023-01-25T13:56:44.059Z</time>
</trkpt>
<trkpt lat="31.7627200" lon="35.1489300">
<ele>668.399963</ele>
<time>2023-01-25T13:56:44.059Z</time>
</trkpt>
<trkpt lat="31.7626200" lon="35.1488900">
<ele>669.850037</ele>
<time>2023-01-25T13:56:44.059Z</time>
</trkpt>
<trkpt lat="31.7625500" lon="35.1488200">
<ele>670.059998</ele>
<time>2023-01-25T13:56:44.059Z</time>
</trkpt>
<trkpt lat="31.7624600" lon="35.1487500">
<ele>670.940002</ele>
<time>2023-01-25T13:56:44.059Z</time>
</trkpt>
<trkpt lat="31.7623600" lon="35.1486600">
<ele>672.469971</ele>
<time>2023-01-25T13:56:44.059Z</time>
</trkpt>
<trkpt lat="31.7622900" lon="35.1485500">
<ele>673.169983</ele>
<time>2023-01-25T13:56:44.059Z</time>
</trkpt>
<trkpt lat="31.7622400" lon="35.1484600">
<ele>673.309998</ele>
<time>2023-01-25T13:56:44.059Z</time>
</trkpt>
<trkpt lat="31.7621800" lon="35.1483700">
<ele>673.160034</ele>
<time>2023-01-25T13:56:44.059Z</time>
</trkpt>
<trkpt lat="31.7621100" lon="35.1482700">
<ele>673.019958</ele>
<time>2023-01-25T13:56:44.059Z</time>
</trkpt>
<trkpt lat="31.7620500" lon="35.1481600">
<ele>672.989990</ele>
<time>2023-01-25T13:56:44.059Z</time>
</trkpt>
<trkpt lat="31.7619900" lon="35.1480400">
<ele>673.080017</ele>
<time>2023-01-25T13:56:44.059Z</time>
</trkpt>
<trkpt lat="31.7619500" lon="35.1479400">
<ele>673.080017</ele>
<time>2023-01-25T13:56:44.060Z</time>
</trkpt>
<trkpt lat="31.7619100" lon="35.1478100">
<ele>672.599976</ele>
<time>2023-01-25T13:56:44.060Z</time>
</trkpt>
<trkpt lat="31.7618700" lon="35.1477100">
<ele>672.740051</ele>
<time>2023-01-25T13:56:44.060Z</time>
</trkpt>
<trkpt lat="31.7618400" lon="35.1476100">
<ele>672.900024</ele>
<time>2023-01-25T13:56:44.060Z</time>
</trkpt>
<trkpt lat="31.7618100" lon="35.1475100">
<ele>672.989990</ele>
<time>2023-01-25T13:56:44.060Z</time>
</trkpt>
<trkpt lat="31.7617700" lon="35.1473800">
<ele>672.820007</ele>
<time>2023-01-25T13:56:44.060Z</time>
</trkpt>
<trkpt lat="31.7617400" lon="35.1472600">
<ele>672.610046</ele>
<time>2023-01-25T13:56:44.060Z</time>
</trkpt>
<trkpt lat="31.7617100" lon="35.1471500">
<ele>672.870056</ele>
<time>2023-01-25T13:56:44.060Z</time>
</trkpt>
<trkpt lat="31.7616700" lon="35.1470500">
<ele>673.580017</ele>
<time>2023-01-25T13:56:44.060Z</time>
</trkpt>
<trkpt lat="31.7616100" lon="35.1469400">
<ele>674.390015</ele>
<time>2023-01-25T13:56:44.060Z</time>
</trkpt>
<trkpt lat="31.7615500" lon="35.1468500">
<ele>674.730042</ele>
<time>2023-01-25T13:56:44.060Z</time>
</trkpt>
<trkpt lat="31.7614800" lon="35.1467800">
<ele>675.750000</ele>
<time>2023-01-25T13:56:44.060Z</time>
</trkpt>
<trkpt lat="31.7614000" lon="35.1467200">
<ele>677.409973</ele>
<time>2023-01-25T13:56:44.060Z</time>
</trkpt>
<trkpt lat="31.7613100" lon="35.1466700">
<ele>677.710022</ele>
<time>2023-01-25T13:56:44.060Z</time>
</trkpt>
<trkpt lat="31.7612200" lon="35.1466300">
<ele>676.970032</ele>
<time>2023-01-25T13:56:44.060Z</time>
</trkpt>
<trkpt lat="31.7611300" lon="35.1466000">
<ele>676.539978</ele>
<time>2023-01-25T13:56:44.060Z</time>
</trkpt>
<trkpt lat="31.7610300" lon="35.1466000">
<ele>675.130005</ele>
<time>2023-01-25T13:56:44.060Z</time>
</trkpt>
<trkpt lat="31.7609300" lon="35.1466000">
<ele>673.420044</ele>
<time>2023-01-25T13:56:44.060Z</time>
</trkpt>
<trkpt lat="31.7608300" lon="35.1466200">
<ele>671.730042</ele>
<time>2023-01-25T13:56:44.060Z</time>
</trkpt>
<trkpt lat="31.7607400" lon="35.1466500">
<ele>669.390015</ele>
<time>2023-01-25T13:56:44.060Z</time>
</trkpt>
<trkpt lat="31.7606400" lon="35.1466900">
<ele>667.299988</ele>
<time>2023-01-25T13:56:44.060Z</time>
</trkpt>
<trkpt lat="31.7605400" lon="35.1467300">
<ele>665.470032</ele>
<time>2023-01-25T13:56:44.060Z</time>
</trkpt>
<trkpt lat="31.7604600" lon="35.1467700">
<ele>665.039978</ele>
<time>2023-01-25T13:56:44.060Z</time>
</trkpt>
<trkpt lat="31.7603600" lon="35.1468200">
<ele>665.080017</ele>
<time>2023-01-25T13:56:44.060Z</time>
</trkpt>
<trkpt lat="31.7602700" lon="35.1468600">
<ele>665.410034</ele>
<time>2023-01-25T13:56:44.060Z</time>
</trkpt>
<trkpt lat="31.7601800" lon="35.1469000">
<ele>664.539978</ele>
<time>2023-01-25T13:56:44.060Z</time>
</trkpt>
<trkpt lat="31.7600700" lon="35.1469500">
<ele>662.859985</ele>
<time>2023-01-25T13:56:44.060Z</time>
</trkpt>
<trkpt lat="31.7599600" lon="35.1469900">
<ele>660.909973</ele>
<time>2023-01-25T13:56:44.060Z</time>
</trkpt>
<trkpt lat="31.7598700" lon="35.1470300">
<ele>659.139954</ele>
<time>2023-01-25T13:56:44.060Z</time>
</trkpt>
<trkpt lat="31.7597800" lon="35.1470700">
<ele>657.090027</ele>
<time>2023-01-25T13:56:44.060Z</time>
</trkpt>
<trkpt lat="31.7596800" lon="35.1471100">
<ele>655.310059</ele>
<time>2023-01-25T13:56:44.060Z</time>
</trkpt>
<trkpt lat="31.7595700" lon="35.1471600">
<ele>653.900024</ele>
<time>2023-01-25T13:56:44.061Z</time>
</trkpt>
<trkpt lat="31.7594600" lon="35.1472000">
<ele>651.619995</ele>
<time>2023-01-25T13:56:44.061Z</time>
</trkpt>
<trkpt lat="31.7593600" lon="35.1472400">
<ele>655.869995</ele>
<time>2023-01-25T13:56:44.061Z</time>
</trkpt>
<trkpt lat="31.7592400" lon="35.1472500">
<ele>661.479980</ele>
<time>2023-01-25T13:56:44.061Z</time>
</trkpt>
<trkpt lat="31.7591500" lon="35.1472600">
<ele>665.219971</ele>
<time>2023-01-25T13:56:44.061Z</time>
</trkpt>
<trkpt lat="31.7590500" lon="35.1472400">
<ele>667.500000</ele>
<time>2023-01-25T13:56:44.061Z</time>
</trkpt>
<trkpt lat="31.7589400" lon="35.1472200">
<ele>670.479980</ele>
<time>2023-01-25T13:56:44.061Z</time>
</trkpt>
<trkpt lat="31.7588300" lon="35.1471900">
<ele>670.979980</ele>
<time>2023-01-25T13:56:44.061Z</time>
</trkpt>
<trkpt lat="31.7587100" lon="35.1471600">
<ele>669.950012</ele>
<time>2023-01-25T13:56:44.061Z</time>
</trkpt>
<trkpt lat="31.7585800" lon="35.1471700">
<ele>670.090027</ele>
<time>2023-01-25T13:56:44.061Z</time>
</trkpt>
<trkpt lat="31.7584800" lon="35.1472200">
<ele>671.880005</ele>
<time>2023-01-25T13:56:44.061Z</time>
</trkpt>
<trkpt lat="31.7584000" lon="35.1473000">
<ele>673.229980</ele>
<time>2023-01-25T13:56:44.061Z</time>
</trkpt>
<trkpt lat="31.7583200" lon="35.1473800">
<ele>673.350037</ele>
<time>2023-01-25T13:56:44.061Z</time>
</trkpt>
<trkpt lat="31.7582300" lon="35.1474400">
<ele>672.889954</ele>
<time>2023-01-25T13:56:44.061Z</time>
</trkpt>
<trkpt lat="31.7581500" lon="35.1475000">
<ele>673.000061</ele>
<time>2023-01-25T13:56:44.061Z</time>
</trkpt>
<trkpt lat="31.7580600" lon="35.1475700">
<ele>674.269958</ele>
<time>2023-01-25T13:56:44.061Z</time>
</trkpt>
<trkpt lat="31.7579800" lon="35.1476400">
<ele>674.570007</ele>
<time>2023-01-25T13:56:44.061Z</time>
</trkpt>
<trkpt lat="31.7578900" lon="35.1476900">
<ele>674.440002</ele>
<time>2023-01-25T13:56:44.061Z</time>
</trkpt>
<trkpt lat="31.7578000" lon="35.1476600">
<ele>672.729980</ele>
<time>2023-01-25T13:56:44.061Z</time>
</trkpt>
<trkpt lat="31.7577300" lon="35.1475700">
<ele>671.459961</ele>
<time>2023-01-25T13:56:44.061Z</time>
</trkpt>
<trkpt lat="31.7576800" lon="35.1475400">
<ele>671.869995</ele>
<time>2023-01-25T13:56:44.061Z</time>
</trkpt>
<trkpt lat="31.7576800" lon="35.1475500">
<ele>672.070007</ele>
<time>2023-01-25T13:56:44.061Z</time>
</trkpt>
<trkpt lat="31.7576800" lon="35.1475500">
<ele>672.070007</ele>
<time>2023-01-25T13:56:44.061Z</time>
</trkpt>
<trkpt lat="31.7576900" lon="35.1475500">
<ele>671.859985</ele>
<time>2023-01-25T13:56:44.061Z</time>
</trkpt>
<trkpt lat="31.7576900" lon="35.1475500">
<ele>671.859985</ele>
<time>2023-01-25T13:56:44.061Z</time>
</trkpt>
<trkpt lat="31.7576900" lon="35.1475500">
<ele>671.859985</ele>
<time>2023-01-25T13:56:44.061Z</time>
</trkpt>
<trkpt lat="31.7576900" lon="35.1475500">
<ele>671.859985</ele>
<time>2023-01-25T13:56:44.061Z</time>
</trkpt>
<trkpt lat="31.7576800" lon="35.1475500">
<ele>672.070007</ele>
<time>2023-01-25T13:56:44.061Z</time>
</trkpt>
<trkpt lat="31.7576800" lon="35.1475500">
<ele>672.070007</ele>
<time>2023-01-25T13:56:44.061Z</time>
</trkpt>
<trkpt lat="31.7576900" lon="35.1475500">
<ele>671.859985</ele>
<time>2023-01-25T13:56:44.061Z</time>
</trkpt>
<trkpt lat="31.7577800" lon="35.1475400">
<ele>669.889954</ele>
<time>2023-01-25T13:56:44.061Z</time>
</trkpt>
<trkpt lat="31.7577900" lon="35.1475300">
<ele>669.820007</ele>
<time>2023-01-25T13:56:44.062Z</time>
</trkpt>
<trkpt lat="31.7577900" lon="35.1475300">
<ele>669.820007</ele>
<time>2023-01-25T13:56:44.062Z</time>
</trkpt>
<trkpt lat="31.7577900" lon="35.1475300">
<ele>669.820007</ele>
<time>2023-01-25T13:56:44.062Z</time>
</trkpt>
<trkpt lat="31.7577900" lon="35.1475300">
<ele>669.820007</ele>
<time>2023-01-25T13:56:44.062Z</time>
</trkpt>
<trkpt lat="31.7577900" lon="35.1475300">
<ele>669.820007</ele>
<time>2023-01-25T13:56:44.062Z</time>
</trkpt>
<trkpt lat="31.7577900" lon="35.1475300">
<ele>669.820007</ele>
<time>2023-01-25T13:56:44.062Z</time>
</trkpt>
<trkpt lat="31.7577900" lon="35.1475300">
<ele>669.820007</ele>
<time>2023-01-25T13:56:44.062Z</time>
</trkpt>
<trkpt lat="31.7577900" lon="35.1475300">
<ele>669.820007</ele>
<time>2023-01-25T13:56:44.062Z</time>
</trkpt>
<trkpt lat="31.7577900" lon="35.1475300">
<ele>669.820007</ele>
<time>2023-01-25T13:56:44.062Z</time>
</trkpt>
<trkpt lat="31.7577900" lon="35.1475300">
<ele>669.820007</ele>
<time>2023-01-25T13:56:44.062Z</time>
</trkpt>
<trkpt lat="31.7577900" lon="35.1475300">
<ele>669.820007</ele>
<time>2023-01-25T13:56:44.062Z</time>
</trkpt>
<trkpt lat="31.7577900" lon="35.1475200">
<ele>669.599976</ele>
<time>2023-01-25T13:56:44.062Z</time>
</trkpt>
<trkpt lat="31.7577900" lon="35.1475200">
<ele>669.599976</ele>
<time>2023-01-25T13:56:44.062Z</time>
</trkpt>
<trkpt lat="31.7577800" lon="35.1475300">
<ele>669.679993</ele>
<time>2023-01-25T13:56:44.062Z</time>
</trkpt>
<trkpt lat="31.7576900" lon="35.1475300">
<ele>671.479980</ele>
<time>2023-01-25T13:56:44.062Z</time>
</trkpt>
<trkpt lat="31.7576000" lon="35.1475800">
<ele>674.199951</ele>
<time>2023-01-25T13:56:44.062Z</time>
</trkpt>
<trkpt lat="31.7575100" lon="35.1476200">
<ele>676.539978</ele>
<time>2023-01-25T13:56:44.062Z</time>
</trkpt>
<trkpt lat="31.7574200" lon="35.1476400">
<ele>678.880005</ele>
<time>2023-01-25T13:56:44.062Z</time>
</trkpt>
<trkpt lat="31.7573400" lon="35.1477000">
<ele>680.990051</ele>
<time>2023-01-25T13:56:44.062Z</time>
</trkpt>
<trkpt lat="31.7572800" lon="35.1477900">
<ele>682.530029</ele>
<time>2023-01-25T13:56:44.062Z</time>
</trkpt>
<trkpt lat="31.7572200" lon="35.1478700">
<ele>685.740051</ele>
<time>2023-01-25T13:56:44.062Z</time>
</trkpt>
<trkpt lat="31.7571600" lon="35.1479500">
<ele>689.809998</ele>
<time>2023-01-25T13:56:44.062Z</time>
</trkpt>
<trkpt lat="31.7571000" lon="35.1480200">
<ele>692.950012</ele>
<time>2023-01-25T13:56:44.062Z</time>
</trkpt>
<trkpt lat="31.7570300" lon="35.1481000">
<ele>695.400024</ele>
<time>2023-01-25T13:56:44.062Z</time>
</trkpt>
<trkpt lat="31.7569700" lon="35.1481900">
<ele>696.670044</ele>
<time>2023-01-25T13:56:44.062Z</time>
</trkpt>
<trkpt lat="31.7569100" lon="35.1482800">
<ele>697.640015</ele>
<time>2023-01-25T13:56:44.062Z</time>
</trkpt>
<trkpt lat="31.7568600" lon="35.1482000">
<ele>698.669983</ele>
<time>2023-01-25T13:56:44.062Z</time>
</trkpt>
<trkpt lat="31.7568600" lon="35.1482000">
<ele>698.669983</ele>
<time>2023-01-25T13:56:44.062Z</time>
</trkpt>
<trkpt lat="31.7568600" lon="35.1482000">
<ele>698.669983</ele>
<time>2023-01-25T13:56:44.062Z</time>
</trkpt>
<trkpt lat="31.7568600" lon="35.1482000">
<ele>698.669983</ele>
<time>2023-01-25T13:56:44.062Z</time>
</trkpt>
<trkpt lat="31.7568600" lon="35.1481900">
<ele>698.680054</ele>
<time>2023-01-25T13:56:44.062Z</time>
</trkpt>
<trkpt lat="31.7568700" lon="35.1481900">
<ele>698.479980</ele>
<time>2023-01-25T13:56:44.063Z</time>
</trkpt>
<trkpt lat="31.7568700" lon="35.1481900">
<ele>698.479980</ele>
<time>2023-01-25T13:56:44.063Z</time>
</trkpt>
<trkpt lat="31.7568700" lon="35.1481900">
<ele>698.479980</ele>
<time>2023-01-25T13:56:44.063Z</time>
</trkpt>
<trkpt lat="31.7568700" lon="35.1481900">
<ele>698.479980</ele>
<time>2023-01-25T13:56:44.063Z</time>
</trkpt>
<trkpt lat="31.7568700" lon="35.1481900">
<ele>698.479980</ele>
<time>2023-01-25T13:56:44.063Z</time>
</trkpt>
<trkpt lat="31.7568700" lon="35.1481900">
<ele>698.479980</ele>
<time>2023-01-25T13:56:44.063Z</time>
</trkpt>
<trkpt lat="31.7568700" lon="35.1481900">
<ele>698.479980</ele>
<time>2023-01-25T13:56:44.063Z</time>
</trkpt>
<trkpt lat="31.7568700" lon="35.1481900">
<ele>698.479980</ele>
<time>2023-01-25T13:56:44.063Z</time>
</trkpt>
<trkpt lat="31.7568700" lon="35.1481900">
<ele>698.479980</ele>
<time>2023-01-25T13:56:44.063Z</time>
</trkpt>
<trkpt lat="31.7568700" lon="35.1481900">
<ele>698.479980</ele>
<time>2023-01-25T13:56:44.063Z</time>
</trkpt>
<trkpt lat="31.7568700" lon="35.1481800">
<ele>698.489990</ele>
<time>2023-01-25T13:56:44.063Z</time>
</trkpt>
<trkpt lat="31.7568700" lon="35.1481800">
<ele>698.489990</ele>
<time>2023-01-25T13:56:44.063Z</time>
</trkpt>
<trkpt lat="31.7568700" lon="35.1481800">
<ele>698.489990</ele>
<time>2023-01-25T13:56:44.063Z</time>
</trkpt>
<trkpt lat="31.7569100" lon="35.1480800">
<ele>697.729980</ele>
<time>2023-01-25T13:56:44.063Z</time>
</trkpt>
<trkpt lat="31.7569700" lon="35.1479700">
<ele>695.660034</ele>
<time>2023-01-25T13:56:44.063Z</time>
</trkpt>
<trkpt lat="31.7570100" lon="35.1478700">
<ele>693.299988</ele>
<time>2023-01-25T13:56:44.063Z</time>
</trkpt>
<trkpt lat="31.7570500" lon="35.1477700">
<ele>690.500000</ele>
<time>2023-01-25T13:56:44.063Z</time>
</trkpt>
<trkpt lat="31.7571100" lon="35.1476600">
<ele>688.610046</ele>
<time>2023-01-25T13:56:44.063Z</time>
</trkpt>
<trkpt lat="31.7571500" lon="35.1475600">
<ele>687.309998</ele>
<time>2023-01-25T13:56:44.063Z</time>
</trkpt>
<trkpt lat="31.7572200" lon="35.1474800">
<ele>684.830017</ele>
<time>2023-01-25T13:56:44.063Z</time>
</trkpt>
<trkpt lat="31.7572800" lon="35.1473900">
<ele>685.590027</ele>
<time>2023-01-25T13:56:44.063Z</time>
</trkpt>
<trkpt lat="31.7573500" lon="35.1473100">
<ele>684.809998</ele>
<time>2023-01-25T13:56:44.063Z</time>
</trkpt>
<trkpt lat="31.7574000" lon="35.1472000">
<ele>684.850037</ele>
<time>2023-01-25T13:56:44.063Z</time>
</trkpt>
<trkpt lat="31.7574400" lon="35.1470800">
<ele>685.200012</ele>
<time>2023-01-25T13:56:44.063Z</time>
</trkpt>
<trkpt lat="31.7575000" lon="35.1469900">
<ele>684.020020</ele>
<time>2023-01-25T13:56:44.063Z</time>
</trkpt>
<trkpt lat="31.7575900" lon="35.1469000">
<ele>682.889954</ele>
<time>2023-01-25T13:56:44.063Z</time>
</trkpt>
<trkpt lat="31.7576700" lon="35.1467800">
<ele>682.030029</ele>
<time>2023-01-25T13:56:44.063Z</time>
</trkpt>
<trkpt lat="31.7577100" lon="35.1466800">
<ele>681.690063</ele>
<time>2023-01-25T13:56:44.063Z</time>
</trkpt>
<trkpt lat="31.7577700" lon="35.1465500">
<ele>678.570007</ele>
<time>2023-01-25T13:56:44.063Z</time>
</trkpt>
<trkpt lat="31.7578200" lon="35.1464500">
<ele>677.630005</ele>
<time>2023-01-25T13:56:44.063Z</time>
</trkpt>
<trkpt lat="31.7578700" lon="35.1463300">
<ele>679.389954</ele>
<time>2023-01-25T13:56:44.063Z</time>
</trkpt>
<trkpt lat="31.7579200" lon="35.1462400">
<ele>681.489990</ele>
<time>2023-01-25T13:56:44.064Z</time>
</trkpt>
<trkpt lat="31.7580100" lon="35.1461200">
<ele>682.279968</ele>
<time>2023-01-25T13:56:44.064Z</time>
</trkpt>
<trkpt lat="31.7580600" lon="35.1460200">
<ele>684.859985</ele>
<time>2023-01-25T13:56:44.064Z</time>
</trkpt>
<trkpt lat="31.7581000" lon="35.1459000">
<ele>688.710022</ele>
<time>2023-01-25T13:56:44.064Z</time>
</trkpt>
<trkpt lat="31.7581300" lon="35.1457600">
<ele>692.019958</ele>
<time>2023-01-25T13:56:44.064Z</time>
</trkpt>
<trkpt lat="31.7581700" lon="35.1456400">
<ele>693.460022</ele>
<time>2023-01-25T13:56:44.064Z</time>
</trkpt>
<trkpt lat="31.7582300" lon="35.1455300">
<ele>693.479980</ele>
<time>2023-01-25T13:56:44.064Z</time>
</trkpt>
<trkpt lat="31.7583100" lon="35.1454100">
<ele>692.760010</ele>
<time>2023-01-25T13:56:44.064Z</time>
</trkpt>
<trkpt lat="31.7583700" lon="35.1453100">
<ele>692.500000</ele>
<time>2023-01-25T13:56:44.064Z</time>
</trkpt>
<trkpt lat="31.7584300" lon="35.1452000">
<ele>691.690002</ele>
<time>2023-01-25T13:56:44.064Z</time>
</trkpt>
<trkpt lat="31.7585000" lon="35.1450700">
<ele>690.639954</ele>
<time>2023-01-25T13:56:44.064Z</time>
</trkpt>
<trkpt lat="31.7585500" lon="35.1449700">
<ele>690.219971</ele>
<time>2023-01-25T13:56:44.064Z</time>
</trkpt>
<trkpt lat="31.7586000" lon="35.1448600">
<ele>690.440002</ele>
<time>2023-01-25T13:56:44.064Z</time>
</trkpt>
<trkpt lat="31.7586600" lon="35.1447600">
<ele>689.739990</ele>
<time>2023-01-25T13:56:44.064Z</time>
</trkpt>
<trkpt lat="31.7587000" lon="35.1446600">
<ele>690.020020</ele>
<time>2023-01-25T13:56:44.064Z</time>
</trkpt>
<trkpt lat="31.7587500" lon="35.1445500">
<ele>690.029968</ele>
<time>2023-01-25T13:56:44.064Z</time>
</trkpt>
<trkpt lat="31.7588000" lon="35.1444400">
<ele>689.879944</ele>
<time>2023-01-25T13:56:44.064Z</time>
</trkpt>
<trkpt lat="31.7588500" lon="35.1443400">
<ele>688.809998</ele>
<time>2023-01-25T13:56:44.064Z</time>
</trkpt>
<trkpt lat="31.7588800" lon="35.1442200">
<ele>688.820007</ele>
<time>2023-01-25T13:56:44.064Z</time>
</trkpt>
<trkpt lat="31.7589200" lon="35.1440900">
<ele>688.510010</ele>
<time>2023-01-25T13:56:44.064Z</time>
</trkpt>
<trkpt lat="31.7589300" lon="35.1439700">
<ele>690.130005</ele>
<time>2023-01-25T13:56:44.064Z</time>
</trkpt>
<trkpt lat="31.7589400" lon="35.1438600">
<ele>691.599976</ele>
<time>2023-01-25T13:56:44.064Z</time>
</trkpt>
<trkpt lat="31.7589500" lon="35.1437300">
<ele>693.470032</ele>
<time>2023-01-25T13:56:44.064Z</time>
</trkpt>
<trkpt lat="31.7589800" lon="35.1436100">
<ele>694.099976</ele>
<time>2023-01-25T13:56:44.064Z</time>
</trkpt>
<trkpt lat="31.7590200" lon="35.1435100">
<ele>693.379944</ele>
<time>2023-01-25T13:56:44.064Z</time>
</trkpt>
<trkpt lat="31.7590500" lon="35.1433800">
<ele>693.630005</ele>
<time>2023-01-25T13:56:44.064Z</time>
</trkpt>
<trkpt lat="31.7590700" lon="35.1432500">
<ele>694.919983</ele>
<time>2023-01-25T13:56:44.064Z</time>
</trkpt>
<trkpt lat="31.7590800" lon="35.1431500">
<ele>696.429993</ele>
<time>2023-01-25T13:56:44.064Z</time>
</trkpt>
<trkpt lat="31.7590800" lon="35.1430400">
<ele>698.609985</ele>
<time>2023-01-25T13:56:44.064Z</time>
</trkpt>
<trkpt lat="31.7591300" lon="35.1429100">
<ele>698.010010</ele>
<time>2023-01-25T13:56:44.064Z</time>
</trkpt>
<trkpt lat="31.7591600" lon="35.1428000">
<ele>698.039978</ele>
<time>2023-01-25T13:56:44.065Z</time>
</trkpt>
<trkpt lat="31.7592100" lon="35.1426900">
<ele>695.550049</ele>
<time>2023-01-25T13:56:44.065Z</time>
</trkpt>
<trkpt lat="31.7592400" lon="35.1426000">
<ele>694.300049</ele>
<time>2023-01-25T13:56:44.065Z</time>
</trkpt>
<trkpt lat="31.7592900" lon="35.1425000">
<ele>692.340027</ele>
<time>2023-01-25T13:56:44.065Z</time>
</trkpt>
<trkpt lat="31.7593400" lon="35.1423900">
<ele>692.510010</ele>
<time>2023-01-25T13:56:44.065Z</time>
</trkpt>
<trkpt lat="31.7593700" lon="35.1422500">
<ele>694.740051</ele>
<time>2023-01-25T13:56:44.065Z</time>
</trkpt>
<trkpt lat="31.7593900" lon="35.1421400">
<ele>694.900024</ele>
<time>2023-01-25T13:56:44.065Z</time>
</trkpt>
<trkpt lat="31.7593800" lon="35.1420300">
<ele>695.869995</ele>
<time>2023-01-25T13:56:44.065Z</time>
</trkpt>
<trkpt lat="31.7593400" lon="35.1418900">
<ele>697.850037</ele>
<time>2023-01-25T13:56:44.065Z</time>
</trkpt>
<trkpt lat="31.7592700" lon="35.1417400">
<ele>699.670044</ele>
<time>2023-01-25T13:56:44.065Z</time>
</trkpt>
<trkpt lat="31.7592200" lon="35.1416300">
<ele>699.809998</ele>
<time>2023-01-25T13:56:44.065Z</time>
</trkpt>
<trkpt lat="31.7592000" lon="35.1415100">
<ele>697.099976</ele>
<time>2023-01-25T13:56:44.065Z</time>
</trkpt>
<trkpt lat="31.7591800" lon="35.1413900">
<ele>694.460022</ele>
<time>2023-01-25T13:56:44.065Z</time>
</trkpt>
<trkpt lat="31.7591300" lon="35.1412800">
<ele>692.400024</ele>
<time>2023-01-25T13:56:44.065Z</time>
</trkpt>
<trkpt lat="31.7590900" lon="35.1411600">
<ele>689.520020</ele>
<time>2023-01-25T13:56:44.065Z</time>
</trkpt>
<trkpt lat="31.7590200" lon="35.1410500">
<ele>688.309998</ele>
<time>2023-01-25T13:56:44.065Z</time>
</trkpt>
<trkpt lat="31.7589400" lon="35.1409800">
<ele>689.210022</ele>
<time>2023-01-25T13:56:44.065Z</time>
</trkpt>
<trkpt lat="31.7588600" lon="35.1409300">
<ele>690.580017</ele>
<time>2023-01-25T13:56:44.065Z</time>
</trkpt>
<trkpt lat="31.7587400" lon="35.1408700">
<ele>692.270020</ele>
<time>2023-01-25T13:56:44.065Z</time>
</trkpt>
<trkpt lat="31.7586500" lon="35.1408100">
<ele>693.200012</ele>
<time>2023-01-25T13:56:44.065Z</time>
</trkpt>
<trkpt lat="31.7585300" lon="35.1407500">
<ele>693.710022</ele>
<time>2023-01-25T13:56:44.065Z</time>
</trkpt>
<trkpt lat="31.7584100" lon="35.1407300">
<ele>694.570007</ele>
<time>2023-01-25T13:56:44.065Z</time>
</trkpt>
<trkpt lat="31.7583200" lon="35.1407100">
<ele>694.669983</ele>
<time>2023-01-25T13:56:44.065Z</time>
</trkpt>
<trkpt lat="31.7581900" lon="35.1406800">
<ele>693.379944</ele>
<time>2023-01-25T13:56:44.065Z</time>
</trkpt>
<trkpt lat="31.7580700" lon="35.1406600">
<ele>692.510010</ele>
<time>2023-01-25T13:56:44.065Z</time>
</trkpt>
<trkpt lat="31.7579600" lon="35.1406500">
<ele>693.460022</ele>
<time>2023-01-25T13:56:44.065Z</time>
</trkpt>
<trkpt lat="31.7578500" lon="35.1406600">
<ele>695.470032</ele>
<time>2023-01-25T13:56:44.065Z</time>
</trkpt>
<trkpt lat="31.7577400" lon="35.1406400">
<ele>696.070007</ele>
<time>2023-01-25T13:56:44.065Z</time>
</trkpt>
<trkpt lat="31.7576300" lon="35.1406700">
<ele>698.409973</ele>
<time>2023-01-25T13:56:44.065Z</time>
</trkpt>
<trkpt lat="31.7575200" lon="35.1407000">
<ele>700.500000</ele>
<time>2023-01-25T13:56:44.065Z</time>
</trkpt>
<trkpt lat="31.7574300" lon="35.1407300">
<ele>702.630005</ele>
<time>2023-01-25T13:56:44.065Z</time>
</trkpt>
<trkpt lat="31.7573400" lon="35.1407200">
<ele>703.500000</ele>
<time>2023-01-25T13:56:44.066Z</time>
</trkpt>
<trkpt lat="31.7572300" lon="35.1406900">
<ele>703.709961</ele>
<time>2023-01-25T13:56:44.066Z</time>
</trkpt>
<trkpt lat="31.7571500" lon="35.1406500">
<ele>701.640015</ele>
<time>2023-01-25T13:56:44.066Z</time>
</trkpt>
<trkpt lat="31.7570500" lon="35.1406500">
<ele>701.039978</ele>
<time>2023-01-25T13:56:44.066Z</time>
</trkpt>
<trkpt lat="31.7569400" lon="35.1406500">
<ele>700.440002</ele>
<time>2023-01-25T13:56:44.066Z</time>
</trkpt>
<trkpt lat="31.7568400" lon="35.1406400">
<ele>701.049988</ele>
<time>2023-01-25T13:56:44.066Z</time>
</trkpt>
<trkpt lat="31.7567300" lon="35.1406400">
<ele>702.119995</ele>
<time>2023-01-25T13:56:44.066Z</time>
</trkpt>
<trkpt lat="31.7566300" lon="35.1406600">
<ele>703.549988</ele>
<time>2023-01-25T13:56:44.066Z</time>
</trkpt>
<trkpt lat="31.7565300" lon="35.1407000">
<ele>705.149963</ele>
<time>2023-01-25T13:56:44.066Z</time>
</trkpt>
<trkpt lat="31.7564400" lon="35.1407600">
<ele>707.049988</ele>
<time>2023-01-25T13:56:44.066Z</time>
</trkpt>
<trkpt lat="31.7563500" lon="35.1407500">
<ele>707.750000</ele>
<time>2023-01-25T13:56:44.066Z</time>
</trkpt>
<trkpt lat="31.7562600" lon="35.1407400">
<ele>709.599976</ele>
<time>2023-01-25T13:56:44.066Z</time>
</trkpt>
<trkpt lat="31.7562600" lon="35.1407400">
<ele>709.599976</ele>
<time>2023-01-25T13:56:44.066Z</time>
</trkpt>
<trkpt lat="31.7562600" lon="35.1407400">
<ele>709.599976</ele>
<time>2023-01-25T13:56:44.066Z</time>
</trkpt>
<trkpt lat="31.7562600" lon="35.1407400">
<ele>709.599976</ele>
<time>2023-01-25T13:56:44.066Z</time>
</trkpt>
<trkpt lat="31.7562600" lon="35.1407400">
<ele>709.599976</ele>
<time>2023-01-25T13:56:44.066Z</time>
</trkpt>
<trkpt lat="31.7562600" lon="35.1407400">
<ele>709.599976</ele>
<time>2023-01-25T13:56:44.066Z</time>
</trkpt>
<trkpt lat="31.7562600" lon="35.1407500">
<ele>709.729980</ele>
<time>2023-01-25T13:56:44.066Z</time>
</trkpt>
<trkpt lat="31.7562600" lon="35.1407500">
<ele>709.729980</ele>
<time>2023-01-25T13:56:44.066Z</time>
</trkpt>
<trkpt lat="31.7562700" lon="35.1407500">
<ele>709.510010</ele>
<time>2023-01-25T13:56:44.066Z</time>
</trkpt>
<trkpt lat="31.7562700" lon="35.1407500">
<ele>709.510010</ele>
<time>2023-01-25T13:56:44.066Z</time>
</trkpt>
<trkpt lat="31.7562700" lon="35.1407500">
<ele>709.510010</ele>
<time>2023-01-25T13:56:44.066Z</time>
</trkpt>
<trkpt lat="31.7562700" lon="35.1407500">
<ele>709.510010</ele>
<time>2023-01-25T13:56:44.066Z</time>
</trkpt>
<trkpt lat="31.7562700" lon="35.1407500">
<ele>709.510010</ele>
<time>2023-01-25T13:56:44.066Z</time>
</trkpt>
<trkpt lat="31.7562700" lon="35.1407500">
<ele>709.510010</ele>
<time>2023-01-25T13:56:44.066Z</time>
</trkpt>
<trkpt lat="31.7562700" lon="35.1407500">
<ele>709.510010</ele>
<time>2023-01-25T13:56:44.066Z</time>
</trkpt>
<trkpt lat="31.7562700" lon="35.1407500">
<ele>709.510010</ele>
<time>2023-01-25T13:56:44.066Z</time>
</trkpt>
<trkpt lat="31.7562800" lon="35.1407500">
<ele>709.289978</ele>
<time>2023-01-25T13:56:44.066Z</time>
</trkpt>
<trkpt lat="31.7562800" lon="35.1407500">
<ele>709.289978</ele>
<time>2023-01-25T13:56:44.066Z</time>
</trkpt>
<trkpt lat="31.7562800" lon="35.1407500">
<ele>709.289978</ele>
<time>2023-01-25T13:56:44.066Z</time>
</trkpt>
<trkpt lat="31.7562800" lon="35.1407500">
<ele>709.289978</ele>
<time>2023-01-25T13:56:44.066Z</time>
</trkpt>
<trkpt lat="31.7562800" lon="35.1407500">
<ele>709.289978</ele>
<time>2023-01-25T13:56:44.067Z</time>
</trkpt>
<trkpt lat="31.7562800" lon="35.1407500">
<ele>709.289978</ele>
<time>2023-01-25T13:56:44.067Z</time>
</trkpt>
<trkpt lat="31.7562800" lon="35.1407500">
<ele>709.289978</ele>
<time>2023-01-25T13:56:44.067Z</time>
</trkpt>
<trkpt lat="31.7562800" lon="35.1407500">
<ele>709.289978</ele>
<time>2023-01-25T13:56:44.067Z</time>
</trkpt>
<trkpt lat="31.7562800" lon="35.1407500">
<ele>709.289978</ele>
<time>2023-01-25T13:56:44.067Z</time>
</trkpt>
<trkpt lat="31.7562900" lon="35.1407500">
<ele>709.070007</ele>
<time>2023-01-25T13:56:44.067Z</time>
</trkpt>
<trkpt lat="31.7562900" lon="35.1407500">
<ele>709.070007</ele>
<time>2023-01-25T13:56:44.067Z</time>
</trkpt>
<trkpt lat="31.7562900" lon="35.1407500">
<ele>709.070007</ele>
<time>2023-01-25T13:56:44.067Z</time>
</trkpt>
<trkpt lat="31.7562800" lon="35.1407500">
<ele>709.289978</ele>
<time>2023-01-25T13:56:44.067Z</time>
</trkpt>
<trkpt lat="31.7562800" lon="35.1407500">
<ele>709.289978</ele>
<time>2023-01-25T13:56:44.067Z</time>
</trkpt>
<trkpt lat="31.7562800" lon="35.1407500">
<ele>709.289978</ele>
<time>2023-01-25T13:56:44.067Z</time>
</trkpt>
<trkpt lat="31.7562800" lon="35.1407500">
<ele>709.289978</ele>
<time>2023-01-25T13:56:44.067Z</time>
</trkpt>
<trkpt lat="31.7562800" lon="35.1407500">
<ele>709.289978</ele>
<time>2023-01-25T13:56:44.067Z</time>
</trkpt>
<trkpt lat="31.7562800" lon="35.1407500">
<ele>709.289978</ele>
<time>2023-01-25T13:56:44.067Z</time>
</trkpt>
<trkpt lat="31.7562800" lon="35.1407400">
<ele>709.139954</ele>
<time>2023-01-25T13:56:44.067Z</time>
</trkpt>
<trkpt lat="31.7562800" lon="35.1407400">
<ele>709.139954</ele>
<time>2023-01-25T13:56:44.067Z</time>
</trkpt>
<trkpt lat="31.7562800" lon="35.1407400">
<ele>709.139954</ele>
<time>2023-01-25T13:56:44.067Z</time>
</trkpt>
<trkpt lat="31.7562800" lon="35.1407400">
<ele>709.139954</ele>
<time>2023-01-25T13:56:44.067Z</time>
</trkpt>
<trkpt lat="31.7562800" lon="35.1407400">
<ele>709.139954</ele>
<time>2023-01-25T13:56:44.067Z</time>
</trkpt>
<trkpt lat="31.7562800" lon="35.1407400">
<ele>709.139954</ele>
<time>2023-01-25T13:56:44.067Z</time>
</trkpt>
<trkpt lat="31.7562800" lon="35.1407400">
<ele>709.139954</ele>
<time>2023-01-25T13:56:44.067Z</time>
</trkpt>
<trkpt lat="31.7562800" lon="35.1407400">
<ele>709.139954</ele>
<time>2023-01-25T13:56:44.067Z</time>
</trkpt>
<trkpt lat="31.7562800" lon="35.1407400">
<ele>709.139954</ele>
<time>2023-01-25T13:56:44.067Z</time>
</trkpt>
<trkpt lat="31.7562800" lon="35.1407400">
<ele>709.139954</ele>
<time>2023-01-25T13:56:44.067Z</time>
</trkpt>
<trkpt lat="31.7562800" lon="35.1407400">
<ele>709.139954</ele>
<time>2023-01-25T13:56:44.067Z</time>
</trkpt>
<trkpt lat="31.7562800" lon="35.1407400">
<ele>709.139954</ele>
<time>2023-01-25T13:56:44.067Z</time>
</trkpt>
<trkpt lat="31.7562800" lon="35.1407400">
<ele>709.139954</ele>
<time>2023-01-25T13:56:44.067Z</time>
</trkpt>
<trkpt lat="31.7562800" lon="35.1407400">
<ele>709.139954</ele>
<time>2023-01-25T13:56:44.067Z</time>
</trkpt>
<trkpt lat="31.7562800" lon="35.1407400">
<ele>709.139954</ele>
<time>2023-01-25T13:56:44.067Z</time>
</trkpt>
<trkpt lat="31.7562800" lon="35.1407400">
<ele>709.139954</ele>
<time>2023-01-25T13:56:44.067Z</time>
</trkpt>
<trkpt lat="31.7562800" lon="35.1407400">
<ele>709.139954</ele>
<time>2023-01-25T13:56:44.068Z</time>
</trkpt>
<trkpt lat="31.7562800" lon="35.1407400">
<ele>709.139954</ele>
<time>2023-01-25T13:56:44.068Z</time>
</trkpt>
<trkpt lat="31.7562800" lon="35.1407400">
<ele>709.139954</ele>
<time>2023-01-25T13:56:44.068Z</time>
</trkpt>
<trkpt lat="31.7562800" lon="35.1407400">
<ele>709.139954</ele>
<time>2023-01-25T13:56:44.068Z</time>
</trkpt>
<trkpt lat="31.7562800" lon="35.1407400">
<ele>709.139954</ele>
<time>2023-01-25T13:56:44.068Z</time>
</trkpt>
<trkpt lat="31.7562800" lon="35.1407400">
<ele>709.139954</ele>
<time>2023-01-25T13:56:44.068Z</time>
</trkpt>
<trkpt lat="31.7562800" lon="35.1407500">
<ele>709.289978</ele>
<time>2023-01-25T13:56:44.068Z</time>
</trkpt>
<trkpt lat="31.7562800" lon="35.1407500">
<ele>709.289978</ele>
<time>2023-01-25T13:56:44.068Z</time>
</trkpt>
<trkpt lat="31.7562700" lon="35.1407500">
<ele>709.510010</ele>
<time>2023-01-25T13:56:44.068Z</time>
</trkpt>
<trkpt lat="31.7562700" lon="35.1407500">
<ele>709.510010</ele>
<time>2023-01-25T13:56:44.068Z</time>
</trkpt>
<trkpt lat="31.7562700" lon="35.1407500">
<ele>709.510010</ele>
<time>2023-01-25T13:56:44.068Z</time>
</trkpt>
<trkpt lat="31.7562700" lon="35.1407500">
<ele>709.510010</ele>
<time>2023-01-25T13:56:44.068Z</time>
</trkpt>
<trkpt lat="31.7562700" lon="35.1407500">
<ele>709.510010</ele>
<time>2023-01-25T13:56:44.068Z</time>
</trkpt>
<trkpt lat="31.7562700" lon="35.1407500">
<ele>709.510010</ele>
<time>2023-01-25T13:56:44.068Z</time>
</trkpt>
<trkpt lat="31.7562800" lon="35.1407500">
<ele>709.289978</ele>
<time>2023-01-25T13:56:44.068Z</time>
</trkpt>
<trkpt lat="31.7562800" lon="35.1407500">
<ele>709.289978</ele>
<time>2023-01-25T13:56:44.068Z</time>
</trkpt>
<trkpt lat="31.7562700" lon="35.1407400">
<ele>709.369995</ele>
<time>2023-01-25T13:56:44.068Z</time>
</trkpt>
<trkpt lat="31.7563100" lon="35.1407000">
<ele>707.729980</ele>
<time>2023-01-25T13:56:44.068Z</time>
</trkpt>
<trkpt lat="31.7563100" lon="35.1407000">
<ele>707.729980</ele>
<time>2023-01-25T13:56:44.068Z</time>
</trkpt>
<trkpt lat="31.7563100" lon="35.1407000">
<ele>707.729980</ele>
<time>2023-01-25T13:56:44.068Z</time>
</trkpt>
<trkpt lat="31.7563100" lon="35.1407000">
<ele>707.729980</ele>
<time>2023-01-25T13:56:44.068Z</time>
</trkpt>
<trkpt lat="31.7563100" lon="35.1407000">
<ele>707.729980</ele>
<time>2023-01-25T13:56:44.068Z</time>
</trkpt>
<trkpt lat="31.7563100" lon="35.1407000">
<ele>707.729980</ele>
<time>2023-01-25T13:56:44.068Z</time>
</trkpt>
<trkpt lat="31.7563400" lon="35.1405800">
<ele>704.440002</ele>
<time>2023-01-25T13:56:44.068Z</time>
</trkpt>
<trkpt lat="31.7564000" lon="35.1404900">
<ele>702.109985</ele>
<time>2023-01-25T13:56:44.068Z</time>
</trkpt>
<trkpt lat="31.7564800" lon="35.1404100">
<ele>701.010010</ele>
<time>2023-01-25T13:56:44.068Z</time>
</trkpt>
<trkpt lat="31.7565700" lon="35.1403900">
<ele>699.349976</ele>
<time>2023-01-25T13:56:44.068Z</time>
</trkpt>
<trkpt lat="31.7566600" lon="35.1403900">
<ele>697.740051</ele>
<time>2023-01-25T13:56:44.068Z</time>
</trkpt>
<trkpt lat="31.7567300" lon="35.1403000">
<ele>695.010010</ele>
<time>2023-01-25T13:56:44.068Z</time>
</trkpt>
<trkpt lat="31.7568000" lon="35.1402200">
<ele>693.349976</ele>
<time>2023-01-25T13:56:44.068Z</time>
</trkpt>
<trkpt lat="31.7568700" lon="35.1401200">
<ele>691.390015</ele>
<time>2023-01-25T13:56:44.069Z</time>
</trkpt>
<trkpt lat="31.7569200" lon="35.1399900">
<ele>689.180054</ele>
<time>2023-01-25T13:56:44.069Z</time>
</trkpt>
<trkpt lat="31.7569900" lon="35.1398800">
<ele>689.080017</ele>
<time>2023-01-25T13:56:44.069Z</time>
</trkpt>
<trkpt lat="31.7570500" lon="35.1397700">
<ele>689.539978</ele>
<time>2023-01-25T13:56:44.069Z</time>
</trkpt>
<trkpt lat="31.7571000" lon="35.1396500">
<ele>690.819946</ele>
<time>2023-01-25T13:56:44.069Z</time>
</trkpt>
<trkpt lat="31.7571200" lon="35.1395800">
<ele>691.909973</ele>
<time>2023-01-25T13:56:44.069Z</time>
</trkpt>
<trkpt lat="31.7571200" lon="35.1395800">
<ele>691.909973</ele>
<time>2023-01-25T13:56:44.069Z</time>
</trkpt>
<trkpt lat="31.7572100" lon="35.1395300">
<ele>691.020020</ele>
<time>2023-01-25T13:56:44.069Z</time>
</trkpt>
<trkpt lat="31.7573100" lon="35.1394900">
<ele>687.869995</ele>
<time>2023-01-25T13:56:44.069Z</time>
</trkpt>
<trkpt lat="31.7573800" lon="35.1394100">
<ele>686.600037</ele>
<time>2023-01-25T13:56:44.069Z</time>
</trkpt>
<trkpt lat="31.7574400" lon="35.1393100">
<ele>686.489990</ele>
<time>2023-01-25T13:56:44.069Z</time>
</trkpt>
<trkpt lat="31.7575400" lon="35.1392300">
<ele>682.640015</ele>
<time>2023-01-25T13:56:44.069Z</time>
</trkpt>
<trkpt lat="31.7576400" lon="35.1391600">
<ele>676.640015</ele>
<time>2023-01-25T13:56:44.069Z</time>
</trkpt>
<trkpt lat="31.7577100" lon="35.1390900">
<ele>673.820007</ele>
<time>2023-01-25T13:56:44.069Z</time>
</trkpt>
<trkpt lat="31.7577700" lon="35.1389900">
<ele>672.929993</ele>
<time>2023-01-25T13:56:44.069Z</time>
</trkpt>
<trkpt lat="31.7578300" lon="35.1388900">
<ele>672.770020</ele>
<time>2023-01-25T13:56:44.069Z</time>
</trkpt>
<trkpt lat="31.7579100" lon="35.1387900">
<ele>671.670044</ele>
<time>2023-01-25T13:56:44.069Z</time>
</trkpt>
<trkpt lat="31.7579700" lon="35.1386800">
<ele>671.700012</ele>
<time>2023-01-25T13:56:44.069Z</time>
</trkpt>
<trkpt lat="31.7580100" lon="35.1385800">
<ele>672.610046</ele>
<time>2023-01-25T13:56:44.069Z</time>
</trkpt>
<trkpt lat="31.7580500" lon="35.1384600">
<ele>675.399963</ele>
<time>2023-01-25T13:56:44.069Z</time>
</trkpt>
<trkpt lat="31.7581000" lon="35.1383600">
<ele>676.530029</ele>
<time>2023-01-25T13:56:44.069Z</time>
</trkpt>
<trkpt lat="31.7581300" lon="35.1382400">
<ele>676.309998</ele>
<time>2023-01-25T13:56:44.069Z</time>
</trkpt>
<trkpt lat="31.7581500" lon="35.1381200">
<ele>676.179993</ele>
<time>2023-01-25T13:56:44.069Z</time>
</trkpt>
<trkpt lat="31.7581800" lon="35.1380200">
<ele>675.059998</ele>
<time>2023-01-25T13:56:44.069Z</time>
</trkpt>
<trkpt lat="31.7582000" lon="35.1379100">
<ele>674.159973</ele>
<time>2023-01-25T13:56:44.069Z</time>
</trkpt>
<trkpt lat="31.7581800" lon="35.1378600">
<ele>675.640015</ele>
<time>2023-01-25T13:56:44.069Z</time>
</trkpt>
<trkpt lat="31.7581800" lon="35.1378600">
<ele>675.640015</ele>
<time>2023-01-25T13:56:44.069Z</time>
</trkpt>
<trkpt lat="31.7581800" lon="35.1378600">
<ele>675.640015</ele>
<time>2023-01-25T13:56:44.069Z</time>
</trkpt>
<trkpt lat="31.7581800" lon="35.1378600">
<ele>675.640015</ele>
<time>2023-01-25T13:56:44.070Z</time>
</trkpt>
<trkpt lat="31.7581800" lon="35.1378600">
<ele>675.640015</ele>
<time>2023-01-25T13:56:44.070Z</time>
</trkpt>
<trkpt lat="31.7581800" lon="35.1378600">
<ele>675.640015</ele>
<time>2023-01-25T13:56:44.070Z</time>
</trkpt>
<trkpt lat="31.7581800" lon="35.1378600">
<ele>675.640015</ele>
<time>2023-01-25T13:56:44.070Z</time>
</trkpt>
<trkpt lat="31.7581800" lon="35.1378600">
<ele>675.640015</ele>
<time>2023-01-25T13:56:44.070Z</time>
</trkpt>
<trkpt lat="31.7581800" lon="35.1378600">
<ele>675.640015</ele>
<time>2023-01-25T13:56:44.070Z</time>
</trkpt>
<trkpt lat="31.7581800" lon="35.1378600">
<ele>675.640015</ele>
<time>2023-01-25T13:56:44.070Z</time>
</trkpt>
<trkpt lat="31.7581800" lon="35.1378600">
<ele>675.640015</ele>
<time>2023-01-25T13:56:44.070Z</time>
</trkpt>
<trkpt lat="31.7581700" lon="35.1378600">
<ele>676.290039</ele>
<time>2023-01-25T13:56:44.070Z</time>
</trkpt>
<trkpt lat="31.7581700" lon="35.1378600">
<ele>676.290039</ele>
<time>2023-01-25T13:56:44.070Z</time>
</trkpt>
<trkpt lat="31.7581700" lon="35.1378600">
<ele>676.290039</ele>
<time>2023-01-25T13:56:44.070Z</time>
</trkpt>
<trkpt lat="31.7581700" lon="35.1378600">
<ele>676.290039</ele>
<time>2023-01-25T13:56:44.070Z</time>
</trkpt>
<trkpt lat="31.7581700" lon="35.1378600">
<ele>676.290039</ele>
<time>2023-01-25T13:56:44.070Z</time>
</trkpt>
<trkpt lat="31.7581700" lon="35.1378600">
<ele>676.290039</ele>
<time>2023-01-25T13:56:44.070Z</time>
</trkpt>
<trkpt lat="31.7581700" lon="35.1378600">
<ele>676.290039</ele>
<time>2023-01-25T13:56:44.070Z</time>
</trkpt>
<trkpt lat="31.7581700" lon="35.1378600">
<ele>676.290039</ele>
<time>2023-01-25T13:56:44.070Z</time>
</trkpt>
<trkpt lat="31.7581700" lon="35.1378600">
<ele>676.290039</ele>
<time>2023-01-25T13:56:44.070Z</time>
</trkpt>
<trkpt lat="31.7581700" lon="35.1378600">
<ele>676.290039</ele>
<time>2023-01-25T13:56:44.070Z</time>
</trkpt>
<trkpt lat="31.7581700" lon="35.1378600">
<ele>676.290039</ele>
<time>2023-01-25T13:56:44.070Z</time>
</trkpt>
<trkpt lat="31.7581700" lon="35.1378600">
<ele>676.290039</ele>
<time>2023-01-25T13:56:44.070Z</time>
</trkpt>
<trkpt lat="31.7581700" lon="35.1378500">
<ele>676.320007</ele>
<time>2023-01-25T13:56:44.070Z</time>
</trkpt>
<trkpt lat="31.7581700" lon="35.1378500">
<ele>676.320007</ele>
<time>2023-01-25T13:56:44.070Z</time>
</trkpt>
<trkpt lat="31.7581700" lon="35.1378500">
<ele>676.320007</ele>
<time>2023-01-25T13:56:44.070Z</time>
</trkpt>
<trkpt lat="31.7581700" lon="35.1378500">
<ele>676.320007</ele>
<time>2023-01-25T13:56:44.070Z</time>
</trkpt>
<trkpt lat="31.7581700" lon="35.1378500">
<ele>676.320007</ele>
<time>2023-01-25T13:56:44.070Z</time>
</trkpt>
<trkpt lat="31.7581700" lon="35.1378500">
<ele>676.320007</ele>
<time>2023-01-25T13:56:44.070Z</time>
</trkpt>
<trkpt lat="31.7581700" lon="35.1378500">
<ele>676.320007</ele>
<time>2023-01-25T13:56:44.070Z</time>
</trkpt>
<trkpt lat="31.7581400" lon="35.1377500">
<ele>678.220032</ele>
<time>2023-01-25T13:56:44.070Z</time>
</trkpt>
<trkpt lat="31.7581400" lon="35.1377500">
<ele>678.220032</ele>
<time>2023-01-25T13:56:44.070Z</time>
</trkpt>
<trkpt lat="31.7581400" lon="35.1377500">
<ele>678.220032</ele>
<time>2023-01-25T13:56:44.071Z</time>
</trkpt>
<trkpt lat="31.7581000" lon="35.1376300">
<ele>679.250000</ele>
<time>2023-01-25T13:56:44.071Z</time>
</trkpt>
<trkpt lat="31.7581000" lon="35.1375000">
<ele>677.600037</ele>
<time>2023-01-25T13:56:44.071Z</time>
</trkpt>
<trkpt lat="31.7580900" lon="35.1373700">
<ele>677.669983</ele>
<time>2023-01-25T13:56:44.071Z</time>
</trkpt>
<trkpt lat="31.7580500" lon="35.1372600">
<ele>679.339966</ele>
<time>2023-01-25T13:56:44.071Z</time>
</trkpt>
<trkpt lat="31.7580100" lon="35.1371600">
<ele>679.779968</ele>
<time>2023-01-25T13:56:44.071Z</time>
</trkpt>
<trkpt lat="31.7579400" lon="35.1370600">
<ele>681.070007</ele>
<time>2023-01-25T13:56:44.071Z</time>
</trkpt>
<trkpt lat="31.7578700" lon="35.1369600">
<ele>682.530029</ele>
<time>2023-01-25T13:56:44.071Z</time>
</trkpt>
<trkpt lat="31.7578200" lon="35.1368300">
<ele>681.690063</ele>
<time>2023-01-25T13:56:44.071Z</time>
</trkpt>
<trkpt lat="31.7577800" lon="35.1367200">
<ele>680.279968</ele>
<time>2023-01-25T13:56:44.071Z</time>
</trkpt>
<trkpt lat="31.7577600" lon="35.1366200">
<ele>678.960022</ele>
<time>2023-01-25T13:56:44.071Z</time>
</trkpt>
<trkpt lat="31.7577200" lon="35.1365100">
<ele>678.709961</ele>
<time>2023-01-25T13:56:44.071Z</time>
</trkpt>
<trkpt lat="31.7576700" lon="35.1364000">
<ele>678.670044</ele>
<time>2023-01-25T13:56:44.071Z</time>
</trkpt>
<trkpt lat="31.7576000" lon="35.1363100">
<ele>678.869995</ele>
<time>2023-01-25T13:56:44.071Z</time>
</trkpt>
<trkpt lat="31.7575300" lon="35.1362300">
<ele>679.090027</ele>
<time>2023-01-25T13:56:44.071Z</time>
</trkpt>
<trkpt lat="31.7575300" lon="35.1362400">
<ele>679.330017</ele>
<time>2023-01-25T13:56:44.071Z</time>
</trkpt>
<trkpt lat="31.7575300" lon="35.1362400">
<ele>679.330017</ele>
<time>2023-01-25T13:56:44.071Z</time>
</trkpt>
<trkpt lat="31.7575300" lon="35.1362400">
<ele>679.330017</ele>
<time>2023-01-25T13:56:44.071Z</time>
</trkpt>
<trkpt lat="31.7575300" lon="35.1362400">
<ele>679.330017</ele>
<time>2023-01-25T13:56:44.071Z</time>
</trkpt>
<trkpt lat="31.7575300" lon="35.1362000">
<ele>678.339966</ele>
<time>2023-01-25T13:56:44.071Z</time>
</trkpt>
<trkpt lat="31.7575300" lon="35.1361900">
<ele>678.090027</ele>
<time>2023-01-25T13:56:44.071Z</time>
</trkpt>
<trkpt lat="31.7574300" lon="35.1361400">
<ele>678.339966</ele>
<time>2023-01-25T13:56:44.071Z</time>
</trkpt>
<trkpt lat="31.7573300" lon="35.1360700">
<ele>676.200012</ele>
<time>2023-01-25T13:56:44.071Z</time>
</trkpt>
<trkpt lat="31.7572400" lon="35.1360400">
<ele>674.869995</ele>
<time>2023-01-25T13:56:44.071Z</time>
</trkpt>
<trkpt lat="31.7571500" lon="35.1360400">
<ele>674.159973</ele>
<time>2023-01-25T13:56:44.071Z</time>
</trkpt>
<trkpt lat="31.7570500" lon="35.1360800">
<ele>677.130005</ele>
<time>2023-01-25T13:56:44.071Z</time>
</trkpt>
<trkpt lat="31.7569600" lon="35.1361100">
<ele>680.749939</ele>
<time>2023-01-25T13:56:44.071Z</time>
</trkpt>
<trkpt lat="31.7568500" lon="35.1361400">
<ele>682.559998</ele>
<time>2023-01-25T13:56:44.071Z</time>
</trkpt>
<trkpt lat="31.7567600" lon="35.1361600">
<ele>683.270020</ele>
<time>2023-01-25T13:56:44.071Z</time>
</trkpt>
<trkpt lat="31.7566600" lon="35.1362100">
<ele>685.240051</ele>
<time>2023-01-25T13:56:44.071Z</time>
</trkpt>
<trkpt lat="31.7565600" lon="35.1362500">
<ele>685.770020</ele>
<time>2023-01-25T13:56:44.071Z</time>
</trkpt>
<trkpt lat="31.7564700" lon="35.1362900">
<ele>686.169983</ele>
<time>2023-01-25T13:56:44.072Z</time>
</trkpt>
<trkpt lat="31.7563700" lon="35.1363400">
<ele>686.860046</ele>
<time>2023-01-25T13:56:44.072Z</time>
</trkpt>
<trkpt lat="31.7562900" lon="35.1363900">
<ele>689.390015</ele>
<time>2023-01-25T13:56:44.072Z</time>
</trkpt>
<trkpt lat="31.7561900" lon="35.1364500">
<ele>691.850037</ele>
<time>2023-01-25T13:56:44.072Z</time>
</trkpt>
<trkpt lat="31.7561000" lon="35.1365100">
<ele>694.530029</ele>
<time>2023-01-25T13:56:44.072Z</time>
</trkpt>
<trkpt lat="31.7560100" lon="35.1365600">
<ele>697.919983</ele>
<time>2023-01-25T13:56:44.072Z</time>
</trkpt>
<trkpt lat="31.7559300" lon="35.1366000">
<ele>701.039978</ele>
<time>2023-01-25T13:56:44.072Z</time>
</trkpt>
<trkpt lat="31.7558400" lon="35.1366400">
<ele>704.609985</ele>
<time>2023-01-25T13:56:44.072Z</time>
</trkpt>
<trkpt lat="31.7557600" lon="35.1366900">
<ele>709.260010</ele>
<time>2023-01-25T13:56:44.072Z</time>
</trkpt>
<trkpt lat="31.7556600" lon="35.1367000">
<ele>713.419983</ele>
<time>2023-01-25T13:56:44.072Z</time>
</trkpt>
<trkpt lat="31.7556000" lon="35.1367500">
<ele>716.690002</ele>
<time>2023-01-25T13:56:44.072Z</time>
</trkpt>
<trkpt lat="31.7556000" lon="35.1367500">
<ele>716.690002</ele>
<time>2023-01-25T13:56:44.072Z</time>
</trkpt>
<trkpt lat="31.7555900" lon="35.1367500">
<ele>717.099976</ele>
<time>2023-01-25T13:56:44.072Z</time>
</trkpt>
<trkpt lat="31.7555900" lon="35.1367500">
<ele>717.099976</ele>
<time>2023-01-25T13:56:44.072Z</time>
</trkpt>
<trkpt lat="31.7555900" lon="35.1367500">
<ele>717.099976</ele>
<time>2023-01-25T13:56:44.072Z</time>
</trkpt>
<trkpt lat="31.7555900" lon="35.1367500">
<ele>717.099976</ele>
<time>2023-01-25T13:56:44.072Z</time>
</trkpt>
<trkpt lat="31.7555900" lon="35.1367500">
<ele>717.099976</ele>
<time>2023-01-25T13:56:44.072Z</time>
</trkpt>
<trkpt lat="31.7555900" lon="35.1367500">
<ele>717.099976</ele>
<time>2023-01-25T13:56:44.072Z</time>
</trkpt>
<trkpt lat="31.7555900" lon="35.1367500">
<ele>717.099976</ele>
<time>2023-01-25T13:56:44.072Z</time>
</trkpt>
<trkpt lat="31.7555900" lon="35.1367500">
<ele>717.099976</ele>
<time>2023-01-25T13:56:44.072Z</time>
</trkpt>
<trkpt lat="31.7555800" lon="35.1367500">
<ele>717.510010</ele>
<time>2023-01-25T13:56:44.072Z</time>
</trkpt>
<trkpt lat="31.7555800" lon="35.1367500">
<ele>717.510010</ele>
<time>2023-01-25T13:56:44.072Z</time>
</trkpt>
<trkpt lat="31.7554900" lon="35.1367600">
<ele>720.409973</ele>
<time>2023-01-25T13:56:44.072Z</time>
</trkpt>
<trkpt lat="31.7554900" lon="35.1367600">
<ele>720.409973</ele>
<time>2023-01-25T13:56:44.072Z</time>
</trkpt>
<trkpt lat="31.7554900" lon="35.1367600">
<ele>720.409973</ele>
<time>2023-01-25T13:56:44.072Z</time>
</trkpt>
<trkpt lat="31.7554900" lon="35.1367600">
<ele>720.409973</ele>
<time>2023-01-25T13:56:44.072Z</time>
</trkpt>
<trkpt lat="31.7554900" lon="35.1367600">
<ele>720.409973</ele>
<time>2023-01-25T13:56:44.072Z</time>
</trkpt>
<trkpt lat="31.7554000" lon="35.1367200">
<ele>722.220032</ele>
<time>2023-01-25T13:56:44.072Z</time>
</trkpt>
<trkpt lat="31.7553100" lon="35.1367100">
<ele>724.580017</ele>
<time>2023-01-25T13:56:44.072Z</time>
</trkpt>
<trkpt lat="31.7552000" lon="35.1366900">
<ele>727.979980</ele>
<time>2023-01-25T13:56:44.072Z</time>
</trkpt>
<trkpt lat="31.7551000" lon="35.1366700">
<ele>731.410034</ele>
<time>2023-01-25T13:56:44.072Z</time>
</trkpt>
<trkpt lat="31.7550000" lon="35.1366400">
<ele>734.230042</ele>
<time>2023-01-25T13:56:44.073Z</time>
</trkpt>
<trkpt lat="31.7549100" lon="35.1365800">
<ele>733.230042</ele>
<time>2023-01-25T13:56:44.073Z</time>
</trkpt>
<trkpt lat="31.7548900" lon="35.1364600">
<ele>730.620056</ele>
<time>2023-01-25T13:56:44.073Z</time>
</trkpt>
<trkpt lat="31.7549100" lon="35.1363500">
<ele>727.260010</ele>
<time>2023-01-25T13:56:44.073Z</time>
</trkpt>
<trkpt lat="31.7549200" lon="35.1362400">
<ele>723.090027</ele>
<time>2023-01-25T13:56:44.073Z</time>
</trkpt>
<trkpt lat="31.7549200" lon="35.1361200">
<ele>718.780029</ele>
<time>2023-01-25T13:56:44.073Z</time>
</trkpt>
<trkpt lat="31.7549200" lon="35.1360100">
<ele>714.869995</ele>
<time>2023-01-25T13:56:44.073Z</time>
</trkpt>
<trkpt lat="31.7549200" lon="35.1359000">
<ele>710.970032</ele>
<time>2023-01-25T13:56:44.073Z</time>
</trkpt>
<trkpt lat="31.7549300" lon="35.1357900">
<ele>707.679993</ele>
<time>2023-01-25T13:56:44.073Z</time>
</trkpt>
<trkpt lat="31.7549200" lon="35.1356500">
<ele>707.099976</ele>
<time>2023-01-25T13:56:44.073Z</time>
</trkpt>
<trkpt lat="31.7549000" lon="35.1355100">
<ele>707.179993</ele>
<time>2023-01-25T13:56:44.073Z</time>
</trkpt>
<trkpt lat="31.7548800" lon="35.1353900">
<ele>707.630005</ele>
<time>2023-01-25T13:56:44.073Z</time>
</trkpt>
<trkpt lat="31.7548500" lon="35.1352900">
<ele>708.630005</ele>
<time>2023-01-25T13:56:44.073Z</time>
</trkpt>
<trkpt lat="31.7548200" lon="35.1351900">
<ele>709.120056</ele>
<time>2023-01-25T13:56:44.073Z</time>
</trkpt>
<trkpt lat="31.7547800" lon="35.1350600">
<ele>709.739990</ele>
<time>2023-01-25T13:56:44.073Z</time>
</trkpt>
<trkpt lat="31.7547100" lon="35.1349700">
<ele>712.570007</ele>
<time>2023-01-25T13:56:44.073Z</time>
</trkpt>
<trkpt lat="31.7546500" lon="35.1348900">
<ele>715.250061</ele>
<time>2023-01-25T13:56:44.073Z</time>
</trkpt>
<trkpt lat="31.7545800" lon="35.1348100">
<ele>717.760010</ele>
<time>2023-01-25T13:56:44.073Z</time>
</trkpt>
<trkpt lat="31.7545100" lon="35.1347100">
<ele>719.250000</ele>
<time>2023-01-25T13:56:44.073Z</time>
</trkpt>
<trkpt lat="31.7544500" lon="35.1346300">
<ele>720.470032</ele>
<time>2023-01-25T13:56:44.073Z</time>
</trkpt>
<trkpt lat="31.7544000" lon="35.1345300">
<ele>721.150024</ele>
<time>2023-01-25T13:56:44.073Z</time>
</trkpt>
<trkpt lat="31.7543300" lon="35.1344400">
<ele>722.850037</ele>
<time>2023-01-25T13:56:44.073Z</time>
</trkpt>
<trkpt lat="31.7542400" lon="35.1343700">
<ele>725.220032</ele>
<time>2023-01-25T13:56:44.073Z</time>
</trkpt>
<trkpt lat="31.7541700" lon="35.1342700">
<ele>726.090027</ele>
<time>2023-01-25T13:56:44.073Z</time>
</trkpt>
<trkpt lat="31.7541300" lon="35.1341700">
<ele>725.779968</ele>
<time>2023-01-25T13:56:44.073Z</time>
</trkpt>
<trkpt lat="31.7540900" lon="35.1340500">
<ele>725.070007</ele>
<time>2023-01-25T13:56:44.073Z</time>
</trkpt>
<trkpt lat="31.7540700" lon="35.1339400">
<ele>723.630005</ele>
<time>2023-01-25T13:56:44.073Z</time>
</trkpt>
<trkpt lat="31.7540200" lon="35.1338200">
<ele>722.779968</ele>
<time>2023-01-25T13:56:44.073Z</time>
</trkpt>
<trkpt lat="31.7539900" lon="35.1337100">
<ele>721.059998</ele>
<time>2023-01-25T13:56:44.073Z</time>
</trkpt>
<trkpt lat="31.7539800" lon="35.1335700">
<ele>717.719971</ele>
<time>2023-01-25T13:56:44.073Z</time>
</trkpt>
<trkpt lat="31.7539900" lon="35.1334400">
<ele>713.809998</ele>
<time>2023-01-25T13:56:44.073Z</time>
</trkpt>
<trkpt lat="31.7540000" lon="35.1333100">
<ele>709.880005</ele>
<time>2023-01-25T13:56:44.074Z</time>
</trkpt>
<trkpt lat="31.7539900" lon="35.1331800">
<ele>707.619995</ele>
<time>2023-01-25T13:56:44.074Z</time>
</trkpt>
<trkpt lat="31.7539500" lon="35.1330900">
<ele>708.069946</ele>
<time>2023-01-25T13:56:44.074Z</time>
</trkpt>
<trkpt lat="31.7538900" lon="35.1329900">
<ele>709.049988</ele>
<time>2023-01-25T13:56:44.074Z</time>
</trkpt>
<trkpt lat="31.7538200" lon="35.1328800">
<ele>709.289978</ele>
<time>2023-01-25T13:56:44.074Z</time>
</trkpt>
<trkpt lat="31.7537000" lon="35.1328000">
<ele>712.020020</ele>
<time>2023-01-25T13:56:44.074Z</time>
</trkpt>
<trkpt lat="31.7536100" lon="35.1327500">
<ele>714.340027</ele>
<time>2023-01-25T13:56:44.074Z</time>
</trkpt>
<trkpt lat="31.7535100" lon="35.1326600">
<ele>714.860046</ele>
<time>2023-01-25T13:56:44.074Z</time>
</trkpt>
<trkpt lat="31.7534200" lon="35.1325700">
<ele>712.869995</ele>
<time>2023-01-25T13:56:44.074Z</time>
</trkpt>
<trkpt lat="31.7533100" lon="35.1325000">
<ele>710.419983</ele>
<time>2023-01-25T13:56:44.074Z</time>
</trkpt>
<trkpt lat="31.7532200" lon="35.1324600">
<ele>711.030029</ele>
<time>2023-01-25T13:56:44.074Z</time>
</trkpt>
<trkpt lat="31.7531100" lon="35.1324200">
<ele>712.000000</ele>
<time>2023-01-25T13:56:44.074Z</time>
</trkpt>
<trkpt lat="31.7529900" lon="35.1323800">
<ele>714.229980</ele>
<time>2023-01-25T13:56:44.074Z</time>
</trkpt>
<trkpt lat="31.7529000" lon="35.1323500">
<ele>716.079956</ele>
<time>2023-01-25T13:56:44.074Z</time>
</trkpt>
<trkpt lat="31.7528100" lon="35.1323300">
<ele>717.880005</ele>
<time>2023-01-25T13:56:44.074Z</time>
</trkpt>
<trkpt lat="31.7526900" lon="35.1323000">
<ele>718.739990</ele>
<time>2023-01-25T13:56:44.074Z</time>
</trkpt>
<trkpt lat="31.7525800" lon="35.1322700">
<ele>719.359985</ele>
<time>2023-01-25T13:56:44.074Z</time>
</trkpt>
<trkpt lat="31.7524900" lon="35.1322600">
<ele>720.500000</ele>
<time>2023-01-25T13:56:44.074Z</time>
</trkpt>
<trkpt lat="31.7524000" lon="35.1322400">
<ele>719.729980</ele>
<time>2023-01-25T13:56:44.074Z</time>
</trkpt>
<trkpt lat="31.7523100" lon="35.1322200">
<ele>718.910034</ele>
<time>2023-01-25T13:56:44.074Z</time>
</trkpt>
<trkpt lat="31.7522100" lon="35.1322100">
<ele>718.429993</ele>
<time>2023-01-25T13:56:44.074Z</time>
</trkpt>
<trkpt lat="31.7521200" lon="35.1322000">
<ele>717.669983</ele>
<time>2023-01-25T13:56:44.074Z</time>
</trkpt>
<trkpt lat="31.7520300" lon="35.1321800">
<ele>716.480042</ele>
<time>2023-01-25T13:56:44.074Z</time>
</trkpt>
<trkpt lat="31.7519200" lon="35.1321500">
<ele>715.280029</ele>
<time>2023-01-25T13:56:44.074Z</time>
</trkpt>
<trkpt lat="31.7518100" lon="35.1321400">
<ele>716.669983</ele>
<time>2023-01-25T13:56:44.074Z</time>
</trkpt>
<trkpt lat="31.7516900" lon="35.1321200">
<ele>717.919983</ele>
<time>2023-01-25T13:56:44.074Z</time>
</trkpt>
<trkpt lat="31.7516200" lon="35.1320300">
<ele>716.669983</ele>
<time>2023-01-25T13:56:44.074Z</time>
</trkpt>
<trkpt lat="31.7515800" lon="35.1319300">
<ele>715.139954</ele>
<time>2023-01-25T13:56:44.074Z</time>
</trkpt>
<trkpt lat="31.7515900" lon="35.1318100">
<ele>712.269958</ele>
<time>2023-01-25T13:56:44.074Z</time>
</trkpt>
<trkpt lat="31.7515800" lon="35.1317000">
<ele>710.429993</ele>
<time>2023-01-25T13:56:44.074Z</time>
</trkpt>
<trkpt lat="31.7515800" lon="35.1315900">
<ele>709.549988</ele>
<time>2023-01-25T13:56:44.074Z</time>
</trkpt>
<trkpt lat="31.7515600" lon="35.1314600">
<ele>710.149963</ele>
<time>2023-01-25T13:56:44.075Z</time>
</trkpt>
<trkpt lat="31.7515700" lon="35.1313400">
<ele>710.049988</ele>
<time>2023-01-25T13:56:44.075Z</time>
</trkpt>
<trkpt lat="31.7515800" lon="35.1312300">
<ele>710.770020</ele>
<time>2023-01-25T13:56:44.075Z</time>
</trkpt>
<trkpt lat="31.7516100" lon="35.1311100">
<ele>710.660034</ele>
<time>2023-01-25T13:56:44.075Z</time>
</trkpt>
<trkpt lat="31.7516400" lon="35.1310000">
<ele>710.489990</ele>
<time>2023-01-25T13:56:44.075Z</time>
</trkpt>
<trkpt lat="31.7516800" lon="35.1309100">
<ele>709.839966</ele>
<time>2023-01-25T13:56:44.075Z</time>
</trkpt>
<trkpt lat="31.7517600" lon="35.1308000">
<ele>708.769958</ele>
<time>2023-01-25T13:56:44.075Z</time>
</trkpt>
<trkpt lat="31.7518400" lon="35.1306900">
<ele>707.149963</ele>
<time>2023-01-25T13:56:44.075Z</time>
</trkpt>
<trkpt lat="31.7519100" lon="35.1305600">
<ele>705.849976</ele>
<time>2023-01-25T13:56:44.075Z</time>
</trkpt>
<trkpt lat="31.7519600" lon="35.1304400">
<ele>705.459961</ele>
<time>2023-01-25T13:56:44.075Z</time>
</trkpt>
<trkpt lat="31.7520100" lon="35.1303200">
<ele>705.719971</ele>
<time>2023-01-25T13:56:44.075Z</time>
</trkpt>
<trkpt lat="31.7520500" lon="35.1302200">
<ele>705.910034</ele>
<time>2023-01-25T13:56:44.075Z</time>
</trkpt>
<trkpt lat="31.7521000" lon="35.1301200">
<ele>706.330017</ele>
<time>2023-01-25T13:56:44.075Z</time>
</trkpt>
<trkpt lat="31.7521500" lon="35.1300000">
<ele>707.000000</ele>
<time>2023-01-25T13:56:44.075Z</time>
</trkpt>
<trkpt lat="31.7521900" lon="35.1299000">
<ele>707.489990</ele>
<time>2023-01-25T13:56:44.075Z</time>
</trkpt>
<trkpt lat="31.7522300" lon="35.1297900">
<ele>707.849976</ele>
<time>2023-01-25T13:56:44.075Z</time>
</trkpt>
<trkpt lat="31.7522900" lon="35.1296800">
<ele>708.849976</ele>
<time>2023-01-25T13:56:44.075Z</time>
</trkpt>
<trkpt lat="31.7523300" lon="35.1295500">
<ele>709.540039</ele>
<time>2023-01-25T13:56:44.075Z</time>
</trkpt>
<trkpt lat="31.7523500" lon="35.1294200">
<ele>710.489990</ele>
<time>2023-01-25T13:56:44.075Z</time>
</trkpt>
<trkpt lat="31.7523700" lon="35.1293100">
<ele>713.229980</ele>
<time>2023-01-25T13:56:44.075Z</time>
</trkpt>
<trkpt lat="31.7524000" lon="35.1292000">
<ele>716.119995</ele>
<time>2023-01-25T13:56:44.075Z</time>
</trkpt>
<trkpt lat="31.7524100" lon="35.1290900">
<ele>718.679993</ele>
<time>2023-01-25T13:56:44.075Z</time>
</trkpt>
<trkpt lat="31.7523800" lon="35.1289700">
<ele>721.159973</ele>
<time>2023-01-25T13:56:44.075Z</time>
</trkpt>
<trkpt lat="31.7523300" lon="35.1288600">
<ele>723.290039</ele>
<time>2023-01-25T13:56:44.075Z</time>
</trkpt>
<trkpt lat="31.7522600" lon="35.1287800">
<ele>724.410034</ele>
<time>2023-01-25T13:56:44.075Z</time>
</trkpt>
<trkpt lat="31.7521800" lon="35.1286900">
<ele>726.279968</ele>
<time>2023-01-25T13:56:44.075Z</time>
</trkpt>
<trkpt lat="31.7521200" lon="35.1286100">
<ele>728.099976</ele>
<time>2023-01-25T13:56:44.075Z</time>
</trkpt>
<trkpt lat="31.7520700" lon="35.1285800">
<ele>728.410034</ele>
<time>2023-01-25T13:56:44.075Z</time>
</trkpt>
<trkpt lat="31.7520700" lon="35.1285900">
<ele>728.480042</ele>
<time>2023-01-25T13:56:44.075Z</time>
</trkpt>
<trkpt lat="31.7521200" lon="35.1286400">
<ele>727.650024</ele>
<time>2023-01-25T13:56:44.075Z</time>
</trkpt>
<trkpt lat="31.7521200" lon="35.1286400">
<ele>727.650024</ele>
<time>2023-01-25T13:56:44.075Z</time>
</trkpt>
<trkpt lat="31.7521200" lon="35.1286400">
<ele>727.650024</ele>
<time>2023-01-25T13:56:44.076Z</time>
</trkpt>
<trkpt lat="31.7521200" lon="35.1286400">
<ele>727.650024</ele>
<time>2023-01-25T13:56:44.076Z</time>
</trkpt>
<trkpt lat="31.7521200" lon="35.1286400">
<ele>727.650024</ele>
<time>2023-01-25T13:56:44.076Z</time>
</trkpt>
<trkpt lat="31.7521200" lon="35.1286400">
<ele>727.650024</ele>
<time>2023-01-25T13:56:44.076Z</time>
</trkpt>
<trkpt lat="31.7521300" lon="35.1286500">
<ele>727.390015</ele>
<time>2023-01-25T13:56:44.076Z</time>
</trkpt>
<trkpt lat="31.7521300" lon="35.1286500">
<ele>727.390015</ele>
<time>2023-01-25T13:56:44.076Z</time>
</trkpt>
<trkpt lat="31.7521300" lon="35.1286500">
<ele>727.390015</ele>
<time>2023-01-25T13:56:44.076Z</time>
</trkpt>
<trkpt lat="31.7521300" lon="35.1286500">
<ele>727.390015</ele>
<time>2023-01-25T13:56:44.076Z</time>
</trkpt>
<trkpt lat="31.7521300" lon="35.1286500">
<ele>727.390015</ele>
<time>2023-01-25T13:56:44.076Z</time>
</trkpt>
<trkpt lat="31.7521300" lon="35.1286400">
<ele>727.549988</ele>
<time>2023-01-25T13:56:44.076Z</time>
</trkpt>
<trkpt lat="31.7521300" lon="35.1286400">
<ele>727.549988</ele>
<time>2023-01-25T13:56:44.076Z</time>
</trkpt>
<trkpt lat="31.7521300" lon="35.1286500">
<ele>727.390015</ele>
<time>2023-01-25T13:56:44.076Z</time>
</trkpt>
<trkpt lat="31.7521300" lon="35.1286500">
<ele>727.390015</ele>
<time>2023-01-25T13:56:44.076Z</time>
</trkpt>
<trkpt lat="31.7521200" lon="35.1286400">
<ele>727.650024</ele>
<time>2023-01-25T13:56:44.076Z</time>
</trkpt>
<trkpt lat="31.7520300" lon="35.1286100">
<ele>729.070007</ele>
<time>2023-01-25T13:56:44.076Z</time>
</trkpt>
<trkpt lat="31.7519300" lon="35.1285800">
<ele>729.679993</ele>
<time>2023-01-25T13:56:44.076Z</time>
</trkpt>
<trkpt lat="31.7518400" lon="35.1285600">
<ele>729.590027</ele>
<time>2023-01-25T13:56:44.076Z</time>
</trkpt>
<trkpt lat="31.7517500" lon="35.1285300">
<ele>729.530029</ele>
<time>2023-01-25T13:56:44.076Z</time>
</trkpt>
<trkpt lat="31.7516600" lon="35.1284900">
<ele>729.679993</ele>
<time>2023-01-25T13:56:44.076Z</time>
</trkpt>
<trkpt lat="31.7515600" lon="35.1284400">
<ele>730.979980</ele>
<time>2023-01-25T13:56:44.076Z</time>
</trkpt>
<trkpt lat="31.7514700" lon="35.1283800">
<ele>731.650024</ele>
<time>2023-01-25T13:56:44.076Z</time>
</trkpt>
<trkpt lat="31.7513900" lon="35.1283000">
<ele>731.750000</ele>
<time>2023-01-25T13:56:44.076Z</time>
</trkpt>
<trkpt lat="31.7512900" lon="35.1282100">
<ele>732.179993</ele>
<time>2023-01-25T13:56:44.076Z</time>
</trkpt>
<trkpt lat="31.7511900" lon="35.1281300">
<ele>732.679993</ele>
<time>2023-01-25T13:56:44.076Z</time>
</trkpt>
<trkpt lat="31.7511100" lon="35.1280800">
<ele>733.169983</ele>
<time>2023-01-25T13:56:44.076Z</time>
</trkpt>
<trkpt lat="31.7510400" lon="35.1280000">
<ele>731.989990</ele>
<time>2023-01-25T13:56:44.076Z</time>
</trkpt>
<trkpt lat="31.7509900" lon="35.1278900">
<ele>730.419983</ele>
<time>2023-01-25T13:56:44.076Z</time>
</trkpt>
<trkpt lat="31.7509400" lon="35.1277700">
<ele>728.560059</ele>
<time>2023-01-25T13:56:44.076Z</time>
</trkpt>
<trkpt lat="31.7509200" lon="35.1276300">
<ele>728.809998</ele>
<time>2023-01-25T13:56:44.076Z</time>
</trkpt>
<trkpt lat="31.7508600" lon="35.1275000">
<ele>729.099976</ele>
<time>2023-01-25T13:56:44.076Z</time>
</trkpt>
<trkpt lat="31.7508100" lon="35.1273700">
<ele>728.350037</ele>
<time>2023-01-25T13:56:44.077Z</time>
</trkpt>
<trkpt lat="31.7508400" lon="35.1272700">
<ele>728.280029</ele>
<time>2023-01-25T13:56:44.077Z</time>
</trkpt>
<trkpt lat="31.7508600" lon="35.1272500">
<ele>728.540039</ele>
<time>2023-01-25T13:56:44.077Z</time>
</trkpt>
<trkpt lat="31.7508600" lon="35.1272400">
<ele>728.520020</ele>
<time>2023-01-25T13:56:44.077Z</time>
</trkpt>
<trkpt lat="31.7508600" lon="35.1272400">
<ele>728.520020</ele>
<time>2023-01-25T13:56:44.077Z</time>
</trkpt>
<trkpt lat="31.7508600" lon="35.1272400">
<ele>728.520020</ele>
<time>2023-01-25T13:56:44.077Z</time>
</trkpt>
<trkpt lat="31.7508600" lon="35.1272400">
<ele>728.520020</ele>
<time>2023-01-25T13:56:44.077Z</time>
</trkpt>
<trkpt lat="31.7508600" lon="35.1272400">
<ele>728.520020</ele>
<time>2023-01-25T13:56:44.077Z</time>
</trkpt>
<trkpt lat="31.7508600" lon="35.1272400">
<ele>728.520020</ele>
<time>2023-01-25T13:56:44.077Z</time>
</trkpt>
<trkpt lat="31.7508600" lon="35.1272400">
<ele>728.520020</ele>
<time>2023-01-25T13:56:44.077Z</time>
</trkpt>
<trkpt lat="31.7508600" lon="35.1272400">
<ele>728.520020</ele>
<time>2023-01-25T13:56:44.077Z</time>
</trkpt>
<trkpt lat="31.7508600" lon="35.1272400">
<ele>728.520020</ele>
<time>2023-01-25T13:56:44.077Z</time>
</trkpt>
<trkpt lat="31.7508600" lon="35.1272400">
<ele>728.520020</ele>
<time>2023-01-25T13:56:44.077Z</time>
</trkpt>
<trkpt lat="31.7508700" lon="35.1272500">
<ele>728.709961</ele>
<time>2023-01-25T13:56:44.077Z</time>
</trkpt>
<trkpt lat="31.7509600" lon="35.1272300">
<ele>730.260010</ele>
<time>2023-01-25T13:56:44.077Z</time>
</trkpt>
<trkpt lat="31.7510600" lon="35.1272400">
<ele>731.940002</ele>
<time>2023-01-25T13:56:44.077Z</time>
</trkpt>
<trkpt lat="31.7511500" lon="35.1272400">
<ele>732.270020</ele>
<time>2023-01-25T13:56:44.077Z</time>
</trkpt>
<trkpt lat="31.7511800" lon="35.1272600">
<ele>731.670044</ele>
<time>2023-01-25T13:56:44.077Z</time>
</trkpt>
<trkpt lat="31.7511800" lon="35.1272600">
<ele>731.670044</ele>
<time>2023-01-25T13:56:44.077Z</time>
</trkpt>
<trkpt lat="31.7511800" lon="35.1272600">
<ele>731.670044</ele>
<time>2023-01-25T13:56:44.077Z</time>
</trkpt>
<trkpt lat="31.7511800" lon="35.1272600">
<ele>731.670044</ele>
<time>2023-01-25T13:56:44.077Z</time>
</trkpt>
<trkpt lat="31.7511800" lon="35.1272600">
<ele>731.670044</ele>
<time>2023-01-25T13:56:44.077Z</time>
</trkpt>
<trkpt lat="31.7511800" lon="35.1272600">
<ele>731.670044</ele>
<time>2023-01-25T13:56:44.077Z</time>
</trkpt>
<trkpt lat="31.7511800" lon="35.1272600">
<ele>731.670044</ele>
<time>2023-01-25T13:56:44.077Z</time>
</trkpt>
<trkpt lat="31.7511800" lon="35.1272500">
<ele>731.760010</ele>
<time>2023-01-25T13:56:44.077Z</time>
</trkpt>
<trkpt lat="31.7511800" lon="35.1272500">
<ele>731.760010</ele>
<time>2023-01-25T13:56:44.077Z</time>
</trkpt>
<trkpt lat="31.7511800" lon="35.1272500">
<ele>731.760010</ele>
<time>2023-01-25T13:56:44.077Z</time>
</trkpt>
<trkpt lat="31.7511800" lon="35.1272500">
<ele>731.760010</ele>
<time>2023-01-25T13:56:44.077Z</time>
</trkpt>
<trkpt lat="31.7511800" lon="35.1272500">
<ele>731.760010</ele>
<time>2023-01-25T13:56:44.077Z</time>
</trkpt>
<trkpt lat="31.7511800" lon="35.1272500">
<ele>731.760010</ele>
<time>2023-01-25T13:56:44.077Z</time>
</trkpt>
<trkpt lat="31.7511800" lon="35.1272500">
<ele>731.760010</ele>
<time>2023-01-25T13:56:44.077Z</time>
</trkpt>
<trkpt lat="31.7511800" lon="35.1272400">
<ele>731.850037</ele>
<time>2023-01-25T13:56:44.078Z</time>
</trkpt>
<trkpt lat="31.7511700" lon="35.1272400">
<ele>731.989990</ele>
<time>2023-01-25T13:56:44.078Z</time>
</trkpt>
<trkpt lat="31.7511700" lon="35.1272300">
<ele>732.079956</ele>
<time>2023-01-25T13:56:44.078Z</time>
</trkpt>
<trkpt lat="31.7511700" lon="35.1272300">
<ele>732.079956</ele>
<time>2023-01-25T13:56:44.078Z</time>
</trkpt>
<trkpt lat="31.7511700" lon="35.1272300">
<ele>732.079956</ele>
<time>2023-01-25T13:56:44.078Z</time>
</trkpt>
<trkpt lat="31.7511700" lon="35.1272300">
<ele>732.079956</ele>
<time>2023-01-25T13:56:44.078Z</time>
</trkpt>
<trkpt lat="31.7511800" lon="35.1271200">
<ele>732.370056</ele>
<time>2023-01-25T13:56:44.078Z</time>
</trkpt>
<trkpt lat="31.7512000" lon="35.1269900">
<ele>732.790039</ele>
<time>2023-01-25T13:56:44.078Z</time>
</trkpt>
<trkpt lat="31.7512200" lon="35.1268800">
<ele>734.300049</ele>
<time>2023-01-25T13:56:44.078Z</time>
</trkpt>
<trkpt lat="31.7512700" lon="35.1267800">
<ele>736.210022</ele>
<time>2023-01-25T13:56:44.078Z</time>
</trkpt>
<trkpt lat="31.7512900" lon="35.1266700">
<ele>738.289978</ele>
<time>2023-01-25T13:56:44.078Z</time>
</trkpt>
<trkpt lat="31.7512700" lon="35.1265500">
<ele>739.390015</ele>
<time>2023-01-25T13:56:44.078Z</time>
</trkpt>
<trkpt lat="31.7512600" lon="35.1264400">
<ele>740.419983</ele>
<time>2023-01-25T13:56:44.078Z</time>
</trkpt>
<trkpt lat="31.7513000" lon="35.1263400">
<ele>740.689941</ele>
<time>2023-01-25T13:56:44.078Z</time>
</trkpt>
<trkpt lat="31.7513300" lon="35.1262400">
<ele>741.029968</ele>
<time>2023-01-25T13:56:44.078Z</time>
</trkpt>
<trkpt lat="31.7513700" lon="35.1261400">
<ele>741.119995</ele>
<time>2023-01-25T13:56:44.078Z</time>
</trkpt>
<trkpt lat="31.7514100" lon="35.1260100">
<ele>740.650024</ele>
<time>2023-01-25T13:56:44.078Z</time>
</trkpt>
<trkpt lat="31.7514300" lon="35.1259100">
<ele>740.369995</ele>
<time>2023-01-25T13:56:44.078Z</time>
</trkpt>
<trkpt lat="31.7514500" lon="35.1258000">
<ele>739.950012</ele>
<time>2023-01-25T13:56:44.078Z</time>
</trkpt>
<trkpt lat="31.7515000" lon="35.1256900">
<ele>738.469971</ele>
<time>2023-01-25T13:56:44.078Z</time>
</trkpt>
<trkpt lat="31.7515500" lon="35.1256000">
<ele>736.869995</ele>
<time>2023-01-25T13:56:44.078Z</time>
</trkpt>
<trkpt lat="31.7516100" lon="35.1254900">
<ele>735.409973</ele>
<time>2023-01-25T13:56:44.078Z</time>
</trkpt>
<trkpt lat="31.7516600" lon="35.1253700">
<ele>734.800049</ele>
<time>2023-01-25T13:56:44.078Z</time>
</trkpt>
<trkpt lat="31.7516800" lon="35.1252500">
<ele>735.159973</ele>
<time>2023-01-25T13:56:44.078Z</time>
</trkpt>
<trkpt lat="31.7517200" lon="35.1251300">
<ele>736.210022</ele>
<time>2023-01-25T13:56:44.078Z</time>
</trkpt>
<trkpt lat="31.7517500" lon="35.1249900">
<ele>737.709961</ele>
<time>2023-01-25T13:56:44.078Z</time>
</trkpt>
<trkpt lat="31.7517900" lon="35.1248800">
<ele>737.599976</ele>
<time>2023-01-25T13:56:44.078Z</time>
</trkpt>
<trkpt lat="31.7518600" lon="35.1247500">
<ele>736.149963</ele>
<time>2023-01-25T13:56:44.078Z</time>
</trkpt>
<trkpt lat="31.7519000" lon="35.1246100">
<ele>735.440002</ele>
<time>2023-01-25T13:56:44.078Z</time>
</trkpt>
<trkpt lat="31.7519300" lon="35.1244600">
<ele>735.359985</ele>
<time>2023-01-25T13:56:44.078Z</time>
</trkpt>
<trkpt lat="31.7519300" lon="35.1243300">
<ele>739.219971</ele>
<time>2023-01-25T13:56:44.079Z</time>
</trkpt>
<trkpt lat="31.7519500" lon="35.1241900">
<ele>743.070007</ele>
<time>2023-01-25T13:56:44.079Z</time>
</trkpt>
<trkpt lat="31.7519700" lon="35.1240900">
<ele>745.329956</ele>
<time>2023-01-25T13:56:44.079Z</time>
</trkpt>
<trkpt lat="31.7520100" lon="35.1239600">
<ele>747.480042</ele>
<time>2023-01-25T13:56:44.079Z</time>
</trkpt>
<trkpt lat="31.7520500" lon="35.1238500">
<ele>748.450012</ele>
<time>2023-01-25T13:56:44.079Z</time>
</trkpt>
<trkpt lat="31.7521200" lon="35.1237500">
<ele>747.809998</ele>
<time>2023-01-25T13:56:44.079Z</time>
</trkpt>
<trkpt lat="31.7522000" lon="35.1236900">
<ele>746.659973</ele>
<time>2023-01-25T13:56:44.079Z</time>
</trkpt>
<trkpt lat="31.7522700" lon="35.1236200">
<ele>745.550049</ele>
<time>2023-01-25T13:56:44.079Z</time>
</trkpt>
<trkpt lat="31.7523400" lon="35.1235300">
<ele>742.940002</ele>
<time>2023-01-25T13:56:44.079Z</time>
</trkpt>
<trkpt lat="31.7524000" lon="35.1234300">
<ele>741.530029</ele>
<time>2023-01-25T13:56:44.079Z</time>
</trkpt>
<trkpt lat="31.7524400" lon="35.1233200">
<ele>741.409973</ele>
<time>2023-01-25T13:56:44.079Z</time>
</trkpt>
<trkpt lat="31.7524500" lon="35.1232000">
<ele>740.210022</ele>
<time>2023-01-25T13:56:44.079Z</time>
</trkpt>
<trkpt lat="31.7524400" lon="35.1230900">
<ele>739.569946</ele>
<time>2023-01-25T13:56:44.079Z</time>
</trkpt>
<trkpt lat="31.7524400" lon="35.1229500">
<ele>739.679993</ele>
<time>2023-01-25T13:56:44.079Z</time>
</trkpt>
<trkpt lat="31.7524300" lon="35.1228300">
<ele>740.320007</ele>
<time>2023-01-25T13:56:44.079Z</time>
</trkpt>
<trkpt lat="31.7523400" lon="35.1227200">
<ele>741.950012</ele>
<time>2023-01-25T13:56:44.079Z</time>
</trkpt>
<trkpt lat="31.7522400" lon="35.1226600">
<ele>742.660034</ele>
<time>2023-01-25T13:56:44.079Z</time>
</trkpt>
<trkpt lat="31.7521500" lon="35.1225800">
<ele>743.039978</ele>
<time>2023-01-25T13:56:44.079Z</time>
</trkpt>
<trkpt lat="31.7520900" lon="35.1225000">
<ele>743.330017</ele>
<time>2023-01-25T13:56:44.079Z</time>
</trkpt>
<trkpt lat="31.7520200" lon="35.1224100">
<ele>743.419983</ele>
<time>2023-01-25T13:56:44.079Z</time>
</trkpt>
<trkpt lat="31.7519200" lon="35.1223400">
<ele>743.590027</ele>
<time>2023-01-25T13:56:44.079Z</time>
</trkpt>
<trkpt lat="31.7518400" lon="35.1222700">
<ele>742.340027</ele>
<time>2023-01-25T13:56:44.079Z</time>
</trkpt>
<trkpt lat="31.7517600" lon="35.1221900">
<ele>741.119995</ele>
<time>2023-01-25T13:56:44.079Z</time>
</trkpt>
<trkpt lat="31.7516400" lon="35.1221300">
<ele>740.150024</ele>
<time>2023-01-25T13:56:44.079Z</time>
</trkpt>
<trkpt lat="31.7515200" lon="35.1221100">
<ele>738.920044</ele>
<time>2023-01-25T13:56:44.079Z</time>
</trkpt>
<trkpt lat="31.7514100" lon="35.1221100">
<ele>738.130005</ele>
<time>2023-01-25T13:56:44.079Z</time>
</trkpt>
<trkpt lat="31.7513200" lon="35.1221200">
<ele>737.760010</ele>
<time>2023-01-25T13:56:44.079Z</time>
</trkpt>
<trkpt lat="31.7512100" lon="35.1221200">
<ele>737.109985</ele>
<time>2023-01-25T13:56:44.079Z</time>
</trkpt>
<trkpt lat="31.7510900" lon="35.1220800">
<ele>736.019958</ele>
<time>2023-01-25T13:56:44.079Z</time>
</trkpt>
<trkpt lat="31.7510000" lon="35.1220500">
<ele>735.729980</ele>
<time>2023-01-25T13:56:44.079Z</time>
</trkpt>
<trkpt lat="31.7509100" lon="35.1220200">
<ele>735.149963</ele>
<time>2023-01-25T13:56:44.079Z</time>
</trkpt>
<trkpt lat="31.7508100" lon="35.1219700">
<ele>734.130005</ele>
<time>2023-01-25T13:56:44.080Z</time>
</trkpt>
<trkpt lat="31.7508000" lon="35.1219100">
<ele>733.429993</ele>
<time>2023-01-25T13:56:44.080Z</time>
</trkpt>
<trkpt lat="31.7508000" lon="35.1219100">
<ele>733.429993</ele>
<time>2023-01-25T13:56:44.080Z</time>
</trkpt>
<trkpt lat="31.7509000" lon="35.1218800">
<ele>732.900024</ele>
<time>2023-01-25T13:56:44.080Z</time>
</trkpt>
<trkpt lat="31.7509900" lon="35.1218900">
<ele>733.149963</ele>
<time>2023-01-25T13:56:44.080Z</time>
</trkpt>
<trkpt lat="31.7511100" lon="35.1218700">
<ele>733.190002</ele>
<time>2023-01-25T13:56:44.080Z</time>
</trkpt>
<trkpt lat="31.7512000" lon="35.1218100">
<ele>732.710022</ele>
<time>2023-01-25T13:56:44.080Z</time>
</trkpt>
<trkpt lat="31.7513100" lon="35.1217500">
<ele>732.110046</ele>
<time>2023-01-25T13:56:44.080Z</time>
</trkpt>
<trkpt lat="31.7514300" lon="35.1217000">
<ele>731.650024</ele>
<time>2023-01-25T13:56:44.080Z</time>
</trkpt>
<trkpt lat="31.7515300" lon="35.1216500">
<ele>731.330017</ele>
<time>2023-01-25T13:56:44.080Z</time>
</trkpt>
<trkpt lat="31.7516300" lon="35.1215900">
<ele>731.040039</ele>
<time>2023-01-25T13:56:44.081Z</time>
</trkpt>
<trkpt lat="31.7517400" lon="35.1215700">
<ele>730.509949</ele>
<time>2023-01-25T13:56:44.081Z</time>
</trkpt>
<trkpt lat="31.7517200" lon="35.1214500">
<ele>729.169983</ele>
<time>2023-01-25T13:56:44.081Z</time>
</trkpt>
<trkpt lat="31.7516300" lon="35.1214100">
<ele>729.099976</ele>
<time>2023-01-25T13:56:44.081Z</time>
</trkpt>
<trkpt lat="31.7515400" lon="35.1213700">
<ele>728.139954</ele>
<time>2023-01-25T13:56:44.081Z</time>
</trkpt>
<trkpt lat="31.7514300" lon="35.1213200">
<ele>726.660034</ele>
<time>2023-01-25T13:56:44.081Z</time>
</trkpt>
<trkpt lat="31.7513500" lon="35.1212700">
<ele>725.549988</ele>
<time>2023-01-25T13:56:44.081Z</time>
</trkpt>
<trkpt lat="31.7512600" lon="35.1212200">
<ele>724.919983</ele>
<time>2023-01-25T13:56:44.081Z</time>
</trkpt>
<trkpt lat="31.7511600" lon="35.1211700">
<ele>724.570007</ele>
<time>2023-01-25T13:56:44.081Z</time>
</trkpt>
<trkpt lat="31.7510600" lon="35.1211300">
<ele>724.809998</ele>
<time>2023-01-25T13:56:44.081Z</time>
</trkpt>
<trkpt lat="31.7509700" lon="35.1210700">
<ele>724.789978</ele>
<time>2023-01-25T13:56:44.081Z</time>
</trkpt>
<trkpt lat="31.7509000" lon="35.1210000">
<ele>724.490051</ele>
<time>2023-01-25T13:56:44.081Z</time>
</trkpt>
<trkpt lat="31.7508100" lon="35.1209100">
<ele>724.570007</ele>
<time>2023-01-25T13:56:44.081Z</time>
</trkpt>
<trkpt lat="31.7507200" lon="35.1208000">
<ele>723.750000</ele>
<time>2023-01-25T13:56:44.081Z</time>
</trkpt>
<trkpt lat="31.7506300" lon="35.1207300">
<ele>723.010010</ele>
<time>2023-01-25T13:56:44.081Z</time>
</trkpt>
<trkpt lat="31.7505300" lon="35.1206700">
<ele>723.680054</ele>
<time>2023-01-25T13:56:44.081Z</time>
</trkpt>
<trkpt lat="31.7504500" lon="35.1206000">
<ele>724.559998</ele>
<time>2023-01-25T13:56:44.081Z</time>
</trkpt>
<trkpt lat="31.7503900" lon="35.1205100">
<ele>723.920044</ele>
<time>2023-01-25T13:56:44.081Z</time>
</trkpt>
<trkpt lat="31.7503500" lon="35.1204100">
<ele>721.899963</ele>
<time>2023-01-25T13:56:44.082Z</time>
</trkpt>
<trkpt lat="31.7503500" lon="35.1203100">
<ele>718.299988</ele>
<time>2023-01-25T13:56:44.082Z</time>
</trkpt>
<trkpt lat="31.7503300" lon="35.1201900">
<ele>715.859985</ele>
<time>2023-01-25T13:56:44.082Z</time>
</trkpt>
<trkpt lat="31.7502900" lon="35.1200700">
<ele>714.929993</ele>
<time>2023-01-25T13:56:44.082Z</time>
</trkpt>
<trkpt lat="31.7502600" lon="35.1199400">
<ele>713.229980</ele>
<time>2023-01-25T13:56:44.082Z</time>
</trkpt>
<trkpt lat="31.7502100" lon="35.1198300">
<ele>712.850037</ele>
<time>2023-01-25T13:56:44.082Z</time>
</trkpt>
<trkpt lat="31.7501600" lon="35.1197100">
<ele>712.510010</ele>
<time>2023-01-25T13:56:44.082Z</time>
</trkpt>
<trkpt lat="31.7501100" lon="35.1196100">
<ele>711.659973</ele>
<time>2023-01-25T13:56:44.082Z</time>
</trkpt>
<trkpt lat="31.7500700" lon="35.1195100">
<ele>710.400024</ele>
<time>2023-01-25T13:56:44.082Z</time>
</trkpt>
<trkpt lat="31.7500100" lon="35.1194300">
<ele>710.989990</ele>
<time>2023-01-25T13:56:44.082Z</time>
</trkpt>
<trkpt lat="31.7499500" lon="35.1193400">
<ele>710.660034</ele>
<time>2023-01-25T13:56:44.082Z</time>
</trkpt>
<trkpt lat="31.7499000" lon="35.1192500">
<ele>709.910034</ele>
<time>2023-01-25T13:56:44.082Z</time>
</trkpt>
<trkpt lat="31.7498300" lon="35.1191100">
<ele>708.789978</ele>
<time>2023-01-25T13:56:44.083Z</time>
</trkpt>
<trkpt lat="31.7497800" lon="35.1190000">
<ele>707.829956</ele>
<time>2023-01-25T13:56:44.083Z</time>
</trkpt>
<trkpt lat="31.7497200" lon="35.1188900">
<ele>707.129944</ele>
<time>2023-01-25T13:56:44.083Z</time>
</trkpt>
<trkpt lat="31.7496500" lon="35.1188100">
<ele>708.059998</ele>
<time>2023-01-25T13:56:44.083Z</time>
</trkpt>
<trkpt lat="31.7496000" lon="35.1187300">
<ele>708.019958</ele>
<time>2023-01-25T13:56:44.083Z</time>
</trkpt>
<trkpt lat="31.7495800" lon="35.1186100">
<ele>705.600037</ele>
<time>2023-01-25T13:56:44.083Z</time>
</trkpt>
<trkpt lat="31.7495500" lon="35.1185000">
<ele>703.960022</ele>
<time>2023-01-25T13:56:44.083Z</time>
</trkpt>
<trkpt lat="31.7495100" lon="35.1183600">
<ele>702.340027</ele>
<time>2023-01-25T13:56:44.083Z</time>
</trkpt>
<trkpt lat="31.7495100" lon="35.1182100">
<ele>700.489990</ele>
<time>2023-01-25T13:56:44.083Z</time>
</trkpt>
<trkpt lat="31.7495100" lon="35.1181100">
<ele>699.520020</ele>
<time>2023-01-25T13:56:44.083Z</time>
</trkpt>
<trkpt lat="31.7495100" lon="35.1179800">
<ele>697.289978</ele>
<time>2023-01-25T13:56:44.083Z</time>
</trkpt>
<trkpt lat="31.7495000" lon="35.1178500">
<ele>695.010010</ele>
<time>2023-01-25T13:56:44.084Z</time>
</trkpt>
<trkpt lat="31.7494700" lon="35.1177200">
<ele>694.489990</ele>
<time>2023-01-25T13:56:44.084Z</time>
</trkpt>
<trkpt lat="31.7494300" lon="35.1176200">
<ele>695.409973</ele>
<time>2023-01-25T13:56:44.084Z</time>
</trkpt>
<trkpt lat="31.7493800" lon="35.1175300">
<ele>696.630005</ele>
<time>2023-01-25T13:56:44.084Z</time>
</trkpt>
<trkpt lat="31.7493400" lon="35.1174100">
<ele>696.399963</ele>
<time>2023-01-25T13:56:44.084Z</time>
</trkpt>
<trkpt lat="31.7492900" lon="35.1173100">
<ele>696.600037</ele>
<time>2023-01-25T13:56:44.084Z</time>
</trkpt>
<trkpt lat="31.7492500" lon="35.1172100">
<ele>696.139954</ele>
<time>2023-01-25T13:56:44.084Z</time>
</trkpt>
<trkpt lat="31.7491700" lon="35.1171200">
<ele>697.649963</ele>
<time>2023-01-25T13:56:44.084Z</time>
</trkpt>
<trkpt lat="31.7491100" lon="35.1170400">
<ele>698.989990</ele>
<time>2023-01-25T13:56:44.084Z</time>
</trkpt>
<trkpt lat="31.7491000" lon="35.1169300">
<ele>696.949951</ele>
<time>2023-01-25T13:56:44.084Z</time>
</trkpt>
<trkpt lat="31.7490800" lon="35.1168300">
<ele>694.969971</ele>
<time>2023-01-25T13:56:44.084Z</time>
</trkpt>
<trkpt lat="31.7490200" lon="35.1167300">
<ele>694.359985</ele>
<time>2023-01-25T13:56:44.084Z</time>
</trkpt>
<trkpt lat="31.7489400" lon="35.1166600">
<ele>694.929993</ele>
<time>2023-01-25T13:56:44.085Z</time>
</trkpt>
<trkpt lat="31.7488900" lon="35.1165400">
<ele>692.409973</ele>
<time>2023-01-25T13:56:44.085Z</time>
</trkpt>
<trkpt lat="31.7488200" lon="35.1164500">
<ele>690.880005</ele>
<time>2023-01-25T13:56:44.085Z</time>
</trkpt>
<trkpt lat="31.7487900" lon="35.1163500">
<ele>688.469971</ele>
<time>2023-01-25T13:56:44.085Z</time>
</trkpt>
<trkpt lat="31.7487300" lon="35.1162500">
<ele>687.579956</ele>
<time>2023-01-25T13:56:44.085Z</time>
</trkpt>
<trkpt lat="31.7486500" lon="35.1161400">
<ele>687.390015</ele>
<time>2023-01-25T13:56:44.085Z</time>
</trkpt>
<trkpt lat="31.7486000" lon="35.1160600">
<ele>687.850037</ele>
<time>2023-01-25T13:56:44.085Z</time>
</trkpt>
<trkpt lat="31.7485400" lon="35.1159800">
<ele>689.140015</ele>
<time>2023-01-25T13:56:44.085Z</time>
</trkpt>
<trkpt lat="31.7484900" lon="35.1158500">
<ele>689.539978</ele>
<time>2023-01-25T13:56:44.085Z</time>
</trkpt>
<trkpt lat="31.7485200" lon="35.1157400">
<ele>686.940002</ele>
<time>2023-01-25T13:56:44.085Z</time>
</trkpt>
<trkpt lat="31.7485600" lon="35.1156200">
<ele>683.769958</ele>
<time>2023-01-25T13:56:44.085Z</time>
</trkpt>
<trkpt lat="31.7485100" lon="35.1155100">
<ele>683.719971</ele>
<time>2023-01-25T13:56:44.085Z</time>
</trkpt>
<trkpt lat="31.7484700" lon="35.1153800">
<ele>682.610046</ele>
<time>2023-01-25T13:56:44.085Z</time>
</trkpt>
<trkpt lat="31.7484000" lon="35.1152700">
<ele>683.149963</ele>
<time>2023-01-25T13:56:44.085Z</time>
</trkpt>
<trkpt lat="31.7483200" lon="35.1152000">
<ele>684.520020</ele>
<time>2023-01-25T13:56:44.085Z</time>
</trkpt>
<trkpt lat="31.7482500" lon="35.1151100">
<ele>684.770020</ele>
<time>2023-01-25T13:56:44.085Z</time>
</trkpt>
<trkpt lat="31.7482100" lon="35.1150200">
<ele>683.940002</ele>
<time>2023-01-25T13:56:44.085Z</time>
</trkpt>
<trkpt lat="31.7481300" lon="35.1149500">
<ele>685.020020</ele>
<time>2023-01-25T13:56:44.085Z</time>
</trkpt>
<trkpt lat="31.7480500" lon="35.1148900">
<ele>685.859985</ele>
<time>2023-01-25T13:56:44.085Z</time>
</trkpt>
<trkpt lat="31.7479500" lon="35.1148500">
<ele>685.270020</ele>
<time>2023-01-25T13:56:44.086Z</time>
</trkpt>
<trkpt lat="31.7478600" lon="35.1148600">
<ele>686.030029</ele>
<time>2023-01-25T13:56:44.086Z</time>
</trkpt>
<trkpt lat="31.7477600" lon="35.1148300">
<ele>685.599976</ele>
<time>2023-01-25T13:56:44.086Z</time>
</trkpt>
<trkpt lat="31.7476600" lon="35.1148500">
<ele>685.409973</ele>
<time>2023-01-25T13:56:44.086Z</time>
</trkpt>
<trkpt lat="31.7475600" lon="35.1148900">
<ele>685.500061</ele>
<time>2023-01-25T13:56:44.086Z</time>
</trkpt>
<trkpt lat="31.7476000" lon="35.1147800">
<ele>683.549988</ele>
<time>2023-01-25T13:56:44.086Z</time>
</trkpt>
<trkpt lat="31.7477100" lon="35.1147500">
<ele>683.409973</ele>
<time>2023-01-25T13:56:44.086Z</time>
</trkpt>
<trkpt lat="31.7478100" lon="35.1147100">
<ele>682.510010</ele>
<time>2023-01-25T13:56:44.086Z</time>
</trkpt>
<trkpt lat="31.7477800" lon="35.1146100">
<ele>680.559998</ele>
<time>2023-01-25T13:56:44.086Z</time>
</trkpt>
<trkpt lat="31.7477000" lon="35.1145500">
<ele>679.169983</ele>
<time>2023-01-25T13:56:44.086Z</time>
</trkpt>
<trkpt lat="31.7476000" lon="35.1144900">
<ele>677.880066</ele>
<time>2023-01-25T13:56:44.086Z</time>
</trkpt>
<trkpt lat="31.7475000" lon="35.1144800">
<ele>677.639954</ele>
<time>2023-01-25T13:56:44.086Z</time>
</trkpt>
<trkpt lat="31.7474100" lon="35.1145100">
<ele>677.529968</ele>
<time>2023-01-25T13:56:44.086Z</time>
</trkpt>
<trkpt lat="31.7473000" lon="35.1145300">
<ele>677.100037</ele>
<time>2023-01-25T13:56:44.086Z</time>
</trkpt>
<trkpt lat="31.7472000" lon="35.1146100">
<ele>678.000000</ele>
<time>2023-01-25T13:56:44.086Z</time>
</trkpt>
<trkpt lat="31.7471000" lon="35.1146600">
<ele>679.119995</ele>
<time>2023-01-25T13:56:44.086Z</time>
</trkpt>
<trkpt lat="31.7470000" lon="35.1145900">
<ele>677.659973</ele>
<time>2023-01-25T13:56:44.086Z</time>
</trkpt>
<trkpt lat="31.7470000" lon="35.1144600">
<ele>674.570007</ele>
<time>2023-01-25T13:56:44.087Z</time>
</trkpt>
<trkpt lat="31.7470400" lon="35.1143400">
<ele>673.959961</ele>
<time>2023-01-25T13:56:44.087Z</time>
</trkpt>
<trkpt lat="31.7470600" lon="35.1142000">
<ele>673.320007</ele>
<time>2023-01-25T13:56:44.087Z</time>
</trkpt>
<trkpt lat="31.7471100" lon="35.1141000">
<ele>672.179993</ele>
<time>2023-01-25T13:56:44.087Z</time>
</trkpt>
<trkpt lat="31.7471900" lon="35.1140200">
<ele>671.459961</ele>
<time>2023-01-25T13:56:44.087Z</time>
</trkpt>
<trkpt lat="31.7472700" lon="35.1139400">
<ele>671.360046</ele>
<time>2023-01-25T13:56:44.087Z</time>
</trkpt>
<trkpt lat="31.7473400" lon="35.1138600">
<ele>671.249939</ele>
<time>2023-01-25T13:56:44.087Z</time>
</trkpt>
<trkpt lat="31.7474000" lon="35.1137600">
<ele>670.450012</ele>
<time>2023-01-25T13:56:44.087Z</time>
</trkpt>
<trkpt lat="31.7474600" lon="35.1136600">
<ele>669.029968</ele>
<time>2023-01-25T13:56:44.087Z</time>
</trkpt>
<trkpt lat="31.7474800" lon="35.1135500">
<ele>668.609985</ele>
<time>2023-01-25T13:56:44.087Z</time>
</trkpt>
<trkpt lat="31.7474700" lon="35.1134400">
<ele>669.359985</ele>
<time>2023-01-25T13:56:44.087Z</time>
</trkpt>
<trkpt lat="31.7473900" lon="35.1133400">
<ele>669.980042</ele>
<time>2023-01-25T13:56:44.087Z</time>
</trkpt>
<trkpt lat="31.7472900" lon="35.1133200">
<ele>670.160034</ele>
<time>2023-01-25T13:56:44.087Z</time>
</trkpt>
<trkpt lat="31.7472000" lon="35.1133400">
<ele>670.179993</ele>
<time>2023-01-25T13:56:44.087Z</time>
</trkpt>
<trkpt lat="31.7471500" lon="35.1134400">
<ele>670.500000</ele>
<time>2023-01-25T13:56:44.087Z</time>
</trkpt>
<trkpt lat="31.7471000" lon="35.1135600">
<ele>670.260010</ele>
<time>2023-01-25T13:56:44.087Z</time>
</trkpt>
<trkpt lat="31.7470400" lon="35.1136600">
<ele>669.690002</ele>
<time>2023-01-25T13:56:44.087Z</time>
</trkpt>
<trkpt lat="31.7469500" lon="35.1137000">
<ele>669.040039</ele>
<time>2023-01-25T13:56:44.087Z</time>
</trkpt>
<trkpt lat="31.7468700" lon="35.1137600">
<ele>668.340027</ele>
<time>2023-01-25T13:56:44.087Z</time>
</trkpt>
<trkpt lat="31.7467900" lon="35.1138300">
<ele>667.770020</ele>
<time>2023-01-25T13:56:44.087Z</time>
</trkpt>
<trkpt lat="31.7467400" lon="35.1139100">
<ele>667.849976</ele>
<time>2023-01-25T13:56:44.087Z</time>
</trkpt>
<trkpt lat="31.7466900" lon="35.1140100">
<ele>668.949951</ele>
<time>2023-01-25T13:56:44.087Z</time>
</trkpt>
<trkpt lat="31.7466200" lon="35.1140900">
<ele>668.809998</ele>
<time>2023-01-25T13:56:44.087Z</time>
</trkpt>
<trkpt lat="31.7465400" lon="35.1141600">
<ele>667.730042</ele>
<time>2023-01-25T13:56:44.087Z</time>
</trkpt>
<trkpt lat="31.7464600" lon="35.1142500">
<ele>666.770020</ele>
<time>2023-01-25T13:56:44.087Z</time>
</trkpt>
<trkpt lat="31.7464100" lon="35.1143700">
<ele>666.779968</ele>
<time>2023-01-25T13:56:44.087Z</time>
</trkpt>
<trkpt lat="31.7463800" lon="35.1144800">
<ele>667.380005</ele>
<time>2023-01-25T13:56:44.087Z</time>
</trkpt>
<trkpt lat="31.7462800" lon="35.1145200">
<ele>665.120056</ele>
<time>2023-01-25T13:56:44.087Z</time>
</trkpt>
<trkpt lat="31.7461700" lon="35.1146000">
<ele>663.049988</ele>
<time>2023-01-25T13:56:44.087Z</time>
</trkpt>
<trkpt lat="31.7460800" lon="35.1146800">
<ele>661.069946</ele>
<time>2023-01-25T13:56:44.088Z</time>
</trkpt>
<trkpt lat="31.7459900" lon="35.1147700">
<ele>658.780029</ele>
<time>2023-01-25T13:56:44.088Z</time>
</trkpt>
<trkpt lat="31.7459300" lon="35.1148800">
<ele>658.760010</ele>
<time>2023-01-25T13:56:44.088Z</time>
</trkpt>
<trkpt lat="31.7458400" lon="35.1149700">
<ele>657.489990</ele>
<time>2023-01-25T13:56:44.088Z</time>
</trkpt>
<trkpt lat="31.7457500" lon="35.1150400">
<ele>656.839966</ele>
<time>2023-01-25T13:56:44.088Z</time>
</trkpt>
<trkpt lat="31.7456500" lon="35.1150900">
<ele>655.409973</ele>
<time>2023-01-25T13:56:44.088Z</time>
</trkpt>
<trkpt lat="31.7455300" lon="35.1151500">
<ele>654.110046</ele>
<time>2023-01-25T13:56:44.088Z</time>
</trkpt>
<trkpt lat="31.7454000" lon="35.1151800">
<ele>653.469971</ele>
<time>2023-01-25T13:56:44.088Z</time>
</trkpt>
<trkpt lat="31.7453000" lon="35.1152100">
<ele>652.860046</ele>
<time>2023-01-25T13:56:44.088Z</time>
</trkpt>
<trkpt lat="31.7452000" lon="35.1151700">
<ele>653.200012</ele>
<time>2023-01-25T13:56:44.088Z</time>
</trkpt>
<trkpt lat="31.7452400" lon="35.1150800">
<ele>650.289978</ele>
<time>2023-01-25T13:56:44.088Z</time>
</trkpt>
<trkpt lat="31.7453300" lon="35.1150300">
<ele>648.920044</ele>
<time>2023-01-25T13:56:44.088Z</time>
</trkpt>
<trkpt lat="31.7454200" lon="35.1149800">
<ele>648.149963</ele>
<time>2023-01-25T13:56:44.088Z</time>
</trkpt>
<trkpt lat="31.7455000" lon="35.1149400">
<ele>647.720032</ele>
<time>2023-01-25T13:56:44.088Z</time>
</trkpt>
<trkpt lat="31.7456000" lon="35.1148900">
<ele>648.330017</ele>
<time>2023-01-25T13:56:44.088Z</time>
</trkpt>
<trkpt lat="31.7456800" lon="35.1148400">
<ele>649.639954</ele>
<time>2023-01-25T13:56:44.088Z</time>
</trkpt>
<trkpt lat="31.7457400" lon="35.1147300">
<ele>648.829956</ele>
<time>2023-01-25T13:56:44.088Z</time>
</trkpt>
<trkpt lat="31.7458300" lon="35.1146500">
<ele>650.140015</ele>
<time>2023-01-25T13:56:44.088Z</time>
</trkpt>
<trkpt lat="31.7458800" lon="35.1145600">
<ele>651.169983</ele>
<time>2023-01-25T13:56:44.088Z</time>
</trkpt>
<trkpt lat="31.7459100" lon="35.1144500">
<ele>651.099976</ele>
<time>2023-01-25T13:56:44.088Z</time>
</trkpt>
<trkpt lat="31.7459700" lon="35.1143400">
<ele>651.330017</ele>
<time>2023-01-25T13:56:44.088Z</time>
</trkpt>
<trkpt lat="31.7460200" lon="35.1142400">
<ele>651.979980</ele>
<time>2023-01-25T13:56:44.088Z</time>
</trkpt>
<trkpt lat="31.7461000" lon="35.1141500">
<ele>654.840027</ele>
<time>2023-01-25T13:56:44.088Z</time>
</trkpt>
<trkpt lat="31.7461700" lon="35.1140600">
<ele>654.809937</ele>
<time>2023-01-25T13:56:44.088Z</time>
</trkpt>
<trkpt lat="31.7462200" lon="35.1139600">
<ele>654.480042</ele>
<time>2023-01-25T13:56:44.089Z</time>
</trkpt>
<trkpt lat="31.7462600" lon="35.1138500">
<ele>654.400024</ele>
<time>2023-01-25T13:56:44.089Z</time>
</trkpt>
<trkpt lat="31.7463000" lon="35.1137500">
<ele>654.859985</ele>
<time>2023-01-25T13:56:44.089Z</time>
</trkpt>
<trkpt lat="31.7463700" lon="35.1136500">
<ele>656.739990</ele>
<time>2023-01-25T13:56:44.089Z</time>
</trkpt>
<trkpt lat="31.7464100" lon="35.1135200">
<ele>657.409973</ele>
<time>2023-01-25T13:56:44.089Z</time>
</trkpt>
<trkpt lat="31.7464200" lon="35.1133700">
<ele>657.330017</ele>
<time>2023-01-25T13:56:44.089Z</time>
</trkpt>
<trkpt lat="31.7464300" lon="35.1132500">
<ele>657.160034</ele>
<time>2023-01-25T13:56:44.089Z</time>
</trkpt>
<trkpt lat="31.7464200" lon="35.1131200">
<ele>655.950012</ele>
<time>2023-01-25T13:56:44.089Z</time>
</trkpt>
<trkpt lat="31.7464300" lon="35.1129900">
<ele>655.700012</ele>
<time>2023-01-25T13:56:44.089Z</time>
</trkpt>
<trkpt lat="31.7464100" lon="35.1128700">
<ele>653.880005</ele>
<time>2023-01-25T13:56:44.089Z</time>
</trkpt>
<trkpt lat="31.7463600" lon="35.1127600">
<ele>650.989990</ele>
<time>2023-01-25T13:56:44.089Z</time>
</trkpt>
<trkpt lat="31.7463200" lon="35.1126600">
<ele>649.130005</ele>
<time>2023-01-25T13:56:44.089Z</time>
</trkpt>
<trkpt lat="31.7462800" lon="35.1125300">
<ele>646.880005</ele>
<time>2023-01-25T13:56:44.089Z</time>
</trkpt>
<trkpt lat="31.7462600" lon="35.1124200">
<ele>646.200012</ele>
<time>2023-01-25T13:56:44.089Z</time>
</trkpt>
<trkpt lat="31.7462500" lon="35.1123000">
<ele>646.219971</ele>
<time>2023-01-25T13:56:44.089Z</time>
</trkpt>
<trkpt lat="31.7462400" lon="35.1121900">
<ele>645.979980</ele>
<time>2023-01-25T13:56:44.089Z</time>
</trkpt>
<trkpt lat="31.7462500" lon="35.1120800">
<ele>646.239990</ele>
<time>2023-01-25T13:56:44.089Z</time>
</trkpt>
<trkpt lat="31.7462200" lon="35.1120100">
<ele>644.799988</ele>
<time>2023-01-25T13:56:44.089Z</time>
</trkpt>
<trkpt lat="31.7462200" lon="35.1120100">
<ele>644.799988</ele>
<time>2023-01-25T13:56:44.089Z</time>
</trkpt>
<trkpt lat="31.7461700" lon="35.1118900">
<ele>641.440002</ele>
<time>2023-01-25T13:56:44.089Z</time>
</trkpt>
<trkpt lat="31.7461800" lon="35.1117600">
<ele>639.160034</ele>
<time>2023-01-25T13:56:44.089Z</time>
</trkpt>
<trkpt lat="31.7462000" lon="35.1116200">
<ele>636.710022</ele>
<time>2023-01-25T13:56:44.089Z</time>
</trkpt>
<trkpt lat="31.7462400" lon="35.1115000">
<ele>634.739990</ele>
<time>2023-01-25T13:56:44.089Z</time>
</trkpt>
<trkpt lat="31.7463100" lon="35.1113800">
<ele>633.100037</ele>
<time>2023-01-25T13:56:44.089Z</time>
</trkpt>
<trkpt lat="31.7463800" lon="35.1113000">
<ele>632.599976</ele>
<time>2023-01-25T13:56:44.089Z</time>
</trkpt>
<trkpt lat="31.7464400" lon="35.1112100">
<ele>632.169983</ele>
<time>2023-01-25T13:56:44.089Z</time>
</trkpt>
<trkpt lat="31.7464600" lon="35.1111000">
<ele>629.539978</ele>
<time>2023-01-25T13:56:44.089Z</time>
</trkpt>
<trkpt lat="31.7464700" lon="35.1110000">
<ele>627.459961</ele>
<time>2023-01-25T13:56:44.089Z</time>
</trkpt>
<trkpt lat="31.7465300" lon="35.1109000">
<ele>625.830017</ele>
<time>2023-01-25T13:56:44.089Z</time>
</trkpt>
<trkpt lat="31.7465900" lon="35.1107800">
<ele>623.650024</ele>
<time>2023-01-25T13:56:44.089Z</time>
</trkpt>
<trkpt lat="31.7466800" lon="35.1107000">
<ele>622.769958</ele>
<time>2023-01-25T13:56:44.090Z</time>
</trkpt>
<trkpt lat="31.7467900" lon="35.1106100">
<ele>621.859985</ele>
<time>2023-01-25T13:56:44.090Z</time>
</trkpt>
<trkpt lat="31.7468700" lon="35.1105600">
<ele>620.869995</ele>
<time>2023-01-25T13:56:44.092Z</time>
</trkpt>
<trkpt lat="31.7469500" lon="35.1105100">
<ele>620.230042</ele>
<time>2023-01-25T13:56:44.092Z</time>
</trkpt>
<trkpt lat="31.7470400" lon="35.1104600">
<ele>619.960022</ele>
<time>2023-01-25T13:56:44.092Z</time>
</trkpt>
<trkpt lat="31.7471200" lon="35.1104200">
<ele>619.529968</ele>
<time>2023-01-25T13:56:44.092Z</time>
</trkpt>
<trkpt lat="31.7472200" lon="35.1103300">
<ele>617.500000</ele>
<time>2023-01-25T13:56:44.092Z</time>
</trkpt>
<trkpt lat="31.7473400" lon="35.1102600">
<ele>616.529968</ele>
<time>2023-01-25T13:56:44.092Z</time>
</trkpt>
<trkpt lat="31.7474300" lon="35.1101600">
<ele>615.380005</ele>
<time>2023-01-25T13:56:44.092Z</time>
</trkpt>
<trkpt lat="31.7475200" lon="35.1100800">
<ele>614.570007</ele>
<time>2023-01-25T13:56:44.092Z</time>
</trkpt>
<trkpt lat="31.7476300" lon="35.1100200">
<ele>613.929993</ele>
<time>2023-01-25T13:56:44.092Z</time>
</trkpt>
<trkpt lat="31.7477300" lon="35.1099500">
<ele>613.409973</ele>
<time>2023-01-25T13:56:44.092Z</time>
</trkpt>
<trkpt lat="31.7478300" lon="35.1099000">
<ele>613.929993</ele>
<time>2023-01-25T13:56:44.092Z</time>
</trkpt>
<trkpt lat="31.7479300" lon="35.1098700">
<ele>614.559998</ele>
<time>2023-01-25T13:56:44.092Z</time>
</trkpt>
<trkpt lat="31.7480100" lon="35.1097700">
<ele>612.510010</ele>
<time>2023-01-25T13:56:44.092Z</time>
</trkpt>
<trkpt lat="31.7480900" lon="35.1097000">
<ele>611.280029</ele>
<time>2023-01-25T13:56:44.092Z</time>
</trkpt>
<trkpt lat="31.7482000" lon="35.1096300">
<ele>611.929993</ele>
<time>2023-01-25T13:56:44.092Z</time>
</trkpt>
<trkpt lat="31.7483100" lon="35.1095600">
<ele>612.169983</ele>
<time>2023-01-25T13:56:44.092Z</time>
</trkpt>
<trkpt lat="31.7484200" lon="35.1094900">
<ele>612.019958</ele>
<time>2023-01-25T13:56:44.092Z</time>
</trkpt>
<trkpt lat="31.7485100" lon="35.1094400">
<ele>611.820007</ele>
<time>2023-01-25T13:56:44.092Z</time>
</trkpt>
<trkpt lat="31.7485900" lon="35.1093700">
<ele>611.200012</ele>
<time>2023-01-25T13:56:44.092Z</time>
</trkpt>
<trkpt lat="31.7486500" lon="35.1092900">
<ele>610.080017</ele>
<time>2023-01-25T13:56:44.092Z</time>
</trkpt>
<trkpt lat="31.7487400" lon="35.1092500">
<ele>610.190002</ele>
<time>2023-01-25T13:56:44.092Z</time>
</trkpt>
<trkpt lat="31.7488400" lon="35.1092100">
<ele>610.409973</ele>
<time>2023-01-25T13:56:44.092Z</time>
</trkpt>
<trkpt lat="31.7489500" lon="35.1092000">
<ele>610.200012</ele>
<time>2023-01-25T13:56:44.092Z</time>
</trkpt>
<trkpt lat="31.7490400" lon="35.1092100">
<ele>609.589966</ele>
<time>2023-01-25T13:56:44.092Z</time>
</trkpt>
<trkpt lat="31.7491300" lon="35.1091400">
<ele>608.309998</ele>
<time>2023-01-25T13:56:44.093Z</time>
</trkpt>
<trkpt lat="31.7492000" lon="35.1090700">
<ele>608.190002</ele>
<time>2023-01-25T13:56:44.093Z</time>
</trkpt>
<trkpt lat="31.7492900" lon="35.1089800">
<ele>607.929993</ele>
<time>2023-01-25T13:56:44.093Z</time>
</trkpt>
<trkpt lat="31.7493400" lon="35.1088900">
<ele>607.750000</ele>
<time>2023-01-25T13:56:44.093Z</time>
</trkpt>
<trkpt lat="31.7494100" lon="35.1087900">
<ele>607.520020</ele>
<time>2023-01-25T13:56:44.093Z</time>
</trkpt>
<trkpt lat="31.7494900" lon="35.1086900">
<ele>607.690002</ele>
<time>2023-01-25T13:56:44.093Z</time>
</trkpt>
<trkpt lat="31.7495900" lon="35.1086400">
<ele>607.539978</ele>
<time>2023-01-25T13:56:44.093Z</time>
</trkpt>
<trkpt lat="31.7496600" lon="35.1085600">
<ele>607.309998</ele>
<time>2023-01-25T13:56:44.093Z</time>
</trkpt>
<trkpt lat="31.7496500" lon="35.1085100">
<ele>607.450012</ele>
<time>2023-01-25T13:56:44.093Z</time>
</trkpt>
<trkpt lat="31.7496500" lon="35.1085100">
<ele>607.450012</ele>
<time>2023-01-25T13:56:44.093Z</time>
</trkpt>
<trkpt lat="31.7496500" lon="35.1085000">
<ele>607.470032</ele>
<time>2023-01-25T13:56:44.093Z</time>
</trkpt>
<trkpt lat="31.7496500" lon="35.1085000">
<ele>607.470032</ele>
<time>2023-01-25T13:56:44.093Z</time>
</trkpt>
<trkpt lat="31.7496500" lon="35.1085000">
<ele>607.470032</ele>
<time>2023-01-25T13:56:44.093Z</time>
</trkpt>
<trkpt lat="31.7496500" lon="35.1085000">
<ele>607.470032</ele>
<time>2023-01-25T13:56:44.093Z</time>
</trkpt>
<trkpt lat="31.7496400" lon="35.1085000">
<ele>607.529968</ele>
<time>2023-01-25T13:56:44.093Z</time>
</trkpt>
<trkpt lat="31.7496400" lon="35.1085000">
<ele>607.529968</ele>
<time>2023-01-25T13:56:44.093Z</time>
</trkpt>
<trkpt lat="31.7496400" lon="35.1085000">
<ele>607.529968</ele>
<time>2023-01-25T13:56:44.093Z</time>
</trkpt>
<trkpt lat="31.7496400" lon="35.1085000">
<ele>607.529968</ele>
<time>2023-01-25T13:56:44.093Z</time>
</trkpt>
<trkpt lat="31.7496400" lon="35.1085000">
<ele>607.529968</ele>
<time>2023-01-25T13:56:44.093Z</time>
</trkpt>
<trkpt lat="31.7496400" lon="35.1085000">
<ele>607.529968</ele>
<time>2023-01-25T13:56:44.093Z</time>
</trkpt>
<trkpt lat="31.7496400" lon="35.1085000">
<ele>607.529968</ele>
<time>2023-01-25T13:56:44.093Z</time>
</trkpt>
<trkpt lat="31.7496400" lon="35.1085000">
<ele>607.529968</ele>
<time>2023-01-25T13:56:44.093Z</time>
</trkpt>
<trkpt lat="31.7496400" lon="35.1085000">
<ele>607.529968</ele>
<time>2023-01-25T13:56:44.093Z</time>
</trkpt>
<trkpt lat="31.7496400" lon="35.1085000">
<ele>607.529968</ele>
<time>2023-01-25T13:56:44.093Z</time>
</trkpt>
<trkpt lat="31.7496400" lon="35.1085000">
<ele>607.529968</ele>
<time>2023-01-25T13:56:44.093Z</time>
</trkpt>
<trkpt lat="31.7496400" lon="35.1085000">
<ele>607.529968</ele>
<time>2023-01-25T13:56:44.093Z</time>
</trkpt>
<trkpt lat="31.7496400" lon="35.1085000">
<ele>607.529968</ele>
<time>2023-01-25T13:56:44.093Z</time>
</trkpt>
<trkpt lat="31.7496400" lon="35.1085000">
<ele>607.529968</ele>
<time>2023-01-25T13:56:44.093Z</time>
</trkpt>
<trkpt lat="31.7496400" lon="35.1085000">
<ele>607.529968</ele>
<time>2023-01-25T13:56:44.093Z</time>
</trkpt>
<trkpt lat="31.7496400" lon="35.1085000">
<ele>607.529968</ele>
<time>2023-01-25T13:56:44.093Z</time>
</trkpt>
<trkpt lat="31.7496400" lon="35.1085000">
<ele>607.529968</ele>
<time>2023-01-25T13:56:44.093Z</time>
</trkpt>
<trkpt lat="31.7496400" lon="35.1085000">
<ele>607.529968</ele>
<time>2023-01-25T13:56:44.094Z</time>
</trkpt>
<trkpt lat="31.7496400" lon="35.1085000">
<ele>607.529968</ele>
<time>2023-01-25T13:56:44.094Z</time>
</trkpt>
<trkpt lat="31.7496400" lon="35.1085000">
<ele>607.529968</ele>
<time>2023-01-25T13:56:44.094Z</time>
</trkpt>
<trkpt lat="31.7496400" lon="35.1085000">
<ele>607.529968</ele>
<time>2023-01-25T13:56:44.094Z</time>
</trkpt>
<trkpt lat="31.7496400" lon="35.1085000">
<ele>607.529968</ele>
<time>2023-01-25T13:56:44.094Z</time>
</trkpt>
<trkpt lat="31.7496400" lon="35.1085000">
<ele>607.529968</ele>
<time>2023-01-25T13:56:44.094Z</time>
</trkpt>
<trkpt lat="31.7496400" lon="35.1085000">
<ele>607.529968</ele>
<time>2023-01-25T13:56:44.094Z</time>
</trkpt>
<trkpt lat="31.7496400" lon="35.1085000">
<ele>607.529968</ele>
<time>2023-01-25T13:56:44.094Z</time>
</trkpt>
<trkpt lat="31.7496400" lon="35.1085000">
<ele>607.529968</ele>
<time>2023-01-25T13:56:44.094Z</time>
</trkpt>
<trkpt lat="31.7496400" lon="35.1085000">
<ele>607.529968</ele>
<time>2023-01-25T13:56:44.094Z</time>
</trkpt>
<trkpt lat="31.7496400" lon="35.1085000">
<ele>607.529968</ele>
<time>2023-01-25T13:56:44.094Z</time>
</trkpt>
<trkpt lat="31.7496400" lon="35.1085000">
<ele>607.529968</ele>
<time>2023-01-25T13:56:44.094Z</time>
</trkpt>
<trkpt lat="31.7496400" lon="35.1085000">
<ele>607.529968</ele>
<time>2023-01-25T13:56:44.094Z</time>
</trkpt>
<trkpt lat="31.7496400" lon="35.1085000">
<ele>607.529968</ele>
<time>2023-01-25T13:56:44.094Z</time>
</trkpt>
<trkpt lat="31.7496400" lon="35.1085000">
<ele>607.529968</ele>
<time>2023-01-25T13:56:44.094Z</time>
</trkpt>
<trkpt lat="31.7496400" lon="35.1085000">
<ele>607.529968</ele>
<time>2023-01-25T13:56:44.094Z</time>
</trkpt>
<trkpt lat="31.7496400" lon="35.1085000">
<ele>607.529968</ele>
<time>2023-01-25T13:56:44.094Z</time>
</trkpt>
<trkpt lat="31.7496400" lon="35.1085000">
<ele>607.529968</ele>
<time>2023-01-25T13:56:44.094Z</time>
</trkpt>
<trkpt lat="31.7496400" lon="35.1085000">
<ele>607.529968</ele>
<time>2023-01-25T13:56:44.094Z</time>
</trkpt>
<trkpt lat="31.7496400" lon="35.1085000">
<ele>607.529968</ele>
<time>2023-01-25T13:56:44.094Z</time>
</trkpt>
<trkpt lat="31.7496400" lon="35.1085000">
<ele>607.529968</ele>
<time>2023-01-25T13:56:44.094Z</time>
</trkpt>
<trkpt lat="31.7496400" lon="35.1085000">
<ele>607.529968</ele>
<time>2023-01-25T13:56:44.094Z</time>
</trkpt>
<trkpt lat="31.7496400" lon="35.1085000">
<ele>607.529968</ele>
<time>2023-01-25T13:56:44.094Z</time>
</trkpt>
<trkpt lat="31.7496400" lon="35.1085000">
<ele>607.529968</ele>
<time>2023-01-25T13:56:44.094Z</time>
</trkpt>
<trkpt lat="31.7496400" lon="35.1085000">
<ele>607.529968</ele>
<time>2023-01-25T13:56:44.094Z</time>
</trkpt>
<trkpt lat="31.7496400" lon="35.1085000">
<ele>607.529968</ele>
<time>2023-01-25T13:56:44.094Z</time>
</trkpt>
<trkpt lat="31.7496400" lon="35.1085000">
<ele>607.529968</ele>
<time>2023-01-25T13:56:44.094Z</time>
</trkpt>
<trkpt lat="31.7496400" lon="35.1085000">
<ele>607.529968</ele>
<time>2023-01-25T13:56:44.094Z</time>
</trkpt>
<trkpt lat="31.7496300" lon="35.1085000">
<ele>607.600037</ele>
<time>2023-01-25T13:56:44.094Z</time>
</trkpt>
<trkpt lat="31.7496300" lon="35.1085000">
<ele>607.600037</ele>
<time>2023-01-25T13:56:44.094Z</time>
</trkpt>
<trkpt lat="31.7496300" lon="35.1085000">
<ele>607.600037</ele>
<time>2023-01-25T13:56:44.094Z</time>
</trkpt>
<trkpt lat="31.7496300" lon="35.1085000">
<ele>607.600037</ele>
<time>2023-01-25T13:56:44.095Z</time>
</trkpt>
<trkpt lat="31.7496300" lon="35.1085000">
<ele>607.600037</ele>
<time>2023-01-25T13:56:44.095Z</time>
</trkpt>
<trkpt lat="31.7496400" lon="35.1084800">
<ele>607.580017</ele>
<time>2023-01-25T13:56:44.095Z</time>
</trkpt>
<trkpt lat="31.7496400" lon="35.1084800">
<ele>607.580017</ele>
<time>2023-01-25T13:56:44.095Z</time>
</trkpt>
<trkpt lat="31.7496400" lon="35.1084800">
<ele>607.580017</ele>
<time>2023-01-25T13:56:44.095Z</time>
</trkpt>
<trkpt lat="31.7496400" lon="35.1084700">
<ele>607.600037</ele>
<time>2023-01-25T13:56:44.095Z</time>
</trkpt>
<trkpt lat="31.7496400" lon="35.1084700">
<ele>607.600037</ele>
<time>2023-01-25T13:56:44.095Z</time>
</trkpt>
<trkpt lat="31.7496400" lon="35.1084700">
<ele>607.600037</ele>
<time>2023-01-25T13:56:44.095Z</time>
</trkpt>
<trkpt lat="31.7496400" lon="35.1084700">
<ele>607.600037</ele>
<time>2023-01-25T13:56:44.095Z</time>
</trkpt>
<trkpt lat="31.7496400" lon="35.1084700">
<ele>607.600037</ele>
<time>2023-01-25T13:56:44.095Z</time>
</trkpt>
<trkpt lat="31.7495900" lon="35.1083600">
<ele>608.339966</ele>
<time>2023-01-25T13:56:44.095Z</time>
</trkpt>
<trkpt lat="31.7495300" lon="35.1082700">
<ele>609.530029</ele>
<time>2023-01-25T13:56:44.095Z</time>
</trkpt>
<trkpt lat="31.7494500" lon="35.1081900">
<ele>610.969971</ele>
<time>2023-01-25T13:56:44.095Z</time>
</trkpt>
<trkpt lat="31.7493600" lon="35.1081200">
<ele>611.000000</ele>
<time>2023-01-25T13:56:44.095Z</time>
</trkpt>
<trkpt lat="31.7492600" lon="35.1080900">
<ele>610.510010</ele>
<time>2023-01-25T13:56:44.095Z</time>
</trkpt>
<trkpt lat="31.7491400" lon="35.1081100">
<ele>609.250000</ele>
<time>2023-01-25T13:56:44.095Z</time>
</trkpt>
<trkpt lat="31.7490400" lon="35.1081900">
<ele>607.000000</ele>
<time>2023-01-25T13:56:44.095Z</time>
</trkpt>
<trkpt lat="31.7489500" lon="35.1082800">
<ele>605.140015</ele>
<time>2023-01-25T13:56:44.095Z</time>
</trkpt>
<trkpt lat="31.7488700" lon="35.1083300">
<ele>603.790039</ele>
<time>2023-01-25T13:56:44.095Z</time>
</trkpt>
<trkpt lat="31.7487500" lon="35.1083200">
<ele>602.429993</ele>
<time>2023-01-25T13:56:44.095Z</time>
</trkpt>
<trkpt lat="31.7486400" lon="35.1083000">
<ele>600.989990</ele>
<time>2023-01-25T13:56:44.095Z</time>
</trkpt>
<trkpt lat="31.7485100" lon="35.1083300">
<ele>599.510010</ele>
<time>2023-01-25T13:56:44.095Z</time>
</trkpt>
<trkpt lat="31.7484400" lon="35.1083900">
<ele>599.320007</ele>
<time>2023-01-25T13:56:44.095Z</time>
</trkpt>
<trkpt lat="31.7483400" lon="35.1084000">
<ele>598.279968</ele>
<time>2023-01-25T13:56:44.095Z</time>
</trkpt>
<trkpt lat="31.7482600" lon="35.1083400">
<ele>596.099976</ele>
<time>2023-01-25T13:56:44.095Z</time>
</trkpt>
<trkpt lat="31.7481400" lon="35.1083300">
<ele>594.140015</ele>
<time>2023-01-25T13:56:44.095Z</time>
</trkpt>
<trkpt lat="31.7480400" lon="35.1084100">
<ele>595.539978</ele>
<time>2023-01-25T13:56:44.095Z</time>
</trkpt>
<trkpt lat="31.7479700" lon="35.1084800">
<ele>597.049988</ele>
<time>2023-01-25T13:56:44.095Z</time>
</trkpt>
<trkpt lat="31.7479100" lon="35.1085800">
<ele>599.779968</ele>
<time>2023-01-25T13:56:44.095Z</time>
</trkpt>
<trkpt lat="31.7478400" lon="35.1086900">
<ele>600.899963</ele>
<time>2023-01-25T13:56:44.095Z</time>
</trkpt>
<trkpt lat="31.7477700" lon="35.1087800">
<ele>601.250000</ele>
<time>2023-01-25T13:56:44.095Z</time>
</trkpt>
<trkpt lat="31.7476900" lon="35.1088700">
<ele>601.059998</ele>
<time>2023-01-25T13:56:44.096Z</time>
</trkpt>
<trkpt lat="31.7476100" lon="35.1089500">
<ele>600.909973</ele>
<time>2023-01-25T13:56:44.096Z</time>
</trkpt>
<trkpt lat="31.7475300" lon="35.1090200">
<ele>601.489990</ele>
<time>2023-01-25T13:56:44.096Z</time>
</trkpt>
<trkpt lat="31.7474600" lon="35.1090800">
<ele>602.580017</ele>
<time>2023-01-25T13:56:44.096Z</time>
</trkpt>
<trkpt lat="31.7473800" lon="35.1091300">
<ele>603.530029</ele>
<time>2023-01-25T13:56:44.097Z</time>
</trkpt>
<trkpt lat="31.7472900" lon="35.1092100">
<ele>605.020020</ele>
<time>2023-01-25T13:56:44.097Z</time>
</trkpt>
<trkpt lat="31.7472000" lon="35.1092800">
<ele>605.640015</ele>
<time>2023-01-25T13:56:44.097Z</time>
</trkpt>
<trkpt lat="31.7471000" lon="35.1093400">
<ele>604.919983</ele>
<time>2023-01-25T13:56:44.097Z</time>
</trkpt>
<trkpt lat="31.7470100" lon="35.1094100">
<ele>604.559998</ele>
<time>2023-01-25T13:56:44.097Z</time>
</trkpt>
<trkpt lat="31.7469100" lon="35.1094600">
<ele>603.559998</ele>
<time>2023-01-25T13:56:44.097Z</time>
</trkpt>
<trkpt lat="31.7468000" lon="35.1095000">
<ele>602.210022</ele>
<time>2023-01-25T13:56:44.097Z</time>
</trkpt>
<trkpt lat="31.7467000" lon="35.1095400">
<ele>601.239990</ele>
<time>2023-01-25T13:56:44.097Z</time>
</trkpt>
<trkpt lat="31.7466100" lon="35.1095800">
<ele>600.919983</ele>
<time>2023-01-25T13:56:44.097Z</time>
</trkpt>
<trkpt lat="31.7465000" lon="35.1096200">
<ele>601.059998</ele>
<time>2023-01-25T13:56:44.097Z</time>
</trkpt>
<trkpt lat="31.7464000" lon="35.1096700">
<ele>602.160034</ele>
<time>2023-01-25T13:56:44.097Z</time>
</trkpt>
<trkpt lat="31.7463000" lon="35.1096800">
<ele>601.149963</ele>
<time>2023-01-25T13:56:44.097Z</time>
</trkpt>
<trkpt lat="31.7462000" lon="35.1096800">
<ele>599.659973</ele>
<time>2023-01-25T13:56:44.097Z</time>
</trkpt>
<trkpt lat="31.7461000" lon="35.1096500">
<ele>596.969971</ele>
<time>2023-01-25T13:56:44.097Z</time>
</trkpt>
<trkpt lat="31.7459800" lon="35.1096800">
<ele>596.179993</ele>
<time>2023-01-25T13:56:44.097Z</time>
</trkpt>
<trkpt lat="31.7458800" lon="35.1097600">
<ele>596.929993</ele>
<time>2023-01-25T13:56:44.097Z</time>
</trkpt>
<trkpt lat="31.7458000" lon="35.1098100">
<ele>597.339966</ele>
<time>2023-01-25T13:56:44.097Z</time>
</trkpt>
<trkpt lat="31.7457300" lon="35.1098800">
<ele>598.230042</ele>
<time>2023-01-25T13:56:44.097Z</time>
</trkpt>
<trkpt lat="31.7456300" lon="35.1099500">
<ele>597.489990</ele>
<time>2023-01-25T13:56:44.097Z</time>
</trkpt>
<trkpt lat="31.7455300" lon="35.1100100">
<ele>595.760010</ele>
<time>2023-01-25T13:56:44.097Z</time>
</trkpt>
<trkpt lat="31.7454500" lon="35.1100600">
<ele>595.400024</ele>
<time>2023-01-25T13:56:44.097Z</time>
</trkpt>
<trkpt lat="31.7453500" lon="35.1101200">
<ele>594.890015</ele>
<time>2023-01-25T13:56:44.097Z</time>
</trkpt>
<trkpt lat="31.7452500" lon="35.1101600">
<ele>594.039978</ele>
<time>2023-01-25T13:56:44.097Z</time>
</trkpt>
<trkpt lat="31.7451400" lon="35.1102300">
<ele>593.659973</ele>
<time>2023-01-25T13:56:44.097Z</time>
</trkpt>
<trkpt lat="31.7450400" lon="35.1102800">
<ele>592.750000</ele>
<time>2023-01-25T13:56:44.097Z</time>
</trkpt>
<trkpt lat="31.7449800" lon="35.1103700">
<ele>592.080017</ele>
<time>2023-01-25T13:56:44.097Z</time>
</trkpt>
<trkpt lat="31.7448900" lon="35.1104400">
<ele>588.840027</ele>
<time>2023-01-25T13:56:44.097Z</time>
</trkpt>
<trkpt lat="31.7448200" lon="35.1105100">
<ele>586.630005</ele>
<time>2023-01-25T13:56:44.097Z</time>
</trkpt>
<trkpt lat="31.7448100" lon="35.1106300">
<ele>587.510010</ele>
<time>2023-01-25T13:56:44.097Z</time>
</trkpt>
<trkpt lat="31.7447800" lon="35.1107500">
<ele>587.450012</ele>
<time>2023-01-25T13:56:44.097Z</time>
</trkpt>
<trkpt lat="31.7447300" lon="35.1108500">
<ele>586.369995</ele>
<time>2023-01-25T13:56:44.097Z</time>
</trkpt>
<trkpt lat="31.7447200" lon="35.1109900">
<ele>586.479980</ele>
<time>2023-01-25T13:56:44.097Z</time>
</trkpt>
<trkpt lat="31.7447000" lon="35.1110900">
<ele>586.119995</ele>
<time>2023-01-25T13:56:44.098Z</time>
</trkpt>
<trkpt lat="31.7446700" lon="35.1112200">
<ele>585.659973</ele>
<time>2023-01-25T13:56:44.098Z</time>
</trkpt>
<trkpt lat="31.7446300" lon="35.1113600">
<ele>585.169983</ele>
<time>2023-01-25T13:56:44.098Z</time>
</trkpt>
<trkpt lat="31.7445800" lon="35.1114600">
<ele>584.679993</ele>
<time>2023-01-25T13:56:44.098Z</time>
</trkpt>
<trkpt lat="31.7445500" lon="35.1115900">
<ele>585.390015</ele>
<time>2023-01-25T13:56:44.098Z</time>
</trkpt>
<trkpt lat="31.7445600" lon="35.1117000">
<ele>587.070007</ele>
<time>2023-01-25T13:56:44.098Z</time>
</trkpt>
<trkpt lat="31.7445100" lon="35.1117900">
<ele>587.770020</ele>
<time>2023-01-25T13:56:44.098Z</time>
</trkpt>
<trkpt lat="31.7444000" lon="35.1117900">
<ele>587.059998</ele>
<time>2023-01-25T13:56:44.098Z</time>
</trkpt>
<trkpt lat="31.7443500" lon="35.1117000">
<ele>585.440002</ele>
<time>2023-01-25T13:56:44.098Z</time>
</trkpt>
<trkpt lat="31.7442900" lon="35.1116000">
<ele>583.890015</ele>
<time>2023-01-25T13:56:44.098Z</time>
</trkpt>
<trkpt lat="31.7442200" lon="35.1115000">
<ele>582.250000</ele>
<time>2023-01-25T13:56:44.098Z</time>
</trkpt>
<trkpt lat="31.7441600" lon="35.1114200">
<ele>580.700012</ele>
<time>2023-01-25T13:56:44.098Z</time>
</trkpt>
<trkpt lat="31.7440900" lon="35.1113400">
<ele>579.320007</ele>
<time>2023-01-25T13:56:44.098Z</time>
</trkpt>
<trkpt lat="31.7440200" lon="35.1112500">
<ele>578.059998</ele>
<time>2023-01-25T13:56:44.098Z</time>
</trkpt>
<trkpt lat="31.7439400" lon="35.1111700">
<ele>577.369995</ele>
<time>2023-01-25T13:56:44.098Z</time>
</trkpt>
<trkpt lat="31.7438900" lon="35.1110800">
<ele>576.429993</ele>
<time>2023-01-25T13:56:44.098Z</time>
</trkpt>
<trkpt lat="31.7438800" lon="35.1110600">
<ele>576.200012</ele>
<time>2023-01-25T13:56:44.098Z</time>
</trkpt>
<trkpt lat="31.7438800" lon="35.1110600">
<ele>576.200012</ele>
<time>2023-01-25T13:56:44.098Z</time>
</trkpt>
<trkpt lat="31.7438800" lon="35.1110600">
<ele>576.200012</ele>
<time>2023-01-25T13:56:44.098Z</time>
</trkpt>
<trkpt lat="31.7438800" lon="35.1110600">
<ele>576.200012</ele>
<time>2023-01-25T13:56:44.098Z</time>
</trkpt>
<trkpt lat="31.7438800" lon="35.1110600">
<ele>576.200012</ele>
<time>2023-01-25T13:56:44.098Z</time>
</trkpt>
<trkpt lat="31.7438800" lon="35.1110600">
<ele>576.200012</ele>
<time>2023-01-25T13:56:44.098Z</time>
</trkpt>
<trkpt lat="31.7438800" lon="35.1110600">
<ele>576.200012</ele>
<time>2023-01-25T13:56:44.098Z</time>
</trkpt>
<trkpt lat="31.7438800" lon="35.1110700">
<ele>576.380005</ele>
<time>2023-01-25T13:56:44.098Z</time>
</trkpt>
<trkpt lat="31.7438800" lon="35.1110700">
<ele>576.380005</ele>
<time>2023-01-25T13:56:44.098Z</time>
</trkpt>
<trkpt lat="31.7438800" lon="35.1110600">
<ele>576.200012</ele>
<time>2023-01-25T13:56:44.098Z</time>
</trkpt>
<trkpt lat="31.7438700" lon="35.1110600">
<ele>576.340027</ele>
<time>2023-01-25T13:56:44.098Z</time>
</trkpt>
<trkpt lat="31.7438700" lon="35.1110600">
<ele>576.340027</ele>
<time>2023-01-25T13:56:44.098Z</time>
</trkpt>
<trkpt lat="31.7438000" lon="35.1109600">
<ele>575.390015</ele>
<time>2023-01-25T13:56:44.098Z</time>
</trkpt>
<trkpt lat="31.7437300" lon="35.1108800">
<ele>574.649963</ele>
<time>2023-01-25T13:56:44.098Z</time>
</trkpt>
<trkpt lat="31.7437000" lon="35.1108300">
<ele>573.969971</ele>
<time>2023-01-25T13:56:44.099Z</time>
</trkpt>
<trkpt lat="31.7436900" lon="35.1108300">
<ele>574.080017</ele>
<time>2023-01-25T13:56:44.099Z</time>
</trkpt>
<trkpt lat="31.7436300" lon="35.1107500">
<ele>573.019958</ele>
<time>2023-01-25T13:56:44.099Z</time>
</trkpt>
<trkpt lat="31.7435500" lon="35.1106800">
<ele>572.450012</ele>
<time>2023-01-25T13:56:44.099Z</time>
</trkpt>
<trkpt lat="31.7434700" lon="35.1106200">
<ele>572.030029</ele>
<time>2023-01-25T13:56:44.099Z</time>
</trkpt>
<trkpt lat="31.7433700" lon="35.1105600">
<ele>571.710022</ele>
<time>2023-01-25T13:56:44.099Z</time>
</trkpt>
<trkpt lat="31.7432700" lon="35.1105400">
<ele>571.659973</ele>
<time>2023-01-25T13:56:44.099Z</time>
</trkpt>
<trkpt lat="31.7431700" lon="35.1105500">
<ele>571.880005</ele>
<time>2023-01-25T13:56:44.099Z</time>
</trkpt>
<trkpt lat="31.7430800" lon="35.1105800">
<ele>572.700012</ele>
<time>2023-01-25T13:56:44.099Z</time>
</trkpt>
<trkpt lat="31.7429800" lon="35.1106400">
<ele>573.450012</ele>
<time>2023-01-25T13:56:44.099Z</time>
</trkpt>
<trkpt lat="31.7429000" lon="35.1106800">
<ele>573.400024</ele>
<time>2023-01-25T13:56:44.099Z</time>
</trkpt>
<trkpt lat="31.7429000" lon="35.1106800">
<ele>573.400024</ele>
<time>2023-01-25T13:56:44.099Z</time>
</trkpt>
<trkpt lat="31.7429400" lon="35.1105700">
<ele>571.119995</ele>
<time>2023-01-25T13:56:44.099Z</time>
</trkpt>
<trkpt lat="31.7429300" lon="35.1104600">
<ele>568.580017</ele>
<time>2023-01-25T13:56:44.099Z</time>
</trkpt>
<trkpt lat="31.7429600" lon="35.1103500">
<ele>566.529968</ele>
<time>2023-01-25T13:56:44.099Z</time>
</trkpt>
<trkpt lat="31.7430300" lon="35.1102600">
<ele>565.270020</ele>
<time>2023-01-25T13:56:44.099Z</time>
</trkpt>
<trkpt lat="31.7431100" lon="35.1101900">
<ele>563.909973</ele>
<time>2023-01-25T13:56:44.099Z</time>
</trkpt>
<trkpt lat="31.7431300" lon="35.1100800">
<ele>561.400024</ele>
<time>2023-01-25T13:56:44.099Z</time>
</trkpt>
<trkpt lat="31.7431100" lon="35.1099600">
<ele>558.010010</ele>
<time>2023-01-25T13:56:44.099Z</time>
</trkpt>
<trkpt lat="31.7430900" lon="35.1098400">
<ele>553.849976</ele>
<time>2023-01-25T13:56:44.099Z</time>
</trkpt>
<trkpt lat="31.7430200" lon="35.1097600">
<ele>550.820007</ele>
<time>2023-01-25T13:56:44.099Z</time>
</trkpt>
<trkpt lat="31.7429300" lon="35.1097300">
<ele>548.880005</ele>
<time>2023-01-25T13:56:44.099Z</time>
</trkpt>
<trkpt lat="31.7428400" lon="35.1097100">
<ele>547.489990</ele>
<time>2023-01-25T13:56:44.099Z</time>
</trkpt>
<trkpt lat="31.7428000" lon="35.1096800">
<ele>546.619995</ele>
<time>2023-01-25T13:56:44.099Z</time>
</trkpt>
<trkpt lat="31.7428000" lon="35.1096800">
<ele>546.619995</ele>
<time>2023-01-25T13:56:44.099Z</time>
</trkpt>
<trkpt lat="31.7427700" lon="35.1095700">
<ele>544.570007</ele>
<time>2023-01-25T13:56:44.099Z</time>
</trkpt>
<trkpt lat="31.7427700" lon="35.1094500">
<ele>542.859985</ele>
<time>2023-01-25T13:56:44.099Z</time>
</trkpt>
<trkpt lat="31.7427800" lon="35.1093300">
<ele>540.539978</ele>
<time>2023-01-25T13:56:44.099Z</time>
</trkpt>
<trkpt lat="31.7428000" lon="35.1092200">
<ele>538.250000</ele>
<time>2023-01-25T13:56:44.099Z</time>
</trkpt>
<trkpt lat="31.7429100" lon="35.1092000">
<ele>538.250000</ele>
<time>2023-01-25T13:56:44.099Z</time>
</trkpt>
<trkpt lat="31.7430200" lon="35.1092300">
<ele>539.440002</ele>
<time>2023-01-25T13:56:44.099Z</time>
</trkpt>
<trkpt lat="31.7431500" lon="35.1092500">
<ele>538.500000</ele>
<time>2023-01-25T13:56:44.100Z</time>
</trkpt>
<trkpt lat="31.7432400" lon="35.1092500">
<ele>536.979980</ele>
<time>2023-01-25T13:56:44.100Z</time>
</trkpt>
<trkpt lat="31.7433300" lon="35.1093000">
<ele>536.889954</ele>
<time>2023-01-25T13:56:44.100Z</time>
</trkpt>
<trkpt lat="31.7434000" lon="35.1093700">
<ele>538.570007</ele>
<time>2023-01-25T13:56:44.100Z</time>
</trkpt>
<trkpt lat="31.7434700" lon="35.1094400">
<ele>539.909973</ele>
<time>2023-01-25T13:56:44.100Z</time>
</trkpt>
<trkpt lat="31.7435500" lon="35.1095100">
<ele>541.510010</ele>
<time>2023-01-25T13:56:44.100Z</time>
</trkpt>
<trkpt lat="31.7436200" lon="35.1096000">
<ele>544.109985</ele>
<time>2023-01-25T13:56:44.100Z</time>
</trkpt>
<trkpt lat="31.7436800" lon="35.1096700">
<ele>546.700012</ele>
<time>2023-01-25T13:56:44.100Z</time>
</trkpt>
<trkpt lat="31.7437600" lon="35.1097300">
<ele>548.760010</ele>
<time>2023-01-25T13:56:44.100Z</time>
</trkpt>
<trkpt lat="31.7438800" lon="35.1097400">
<ele>549.359985</ele>
<time>2023-01-25T13:56:44.100Z</time>
</trkpt>
<trkpt lat="31.7439200" lon="35.1096400">
<ele>547.960022</ele>
<time>2023-01-25T13:56:44.100Z</time>
</trkpt>
<trkpt lat="31.7439200" lon="35.1095200">
<ele>545.469971</ele>
<time>2023-01-25T13:56:44.100Z</time>
</trkpt>
<trkpt lat="31.7439200" lon="35.1094100">
<ele>543.539978</ele>
<time>2023-01-25T13:56:44.100Z</time>
</trkpt>
<trkpt lat="31.7439000" lon="35.1092800">
<ele>541.570007</ele>
<time>2023-01-25T13:56:44.100Z</time>
</trkpt>
<trkpt lat="31.7438800" lon="35.1091400">
<ele>539.619995</ele>
<time>2023-01-25T13:56:44.100Z</time>
</trkpt>
<trkpt lat="31.7439000" lon="35.1090000">
<ele>539.179993</ele>
<time>2023-01-25T13:56:44.100Z</time>
</trkpt>
<trkpt lat="31.7439300" lon="35.1088600">
<ele>539.429993</ele>
<time>2023-01-25T13:56:44.100Z</time>
</trkpt>
<trkpt lat="31.7439800" lon="35.1087300">
<ele>540.719971</ele>
<time>2023-01-25T13:56:44.100Z</time>
</trkpt>
<trkpt lat="31.7439900" lon="35.1086000">
<ele>540.450012</ele>
<time>2023-01-25T13:56:44.100Z</time>
</trkpt>
<trkpt lat="31.7439600" lon="35.1085000">
<ele>538.980042</ele>
<time>2023-01-25T13:56:44.100Z</time>
</trkpt>
<trkpt lat="31.7439300" lon="35.1083400">
<ele>537.480042</ele>
<time>2023-01-25T13:56:44.100Z</time>
</trkpt>
<trkpt lat="31.7439200" lon="35.1082300">
<ele>536.919983</ele>
<time>2023-01-25T13:56:44.100Z</time>
</trkpt>
<trkpt lat="31.7439200" lon="35.1080800">
<ele>536.320007</ele>
<time>2023-01-25T13:56:44.100Z</time>
</trkpt>
<trkpt lat="31.7439600" lon="35.1079400">
<ele>535.880005</ele>
<time>2023-01-25T13:56:44.100Z</time>
</trkpt>
<trkpt lat="31.7439900" lon="35.1078400">
<ele>535.390015</ele>
<time>2023-01-25T13:56:44.100Z</time>
</trkpt>
<trkpt lat="31.7440600" lon="35.1077700">
<ele>534.919983</ele>
<time>2023-01-25T13:56:44.100Z</time>
</trkpt>
<trkpt lat="31.7441200" lon="35.1076900">
<ele>534.260010</ele>
<time>2023-01-25T13:56:44.100Z</time>
</trkpt>
<trkpt lat="31.7440700" lon="35.1076000">
<ele>533.270020</ele>
<time>2023-01-25T13:56:44.100Z</time>
</trkpt>
<trkpt lat="31.7439700" lon="35.1075600">
<ele>532.320007</ele>
<time>2023-01-25T13:56:44.100Z</time>
</trkpt>
<trkpt lat="31.7438500" lon="35.1075900">
<ele>531.969971</ele>
<time>2023-01-25T13:56:44.100Z</time>
</trkpt>
<trkpt lat="31.7437500" lon="35.1076400">
<ele>531.510010</ele>
<time>2023-01-25T13:56:44.100Z</time>
</trkpt>
<trkpt lat="31.7436500" lon="35.1076400">
<ele>530.420044</ele>
<time>2023-01-25T13:56:44.101Z</time>
</trkpt>
<trkpt lat="31.7435600" lon="35.1076100">
<ele>529.380005</ele>
<time>2023-01-25T13:56:44.101Z</time>
</trkpt>
<trkpt lat="31.7435600" lon="35.1076100">
<ele>529.380005</ele>
<time>2023-01-25T13:56:44.101Z</time>
</trkpt>
<trkpt lat="31.7435600" lon="35.1076100">
<ele>529.380005</ele>
<time>2023-01-25T13:56:44.101Z</time>
</trkpt>
<trkpt lat="31.7434800" lon="35.1075600">
<ele>528.479980</ele>
<time>2023-01-25T13:56:44.101Z</time>
</trkpt>
<trkpt lat="31.7434600" lon="35.1075500">
<ele>528.270020</ele>
<time>2023-01-25T13:56:44.101Z</time>
</trkpt>
<trkpt lat="31.7434600" lon="35.1075500">
<ele>528.270020</ele>
<time>2023-01-25T13:56:44.101Z</time>
</trkpt>
<trkpt lat="31.7433700" lon="35.1075200">
<ele>527.330017</ele>
<time>2023-01-25T13:56:44.101Z</time>
</trkpt>
<trkpt lat="31.7432500" lon="35.1075100">
<ele>525.790039</ele>
<time>2023-01-25T13:56:44.101Z</time>
</trkpt>
<trkpt lat="31.7431600" lon="35.1074800">
<ele>524.270020</ele>
<time>2023-01-25T13:56:44.101Z</time>
</trkpt>
<trkpt lat="31.7430700" lon="35.1075300">
<ele>523.299988</ele>
<time>2023-01-25T13:56:44.101Z</time>
</trkpt>
<trkpt lat="31.7429900" lon="35.1074400">
<ele>520.719971</ele>
<time>2023-01-25T13:56:44.101Z</time>
</trkpt>
<trkpt lat="31.7430400" lon="35.1073200">
<ele>520.070007</ele>
<time>2023-01-25T13:56:44.101Z</time>
</trkpt>
<trkpt lat="31.7430800" lon="35.1072000">
<ele>519.140015</ele>
<time>2023-01-25T13:56:44.101Z</time>
</trkpt>
<trkpt lat="31.7431000" lon="35.1070900">
<ele>517.660034</ele>
<time>2023-01-25T13:56:44.101Z</time>
</trkpt>
<trkpt lat="31.7431200" lon="35.1069800">
<ele>516.229980</ele>
<time>2023-01-25T13:56:44.101Z</time>
</trkpt>
<trkpt lat="31.7431400" lon="35.1068600">
<ele>514.790039</ele>
<time>2023-01-25T13:56:44.101Z</time>
</trkpt>
<trkpt lat="31.7430300" lon="35.1068300">
<ele>511.169983</ele>
<time>2023-01-25T13:56:44.101Z</time>
</trkpt>
<trkpt lat="31.7429600" lon="35.1069500">
<ele>511.360016</ele>
<time>2023-01-25T13:56:44.101Z</time>
</trkpt>
<trkpt lat="31.7428700" lon="35.1070300">
<ele>510.609985</ele>
<time>2023-01-25T13:56:44.101Z</time>
</trkpt>
<trkpt lat="31.7427900" lon="35.1070600">
<ele>509.230011</ele>
<time>2023-01-25T13:56:44.101Z</time>
</trkpt>
<trkpt lat="31.7426700" lon="35.1071000">
<ele>506.429993</ele>
<time>2023-01-25T13:56:44.101Z</time>
</trkpt>
<trkpt lat="31.7426000" lon="35.1072000">
<ele>506.679993</ele>
<time>2023-01-25T13:56:44.101Z</time>
</trkpt>
<trkpt lat="31.7425800" lon="35.1073300">
<ele>508.700012</ele>
<time>2023-01-25T13:56:44.101Z</time>
</trkpt>
<trkpt lat="31.7425100" lon="35.1073900">
<ele>507.900024</ele>
<time>2023-01-25T13:56:44.101Z</time>
</trkpt>
<trkpt lat="31.7424200" lon="35.1074000">
<ele>506.400024</ele>
<time>2023-01-25T13:56:44.101Z</time>
</trkpt>
<trkpt lat="31.7424000" lon="35.1072700">
<ele>503.230011</ele>
<time>2023-01-25T13:56:44.101Z</time>
</trkpt>
<trkpt lat="31.7424400" lon="35.1071700">
<ele>501.359985</ele>
<time>2023-01-25T13:56:44.101Z</time>
</trkpt>
<trkpt lat="31.7424600" lon="35.1070500">
<ele>498.400024</ele>
<time>2023-01-25T13:56:44.101Z</time>
</trkpt>
<trkpt lat="31.7423800" lon="35.1070200">
<ele>494.859985</ele>
<time>2023-01-25T13:56:44.101Z</time>
</trkpt>
<trkpt lat="31.7422800" lon="35.1071000">
<ele>494.869995</ele>
<time>2023-01-25T13:56:44.101Z</time>
</trkpt>
<trkpt lat="31.7421900" lon="35.1071700">
<ele>495.400024</ele>
<time>2023-01-25T13:56:44.102Z</time>
</trkpt>
<trkpt lat="31.7421200" lon="35.1072400">
<ele>495.799988</ele>
<time>2023-01-25T13:56:44.102Z</time>
</trkpt>
<trkpt lat="31.7420300" lon="35.1073200">
<ele>495.170013</ele>
<time>2023-01-25T13:56:44.102Z</time>
</trkpt>
<trkpt lat="31.7419900" lon="35.1074200">
<ele>497.290009</ele>
<time>2023-01-25T13:56:44.102Z</time>
</trkpt>
<trkpt lat="31.7419300" lon="35.1075100">
<ele>498.709991</ele>
<time>2023-01-25T13:56:44.102Z</time>
</trkpt>
<trkpt lat="31.7418400" lon="35.1075400">
<ele>496.760010</ele>
<time>2023-01-25T13:56:44.102Z</time>
</trkpt>
<trkpt lat="31.7417400" lon="35.1075900">
<ele>494.970001</ele>
<time>2023-01-25T13:56:44.102Z</time>
</trkpt>
<trkpt lat="31.7416500" lon="35.1076400">
<ele>493.630005</ele>
<time>2023-01-25T13:56:44.102Z</time>
</trkpt>
<trkpt lat="31.7415600" lon="35.1076800">
<ele>492.150024</ele>
<time>2023-01-25T13:56:44.102Z</time>
</trkpt>
<trkpt lat="31.7414700" lon="35.1077100">
<ele>490.600006</ele>
<time>2023-01-25T13:56:44.102Z</time>
</trkpt>
<trkpt lat="31.7413900" lon="35.1077700">
<ele>489.880005</ele>
<time>2023-01-25T13:56:44.102Z</time>
</trkpt>
<trkpt lat="31.7413100" lon="35.1077400">
<ele>487.769989</ele>
<time>2023-01-25T13:56:44.102Z</time>
</trkpt>
<trkpt lat="31.7412700" lon="35.1076300">
<ele>485.680023</ele>
<time>2023-01-25T13:56:44.102Z</time>
</trkpt>
<trkpt lat="31.7412500" lon="35.1075300">
<ele>484.319977</ele>
<time>2023-01-25T13:56:44.102Z</time>
</trkpt>
<trkpt lat="31.7413000" lon="35.1074300">
<ele>483.350006</ele>
<time>2023-01-25T13:56:44.102Z</time>
</trkpt>
<trkpt lat="31.7412900" lon="35.1073100">
<ele>481.549988</ele>
<time>2023-01-25T13:56:44.102Z</time>
</trkpt>
<trkpt lat="31.7413000" lon="35.1071800">
<ele>479.550018</ele>
<time>2023-01-25T13:56:44.102Z</time>
</trkpt>
<trkpt lat="31.7412800" lon="35.1070700">
<ele>477.259979</ele>
<time>2023-01-25T13:56:44.102Z</time>
</trkpt>
<trkpt lat="31.7412500" lon="35.1069600">
<ele>474.810028</ele>
<time>2023-01-25T13:56:44.102Z</time>
</trkpt>
<trkpt lat="31.7412900" lon="35.1068600">
<ele>473.950012</ele>
<time>2023-01-25T13:56:44.102Z</time>
</trkpt>
<trkpt lat="31.7413200" lon="35.1067900">
<ele>473.170013</ele>
<time>2023-01-25T13:56:44.102Z</time>
</trkpt>
<trkpt lat="31.7413200" lon="35.1067900">
<ele>473.170013</ele>
<time>2023-01-25T13:56:44.102Z</time>
</trkpt>
<trkpt lat="31.7413200" lon="35.1067900">
<ele>473.170013</ele>
<time>2023-01-25T13:56:44.102Z</time>
</trkpt>
<trkpt lat="31.7413200" lon="35.1067900">
<ele>473.170013</ele>
<time>2023-01-25T13:56:44.102Z</time>
</trkpt>
<trkpt lat="31.7413200" lon="35.1067900">
<ele>473.170013</ele>
<time>2023-01-25T13:56:44.102Z</time>
</trkpt>
<trkpt lat="31.7413200" lon="35.1067900">
<ele>473.170013</ele>
<time>2023-01-25T13:56:44.102Z</time>
</trkpt>
<trkpt lat="31.7413200" lon="35.1067900">
<ele>473.170013</ele>
<time>2023-01-25T13:56:44.102Z</time>
</trkpt>
<trkpt lat="31.7413300" lon="35.1067900">
<ele>473.170013</ele>
<time>2023-01-25T13:56:44.102Z</time>
</trkpt>
<trkpt lat="31.7413300" lon="35.1067900">
<ele>473.170013</ele>
<time>2023-01-25T13:56:44.102Z</time>
</trkpt>
<trkpt lat="31.7413300" lon="35.1068000">
<ele>473.319977</ele>
<time>2023-01-25T13:56:44.102Z</time>
</trkpt>
<trkpt lat="31.7413300" lon="35.1068000">
<ele>473.319977</ele>
<time>2023-01-25T13:56:44.102Z</time>
</trkpt>
<trkpt lat="31.7413300" lon="35.1068000">
<ele>473.319977</ele>
<time>2023-01-25T13:56:44.103Z</time>
</trkpt>
<trkpt lat="31.7413300" lon="35.1068000">
<ele>473.319977</ele>
<time>2023-01-25T13:56:44.103Z</time>
</trkpt>
<trkpt lat="31.7413300" lon="35.1068000">
<ele>473.319977</ele>
<time>2023-01-25T13:56:44.103Z</time>
</trkpt>
<trkpt lat="31.7413300" lon="35.1068000">
<ele>473.319977</ele>
<time>2023-01-25T13:56:44.103Z</time>
</trkpt>
<trkpt lat="31.7413300" lon="35.1068000">
<ele>473.319977</ele>
<time>2023-01-25T13:56:44.103Z</time>
</trkpt>
<trkpt lat="31.7413300" lon="35.1068000">
<ele>473.319977</ele>
<time>2023-01-25T13:56:44.103Z</time>
</trkpt>
<trkpt lat="31.7413300" lon="35.1068000">
<ele>473.319977</ele>
<time>2023-01-25T13:56:44.103Z</time>
</trkpt>
<trkpt lat="31.7413300" lon="35.1068000">
<ele>473.319977</ele>
<time>2023-01-25T13:56:44.103Z</time>
</trkpt>
<trkpt lat="31.7413300" lon="35.1068000">
<ele>473.319977</ele>
<time>2023-01-25T13:56:44.103Z</time>
</trkpt>
<trkpt lat="31.7413300" lon="35.1068000">
<ele>473.319977</ele>
<time>2023-01-25T13:56:44.103Z</time>
</trkpt>
<trkpt lat="31.7413300" lon="35.1068000">
<ele>473.319977</ele>
<time>2023-01-25T13:56:44.103Z</time>
</trkpt>
<trkpt lat="31.7413300" lon="35.1068000">
<ele>473.319977</ele>
<time>2023-01-25T13:56:44.103Z</time>
</trkpt>
<trkpt lat="31.7413300" lon="35.1068000">
<ele>473.319977</ele>
<time>2023-01-25T13:56:44.103Z</time>
</trkpt>
<trkpt lat="31.7413300" lon="35.1068000">
<ele>473.319977</ele>
<time>2023-01-25T13:56:44.103Z</time>
</trkpt>
<trkpt lat="31.7413300" lon="35.1068000">
<ele>473.319977</ele>
<time>2023-01-25T13:56:44.103Z</time>
</trkpt>
<trkpt lat="31.7413300" lon="35.1068000">
<ele>473.319977</ele>
<time>2023-01-25T13:56:44.103Z</time>
</trkpt>
<trkpt lat="31.7413300" lon="35.1068000">
<ele>473.319977</ele>
<time>2023-01-25T13:56:44.103Z</time>
</trkpt>
<trkpt lat="31.7413300" lon="35.1068000">
<ele>473.319977</ele>
<time>2023-01-25T13:56:44.103Z</time>
</trkpt>
<trkpt lat="31.7413300" lon="35.1068000">
<ele>473.319977</ele>
<time>2023-01-25T13:56:44.103Z</time>
</trkpt>
<trkpt lat="31.7413300" lon="35.1068000">
<ele>473.319977</ele>
<time>2023-01-25T13:56:44.103Z</time>
</trkpt>
<trkpt lat="31.7413300" lon="35.1068000">
<ele>473.319977</ele>
<time>2023-01-25T13:56:44.103Z</time>
</trkpt>
<trkpt lat="31.7413300" lon="35.1068000">
<ele>473.319977</ele>
<time>2023-01-25T13:56:44.103Z</time>
</trkpt>
<trkpt lat="31.7413300" lon="35.1068000">
<ele>473.319977</ele>
<time>2023-01-25T13:56:44.103Z</time>
</trkpt>
<trkpt lat="31.7413300" lon="35.1068000">
<ele>473.319977</ele>
<time>2023-01-25T13:56:44.103Z</time>
</trkpt>
<trkpt lat="31.7413400" lon="35.1068000">
<ele>473.329987</ele>
<time>2023-01-25T13:56:44.103Z</time>
</trkpt>
<trkpt lat="31.7413400" lon="35.1068000">
<ele>473.329987</ele>
<time>2023-01-25T13:56:44.103Z</time>
</trkpt>
<trkpt lat="31.7413400" lon="35.1068000">
<ele>473.329987</ele>
<time>2023-01-25T13:56:44.103Z</time>
</trkpt>
<trkpt lat="31.7413400" lon="35.1068000">
<ele>473.329987</ele>
<time>2023-01-25T13:56:44.103Z</time>
</trkpt>
<trkpt lat="31.7413400" lon="35.1068000">
<ele>473.329987</ele>
<time>2023-01-25T13:56:44.104Z</time>
</trkpt>
<trkpt lat="31.7413400" lon="35.1068000">
<ele>473.329987</ele>
<time>2023-01-25T13:56:44.104Z</time>
</trkpt>
<trkpt lat="31.7413400" lon="35.1068000">
<ele>473.329987</ele>
<time>2023-01-25T13:56:44.104Z</time>
</trkpt>
<trkpt lat="31.7413400" lon="35.1068000">
<ele>473.329987</ele>
<time>2023-01-25T13:56:44.104Z</time>
</trkpt>
<trkpt lat="31.7413400" lon="35.1068000">
<ele>473.329987</ele>
<time>2023-01-25T13:56:44.104Z</time>
</trkpt>
<trkpt lat="31.7413400" lon="35.1068000">
<ele>473.329987</ele>
<time>2023-01-25T13:56:44.104Z</time>
</trkpt>
<trkpt lat="31.7413400" lon="35.1068000">
<ele>473.329987</ele>
<time>2023-01-25T13:56:44.104Z</time>
</trkpt>
<trkpt lat="31.7413400" lon="35.1068000">
<ele>473.329987</ele>
<time>2023-01-25T13:56:44.104Z</time>
</trkpt>
<trkpt lat="31.7413400" lon="35.1068000">
<ele>473.329987</ele>
<time>2023-01-25T13:56:44.104Z</time>
</trkpt>
<trkpt lat="31.7413400" lon="35.1068000">
<ele>473.329987</ele>
<time>2023-01-25T13:56:44.104Z</time>
</trkpt>
<trkpt lat="31.7413400" lon="35.1068000">
<ele>473.329987</ele>
<time>2023-01-25T13:56:44.104Z</time>
</trkpt>
<trkpt lat="31.7413400" lon="35.1068000">
<ele>473.329987</ele>
<time>2023-01-25T13:56:44.104Z</time>
</trkpt>
<trkpt lat="31.7413400" lon="35.1068100">
<ele>473.480011</ele>
<time>2023-01-25T13:56:44.104Z</time>
</trkpt>
<trkpt lat="31.7413500" lon="35.1068100">
<ele>473.500000</ele>
<time>2023-01-25T13:56:44.104Z</time>
</trkpt>
<trkpt lat="31.7413500" lon="35.1068100">
<ele>473.500000</ele>
<time>2023-01-25T13:56:44.104Z</time>
</trkpt>
<trkpt lat="31.7413500" lon="35.1068100">
<ele>473.500000</ele>
<time>2023-01-25T13:56:44.104Z</time>
</trkpt>
<trkpt lat="31.7413500" lon="35.1068100">
<ele>473.500000</ele>
<time>2023-01-25T13:56:44.104Z</time>
</trkpt>
<trkpt lat="31.7413500" lon="35.1068100">
<ele>473.500000</ele>
<time>2023-01-25T13:56:44.104Z</time>
</trkpt>
<trkpt lat="31.7413600" lon="35.1068200">
<ele>473.679993</ele>
<time>2023-01-25T13:56:44.104Z</time>
</trkpt>
<trkpt lat="31.7413600" lon="35.1068200">
<ele>473.679993</ele>
<time>2023-01-25T13:56:44.104Z</time>
</trkpt>
<trkpt lat="31.7413600" lon="35.1068100">
<ele>473.520020</ele>
<time>2023-01-25T13:56:44.104Z</time>
</trkpt>
<trkpt lat="31.7414300" lon="35.1067400">
<ele>472.690002</ele>
<time>2023-01-25T13:56:44.104Z</time>
</trkpt>
<trkpt lat="31.7415400" lon="35.1067000">
<ele>473.100006</ele>
<time>2023-01-25T13:56:44.104Z</time>
</trkpt>
<trkpt lat="31.7416600" lon="35.1066700">
<ele>473.959991</ele>
<time>2023-01-25T13:56:44.104Z</time>
</trkpt>
<trkpt lat="31.7417700" lon="35.1066300">
<ele>472.130005</ele>
<time>2023-01-25T13:56:44.104Z</time>
</trkpt>
<trkpt lat="31.7418900" lon="35.1066000">
<ele>470.400024</ele>
<time>2023-01-25T13:56:44.104Z</time>
</trkpt>
<trkpt lat="31.7419900" lon="35.1065400">
<ele>469.989990</ele>
<time>2023-01-25T13:56:44.104Z</time>
</trkpt>
<trkpt lat="31.7420900" lon="35.1064900">
<ele>470.320007</ele>
<time>2023-01-25T13:56:44.104Z</time>
</trkpt>
<trkpt lat="31.7421900" lon="35.1064600">
<ele>470.390015</ele>
<time>2023-01-25T13:56:44.104Z</time>
</trkpt>
<trkpt lat="31.7422900" lon="35.1064300">
<ele>472.190002</ele>
<time>2023-01-25T13:56:44.105Z</time>
</trkpt>
<trkpt lat="31.7423700" lon="35.1063800">
<ele>473.750000</ele>
<time>2023-01-25T13:56:44.105Z</time>
</trkpt>
<trkpt lat="31.7424500" lon="35.1062900">
<ele>475.570007</ele>
<time>2023-01-25T13:56:44.105Z</time>
</trkpt>
<trkpt lat="31.7425200" lon="35.1061800">
<ele>476.610016</ele>
<time>2023-01-25T13:56:44.105Z</time>
</trkpt>
<trkpt lat="31.7425600" lon="35.1060600">
<ele>476.870026</ele>
<time>2023-01-25T13:56:44.105Z</time>
</trkpt>
<trkpt lat="31.7425900" lon="35.1059400">
<ele>476.350006</ele>
<time>2023-01-25T13:56:44.105Z</time>
</trkpt>
<trkpt lat="31.7426300" lon="35.1058000">
<ele>475.279999</ele>
<time>2023-01-25T13:56:44.105Z</time>
</trkpt>
<trkpt lat="31.7426700" lon="35.1056700">
<ele>475.250000</ele>
<time>2023-01-25T13:56:44.105Z</time>
</trkpt>
<trkpt lat="31.7427100" lon="35.1055200">
<ele>475.070007</ele>
<time>2023-01-25T13:56:44.105Z</time>
</trkpt>
<trkpt lat="31.7427400" lon="35.1053900">
<ele>474.559967</ele>
<time>2023-01-25T13:56:44.105Z</time>
</trkpt>
<trkpt lat="31.7427900" lon="35.1052500">
<ele>474.250000</ele>
<time>2023-01-25T13:56:44.105Z</time>
</trkpt>
<trkpt lat="31.7428300" lon="35.1051300">
<ele>474.829987</ele>
<time>2023-01-25T13:56:44.105Z</time>
</trkpt>
<trkpt lat="31.7428800" lon="35.1050300">
<ele>475.220001</ele>
<time>2023-01-25T13:56:44.105Z</time>
</trkpt>
<trkpt lat="31.7429000" lon="35.1049100">
<ele>475.179993</ele>
<time>2023-01-25T13:56:44.105Z</time>
</trkpt>
<trkpt lat="31.7429400" lon="35.1048000">
<ele>475.329987</ele>
<time>2023-01-25T13:56:44.105Z</time>
</trkpt>
<trkpt lat="31.7429800" lon="35.1046700">
<ele>475.589996</ele>
<time>2023-01-25T13:56:44.105Z</time>
</trkpt>
<trkpt lat="31.7429400" lon="35.1045300">
<ele>475.570007</ele>
<time>2023-01-25T13:56:44.105Z</time>
</trkpt>
<trkpt lat="31.7428700" lon="35.1044300">
<ele>475.079987</ele>
<time>2023-01-25T13:56:44.105Z</time>
</trkpt>
<trkpt lat="31.7428200" lon="35.1043100">
<ele>475.089996</ele>
<time>2023-01-25T13:56:44.105Z</time>
</trkpt>
<trkpt lat="31.7427900" lon="35.1041800">
<ele>475.169983</ele>
<time>2023-01-25T13:56:44.105Z</time>
</trkpt>
<trkpt lat="31.7427600" lon="35.1040600">
<ele>474.699982</ele>
<time>2023-01-25T13:56:44.105Z</time>
</trkpt>
<trkpt lat="31.7427500" lon="35.1039600">
<ele>474.430023</ele>
<time>2023-01-25T13:56:44.105Z</time>
</trkpt>
<trkpt lat="31.7427400" lon="35.1038000">
<ele>473.630005</ele>
<time>2023-01-25T13:56:44.105Z</time>
</trkpt>
<trkpt lat="31.7427800" lon="35.1036500">
<ele>472.339996</ele>
<time>2023-01-25T13:56:44.105Z</time>
</trkpt>
<trkpt lat="31.7428200" lon="35.1035500">
<ele>473.029999</ele>
<time>2023-01-25T13:56:44.105Z</time>
</trkpt>
<trkpt lat="31.7428600" lon="35.1034500">
<ele>473.959991</ele>
<time>2023-01-25T13:56:44.105Z</time>
</trkpt>
<trkpt lat="31.7429100" lon="35.1033100">
<ele>475.250000</ele>
<time>2023-01-25T13:56:44.105Z</time>
</trkpt>
<trkpt lat="31.7429400" lon="35.1031600">
<ele>475.790009</ele>
<time>2023-01-25T13:56:44.105Z</time>
</trkpt>
<trkpt lat="31.7429800" lon="35.1030100">
<ele>475.800018</ele>
<time>2023-01-25T13:56:44.105Z</time>
</trkpt>
<trkpt lat="31.7430200" lon="35.1028600">
<ele>474.600006</ele>
<time>2023-01-25T13:56:44.105Z</time>
</trkpt>
<trkpt lat="31.7430700" lon="35.1027200">
<ele>473.970001</ele>
<time>2023-01-25T13:56:44.106Z</time>
</trkpt>
<trkpt lat="31.7431200" lon="35.1025900">
<ele>474.029999</ele>
<time>2023-01-25T13:56:44.106Z</time>
</trkpt>
<trkpt lat="31.7431500" lon="35.1024500">
<ele>473.279999</ele>
<time>2023-01-25T13:56:44.106Z</time>
</trkpt>
<trkpt lat="31.7431500" lon="35.1023100">
<ele>472.100006</ele>
<time>2023-01-25T13:56:44.106Z</time>
</trkpt>
<trkpt lat="31.7431600" lon="35.1021900">
<ele>471.519989</ele>
<time>2023-01-25T13:56:44.106Z</time>
</trkpt>
<trkpt lat="31.7431700" lon="35.1020700">
<ele>471.779999</ele>
<time>2023-01-25T13:56:44.106Z</time>
</trkpt>
<trkpt lat="31.7431700" lon="35.1019500">
<ele>471.880005</ele>
<time>2023-01-25T13:56:44.106Z</time>
</trkpt>
<trkpt lat="31.7431700" lon="35.1018400">
<ele>471.349976</ele>
<time>2023-01-25T13:56:44.106Z</time>
</trkpt>
<trkpt lat="31.7431700" lon="35.1016900">
<ele>470.589996</ele>
<time>2023-01-25T13:56:44.106Z</time>
</trkpt>
<trkpt lat="31.7431700" lon="35.1015500">
<ele>470.230011</ele>
<time>2023-01-25T13:56:44.106Z</time>
</trkpt>
<trkpt lat="31.7431500" lon="35.1014000">
<ele>469.410004</ele>
<time>2023-01-25T13:56:44.106Z</time>
</trkpt>
<trkpt lat="31.7431400" lon="35.1012500">
<ele>469.129974</ele>
<time>2023-01-25T13:56:44.106Z</time>
</trkpt>
<trkpt lat="31.7431500" lon="35.1011000">
<ele>469.370026</ele>
<time>2023-01-25T13:56:44.106Z</time>
</trkpt>
<trkpt lat="31.7431600" lon="35.1009600">
<ele>469.429993</ele>
<time>2023-01-25T13:56:44.106Z</time>
</trkpt>
<trkpt lat="31.7431600" lon="35.1008400">
<ele>469.269989</ele>
<time>2023-01-25T13:56:44.106Z</time>
</trkpt>
<trkpt lat="31.7431600" lon="35.1007100">
<ele>470.199982</ele>
<time>2023-01-25T13:56:44.106Z</time>
</trkpt>
<trkpt lat="31.7431500" lon="35.1005900">
<ele>470.809998</ele>
<time>2023-01-25T13:56:44.106Z</time>
</trkpt>
<trkpt lat="31.7431300" lon="35.1004400">
<ele>470.749969</ele>
<time>2023-01-25T13:56:44.106Z</time>
</trkpt>
<trkpt lat="31.7431100" lon="35.1003400">
<ele>470.220001</ele>
<time>2023-01-25T13:56:44.106Z</time>
</trkpt>
<trkpt lat="31.7430900" lon="35.1002300">
<ele>469.899994</ele>
<time>2023-01-25T13:56:44.106Z</time>
</trkpt>
<trkpt lat="31.7430600" lon="35.1001000">
<ele>469.500000</ele>
<time>2023-01-25T13:56:44.106Z</time>
</trkpt>
<trkpt lat="31.7430200" lon="35.0999700">
<ele>469.820007</ele>
<time>2023-01-25T13:56:44.106Z</time>
</trkpt>
<trkpt lat="31.7429700" lon="35.0998300">
<ele>470.109985</ele>
<time>2023-01-25T13:56:44.106Z</time>
</trkpt>
<trkpt lat="31.7429200" lon="35.0997400">
<ele>469.949982</ele>
<time>2023-01-25T13:56:44.106Z</time>
</trkpt>
<trkpt lat="31.7428500" lon="35.0996400">
<ele>469.939972</ele>
<time>2023-01-25T13:56:44.106Z</time>
</trkpt>
<trkpt lat="31.7427800" lon="35.0995300">
<ele>469.440002</ele>
<time>2023-01-25T13:56:44.106Z</time>
</trkpt>
<trkpt lat="31.7427200" lon="35.0994400">
<ele>469.829987</ele>
<time>2023-01-25T13:56:44.106Z</time>
</trkpt>
<trkpt lat="31.7426500" lon="35.0993200">
<ele>470.060028</ele>
<time>2023-01-25T13:56:44.106Z</time>
</trkpt>
<trkpt lat="31.7425900" lon="35.0992500">
<ele>469.529999</ele>
<time>2023-01-25T13:56:44.106Z</time>
</trkpt>
<trkpt lat="31.7425900" lon="35.0992400">
<ele>469.540009</ele>
<time>2023-01-25T13:56:44.107Z</time>
</trkpt>
<trkpt lat="31.7425900" lon="35.0992400">
<ele>469.540009</ele>
<time>2023-01-25T13:56:44.107Z</time>
</trkpt>
<trkpt lat="31.7425900" lon="35.0992400">
<ele>469.540009</ele>
<time>2023-01-25T13:56:44.107Z</time>
</trkpt>
<trkpt lat="31.7425500" lon="35.0991300">
<ele>469.169983</ele>
<time>2023-01-25T13:56:44.107Z</time>
</trkpt>
<trkpt lat="31.7424700" lon="35.0990200">
<ele>468.630005</ele>
<time>2023-01-25T13:56:44.107Z</time>
</trkpt>
<trkpt lat="31.7424200" lon="35.0989200">
<ele>468.950012</ele>
<time>2023-01-25T13:56:44.107Z</time>
</trkpt>
<trkpt lat="31.7423600" lon="35.0988000">
<ele>469.639984</ele>
<time>2023-01-25T13:56:44.107Z</time>
</trkpt>
<trkpt lat="31.7422600" lon="35.0987000">
<ele>469.859985</ele>
<time>2023-01-25T13:56:44.107Z</time>
</trkpt>
<trkpt lat="31.7421800" lon="35.0986000">
<ele>470.289978</ele>
<time>2023-01-25T13:56:44.107Z</time>
</trkpt>
<trkpt lat="31.7420900" lon="35.0984900">
<ele>471.600006</ele>
<time>2023-01-25T13:56:44.107Z</time>
</trkpt>
<trkpt lat="31.7420300" lon="35.0984100">
<ele>472.079987</ele>
<time>2023-01-25T13:56:44.107Z</time>
</trkpt>
<trkpt lat="31.7419700" lon="35.0983200">
<ele>472.339996</ele>
<time>2023-01-25T13:56:44.107Z</time>
</trkpt>
<trkpt lat="31.7419200" lon="35.0982300">
<ele>472.899994</ele>
<time>2023-01-25T13:56:44.107Z</time>
</trkpt>
<trkpt lat="31.7418700" lon="35.0981400">
<ele>473.069977</ele>
<time>2023-01-25T13:56:44.107Z</time>
</trkpt>
<trkpt lat="31.7418200" lon="35.0980400">
<ele>472.790009</ele>
<time>2023-01-25T13:56:44.107Z</time>
</trkpt>
<trkpt lat="31.7417600" lon="35.0979000">
<ele>471.869995</ele>
<time>2023-01-25T13:56:44.107Z</time>
</trkpt>
<trkpt lat="31.7417200" lon="35.0978100">
<ele>471.130005</ele>
<time>2023-01-25T13:56:44.107Z</time>
</trkpt>
<trkpt lat="31.7416800" lon="35.0977100">
<ele>470.069977</ele>
<time>2023-01-25T13:56:44.107Z</time>
</trkpt>
<trkpt lat="31.7416400" lon="35.0976000">
<ele>469.049988</ele>
<time>2023-01-25T13:56:44.107Z</time>
</trkpt>
<trkpt lat="31.7415900" lon="35.0974900">
<ele>467.889984</ele>
<time>2023-01-25T13:56:44.107Z</time>
</trkpt>
<trkpt lat="31.7415400" lon="35.0973800">
<ele>466.980011</ele>
<time>2023-01-25T13:56:44.107Z</time>
</trkpt>
<trkpt lat="31.7415000" lon="35.0972700">
<ele>466.100006</ele>
<time>2023-01-25T13:56:44.107Z</time>
</trkpt>
<trkpt lat="31.7414700" lon="35.0971500">
<ele>465.380005</ele>
<time>2023-01-25T13:56:44.107Z</time>
</trkpt>
<trkpt lat="31.7414400" lon="35.0970300">
<ele>464.790009</ele>
<time>2023-01-25T13:56:44.107Z</time>
</trkpt>
<trkpt lat="31.7414200" lon="35.0969100">
<ele>464.320007</ele>
<time>2023-01-25T13:56:44.107Z</time>
</trkpt>
<trkpt lat="31.7414000" lon="35.0968000">
<ele>463.640015</ele>
<time>2023-01-25T13:56:44.107Z</time>
</trkpt>
<trkpt lat="31.7414000" lon="35.0966500">
<ele>463.040009</ele>
<time>2023-01-25T13:56:44.107Z</time>
</trkpt>
<trkpt lat="31.7413800" lon="35.0965400">
<ele>462.040009</ele>
<time>2023-01-25T13:56:44.107Z</time>
</trkpt>
<trkpt lat="31.7413600" lon="35.0964200">
<ele>461.190002</ele>
<time>2023-01-25T13:56:44.107Z</time>
</trkpt>
<trkpt lat="31.7413400" lon="35.0963000">
<ele>460.739990</ele>
<time>2023-01-25T13:56:44.107Z</time>
</trkpt>
<trkpt lat="31.7413200" lon="35.0961800">
<ele>460.430023</ele>
<time>2023-01-25T13:56:44.107Z</time>
</trkpt>
<trkpt lat="31.7413300" lon="35.0960500">
<ele>460.170013</ele>
<time>2023-01-25T13:56:44.108Z</time>
</trkpt>
<trkpt lat="31.7413500" lon="35.0959300">
<ele>460.049988</ele>
<time>2023-01-25T13:56:44.108Z</time>
</trkpt>
<trkpt lat="31.7414000" lon="35.0958100">
<ele>460.190002</ele>
<time>2023-01-25T13:56:44.108Z</time>
</trkpt>
<trkpt lat="31.7414600" lon="35.0957100">
<ele>460.869995</ele>
<time>2023-01-25T13:56:44.108Z</time>
</trkpt>
<trkpt lat="31.7415100" lon="35.0956100">
<ele>461.059998</ele>
<time>2023-01-25T13:56:44.108Z</time>
</trkpt>
<trkpt lat="31.7415400" lon="35.0955100">
<ele>460.579987</ele>
<time>2023-01-25T13:56:44.108Z</time>
</trkpt>
<trkpt lat="31.7416000" lon="35.0954200">
<ele>459.649994</ele>
<time>2023-01-25T13:56:44.108Z</time>
</trkpt>
<trkpt lat="31.7416900" lon="35.0953100">
<ele>458.379974</ele>
<time>2023-01-25T13:56:44.108Z</time>
</trkpt>
<trkpt lat="31.7417500" lon="35.0952200">
<ele>457.479980</ele>
<time>2023-01-25T13:56:44.108Z</time>
</trkpt>
<trkpt lat="31.7418200" lon="35.0951300">
<ele>456.000000</ele>
<time>2023-01-25T13:56:44.108Z</time>
</trkpt>
<trkpt lat="31.7418900" lon="35.0950600">
<ele>454.059998</ele>
<time>2023-01-25T13:56:44.108Z</time>
</trkpt>
<trkpt lat="31.7419800" lon="35.0950000">
<ele>451.619995</ele>
<time>2023-01-25T13:56:44.108Z</time>
</trkpt>
<trkpt lat="31.7420700" lon="35.0949500">
<ele>450.089996</ele>
<time>2023-01-25T13:56:44.108Z</time>
</trkpt>
<trkpt lat="31.7421700" lon="35.0949300">
<ele>448.970001</ele>
<time>2023-01-25T13:56:44.108Z</time>
</trkpt>
<trkpt lat="31.7422700" lon="35.0949400">
<ele>448.429993</ele>
<time>2023-01-25T13:56:44.108Z</time>
</trkpt>
<trkpt lat="31.7423700" lon="35.0949400">
<ele>448.149994</ele>
<time>2023-01-25T13:56:44.108Z</time>
</trkpt>
<trkpt lat="31.7424700" lon="35.0949600">
<ele>447.950012</ele>
<time>2023-01-25T13:56:44.108Z</time>
</trkpt>
<trkpt lat="31.7425600" lon="35.0949900">
<ele>449.239990</ele>
<time>2023-01-25T13:56:44.108Z</time>
</trkpt>
<trkpt lat="31.7426500" lon="35.0950200">
<ele>451.709991</ele>
<time>2023-01-25T13:56:44.108Z</time>
</trkpt>
<trkpt lat="31.7427400" lon="35.0950600">
<ele>454.669983</ele>
<time>2023-01-25T13:56:44.108Z</time>
</trkpt>
<trkpt lat="31.7428300" lon="35.0951000">
<ele>456.299988</ele>
<time>2023-01-25T13:56:44.108Z</time>
</trkpt>
<trkpt lat="31.7429400" lon="35.0951400">
<ele>456.350006</ele>
<time>2023-01-25T13:56:44.108Z</time>
</trkpt>
<trkpt lat="31.7430500" lon="35.0951700">
<ele>455.670013</ele>
<time>2023-01-25T13:56:44.108Z</time>
</trkpt>
<trkpt lat="31.7431600" lon="35.0951900">
<ele>454.809998</ele>
<time>2023-01-25T13:56:44.108Z</time>
</trkpt>
<trkpt lat="31.7432700" lon="35.0951900">
<ele>453.899994</ele>
<time>2023-01-25T13:56:44.108Z</time>
</trkpt>
<trkpt lat="31.7433600" lon="35.0951700">
<ele>453.730011</ele>
<time>2023-01-25T13:56:44.108Z</time>
</trkpt>
<trkpt lat="31.7434700" lon="35.0951400">
<ele>455.469971</ele>
<time>2023-01-25T13:56:44.108Z</time>
</trkpt>
<trkpt lat="31.7435800" lon="35.0950800">
<ele>456.639984</ele>
<time>2023-01-25T13:56:44.108Z</time>
</trkpt>
<trkpt lat="31.7436700" lon="35.0950300">
<ele>457.730011</ele>
<time>2023-01-25T13:56:44.108Z</time>
</trkpt>
<trkpt lat="31.7437500" lon="35.0949700">
<ele>458.779999</ele>
<time>2023-01-25T13:56:44.108Z</time>
</trkpt>
<trkpt lat="31.7438100" lon="35.0948900">
<ele>459.500000</ele>
<time>2023-01-25T13:56:44.109Z</time>
</trkpt>
<trkpt lat="31.7438800" lon="35.0948000">
<ele>460.369995</ele>
<time>2023-01-25T13:56:44.109Z</time>
</trkpt>
<trkpt lat="31.7439300" lon="35.0946900">
<ele>459.850006</ele>
<time>2023-01-25T13:56:44.109Z</time>
</trkpt>
<trkpt lat="31.7439800" lon="35.0945900">
<ele>458.910004</ele>
<time>2023-01-25T13:56:44.109Z</time>
</trkpt>
<trkpt lat="31.7440500" lon="35.0944700">
<ele>458.049988</ele>
<time>2023-01-25T13:56:44.109Z</time>
</trkpt>
<trkpt lat="31.7441300" lon="35.0943700">
<ele>456.870026</ele>
<time>2023-01-25T13:56:44.109Z</time>
</trkpt>
<trkpt lat="31.7442300" lon="35.0943000">
<ele>455.009979</ele>
<time>2023-01-25T13:56:44.109Z</time>
</trkpt>
<trkpt lat="31.7443400" lon="35.0942900">
<ele>454.139984</ele>
<time>2023-01-25T13:56:44.109Z</time>
</trkpt>
<trkpt lat="31.7444500" lon="35.0942700">
<ele>452.940033</ele>
<time>2023-01-25T13:56:44.109Z</time>
</trkpt>
<trkpt lat="31.7445300" lon="35.0942200">
<ele>451.239990</ele>
<time>2023-01-25T13:56:44.109Z</time>
</trkpt>
<trkpt lat="31.7446200" lon="35.0941700">
<ele>450.059998</ele>
<time>2023-01-25T13:56:44.109Z</time>
</trkpt>
<trkpt lat="31.7447200" lon="35.0941300">
<ele>449.739990</ele>
<time>2023-01-25T13:56:44.109Z</time>
</trkpt>
<trkpt lat="31.7448100" lon="35.0940900">
<ele>449.850006</ele>
<time>2023-01-25T13:56:44.109Z</time>
</trkpt>
<trkpt lat="31.7449000" lon="35.0940500">
<ele>450.070007</ele>
<time>2023-01-25T13:56:44.109Z</time>
</trkpt>
<trkpt lat="31.7450200" lon="35.0940100">
<ele>450.660004</ele>
<time>2023-01-25T13:56:44.109Z</time>
</trkpt>
<trkpt lat="31.7451100" lon="35.0939800">
<ele>451.650024</ele>
<time>2023-01-25T13:56:44.109Z</time>
</trkpt>
<trkpt lat="31.7452000" lon="35.0939500">
<ele>452.779999</ele>
<time>2023-01-25T13:56:44.109Z</time>
</trkpt>
<trkpt lat="31.7453100" lon="35.0939200">
<ele>453.799988</ele>
<time>2023-01-25T13:56:44.109Z</time>
</trkpt>
<trkpt lat="31.7454300" lon="35.0939400">
<ele>453.470001</ele>
<time>2023-01-25T13:56:44.109Z</time>
</trkpt>
<trkpt lat="31.7455300" lon="35.0939600">
<ele>453.299988</ele>
<time>2023-01-25T13:56:44.109Z</time>
</trkpt>
<trkpt lat="31.7456300" lon="35.0939500">
<ele>453.660004</ele>
<time>2023-01-25T13:56:44.109Z</time>
</trkpt>
<trkpt lat="31.7457400" lon="35.0939300">
<ele>454.109985</ele>
<time>2023-01-25T13:56:44.109Z</time>
</trkpt>
<trkpt lat="31.7458300" lon="35.0939100">
<ele>454.290009</ele>
<time>2023-01-25T13:56:44.109Z</time>
</trkpt>
<trkpt lat="31.7459300" lon="35.0938400">
<ele>452.259979</ele>
<time>2023-01-25T13:56:44.109Z</time>
</trkpt>
<trkpt lat="31.7460300" lon="35.0937800">
<ele>450.379974</ele>
<time>2023-01-25T13:56:44.109Z</time>
</trkpt>
<trkpt lat="31.7461400" lon="35.0937300">
<ele>448.919983</ele>
<time>2023-01-25T13:56:44.109Z</time>
</trkpt>
<trkpt lat="31.7462500" lon="35.0936900">
<ele>448.929993</ele>
<time>2023-01-25T13:56:44.109Z</time>
</trkpt>
<trkpt lat="31.7463700" lon="35.0936800">
<ele>449.200012</ele>
<time>2023-01-25T13:56:44.109Z</time>
</trkpt>
<trkpt lat="31.7464800" lon="35.0937200">
<ele>450.450012</ele>
<time>2023-01-25T13:56:44.109Z</time>
</trkpt>
<trkpt lat="31.7465500" lon="35.0937900">
<ele>451.220001</ele>
<time>2023-01-25T13:56:44.109Z</time>
</trkpt>
<trkpt lat="31.7466000" lon="35.0938900">
<ele>451.529968</ele>
<time>2023-01-25T13:56:44.109Z</time>
</trkpt>
<trkpt lat="31.7466100" lon="35.0940100">
<ele>452.290009</ele>
<time>2023-01-25T13:56:44.110Z</time>
</trkpt>
<trkpt lat="31.7466200" lon="35.0941300">
<ele>452.970001</ele>
<time>2023-01-25T13:56:44.110Z</time>
</trkpt>
<trkpt lat="31.7466700" lon="35.0942600">
<ele>453.940002</ele>
<time>2023-01-25T13:56:44.110Z</time>
</trkpt>
<trkpt lat="31.7467500" lon="35.0943600">
<ele>453.380005</ele>
<time>2023-01-25T13:56:44.110Z</time>
</trkpt>
<trkpt lat="31.7468600" lon="35.0944500">
<ele>451.889984</ele>
<time>2023-01-25T13:56:44.110Z</time>
</trkpt>
<trkpt lat="31.7469400" lon="35.0945000">
<ele>450.700012</ele>
<time>2023-01-25T13:56:44.110Z</time>
</trkpt>
<trkpt lat="31.7470400" lon="35.0945800">
<ele>453.010010</ele>
<time>2023-01-25T13:56:44.110Z</time>
</trkpt>
<trkpt lat="31.7471300" lon="35.0946100">
<ele>454.860016</ele>
<time>2023-01-25T13:56:44.110Z</time>
</trkpt>
<trkpt lat="31.7472300" lon="35.0946100">
<ele>456.230011</ele>
<time>2023-01-25T13:56:44.110Z</time>
</trkpt>
<trkpt lat="31.7473200" lon="35.0946200">
<ele>454.600006</ele>
<time>2023-01-25T13:56:44.110Z</time>
</trkpt>
<trkpt lat="31.7474300" lon="35.0946000">
<ele>451.929993</ele>
<time>2023-01-25T13:56:44.110Z</time>
</trkpt>
<trkpt lat="31.7475200" lon="35.0945700">
<ele>449.689972</ele>
<time>2023-01-25T13:56:44.110Z</time>
</trkpt>
<trkpt lat="31.7476500" lon="35.0945200">
<ele>448.720001</ele>
<time>2023-01-25T13:56:44.110Z</time>
</trkpt>
<trkpt lat="31.7477400" lon="35.0944700">
<ele>447.599976</ele>
<time>2023-01-25T13:56:44.110Z</time>
</trkpt>
<trkpt lat="31.7478300" lon="35.0943900">
<ele>447.729980</ele>
<time>2023-01-25T13:56:44.110Z</time>
</trkpt>
<trkpt lat="31.7479300" lon="35.0942900">
<ele>447.920013</ele>
<time>2023-01-25T13:56:44.110Z</time>
</trkpt>
<trkpt lat="31.7480400" lon="35.0942000">
<ele>446.670013</ele>
<time>2023-01-25T13:56:44.110Z</time>
</trkpt>
<trkpt lat="31.7481700" lon="35.0941000">
<ele>446.279999</ele>
<time>2023-01-25T13:56:44.110Z</time>
</trkpt>
<trkpt lat="31.7482900" lon="35.0940300">
<ele>446.560028</ele>
<time>2023-01-25T13:56:44.110Z</time>
</trkpt>
<trkpt lat="31.7483900" lon="35.0939800">
<ele>446.850006</ele>
<time>2023-01-25T13:56:44.110Z</time>
</trkpt>
<trkpt lat="31.7484800" lon="35.0939400">
<ele>446.990021</ele>
<time>2023-01-25T13:56:44.110Z</time>
</trkpt>
<trkpt lat="31.7485900" lon="35.0939100">
<ele>447.289978</ele>
<time>2023-01-25T13:56:44.110Z</time>
</trkpt>
<trkpt lat="31.7487000" lon="35.0938600">
<ele>445.929993</ele>
<time>2023-01-25T13:56:44.110Z</time>
</trkpt>
<trkpt lat="31.7488000" lon="35.0938000">
<ele>444.970001</ele>
<time>2023-01-25T13:56:44.110Z</time>
</trkpt>
<trkpt lat="31.7489200" lon="35.0937200">
<ele>444.970001</ele>
<time>2023-01-25T13:56:44.110Z</time>
</trkpt>
<trkpt lat="31.7490300" lon="35.0936400">
<ele>446.819977</ele>
<time>2023-01-25T13:56:44.110Z</time>
</trkpt>
<trkpt lat="31.7491400" lon="35.0936000">
<ele>448.520020</ele>
<time>2023-01-25T13:56:44.110Z</time>
</trkpt>
<trkpt lat="31.7492400" lon="35.0936100">
<ele>449.510010</ele>
<time>2023-01-25T13:56:44.110Z</time>
</trkpt>
<trkpt lat="31.7493400" lon="35.0936000">
<ele>450.049988</ele>
<time>2023-01-25T13:56:44.110Z</time>
</trkpt>
<trkpt lat="31.7494600" lon="35.0935500">
<ele>449.600006</ele>
<time>2023-01-25T13:56:44.110Z</time>
</trkpt>
<trkpt lat="31.7495600" lon="35.0934900">
<ele>448.100006</ele>
<time>2023-01-25T13:56:44.110Z</time>
</trkpt>
<trkpt lat="31.7496800" lon="35.0934400">
<ele>447.179993</ele>
<time>2023-01-25T13:56:44.110Z</time>
</trkpt>
<trkpt lat="31.7498100" lon="35.0934000">
<ele>446.390015</ele>
<time>2023-01-25T13:56:44.111Z</time>
</trkpt>
<trkpt lat="31.7499400" lon="35.0933700">
<ele>445.239990</ele>
<time>2023-01-25T13:56:44.111Z</time>
</trkpt>
<trkpt lat="31.7500800" lon="35.0933400">
<ele>445.020020</ele>
<time>2023-01-25T13:56:44.111Z</time>
</trkpt>
<trkpt lat="31.7502200" lon="35.0933300">
<ele>446.349976</ele>
<time>2023-01-25T13:56:44.111Z</time>
</trkpt>
<trkpt lat="31.7503500" lon="35.0933100">
<ele>445.539978</ele>
<time>2023-01-25T13:56:44.111Z</time>
</trkpt>
<trkpt lat="31.7504700" lon="35.0932800">
<ele>443.500000</ele>
<time>2023-01-25T13:56:44.111Z</time>
</trkpt>
<trkpt lat="31.7505800" lon="35.0932400">
<ele>442.860016</ele>
<time>2023-01-25T13:56:44.111Z</time>
</trkpt>
<trkpt lat="31.7506700" lon="35.0932100">
<ele>444.639984</ele>
<time>2023-01-25T13:56:44.111Z</time>
</trkpt>
<trkpt lat="31.7507500" lon="35.0931500">
<ele>445.490021</ele>
<time>2023-01-25T13:56:44.111Z</time>
</trkpt>
<trkpt lat="31.7508100" lon="35.0930700">
<ele>445.069977</ele>
<time>2023-01-25T13:56:44.111Z</time>
</trkpt>
<trkpt lat="31.7508700" lon="35.0929700">
<ele>444.959991</ele>
<time>2023-01-25T13:56:44.111Z</time>
</trkpt>
<trkpt lat="31.7509200" lon="35.0928600">
<ele>444.779999</ele>
<time>2023-01-25T13:56:44.111Z</time>
</trkpt>
<trkpt lat="31.7509500" lon="35.0927200">
<ele>443.820007</ele>
<time>2023-01-25T13:56:44.111Z</time>
</trkpt>
<trkpt lat="31.7509700" lon="35.0925800">
<ele>443.510010</ele>
<time>2023-01-25T13:56:44.111Z</time>
</trkpt>
<trkpt lat="31.7509800" lon="35.0924500">
<ele>443.119995</ele>
<time>2023-01-25T13:56:44.111Z</time>
</trkpt>
<trkpt lat="31.7509900" lon="35.0923400">
<ele>443.109985</ele>
<time>2023-01-25T13:56:44.111Z</time>
</trkpt>
<trkpt lat="31.7509900" lon="35.0922200">
<ele>442.820007</ele>
<time>2023-01-25T13:56:44.111Z</time>
</trkpt>
<trkpt lat="31.7509600" lon="35.0921200">
<ele>442.450012</ele>
<time>2023-01-25T13:56:44.111Z</time>
</trkpt>
<trkpt lat="31.7509200" lon="35.0920200">
<ele>441.790009</ele>
<time>2023-01-25T13:56:44.111Z</time>
</trkpt>
<trkpt lat="31.7508400" lon="35.0919200">
<ele>440.329987</ele>
<time>2023-01-25T13:56:44.111Z</time>
</trkpt>
<trkpt lat="31.7507900" lon="35.0918300">
<ele>441.259979</ele>
<time>2023-01-25T13:56:44.111Z</time>
</trkpt>
<trkpt lat="31.7507200" lon="35.0917400">
<ele>442.199982</ele>
<time>2023-01-25T13:56:44.111Z</time>
</trkpt>
<trkpt lat="31.7506600" lon="35.0916200">
<ele>442.809998</ele>
<time>2023-01-25T13:56:44.111Z</time>
</trkpt>
<trkpt lat="31.7506100" lon="35.0915000">
<ele>443.160004</ele>
<time>2023-01-25T13:56:44.111Z</time>
</trkpt>
<trkpt lat="31.7505900" lon="35.0913800">
<ele>443.260010</ele>
<time>2023-01-25T13:56:44.111Z</time>
</trkpt>
<trkpt lat="31.7505700" lon="35.0912700">
<ele>443.170013</ele>
<time>2023-01-25T13:56:44.111Z</time>
</trkpt>
<trkpt lat="31.7505600" lon="35.0911600">
<ele>443.070007</ele>
<time>2023-01-25T13:56:44.111Z</time>
</trkpt>
<trkpt lat="31.7505400" lon="35.0910400">
<ele>443.139984</ele>
<time>2023-01-25T13:56:44.111Z</time>
</trkpt>
<trkpt lat="31.7505300" lon="35.0909200">
<ele>443.149994</ele>
<time>2023-01-25T13:56:44.111Z</time>
</trkpt>
<trkpt lat="31.7505000" lon="35.0908100">
<ele>443.180023</ele>
<time>2023-01-25T13:56:44.111Z</time>
</trkpt>
<trkpt lat="31.7504800" lon="35.0906900">
<ele>443.130005</ele>
<time>2023-01-25T13:56:44.111Z</time>
</trkpt>
<trkpt lat="31.7504700" lon="35.0905600">
<ele>443.000000</ele>
<time>2023-01-25T13:56:44.112Z</time>
</trkpt>
<trkpt lat="31.7504700" lon="35.0904500">
<ele>443.149994</ele>
<time>2023-01-25T13:56:44.112Z</time>
</trkpt>
<trkpt lat="31.7504800" lon="35.0903400">
<ele>443.350006</ele>
<time>2023-01-25T13:56:44.112Z</time>
</trkpt>
<trkpt lat="31.7505000" lon="35.0902200">
<ele>444.059998</ele>
<time>2023-01-25T13:56:44.112Z</time>
</trkpt>
<trkpt lat="31.7505300" lon="35.0901100">
<ele>445.079987</ele>
<time>2023-01-25T13:56:44.112Z</time>
</trkpt>
<trkpt lat="31.7505800" lon="35.0900000">
<ele>446.349976</ele>
<time>2023-01-25T13:56:44.112Z</time>
</trkpt>
<trkpt lat="31.7506200" lon="35.0898800">
<ele>446.730011</ele>
<time>2023-01-25T13:56:44.112Z</time>
</trkpt>
<trkpt lat="31.7506800" lon="35.0897700">
<ele>447.049988</ele>
<time>2023-01-25T13:56:44.112Z</time>
</trkpt>
<trkpt lat="31.7507200" lon="35.0896600">
<ele>446.550018</ele>
<time>2023-01-25T13:56:44.112Z</time>
</trkpt>
<trkpt lat="31.7507600" lon="35.0895500">
<ele>445.899994</ele>
<time>2023-01-25T13:56:44.112Z</time>
</trkpt>
<trkpt lat="31.7507900" lon="35.0894500">
<ele>445.419983</ele>
<time>2023-01-25T13:56:44.112Z</time>
</trkpt>
<trkpt lat="31.7508100" lon="35.0893300">
<ele>443.569977</ele>
<time>2023-01-25T13:56:44.112Z</time>
</trkpt>
<trkpt lat="31.7508300" lon="35.0892200">
<ele>441.899994</ele>
<time>2023-01-25T13:56:44.112Z</time>
</trkpt>
<trkpt lat="31.7508400" lon="35.0891100">
<ele>441.059998</ele>
<time>2023-01-25T13:56:44.112Z</time>
</trkpt>
<trkpt lat="31.7508700" lon="35.0890000">
<ele>441.769989</ele>
<time>2023-01-25T13:56:44.112Z</time>
</trkpt>
<trkpt lat="31.7508700" lon="35.0888500">
<ele>440.540009</ele>
<time>2023-01-25T13:56:44.112Z</time>
</trkpt>
<trkpt lat="31.7508500" lon="35.0887000">
<ele>436.639984</ele>
<time>2023-01-25T13:56:44.112Z</time>
</trkpt>
<trkpt lat="31.7508300" lon="35.0885900">
<ele>434.239990</ele>
<time>2023-01-25T13:56:44.112Z</time>
</trkpt>
<trkpt lat="31.7508200" lon="35.0884700">
<ele>435.500000</ele>
<time>2023-01-25T13:56:44.112Z</time>
</trkpt>
<trkpt lat="31.7507800" lon="35.0883700">
<ele>436.299988</ele>
<time>2023-01-25T13:56:44.112Z</time>
</trkpt>
<trkpt lat="31.7507000" lon="35.0882700">
<ele>437.079987</ele>
<time>2023-01-25T13:56:44.112Z</time>
</trkpt>
<trkpt lat="31.7506300" lon="35.0881800">
<ele>437.640015</ele>
<time>2023-01-25T13:56:44.112Z</time>
</trkpt>
<trkpt lat="31.7505500" lon="35.0880900">
<ele>437.640015</ele>
<time>2023-01-25T13:56:44.112Z</time>
</trkpt>
<trkpt lat="31.7505000" lon="35.0879900">
<ele>438.570007</ele>
<time>2023-01-25T13:56:44.112Z</time>
</trkpt>
<trkpt lat="31.7504400" lon="35.0879000">
<ele>438.980011</ele>
<time>2023-01-25T13:56:44.113Z</time>
</trkpt>
<trkpt lat="31.7503900" lon="35.0878100">
<ele>439.070007</ele>
<time>2023-01-25T13:56:44.113Z</time>
</trkpt>
<trkpt lat="31.7503200" lon="35.0876900">
<ele>439.280029</ele>
<time>2023-01-25T13:56:44.113Z</time>
</trkpt>
<trkpt lat="31.7502500" lon="35.0875800">
<ele>438.869995</ele>
<time>2023-01-25T13:56:44.113Z</time>
</trkpt>
<trkpt lat="31.7501900" lon="35.0874700">
<ele>437.970001</ele>
<time>2023-01-25T13:56:44.113Z</time>
</trkpt>
<trkpt lat="31.7501400" lon="35.0873700">
<ele>437.229980</ele>
<time>2023-01-25T13:56:44.113Z</time>
</trkpt>
<trkpt lat="31.7500900" lon="35.0872500">
<ele>436.459991</ele>
<time>2023-01-25T13:56:44.113Z</time>
</trkpt>
<trkpt lat="31.7500400" lon="35.0871400">
<ele>435.829987</ele>
<time>2023-01-25T13:56:44.113Z</time>
</trkpt>
<trkpt lat="31.7499900" lon="35.0870400">
<ele>435.149994</ele>
<time>2023-01-25T13:56:44.113Z</time>
</trkpt>
<trkpt lat="31.7499300" lon="35.0869400">
<ele>434.489990</ele>
<time>2023-01-25T13:56:44.113Z</time>
</trkpt>
<trkpt lat="31.7498500" lon="35.0868400">
<ele>432.959991</ele>
<time>2023-01-25T13:56:44.113Z</time>
</trkpt>
<trkpt lat="31.7498100" lon="35.0867300">
<ele>432.420013</ele>
<time>2023-01-25T13:56:44.113Z</time>
</trkpt>
<trkpt lat="31.7497700" lon="35.0866100">
<ele>431.989990</ele>
<time>2023-01-25T13:56:44.113Z</time>
</trkpt>
<trkpt lat="31.7497400" lon="35.0865000">
<ele>431.839996</ele>
<time>2023-01-25T13:56:44.113Z</time>
</trkpt>
<trkpt lat="31.7497400" lon="35.0863700">
<ele>432.190002</ele>
<time>2023-01-25T13:56:44.113Z</time>
</trkpt>
<trkpt lat="31.7497700" lon="35.0862700">
<ele>432.439972</ele>
<time>2023-01-25T13:56:44.113Z</time>
</trkpt>
<trkpt lat="31.7498000" lon="35.0861700">
<ele>432.619995</ele>
<time>2023-01-25T13:56:44.113Z</time>
</trkpt>
<trkpt lat="31.7498600" lon="35.0860800">
<ele>432.990021</ele>
<time>2023-01-25T13:56:44.113Z</time>
</trkpt>
<trkpt lat="31.7499600" lon="35.0859900">
<ele>433.399994</ele>
<time>2023-01-25T13:56:44.113Z</time>
</trkpt>
<trkpt lat="31.7500700" lon="35.0859300">
<ele>433.030029</ele>
<time>2023-01-25T13:56:44.113Z</time>
</trkpt>
<trkpt lat="31.7501700" lon="35.0858500">
<ele>431.409973</ele>
<time>2023-01-25T13:56:44.113Z</time>
</trkpt>
<trkpt lat="31.7502400" lon="35.0857800">
<ele>429.739990</ele>
<time>2023-01-25T13:56:44.113Z</time>
</trkpt>
<trkpt lat="31.7503200" lon="35.0857000">
<ele>428.289978</ele>
<time>2023-01-25T13:56:44.113Z</time>
</trkpt>
<trkpt lat="31.7504000" lon="35.0856400">
<ele>428.309998</ele>
<time>2023-01-25T13:56:44.113Z</time>
</trkpt>
<trkpt lat="31.7504900" lon="35.0855800">
<ele>429.070007</ele>
<time>2023-01-25T13:56:44.113Z</time>
</trkpt>
<trkpt lat="31.7506000" lon="35.0855300">
<ele>429.350006</ele>
<time>2023-01-25T13:56:44.113Z</time>
</trkpt>
<trkpt lat="31.7507300" lon="35.0855300">
<ele>428.000000</ele>
<time>2023-01-25T13:56:44.113Z</time>
</trkpt>
<trkpt lat="31.7508600" lon="35.0855500">
<ele>427.609985</ele>
<time>2023-01-25T13:56:44.113Z</time>
</trkpt>
<trkpt lat="31.7509900" lon="35.0855700">
<ele>434.799988</ele>
<time>2023-01-25T13:56:44.113Z</time>
</trkpt>
<trkpt lat="31.7511000" lon="35.0856000">
<ele>440.929993</ele>
<time>2023-01-25T13:56:44.113Z</time>
</trkpt>
<trkpt lat="31.7511900" lon="35.0856100">
<ele>441.070007</ele>
<time>2023-01-25T13:56:44.113Z</time>
</trkpt>
<trkpt lat="31.7513100" lon="35.0856300">
<ele>440.809998</ele>
<time>2023-01-25T13:56:44.114Z</time>
</trkpt>
<trkpt lat="31.7514200" lon="35.0856400">
<ele>440.929993</ele>
<time>2023-01-25T13:56:44.114Z</time>
</trkpt>
<trkpt lat="31.7515400" lon="35.0856500">
<ele>441.959991</ele>
<time>2023-01-25T13:56:44.114Z</time>
</trkpt>
<trkpt lat="31.7516700" lon="35.0856600">
<ele>442.940002</ele>
<time>2023-01-25T13:56:44.114Z</time>
</trkpt>
<trkpt lat="31.7517900" lon="35.0856600">
<ele>440.619995</ele>
<time>2023-01-25T13:56:44.114Z</time>
</trkpt>
<trkpt lat="31.7518900" lon="35.0856600">
<ele>438.689972</ele>
<time>2023-01-25T13:56:44.114Z</time>
</trkpt>
<trkpt lat="31.7520100" lon="35.0856400">
<ele>436.700012</ele>
<time>2023-01-25T13:56:44.114Z</time>
</trkpt>
<trkpt lat="31.7521500" lon="35.0856200">
<ele>435.589996</ele>
<time>2023-01-25T13:56:44.114Z</time>
</trkpt>
<trkpt lat="31.7522900" lon="35.0856100">
<ele>434.029999</ele>
<time>2023-01-25T13:56:44.114Z</time>
</trkpt>
<trkpt lat="31.7524200" lon="35.0856100">
<ele>431.790009</ele>
<time>2023-01-25T13:56:44.114Z</time>
</trkpt>
<trkpt lat="31.7525500" lon="35.0856100">
<ele>430.479980</ele>
<time>2023-01-25T13:56:44.114Z</time>
</trkpt>
<trkpt lat="31.7526800" lon="35.0856100">
<ele>430.670013</ele>
<time>2023-01-25T13:56:44.114Z</time>
</trkpt>
<trkpt lat="31.7528000" lon="35.0856100">
<ele>430.920013</ele>
<time>2023-01-25T13:56:44.114Z</time>
</trkpt>
<trkpt lat="31.7529200" lon="35.0856200">
<ele>431.440002</ele>
<time>2023-01-25T13:56:44.114Z</time>
</trkpt>
<trkpt lat="31.7530400" lon="35.0856500">
<ele>431.589996</ele>
<time>2023-01-25T13:56:44.114Z</time>
</trkpt>
<trkpt lat="31.7531500" lon="35.0856900">
<ele>431.060028</ele>
<time>2023-01-25T13:56:44.114Z</time>
</trkpt>
<trkpt lat="31.7532500" lon="35.0857500">
<ele>430.200012</ele>
<time>2023-01-25T13:56:44.114Z</time>
</trkpt>
<trkpt lat="31.7533400" lon="35.0858300">
<ele>429.029999</ele>
<time>2023-01-25T13:56:44.114Z</time>
</trkpt>
<trkpt lat="31.7534100" lon="35.0859300">
<ele>428.339996</ele>
<time>2023-01-25T13:56:44.114Z</time>
</trkpt>
<trkpt lat="31.7534700" lon="35.0860400">
<ele>427.040009</ele>
<time>2023-01-25T13:56:44.114Z</time>
</trkpt>
<trkpt lat="31.7535300" lon="35.0861600">
<ele>425.790009</ele>
<time>2023-01-25T13:56:44.114Z</time>
</trkpt>
<trkpt lat="31.7535600" lon="35.0862800">
<ele>425.859985</ele>
<time>2023-01-25T13:56:44.114Z</time>
</trkpt>
<trkpt lat="31.7535800" lon="35.0863900">
<ele>425.899994</ele>
<time>2023-01-25T13:56:44.114Z</time>
</trkpt>
<trkpt lat="31.7536100" lon="35.0865400">
<ele>426.119995</ele>
<time>2023-01-25T13:56:44.114Z</time>
</trkpt>
<trkpt lat="31.7536500" lon="35.0866900">
<ele>426.720001</ele>
<time>2023-01-25T13:56:44.114Z</time>
</trkpt>
<trkpt lat="31.7536800" lon="35.0867900">
<ele>426.919983</ele>
<time>2023-01-25T13:56:44.114Z</time>
</trkpt>
<trkpt lat="31.7537100" lon="35.0869000">
<ele>427.009979</ele>
<time>2023-01-25T13:56:44.114Z</time>
</trkpt>
<trkpt lat="31.7537300" lon="35.0870000">
<ele>426.889984</ele>
<time>2023-01-25T13:56:44.114Z</time>
</trkpt>
<trkpt lat="31.7537700" lon="35.0871500">
<ele>426.029999</ele>
<time>2023-01-25T13:56:44.114Z</time>
</trkpt>
<trkpt lat="31.7537800" lon="35.0873100">
<ele>426.119995</ele>
<time>2023-01-25T13:56:44.114Z</time>
</trkpt>
<trkpt lat="31.7538000" lon="35.0874200">
<ele>425.920013</ele>
<time>2023-01-25T13:56:44.115Z</time>
</trkpt>
<trkpt lat="31.7538100" lon="35.0875300">
<ele>426.059998</ele>
<time>2023-01-25T13:56:44.115Z</time>
</trkpt>
<trkpt lat="31.7538300" lon="35.0876600">
<ele>426.270020</ele>
<time>2023-01-25T13:56:44.115Z</time>
</trkpt>
<trkpt lat="31.7538700" lon="35.0877900">
<ele>425.690002</ele>
<time>2023-01-25T13:56:44.115Z</time>
</trkpt>
<trkpt lat="31.7539100" lon="35.0879100">
<ele>424.890015</ele>
<time>2023-01-25T13:56:44.115Z</time>
</trkpt>
<trkpt lat="31.7539600" lon="35.0880400">
<ele>424.500000</ele>
<time>2023-01-25T13:56:44.115Z</time>
</trkpt>
<trkpt lat="31.7540100" lon="35.0881600">
<ele>425.470001</ele>
<time>2023-01-25T13:56:44.115Z</time>
</trkpt>
<trkpt lat="31.7540800" lon="35.0882700">
<ele>426.180023</ele>
<time>2023-01-25T13:56:44.115Z</time>
</trkpt>
<trkpt lat="31.7541600" lon="35.0883600">
<ele>427.059998</ele>
<time>2023-01-25T13:56:44.115Z</time>
</trkpt>
<trkpt lat="31.7542300" lon="35.0884600">
<ele>430.039978</ele>
<time>2023-01-25T13:56:44.115Z</time>
</trkpt>
<trkpt lat="31.7543000" lon="35.0885400">
<ele>431.649994</ele>
<time>2023-01-25T13:56:44.115Z</time>
</trkpt>
<trkpt lat="31.7543800" lon="35.0886100">
<ele>432.139984</ele>
<time>2023-01-25T13:56:44.115Z</time>
</trkpt>
<trkpt lat="31.7544600" lon="35.0886700">
<ele>435.489990</ele>
<time>2023-01-25T13:56:44.115Z</time>
</trkpt>
<trkpt lat="31.7545700" lon="35.0887500">
<ele>435.989990</ele>
<time>2023-01-25T13:56:44.115Z</time>
</trkpt>
<trkpt lat="31.7546600" lon="35.0888100">
<ele>433.309998</ele>
<time>2023-01-25T13:56:44.115Z</time>
</trkpt>
<trkpt lat="31.7547600" lon="35.0888600">
<ele>429.529999</ele>
<time>2023-01-25T13:56:44.115Z</time>
</trkpt>
<trkpt lat="31.7548600" lon="35.0889000">
<ele>428.570007</ele>
<time>2023-01-25T13:56:44.115Z</time>
</trkpt>
<trkpt lat="31.7549600" lon="35.0889500">
<ele>428.130005</ele>
<time>2023-01-25T13:56:44.115Z</time>
</trkpt>
<trkpt lat="31.7550700" lon="35.0889900">
<ele>428.529999</ele>
<time>2023-01-25T13:56:44.115Z</time>
</trkpt>
<trkpt lat="31.7551700" lon="35.0890300">
<ele>429.209991</ele>
<time>2023-01-25T13:56:44.115Z</time>
</trkpt>
<trkpt lat="31.7552500" lon="35.0890700">
<ele>428.910004</ele>
<time>2023-01-25T13:56:44.115Z</time>
</trkpt>
<trkpt lat="31.7553700" lon="35.0890800">
<ele>428.150024</ele>
<time>2023-01-25T13:56:44.115Z</time>
</trkpt>
<trkpt lat="31.7554900" lon="35.0890500">
<ele>428.150024</ele>
<time>2023-01-25T13:56:44.115Z</time>
</trkpt>
<trkpt lat="31.7556100" lon="35.0890200">
<ele>428.570007</ele>
<time>2023-01-25T13:56:44.115Z</time>
</trkpt>
<trkpt lat="31.7557100" lon="35.0890200">
<ele>428.339996</ele>
<time>2023-01-25T13:56:44.115Z</time>
</trkpt>
<trkpt lat="31.7558100" lon="35.0890500">
<ele>427.850006</ele>
<time>2023-01-25T13:56:44.115Z</time>
</trkpt>
<trkpt lat="31.7558900" lon="35.0891200">
<ele>427.540009</ele>
<time>2023-01-25T13:56:44.115Z</time>
</trkpt>
<trkpt lat="31.7559600" lon="35.0891900">
<ele>427.670013</ele>
<time>2023-01-25T13:56:44.115Z</time>
</trkpt>
<trkpt lat="31.7560300" lon="35.0892600">
<ele>428.480011</ele>
<time>2023-01-25T13:56:44.115Z</time>
</trkpt>
<trkpt lat="31.7561300" lon="35.0893600">
<ele>428.799988</ele>
<time>2023-01-25T13:56:44.115Z</time>
</trkpt>
<trkpt lat="31.7562400" lon="35.0894500">
<ele>425.910004</ele>
<time>2023-01-25T13:56:44.115Z</time>
</trkpt>
<trkpt lat="31.7563300" lon="35.0895300">
<ele>424.739990</ele>
<time>2023-01-25T13:56:44.116Z</time>
</trkpt>
<trkpt lat="31.7564400" lon="35.0895900">
<ele>422.719971</ele>
<time>2023-01-25T13:56:44.116Z</time>
</trkpt>
<trkpt lat="31.7565700" lon="35.0896400">
<ele>418.679993</ele>
<time>2023-01-25T13:56:44.116Z</time>
</trkpt>
<trkpt lat="31.7566600" lon="35.0896600">
<ele>415.380005</ele>
<time>2023-01-25T13:56:44.116Z</time>
</trkpt>
<trkpt lat="31.7567600" lon="35.0896700">
<ele>414.299988</ele>
<time>2023-01-25T13:56:44.116Z</time>
</trkpt>
<trkpt lat="31.7568700" lon="35.0896700">
<ele>413.190002</ele>
<time>2023-01-25T13:56:44.116Z</time>
</trkpt>
<trkpt lat="31.7569900" lon="35.0896600">
<ele>412.860016</ele>
<time>2023-01-25T13:56:44.116Z</time>
</trkpt>
<trkpt lat="31.7571100" lon="35.0896400">
<ele>414.079987</ele>
<time>2023-01-25T13:56:44.116Z</time>
</trkpt>
<trkpt lat="31.7572400" lon="35.0895800">
<ele>414.750000</ele>
<time>2023-01-25T13:56:44.116Z</time>
</trkpt>
<trkpt lat="31.7573600" lon="35.0895100">
<ele>412.610016</ele>
<time>2023-01-25T13:56:44.116Z</time>
</trkpt>
<trkpt lat="31.7574700" lon="35.0894300">
<ele>410.389984</ele>
<time>2023-01-25T13:56:44.116Z</time>
</trkpt>
<trkpt lat="31.7575600" lon="35.0893500">
<ele>409.660004</ele>
<time>2023-01-25T13:56:44.116Z</time>
</trkpt>
<trkpt lat="31.7576400" lon="35.0892700">
<ele>409.369995</ele>
<time>2023-01-25T13:56:44.116Z</time>
</trkpt>
<trkpt lat="31.7577100" lon="35.0891900">
<ele>409.079987</ele>
<time>2023-01-25T13:56:44.116Z</time>
</trkpt>
<trkpt lat="31.7577800" lon="35.0891200">
<ele>409.170013</ele>
<time>2023-01-25T13:56:44.116Z</time>
</trkpt>
<trkpt lat="31.7578400" lon="35.0891100">
<ele>409.339996</ele>
<time>2023-01-25T13:56:44.116Z</time>
</trkpt>
<trkpt lat="31.7578400" lon="35.0891000">
<ele>409.360016</ele>
<time>2023-01-25T13:56:44.116Z</time>
</trkpt>
<trkpt lat="31.7578400" lon="35.0891000">
<ele>409.360016</ele>
<time>2023-01-25T13:56:44.116Z</time>
</trkpt>
<trkpt lat="31.7578400" lon="35.0891000">
<ele>409.360016</ele>
<time>2023-01-25T13:56:44.116Z</time>
</trkpt>
<trkpt lat="31.7578400" lon="35.0891000">
<ele>409.360016</ele>
<time>2023-01-25T13:56:44.116Z</time>
</trkpt>
<trkpt lat="31.7578400" lon="35.0891000">
<ele>409.360016</ele>
<time>2023-01-25T13:56:44.116Z</time>
</trkpt>
<trkpt lat="31.7579200" lon="35.0890300">
<ele>409.500000</ele>
<time>2023-01-25T13:56:44.116Z</time>
</trkpt>
<trkpt lat="31.7579900" lon="35.0889400">
<ele>409.329987</ele>
<time>2023-01-25T13:56:44.116Z</time>
</trkpt>
<trkpt lat="31.7580300" lon="35.0888400">
<ele>409.109985</ele>
<time>2023-01-25T13:56:44.116Z</time>
</trkpt>
<trkpt lat="31.7581300" lon="35.0888300">
<ele>409.209991</ele>
<time>2023-01-25T13:56:44.116Z</time>
</trkpt>
<trkpt lat="31.7581700" lon="35.0887100">
<ele>409.149994</ele>
<time>2023-01-25T13:56:44.116Z</time>
</trkpt>
<trkpt lat="31.7582000" lon="35.0886100">
<ele>409.010010</ele>
<time>2023-01-25T13:56:44.116Z</time>
</trkpt>
<trkpt lat="31.7582300" lon="35.0885700">
<ele>409.350006</ele>
<time>2023-01-25T13:56:44.116Z</time>
</trkpt>
<trkpt lat="31.7582300" lon="35.0885700">
<ele>409.350006</ele>
<time>2023-01-25T13:56:44.116Z</time>
</trkpt>
<trkpt lat="31.7583200" lon="35.0885800">
<ele>409.230011</ele>
<time>2023-01-25T13:56:44.116Z</time>
</trkpt>
<trkpt lat="31.7584100" lon="35.0886100">
<ele>410.380005</ele>
<time>2023-01-25T13:56:44.117Z</time>
</trkpt>
<trkpt lat="31.7585000" lon="35.0886600">
<ele>411.960022</ele>
<time>2023-01-25T13:56:44.117Z</time>
</trkpt>
<trkpt lat="31.7585900" lon="35.0886800">
<ele>413.410004</ele>
<time>2023-01-25T13:56:44.117Z</time>
</trkpt>
<trkpt lat="31.7585500" lon="35.0887900">
<ele>412.539978</ele>
<time>2023-01-25T13:56:44.117Z</time>
</trkpt>
<trkpt lat="31.7584900" lon="35.0889000">
<ele>411.800018</ele>
<time>2023-01-25T13:56:44.117Z</time>
</trkpt>
<trkpt lat="31.7584300" lon="35.0890000">
<ele>411.859985</ele>
<time>2023-01-25T13:56:44.117Z</time>
</trkpt>
<trkpt lat="31.7583700" lon="35.0891100">
<ele>411.509979</ele>
<time>2023-01-25T13:56:44.117Z</time>
</trkpt>
<trkpt lat="31.7583300" lon="35.0892300">
<ele>411.889984</ele>
<time>2023-01-25T13:56:44.117Z</time>
</trkpt>
<trkpt lat="31.7583000" lon="35.0893300">
<ele>413.019989</ele>
<time>2023-01-25T13:56:44.117Z</time>
</trkpt>
<trkpt lat="31.7583000" lon="35.0894500">
<ele>414.540009</ele>
<time>2023-01-25T13:56:44.117Z</time>
</trkpt>
<trkpt lat="31.7583100" lon="35.0895200">
<ele>414.960022</ele>
<time>2023-01-25T13:56:44.117Z</time>
</trkpt>
<trkpt lat="31.7583100" lon="35.0895200">
<ele>414.960022</ele>
<time>2023-01-25T13:56:44.117Z</time>
</trkpt>
<trkpt lat="31.7583100" lon="35.0895200">
<ele>414.960022</ele>
<time>2023-01-25T13:56:44.117Z</time>
</trkpt>
</trkseg>
</trk>
</gpx>
